<?xml version="1.0" encoding="UTF-8" standalone="no" ?>
<gpx xmlns="http://www.topografix.com/GPX/1/1" xmlns:xsi="http://www.w3.org/2001/XMLSchema-instance" xsi:schemaLocation="http://www.topografix.com/GPX/1/1 http://www.topografix.com/GPX/1/1/gpx.xsd" version="1.1" creator="VisuGPX - https://www.visugpx.com">
  <metadata>
    <name>M.N. Ensuès route des calanques </name>
    <desc><![CDATA[Petite boucle écourtée pour un problème de clé perdue....]]></desc>
  </metadata>
  <trk>
    <name><![CDATA[M.N. Ensuès route des calanques _1]]></name>
    <trkseg>
      <trkpt lat="43.33851" lon="5.19843">
        <ele>117</ele>
        <time>2016-05-12T12:00:35Z</time>
      </trkpt>
      <trkpt lat="43.33878" lon="5.19847">
        <ele>120</ele>
        <time>2016-05-12T12:01:00Z</time>
      </trkpt>
      <trkpt lat="43.3388" lon="5.19848">
        <ele>120</ele>
        <time>2016-05-12T12:01:02Z</time>
      </trkpt>
      <trkpt lat="43.33882" lon="5.19849">
        <ele>120</ele>
        <time>2016-05-12T12:01:04Z</time>
      </trkpt>
      <trkpt lat="43.33884" lon="5.1985">
        <ele>120</ele>
        <time>2016-05-12T12:01:06Z</time>
      </trkpt>
      <trkpt lat="43.33886" lon="5.1985">
        <ele>120</ele>
        <time>2016-05-12T12:01:08Z</time>
      </trkpt>
      <trkpt lat="43.33889" lon="5.1985">
        <ele>120</ele>
        <time>2016-05-12T12:01:10Z</time>
      </trkpt>
      <trkpt lat="43.33891" lon="5.19851">
        <ele>120</ele>
        <time>2016-05-12T12:01:12Z</time>
      </trkpt>
      <trkpt lat="43.33892" lon="5.19852">
        <ele>120</ele>
        <time>2016-05-12T12:01:13Z</time>
      </trkpt>
      <trkpt lat="43.33894" lon="5.19852">
        <ele>120</ele>
        <time>2016-05-12T12:01:14Z</time>
      </trkpt>
      <trkpt lat="43.33895" lon="5.19853">
        <ele>120</ele>
        <time>2016-05-12T12:01:15Z</time>
      </trkpt>
      <trkpt lat="43.33896" lon="5.19853">
        <ele>120</ele>
        <time>2016-05-12T12:01:16Z</time>
      </trkpt>
      <trkpt lat="43.33898" lon="5.19855">
        <ele>120</ele>
        <time>2016-05-12T12:01:18Z</time>
      </trkpt>
      <trkpt lat="43.339" lon="5.19857">
        <ele>120</ele>
        <time>2016-05-12T12:01:20Z</time>
      </trkpt>
      <trkpt lat="43.33902" lon="5.19859">
        <ele>120</ele>
        <time>2016-05-12T12:01:22Z</time>
      </trkpt>
      <trkpt lat="43.33903" lon="5.19861">
        <ele>119</ele>
        <time>2016-05-12T12:01:24Z</time>
      </trkpt>
      <trkpt lat="43.33905" lon="5.19863">
        <ele>119</ele>
        <time>2016-05-12T12:01:26Z</time>
      </trkpt>
      <trkpt lat="43.33907" lon="5.19864">
        <ele>118</ele>
        <time>2016-05-12T12:01:27Z</time>
      </trkpt>
      <trkpt lat="43.33908" lon="5.19866">
        <ele>118</ele>
        <time>2016-05-12T12:01:29Z</time>
      </trkpt>
      <trkpt lat="43.33909" lon="5.19867">
        <ele>118</ele>
        <time>2016-05-12T12:01:30Z</time>
      </trkpt>
      <trkpt lat="43.33911" lon="5.19867">
        <ele>118</ele>
        <time>2016-05-12T12:01:31Z</time>
      </trkpt>
      <trkpt lat="43.33913" lon="5.19869">
        <ele>118</ele>
        <time>2016-05-12T12:01:33Z</time>
      </trkpt>
      <trkpt lat="43.33914" lon="5.19871">
        <ele>118</ele>
        <time>2016-05-12T12:01:35Z</time>
      </trkpt>
      <trkpt lat="43.33915" lon="5.19872">
        <ele>118</ele>
        <time>2016-05-12T12:01:37Z</time>
      </trkpt>
      <trkpt lat="43.33916" lon="5.19874">
        <ele>117</ele>
        <time>2016-05-12T12:01:39Z</time>
      </trkpt>
      <trkpt lat="43.33919" lon="5.19875">
        <ele>116</ele>
        <time>2016-05-12T12:01:41Z</time>
      </trkpt>
      <trkpt lat="43.3392" lon="5.19875">
        <ele>116</ele>
        <time>2016-05-12T12:01:42Z</time>
      </trkpt>
      <trkpt lat="43.33921" lon="5.19876">
        <ele>116</ele>
        <time>2016-05-12T12:01:43Z</time>
      </trkpt>
      <trkpt lat="43.33923" lon="5.19878">
        <ele>116</ele>
        <time>2016-05-12T12:01:45Z</time>
      </trkpt>
      <trkpt lat="43.33924" lon="5.19878">
        <ele>116</ele>
        <time>2016-05-12T12:01:46Z</time>
      </trkpt>
      <trkpt lat="43.33926" lon="5.1988">
        <ele>116</ele>
        <time>2016-05-12T12:01:48Z</time>
      </trkpt>
      <trkpt lat="43.33926" lon="5.19882">
        <ele>116</ele>
        <time>2016-05-12T12:01:50Z</time>
      </trkpt>
      <trkpt lat="43.33926" lon="5.19884">
        <ele>116</ele>
        <time>2016-05-12T12:01:52Z</time>
      </trkpt>
      <trkpt lat="43.33928" lon="5.19885">
        <ele>115</ele>
        <time>2016-05-12T12:01:55Z</time>
      </trkpt>
      <trkpt lat="43.3393" lon="5.19884">
        <ele>115</ele>
        <time>2016-05-12T12:01:57Z</time>
      </trkpt>
      <trkpt lat="43.33931" lon="5.19884">
        <ele>115</ele>
        <time>2016-05-12T12:02:00Z</time>
      </trkpt>
      <trkpt lat="43.33933" lon="5.19883">
        <ele>115</ele>
        <time>2016-05-12T12:02:02Z</time>
      </trkpt>
      <trkpt lat="43.33931" lon="5.19884">
        <ele>115</ele>
        <time>2016-05-12T12:02:08Z</time>
      </trkpt>
      <trkpt lat="43.33929" lon="5.19885">
        <ele>115</ele>
        <time>2016-05-12T12:02:13Z</time>
      </trkpt>
      <trkpt lat="43.33931" lon="5.19885">
        <ele>115</ele>
        <time>2016-05-12T12:02:20Z</time>
      </trkpt>
      <trkpt lat="43.33933" lon="5.19884">
        <ele>115</ele>
        <time>2016-05-12T12:02:28Z</time>
      </trkpt>
      <trkpt lat="43.33931" lon="5.19884">
        <ele>115</ele>
        <time>2016-05-12T12:03:02Z</time>
      </trkpt>
      <trkpt lat="43.3393" lon="5.19885">
        <ele>115</ele>
        <time>2016-05-12T12:03:09Z</time>
      </trkpt>
      <trkpt lat="43.33929" lon="5.19886">
        <ele>115</ele>
        <time>2016-05-12T12:03:19Z</time>
      </trkpt>
      <trkpt lat="43.33928" lon="5.19888">
        <ele>115</ele>
        <time>2016-05-12T12:03:37Z</time>
      </trkpt>
      <trkpt lat="43.33929" lon="5.19887">
        <ele>115</ele>
        <time>2016-05-12T12:04:23Z</time>
      </trkpt>
      <trkpt lat="43.33931" lon="5.19886">
        <ele>115</ele>
        <time>2016-05-12T12:04:44Z</time>
      </trkpt>
      <trkpt lat="43.33931" lon="5.19885">
        <ele>114</ele>
        <time>2016-05-12T12:05:00Z</time>
      </trkpt>
      <trkpt lat="43.33933" lon="5.19884">
        <ele>114</ele>
        <time>2016-05-12T12:05:02Z</time>
      </trkpt>
      <trkpt lat="43.33931" lon="5.19882">
        <ele>112</ele>
        <time>2016-05-12T12:05:13Z</time>
      </trkpt>
      <trkpt lat="43.3393" lon="5.19883">
        <ele>111</ele>
        <time>2016-05-12T12:05:14Z</time>
      </trkpt>
      <trkpt lat="43.33929" lon="5.19884">
        <ele>111</ele>
        <time>2016-05-12T12:05:16Z</time>
      </trkpt>
      <trkpt lat="43.33928" lon="5.19885">
        <ele>111</ele>
        <time>2016-05-12T12:05:18Z</time>
      </trkpt>
      <trkpt lat="43.33927" lon="5.19883">
        <ele>110</ele>
        <time>2016-05-12T12:05:22Z</time>
      </trkpt>
      <trkpt lat="43.33927" lon="5.19881">
        <ele>110</ele>
        <time>2016-05-12T12:05:27Z</time>
      </trkpt>
      <trkpt lat="43.33926" lon="5.19882">
        <ele>110</ele>
        <time>2016-05-12T12:05:36Z</time>
      </trkpt>
      <trkpt lat="43.33928" lon="5.1988">
        <ele>110</ele>
        <time>2016-05-12T12:05:41Z</time>
      </trkpt>
      <trkpt lat="43.33929" lon="5.19879">
        <ele>110</ele>
        <time>2016-05-12T12:05:43Z</time>
      </trkpt>
      <trkpt lat="43.33929" lon="5.19881">
        <ele>110</ele>
        <time>2016-05-12T12:05:54Z</time>
      </trkpt>
      <trkpt lat="43.33931" lon="5.19881">
        <ele>110</ele>
        <time>2016-05-12T12:06:04Z</time>
      </trkpt>
      <trkpt lat="43.3393" lon="5.19882">
        <ele>110</ele>
        <time>2016-05-12T12:06:07Z</time>
      </trkpt>
      <trkpt lat="43.33929" lon="5.19884">
        <ele>110</ele>
        <time>2016-05-12T12:06:20Z</time>
      </trkpt>
      <trkpt lat="43.33928" lon="5.19885">
        <ele>110</ele>
        <time>2016-05-12T12:06:27Z</time>
      </trkpt>
      <trkpt lat="43.33927" lon="5.19886">
        <ele>110</ele>
        <time>2016-05-12T12:06:30Z</time>
      </trkpt>
      <trkpt lat="43.33926" lon="5.19887">
        <ele>110</ele>
        <time>2016-05-12T12:06:48Z</time>
      </trkpt>
      <trkpt lat="43.33929" lon="5.19889">
        <ele>110</ele>
        <time>2016-05-12T12:06:50Z</time>
      </trkpt>
      <trkpt lat="43.33928" lon="5.19892">
        <ele>110</ele>
        <time>2016-05-12T12:06:52Z</time>
      </trkpt>
      <trkpt lat="43.33928" lon="5.19894">
        <ele>110</ele>
        <time>2016-05-12T12:06:54Z</time>
      </trkpt>
      <trkpt lat="43.33928" lon="5.19896">
        <ele>110</ele>
        <time>2016-05-12T12:06:56Z</time>
      </trkpt>
      <trkpt lat="43.33929" lon="5.19898">
        <ele>110</ele>
        <time>2016-05-12T12:06:59Z</time>
      </trkpt>
      <trkpt lat="43.33928" lon="5.19901">
        <ele>110</ele>
        <time>2016-05-12T12:07:01Z</time>
      </trkpt>
      <trkpt lat="43.33927" lon="5.19902">
        <ele>110</ele>
        <time>2016-05-12T12:07:02Z</time>
      </trkpt>
      <trkpt lat="43.33926" lon="5.19904">
        <ele>110</ele>
        <time>2016-05-12T12:07:03Z</time>
      </trkpt>
      <trkpt lat="43.33926" lon="5.19905">
        <ele>110</ele>
        <time>2016-05-12T12:07:04Z</time>
      </trkpt>
      <trkpt lat="43.33925" lon="5.19907">
        <ele>110</ele>
        <time>2016-05-12T12:07:05Z</time>
      </trkpt>
      <trkpt lat="43.33924" lon="5.19909">
        <ele>110</ele>
        <time>2016-05-12T12:07:07Z</time>
      </trkpt>
      <trkpt lat="43.33925" lon="5.19912">
        <ele>110</ele>
        <time>2016-05-12T12:07:09Z</time>
      </trkpt>
      <trkpt lat="43.33924" lon="5.19914">
        <ele>110</ele>
        <time>2016-05-12T12:07:10Z</time>
      </trkpt>
      <trkpt lat="43.33924" lon="5.19916">
        <ele>110</ele>
        <time>2016-05-12T12:07:11Z</time>
      </trkpt>
      <trkpt lat="43.33924" lon="5.19918">
        <ele>110</ele>
        <time>2016-05-12T12:07:12Z</time>
      </trkpt>
      <trkpt lat="43.33924" lon="5.19919">
        <ele>110</ele>
        <time>2016-05-12T12:07:13Z</time>
      </trkpt>
      <trkpt lat="43.33924" lon="5.19921">
        <ele>110</ele>
        <time>2016-05-12T12:07:14Z</time>
      </trkpt>
      <trkpt lat="43.33924" lon="5.19923">
        <ele>110</ele>
        <time>2016-05-12T12:07:15Z</time>
      </trkpt>
      <trkpt lat="43.33924" lon="5.19924">
        <ele>110</ele>
        <time>2016-05-12T12:07:16Z</time>
      </trkpt>
      <trkpt lat="43.33923" lon="5.19926">
        <ele>110</ele>
        <time>2016-05-12T12:07:17Z</time>
      </trkpt>
      <trkpt lat="43.33923" lon="5.19928">
        <ele>110</ele>
        <time>2016-05-12T12:07:18Z</time>
      </trkpt>
      <trkpt lat="43.33923" lon="5.19929">
        <ele>110</ele>
        <time>2016-05-12T12:07:19Z</time>
      </trkpt>
      <trkpt lat="43.33923" lon="5.19931">
        <ele>110</ele>
        <time>2016-05-12T12:07:20Z</time>
      </trkpt>
      <trkpt lat="43.33922" lon="5.19933">
        <ele>110</ele>
        <time>2016-05-12T12:07:21Z</time>
      </trkpt>
      <trkpt lat="43.33922" lon="5.19935">
        <ele>110</ele>
        <time>2016-05-12T12:07:22Z</time>
      </trkpt>
      <trkpt lat="43.33921" lon="5.19936">
        <ele>110</ele>
        <time>2016-05-12T12:07:23Z</time>
      </trkpt>
      <trkpt lat="43.33921" lon="5.19939">
        <ele>110</ele>
        <time>2016-05-12T12:07:25Z</time>
      </trkpt>
      <trkpt lat="43.33921" lon="5.19941">
        <ele>110</ele>
        <time>2016-05-12T12:07:26Z</time>
      </trkpt>
      <trkpt lat="43.33921" lon="5.19942">
        <ele>110</ele>
        <time>2016-05-12T12:07:27Z</time>
      </trkpt>
      <trkpt lat="43.3392" lon="5.19944">
        <ele>109</ele>
        <time>2016-05-12T12:07:28Z</time>
      </trkpt>
      <trkpt lat="43.3392" lon="5.19946">
        <ele>109</ele>
        <time>2016-05-12T12:07:29Z</time>
      </trkpt>
      <trkpt lat="43.3392" lon="5.19948">
        <ele>109</ele>
        <time>2016-05-12T12:07:30Z</time>
      </trkpt>
      <trkpt lat="43.33919" lon="5.19949">
        <ele>109</ele>
        <time>2016-05-12T12:07:31Z</time>
      </trkpt>
      <trkpt lat="43.33919" lon="5.19951">
        <ele>108</ele>
        <time>2016-05-12T12:07:32Z</time>
      </trkpt>
      <trkpt lat="43.33918" lon="5.19953">
        <ele>108</ele>
        <time>2016-05-12T12:07:33Z</time>
      </trkpt>
      <trkpt lat="43.33918" lon="5.19954">
        <ele>108</ele>
        <time>2016-05-12T12:07:34Z</time>
      </trkpt>
      <trkpt lat="43.33917" lon="5.19956">
        <ele>108</ele>
        <time>2016-05-12T12:07:35Z</time>
      </trkpt>
      <trkpt lat="43.33917" lon="5.19957">
        <ele>108</ele>
        <time>2016-05-12T12:07:36Z</time>
      </trkpt>
      <trkpt lat="43.33917" lon="5.19959">
        <ele>108</ele>
        <time>2016-05-12T12:07:37Z</time>
      </trkpt>
      <trkpt lat="43.33917" lon="5.19961">
        <ele>107</ele>
        <time>2016-05-12T12:07:38Z</time>
      </trkpt>
      <trkpt lat="43.33916" lon="5.19964">
        <ele>107</ele>
        <time>2016-05-12T12:07:40Z</time>
      </trkpt>
      <trkpt lat="43.33916" lon="5.19965">
        <ele>107</ele>
        <time>2016-05-12T12:07:41Z</time>
      </trkpt>
      <trkpt lat="43.33915" lon="5.19967">
        <ele>106</ele>
        <time>2016-05-12T12:07:42Z</time>
      </trkpt>
      <trkpt lat="43.33915" lon="5.19969">
        <ele>106</ele>
        <time>2016-05-12T12:07:43Z</time>
      </trkpt>
      <trkpt lat="43.33915" lon="5.1997">
        <ele>106</ele>
        <time>2016-05-12T12:07:44Z</time>
      </trkpt>
      <trkpt lat="43.33914" lon="5.19972">
        <ele>106</ele>
        <time>2016-05-12T12:07:45Z</time>
      </trkpt>
      <trkpt lat="43.33914" lon="5.19974">
        <ele>106</ele>
        <time>2016-05-12T12:07:46Z</time>
      </trkpt>
      <trkpt lat="43.33913" lon="5.19976">
        <ele>106</ele>
        <time>2016-05-12T12:07:47Z</time>
      </trkpt>
      <trkpt lat="43.33913" lon="5.19977">
        <ele>106</ele>
        <time>2016-05-12T12:07:48Z</time>
      </trkpt>
      <trkpt lat="43.33913" lon="5.19979">
        <ele>105</ele>
        <time>2016-05-12T12:07:49Z</time>
      </trkpt>
      <trkpt lat="43.33913" lon="5.1998">
        <ele>105</ele>
        <time>2016-05-12T12:07:50Z</time>
      </trkpt>
      <trkpt lat="43.33912" lon="5.19982">
        <ele>105</ele>
        <time>2016-05-12T12:07:51Z</time>
      </trkpt>
      <trkpt lat="43.33912" lon="5.19984">
        <ele>105</ele>
        <time>2016-05-12T12:07:52Z</time>
      </trkpt>
      <trkpt lat="43.33912" lon="5.19986">
        <ele>104</ele>
        <time>2016-05-12T12:07:53Z</time>
      </trkpt>
      <trkpt lat="43.33911" lon="5.19988">
        <ele>104</ele>
        <time>2016-05-12T12:07:54Z</time>
      </trkpt>
      <trkpt lat="43.33911" lon="5.19989">
        <ele>104</ele>
        <time>2016-05-12T12:07:55Z</time>
      </trkpt>
      <trkpt lat="43.3391" lon="5.19991">
        <ele>104</ele>
        <time>2016-05-12T12:07:56Z</time>
      </trkpt>
      <trkpt lat="43.3391" lon="5.19993">
        <ele>103</ele>
        <time>2016-05-12T12:07:57Z</time>
      </trkpt>
      <trkpt lat="43.33909" lon="5.19994">
        <ele>103</ele>
        <time>2016-05-12T12:07:58Z</time>
      </trkpt>
      <trkpt lat="43.33909" lon="5.19996">
        <ele>102</ele>
        <time>2016-05-12T12:07:59Z</time>
      </trkpt>
      <trkpt lat="43.33908" lon="5.19998">
        <ele>102</ele>
        <time>2016-05-12T12:08:00Z</time>
      </trkpt>
      <trkpt lat="43.33907" lon="5.19999">
        <ele>101</ele>
        <time>2016-05-12T12:08:01Z</time>
      </trkpt>
      <trkpt lat="43.33907" lon="5.20001">
        <ele>101</ele>
        <time>2016-05-12T12:08:02Z</time>
      </trkpt>
      <trkpt lat="43.33906" lon="5.20002">
        <ele>101</ele>
        <time>2016-05-12T12:08:03Z</time>
      </trkpt>
      <trkpt lat="43.33906" lon="5.20004">
        <ele>101</ele>
        <time>2016-05-12T12:08:04Z</time>
      </trkpt>
      <trkpt lat="43.33906" lon="5.20005">
        <ele>100</ele>
        <time>2016-05-12T12:08:05Z</time>
      </trkpt>
      <trkpt lat="43.33905" lon="5.20007">
        <ele>100</ele>
        <time>2016-05-12T12:08:06Z</time>
      </trkpt>
      <trkpt lat="43.33905" lon="5.20009">
        <ele>100</ele>
        <time>2016-05-12T12:08:07Z</time>
      </trkpt>
      <trkpt lat="43.33904" lon="5.2001">
        <ele>99</ele>
        <time>2016-05-12T12:08:08Z</time>
      </trkpt>
      <trkpt lat="43.33904" lon="5.20012">
        <ele>99</ele>
        <time>2016-05-12T12:08:09Z</time>
      </trkpt>
      <trkpt lat="43.33903" lon="5.20013">
        <ele>99</ele>
        <time>2016-05-12T12:08:10Z</time>
      </trkpt>
      <trkpt lat="43.33903" lon="5.20015">
        <ele>99</ele>
        <time>2016-05-12T12:08:11Z</time>
      </trkpt>
      <trkpt lat="43.33902" lon="5.20017">
        <ele>99</ele>
        <time>2016-05-12T12:08:12Z</time>
      </trkpt>
      <trkpt lat="43.33902" lon="5.20018">
        <ele>99</ele>
        <time>2016-05-12T12:08:13Z</time>
      </trkpt>
      <trkpt lat="43.33901" lon="5.2002">
        <ele>99</ele>
        <time>2016-05-12T12:08:14Z</time>
      </trkpt>
      <trkpt lat="43.339" lon="5.20023">
        <ele>98</ele>
        <time>2016-05-12T12:08:16Z</time>
      </trkpt>
      <trkpt lat="43.339" lon="5.20025">
        <ele>98</ele>
        <time>2016-05-12T12:08:17Z</time>
      </trkpt>
      <trkpt lat="43.33899" lon="5.20026">
        <ele>98</ele>
        <time>2016-05-12T12:08:18Z</time>
      </trkpt>
      <trkpt lat="43.33899" lon="5.20028">
        <ele>97</ele>
        <time>2016-05-12T12:08:19Z</time>
      </trkpt>
      <trkpt lat="43.33898" lon="5.20029">
        <ele>97</ele>
        <time>2016-05-12T12:08:20Z</time>
      </trkpt>
      <trkpt lat="43.33898" lon="5.20031">
        <ele>97</ele>
        <time>2016-05-12T12:08:21Z</time>
      </trkpt>
      <trkpt lat="43.33897" lon="5.20033">
        <ele>97</ele>
        <time>2016-05-12T12:08:22Z</time>
      </trkpt>
      <trkpt lat="43.33897" lon="5.20035">
        <ele>97</ele>
        <time>2016-05-12T12:08:23Z</time>
      </trkpt>
      <trkpt lat="43.33897" lon="5.20036">
        <ele>97</ele>
        <time>2016-05-12T12:08:24Z</time>
      </trkpt>
      <trkpt lat="43.33897" lon="5.20038">
        <ele>96</ele>
        <time>2016-05-12T12:08:25Z</time>
      </trkpt>
      <trkpt lat="43.33897" lon="5.2004">
        <ele>96</ele>
        <time>2016-05-12T12:08:26Z</time>
      </trkpt>
      <trkpt lat="43.33896" lon="5.20041">
        <ele>96</ele>
        <time>2016-05-12T12:08:27Z</time>
      </trkpt>
      <trkpt lat="43.33896" lon="5.20043">
        <ele>96</ele>
        <time>2016-05-12T12:08:28Z</time>
      </trkpt>
      <trkpt lat="43.33896" lon="5.20045">
        <ele>96</ele>
        <time>2016-05-12T12:08:29Z</time>
      </trkpt>
      <trkpt lat="43.33896" lon="5.20047">
        <ele>96</ele>
        <time>2016-05-12T12:08:30Z</time>
      </trkpt>
      <trkpt lat="43.33895" lon="5.20048">
        <ele>96</ele>
        <time>2016-05-12T12:08:31Z</time>
      </trkpt>
      <trkpt lat="43.33895" lon="5.2005">
        <ele>96</ele>
        <time>2016-05-12T12:08:32Z</time>
      </trkpt>
      <trkpt lat="43.33895" lon="5.20052">
        <ele>96</ele>
        <time>2016-05-12T12:08:33Z</time>
      </trkpt>
      <trkpt lat="43.33894" lon="5.20053">
        <ele>96</ele>
        <time>2016-05-12T12:08:34Z</time>
      </trkpt>
      <trkpt lat="43.33894" lon="5.20055">
        <ele>96</ele>
        <time>2016-05-12T12:08:35Z</time>
      </trkpt>
      <trkpt lat="43.33894" lon="5.20057">
        <ele>96</ele>
        <time>2016-05-12T12:08:36Z</time>
      </trkpt>
      <trkpt lat="43.33894" lon="5.20059">
        <ele>96</ele>
        <time>2016-05-12T12:08:37Z</time>
      </trkpt>
      <trkpt lat="43.33894" lon="5.2006">
        <ele>95</ele>
        <time>2016-05-12T12:08:38Z</time>
      </trkpt>
      <trkpt lat="43.33894" lon="5.20062">
        <ele>95</ele>
        <time>2016-05-12T12:08:39Z</time>
      </trkpt>
      <trkpt lat="43.33893" lon="5.20064">
        <ele>95</ele>
        <time>2016-05-12T12:08:40Z</time>
      </trkpt>
      <trkpt lat="43.33894" lon="5.20066">
        <ele>95</ele>
        <time>2016-05-12T12:08:41Z</time>
      </trkpt>
      <trkpt lat="43.33894" lon="5.20068">
        <ele>95</ele>
        <time>2016-05-12T12:08:42Z</time>
      </trkpt>
      <trkpt lat="43.33893" lon="5.20069">
        <ele>95</ele>
        <time>2016-05-12T12:08:43Z</time>
      </trkpt>
      <trkpt lat="43.33893" lon="5.20071">
        <ele>95</ele>
        <time>2016-05-12T12:08:44Z</time>
      </trkpt>
      <trkpt lat="43.33893" lon="5.20072">
        <ele>95</ele>
        <time>2016-05-12T12:08:45Z</time>
      </trkpt>
      <trkpt lat="43.33892" lon="5.20074">
        <ele>95</ele>
        <time>2016-05-12T12:08:45Z</time>
      </trkpt>
      <trkpt lat="43.33892" lon="5.20076">
        <ele>95</ele>
        <time>2016-05-12T12:08:47Z</time>
      </trkpt>
      <trkpt lat="43.33892" lon="5.20078">
        <ele>95</ele>
        <time>2016-05-12T12:08:48Z</time>
      </trkpt>
      <trkpt lat="43.33891" lon="5.20079">
        <ele>95</ele>
        <time>2016-05-12T12:08:49Z</time>
      </trkpt>
      <trkpt lat="43.3389" lon="5.20081">
        <ele>95</ele>
        <time>2016-05-12T12:08:50Z</time>
      </trkpt>
      <trkpt lat="43.3389" lon="5.20083">
        <ele>95</ele>
        <time>2016-05-12T12:08:51Z</time>
      </trkpt>
      <trkpt lat="43.3389" lon="5.20084">
        <ele>95</ele>
        <time>2016-05-12T12:08:52Z</time>
      </trkpt>
      <trkpt lat="43.33889" lon="5.20086">
        <ele>95</ele>
        <time>2016-05-12T12:08:53Z</time>
      </trkpt>
      <trkpt lat="43.33889" lon="5.20087">
        <ele>95</ele>
        <time>2016-05-12T12:08:54Z</time>
      </trkpt>
      <trkpt lat="43.33889" lon="5.20089">
        <ele>95</ele>
        <time>2016-05-12T12:08:55Z</time>
      </trkpt>
      <trkpt lat="43.33888" lon="5.20091">
        <ele>95</ele>
        <time>2016-05-12T12:08:56Z</time>
      </trkpt>
      <trkpt lat="43.33888" lon="5.20093">
        <ele>95</ele>
        <time>2016-05-12T12:08:57Z</time>
      </trkpt>
      <trkpt lat="43.33888" lon="5.20094">
        <ele>94</ele>
        <time>2016-05-12T12:08:58Z</time>
      </trkpt>
      <trkpt lat="43.33888" lon="5.20096">
        <ele>94</ele>
        <time>2016-05-12T12:08:59Z</time>
      </trkpt>
      <trkpt lat="43.33888" lon="5.20098">
        <ele>94</ele>
        <time>2016-05-12T12:09:00Z</time>
      </trkpt>
      <trkpt lat="43.33888" lon="5.201">
        <ele>94</ele>
        <time>2016-05-12T12:09:01Z</time>
      </trkpt>
      <trkpt lat="43.33887" lon="5.20102">
        <ele>94</ele>
        <time>2016-05-12T12:09:02Z</time>
      </trkpt>
      <trkpt lat="43.33886" lon="5.20104">
        <ele>94</ele>
        <time>2016-05-12T12:09:03Z</time>
      </trkpt>
      <trkpt lat="43.33887" lon="5.20105">
        <ele>93</ele>
        <time>2016-05-12T12:09:04Z</time>
      </trkpt>
      <trkpt lat="43.33887" lon="5.20107">
        <ele>92</ele>
        <time>2016-05-12T12:09:05Z</time>
      </trkpt>
      <trkpt lat="43.33888" lon="5.20109">
        <ele>92</ele>
        <time>2016-05-12T12:09:06Z</time>
      </trkpt>
      <trkpt lat="43.33888" lon="5.20111">
        <ele>92</ele>
        <time>2016-05-12T12:09:07Z</time>
      </trkpt>
      <trkpt lat="43.33888" lon="5.20113">
        <ele>92</ele>
        <time>2016-05-12T12:09:08Z</time>
      </trkpt>
      <trkpt lat="43.33888" lon="5.20115">
        <ele>91</ele>
        <time>2016-05-12T12:09:09Z</time>
      </trkpt>
      <trkpt lat="43.33889" lon="5.20117">
        <ele>91</ele>
        <time>2016-05-12T12:09:10Z</time>
      </trkpt>
      <trkpt lat="43.33889" lon="5.20118">
        <ele>91</ele>
        <time>2016-05-12T12:09:11Z</time>
      </trkpt>
      <trkpt lat="43.33889" lon="5.2012">
        <ele>91</ele>
        <time>2016-05-12T12:09:12Z</time>
      </trkpt>
      <trkpt lat="43.3389" lon="5.20122">
        <ele>91</ele>
        <time>2016-05-12T12:09:13Z</time>
      </trkpt>
      <trkpt lat="43.3389" lon="5.20124">
        <ele>90</ele>
        <time>2016-05-12T12:09:14Z</time>
      </trkpt>
      <trkpt lat="43.3389" lon="5.20126">
        <ele>90</ele>
        <time>2016-05-12T12:09:15Z</time>
      </trkpt>
      <trkpt lat="43.33891" lon="5.20128">
        <ele>90</ele>
        <time>2016-05-12T12:09:16Z</time>
      </trkpt>
      <trkpt lat="43.33891" lon="5.20129">
        <ele>90</ele>
        <time>2016-05-12T12:09:17Z</time>
      </trkpt>
      <trkpt lat="43.33891" lon="5.20131">
        <ele>89</ele>
        <time>2016-05-12T12:09:18Z</time>
      </trkpt>
      <trkpt lat="43.33892" lon="5.20133">
        <ele>89</ele>
        <time>2016-05-12T12:09:19Z</time>
      </trkpt>
      <trkpt lat="43.33892" lon="5.20135">
        <ele>89</ele>
        <time>2016-05-12T12:09:20Z</time>
      </trkpt>
      <trkpt lat="43.33893" lon="5.20136">
        <ele>89</ele>
        <time>2016-05-12T12:09:21Z</time>
      </trkpt>
      <trkpt lat="43.33893" lon="5.20138">
        <ele>88</ele>
        <time>2016-05-12T12:09:22Z</time>
      </trkpt>
      <trkpt lat="43.33894" lon="5.2014">
        <ele>88</ele>
        <time>2016-05-12T12:09:23Z</time>
      </trkpt>
      <trkpt lat="43.33894" lon="5.20142">
        <ele>88</ele>
        <time>2016-05-12T12:09:24Z</time>
      </trkpt>
      <trkpt lat="43.33894" lon="5.20144">
        <ele>87</ele>
        <time>2016-05-12T12:09:25Z</time>
      </trkpt>
      <trkpt lat="43.33895" lon="5.20146">
        <ele>87</ele>
        <time>2016-05-12T12:09:26Z</time>
      </trkpt>
      <trkpt lat="43.33895" lon="5.20147">
        <ele>87</ele>
        <time>2016-05-12T12:09:27Z</time>
      </trkpt>
      <trkpt lat="43.33896" lon="5.20149">
        <ele>87</ele>
        <time>2016-05-12T12:09:28Z</time>
      </trkpt>
      <trkpt lat="43.33896" lon="5.20151">
        <ele>86</ele>
        <time>2016-05-12T12:09:29Z</time>
      </trkpt>
      <trkpt lat="43.33897" lon="5.20153">
        <ele>86</ele>
        <time>2016-05-12T12:09:30Z</time>
      </trkpt>
      <trkpt lat="43.33897" lon="5.20154">
        <ele>86</ele>
        <time>2016-05-12T12:09:31Z</time>
      </trkpt>
      <trkpt lat="43.33897" lon="5.20156">
        <ele>86</ele>
        <time>2016-05-12T12:09:32Z</time>
      </trkpt>
      <trkpt lat="43.33898" lon="5.20158">
        <ele>86</ele>
        <time>2016-05-12T12:09:33Z</time>
      </trkpt>
      <trkpt lat="43.33898" lon="5.2016">
        <ele>86</ele>
        <time>2016-05-12T12:09:34Z</time>
      </trkpt>
      <trkpt lat="43.33898" lon="5.20162">
        <ele>85</ele>
        <time>2016-05-12T12:09:35Z</time>
      </trkpt>
      <trkpt lat="43.33898" lon="5.20164">
        <ele>85</ele>
        <time>2016-05-12T12:09:36Z</time>
      </trkpt>
      <trkpt lat="43.33899" lon="5.20166">
        <ele>85</ele>
        <time>2016-05-12T12:09:37Z</time>
      </trkpt>
      <trkpt lat="43.33899" lon="5.20168">
        <ele>85</ele>
        <time>2016-05-12T12:09:38Z</time>
      </trkpt>
      <trkpt lat="43.33899" lon="5.2017">
        <ele>85</ele>
        <time>2016-05-12T12:09:39Z</time>
      </trkpt>
      <trkpt lat="43.33899" lon="5.20172">
        <ele>85</ele>
        <time>2016-05-12T12:09:40Z</time>
      </trkpt>
      <trkpt lat="43.33899" lon="5.20174">
        <ele>85</ele>
        <time>2016-05-12T12:09:41Z</time>
      </trkpt>
      <trkpt lat="43.33899" lon="5.20176">
        <ele>85</ele>
        <time>2016-05-12T12:09:42Z</time>
      </trkpt>
      <trkpt lat="43.33899" lon="5.20178">
        <ele>85</ele>
        <time>2016-05-12T12:09:43Z</time>
      </trkpt>
      <trkpt lat="43.33899" lon="5.2018">
        <ele>85</ele>
        <time>2016-05-12T12:09:44Z</time>
      </trkpt>
      <trkpt lat="43.33898" lon="5.20182">
        <ele>85</ele>
        <time>2016-05-12T12:09:45Z</time>
      </trkpt>
      <trkpt lat="43.33898" lon="5.20184">
        <ele>85</ele>
        <time>2016-05-12T12:09:46Z</time>
      </trkpt>
      <trkpt lat="43.33898" lon="5.20186">
        <ele>84</ele>
        <time>2016-05-12T12:09:47Z</time>
      </trkpt>
      <trkpt lat="43.33897" lon="5.20187">
        <ele>84</ele>
        <time>2016-05-12T12:09:48Z</time>
      </trkpt>
      <trkpt lat="43.33897" lon="5.20189">
        <ele>84</ele>
        <time>2016-05-12T12:09:49Z</time>
      </trkpt>
      <trkpt lat="43.33897" lon="5.20191">
        <ele>84</ele>
        <time>2016-05-12T12:09:50Z</time>
      </trkpt>
      <trkpt lat="43.33896" lon="5.20193">
        <ele>84</ele>
        <time>2016-05-12T12:09:51Z</time>
      </trkpt>
      <trkpt lat="43.33896" lon="5.20195">
        <ele>84</ele>
        <time>2016-05-12T12:09:52Z</time>
      </trkpt>
      <trkpt lat="43.33895" lon="5.20197">
        <ele>84</ele>
        <time>2016-05-12T12:09:53Z</time>
      </trkpt>
      <trkpt lat="43.33895" lon="5.20199">
        <ele>84</ele>
        <time>2016-05-12T12:09:54Z</time>
      </trkpt>
      <trkpt lat="43.33894" lon="5.20201">
        <ele>84</ele>
        <time>2016-05-12T12:09:54Z</time>
      </trkpt>
      <trkpt lat="43.33894" lon="5.20202">
        <ele>84</ele>
        <time>2016-05-12T12:09:56Z</time>
      </trkpt>
      <trkpt lat="43.33893" lon="5.20204">
        <ele>84</ele>
        <time>2016-05-12T12:09:57Z</time>
      </trkpt>
      <trkpt lat="43.33893" lon="5.20206">
        <ele>84</ele>
        <time>2016-05-12T12:09:58Z</time>
      </trkpt>
      <trkpt lat="43.33893" lon="5.20208">
        <ele>84</ele>
        <time>2016-05-12T12:09:58Z</time>
      </trkpt>
      <trkpt lat="43.33893" lon="5.2021">
        <ele>84</ele>
        <time>2016-05-12T12:10:00Z</time>
      </trkpt>
      <trkpt lat="43.33893" lon="5.20211">
        <ele>84</ele>
        <time>2016-05-12T12:10:01Z</time>
      </trkpt>
      <trkpt lat="43.33892" lon="5.20213">
        <ele>84</ele>
        <time>2016-05-12T12:10:01Z</time>
      </trkpt>
      <trkpt lat="43.33891" lon="5.20215">
        <ele>84</ele>
        <time>2016-05-12T12:10:03Z</time>
      </trkpt>
      <trkpt lat="43.3389" lon="5.20216">
        <ele>84</ele>
        <time>2016-05-12T12:10:03Z</time>
      </trkpt>
      <trkpt lat="43.3389" lon="5.20218">
        <ele>84</ele>
        <time>2016-05-12T12:10:05Z</time>
      </trkpt>
      <trkpt lat="43.33889" lon="5.20221">
        <ele>84</ele>
        <time>2016-05-12T12:10:06Z</time>
      </trkpt>
      <trkpt lat="43.33887" lon="5.20222">
        <ele>84</ele>
        <time>2016-05-12T12:10:08Z</time>
      </trkpt>
      <trkpt lat="43.33886" lon="5.20224">
        <ele>84</ele>
        <time>2016-05-12T12:10:09Z</time>
      </trkpt>
      <trkpt lat="43.33885" lon="5.20226">
        <ele>83</ele>
        <time>2016-05-12T12:10:10Z</time>
      </trkpt>
      <trkpt lat="43.33884" lon="5.20228">
        <ele>83</ele>
        <time>2016-05-12T12:10:12Z</time>
      </trkpt>
      <trkpt lat="43.33883" lon="5.20229">
        <ele>83</ele>
        <time>2016-05-12T12:10:13Z</time>
      </trkpt>
      <trkpt lat="43.33883" lon="5.20231">
        <ele>83</ele>
        <time>2016-05-12T12:10:14Z</time>
      </trkpt>
      <trkpt lat="43.33882" lon="5.20232">
        <ele>82</ele>
        <time>2016-05-12T12:10:15Z</time>
      </trkpt>
      <trkpt lat="43.3388" lon="5.20235">
        <ele>82</ele>
        <time>2016-05-12T12:10:17Z</time>
      </trkpt>
      <trkpt lat="43.33879" lon="5.20237">
        <ele>82</ele>
        <time>2016-05-12T12:10:18Z</time>
      </trkpt>
      <trkpt lat="43.33879" lon="5.20238">
        <ele>81</ele>
        <time>2016-05-12T12:10:19Z</time>
      </trkpt>
      <trkpt lat="43.33878" lon="5.2024">
        <ele>81</ele>
        <time>2016-05-12T12:10:20Z</time>
      </trkpt>
      <trkpt lat="43.33877" lon="5.20242">
        <ele>81</ele>
        <time>2016-05-12T12:10:21Z</time>
      </trkpt>
      <trkpt lat="43.33876" lon="5.20243">
        <ele>81</ele>
        <time>2016-05-12T12:10:22Z</time>
      </trkpt>
      <trkpt lat="43.33875" lon="5.20245">
        <ele>80</ele>
        <time>2016-05-12T12:10:23Z</time>
      </trkpt>
      <trkpt lat="43.33874" lon="5.20247">
        <ele>80</ele>
        <time>2016-05-12T12:10:24Z</time>
      </trkpt>
      <trkpt lat="43.33873" lon="5.20249">
        <ele>80</ele>
        <time>2016-05-12T12:10:25Z</time>
      </trkpt>
      <trkpt lat="43.33873" lon="5.20251">
        <ele>80</ele>
        <time>2016-05-12T12:10:25Z</time>
      </trkpt>
      <trkpt lat="43.33872" lon="5.20252">
        <ele>80</ele>
        <time>2016-05-12T12:10:27Z</time>
      </trkpt>
      <trkpt lat="43.33871" lon="5.20254">
        <ele>79</ele>
        <time>2016-05-12T12:10:28Z</time>
      </trkpt>
      <trkpt lat="43.3387" lon="5.20256">
        <ele>79</ele>
        <time>2016-05-12T12:10:29Z</time>
      </trkpt>
      <trkpt lat="43.3387" lon="5.20258">
        <ele>79</ele>
        <time>2016-05-12T12:10:30Z</time>
      </trkpt>
      <trkpt lat="43.3387" lon="5.2026">
        <ele>79</ele>
        <time>2016-05-12T12:10:31Z</time>
      </trkpt>
      <trkpt lat="43.33869" lon="5.20262">
        <ele>79</ele>
        <time>2016-05-12T12:10:32Z</time>
      </trkpt>
      <trkpt lat="43.33869" lon="5.20264">
        <ele>79</ele>
        <time>2016-05-12T12:10:33Z</time>
      </trkpt>
      <trkpt lat="43.33868" lon="5.20266">
        <ele>79</ele>
        <time>2016-05-12T12:10:33Z</time>
      </trkpt>
      <trkpt lat="43.33868" lon="5.20268">
        <ele>79</ele>
        <time>2016-05-12T12:10:35Z</time>
      </trkpt>
      <trkpt lat="43.33867" lon="5.2027">
        <ele>79</ele>
        <time>2016-05-12T12:10:36Z</time>
      </trkpt>
      <trkpt lat="43.33866" lon="5.20271">
        <ele>79</ele>
        <time>2016-05-12T12:10:37Z</time>
      </trkpt>
      <trkpt lat="43.33866" lon="5.20273">
        <ele>79</ele>
        <time>2016-05-12T12:10:38Z</time>
      </trkpt>
      <trkpt lat="43.33865" lon="5.20275">
        <ele>79</ele>
        <time>2016-05-12T12:10:39Z</time>
      </trkpt>
      <trkpt lat="43.33865" lon="5.20277">
        <ele>78</ele>
        <time>2016-05-12T12:10:40Z</time>
      </trkpt>
      <trkpt lat="43.33864" lon="5.20279">
        <ele>78</ele>
        <time>2016-05-12T12:10:41Z</time>
      </trkpt>
      <trkpt lat="43.33864" lon="5.20281">
        <ele>78</ele>
        <time>2016-05-12T12:10:42Z</time>
      </trkpt>
      <trkpt lat="43.33863" lon="5.20282">
        <ele>78</ele>
        <time>2016-05-12T12:10:42Z</time>
      </trkpt>
      <trkpt lat="43.33862" lon="5.20284">
        <ele>78</ele>
        <time>2016-05-12T12:10:44Z</time>
      </trkpt>
      <trkpt lat="43.33862" lon="5.20286">
        <ele>77</ele>
        <time>2016-05-12T12:10:44Z</time>
      </trkpt>
      <trkpt lat="43.33861" lon="5.20288">
        <ele>77</ele>
        <time>2016-05-12T12:10:45Z</time>
      </trkpt>
      <trkpt lat="43.3386" lon="5.2029">
        <ele>77</ele>
        <time>2016-05-12T12:10:47Z</time>
      </trkpt>
      <trkpt lat="43.33859" lon="5.20292">
        <ele>76</ele>
        <time>2016-05-12T12:10:48Z</time>
      </trkpt>
      <trkpt lat="43.33858" lon="5.20293">
        <ele>76</ele>
        <time>2016-05-12T12:10:48Z</time>
      </trkpt>
      <trkpt lat="43.33858" lon="5.20295">
        <ele>76</ele>
        <time>2016-05-12T12:10:50Z</time>
      </trkpt>
      <trkpt lat="43.33857" lon="5.20297">
        <ele>76</ele>
        <time>2016-05-12T12:10:51Z</time>
      </trkpt>
      <trkpt lat="43.33856" lon="5.20299">
        <ele>76</ele>
        <time>2016-05-12T12:10:52Z</time>
      </trkpt>
      <trkpt lat="43.33855" lon="5.20301">
        <ele>76</ele>
        <time>2016-05-12T12:10:53Z</time>
      </trkpt>
      <trkpt lat="43.33855" lon="5.20303">
        <ele>76</ele>
        <time>2016-05-12T12:10:54Z</time>
      </trkpt>
      <trkpt lat="43.33854" lon="5.20305">
        <ele>75</ele>
        <time>2016-05-12T12:10:55Z</time>
      </trkpt>
      <trkpt lat="43.33853" lon="5.20306">
        <ele>75</ele>
        <time>2016-05-12T12:10:56Z</time>
      </trkpt>
      <trkpt lat="43.33853" lon="5.20308">
        <ele>75</ele>
        <time>2016-05-12T12:10:57Z</time>
      </trkpt>
      <trkpt lat="43.33852" lon="5.2031">
        <ele>75</ele>
        <time>2016-05-12T12:10:58Z</time>
      </trkpt>
      <trkpt lat="43.33851" lon="5.20311">
        <ele>75</ele>
        <time>2016-05-12T12:10:59Z</time>
      </trkpt>
      <trkpt lat="43.3385" lon="5.20313">
        <ele>75</ele>
        <time>2016-05-12T12:11:00Z</time>
      </trkpt>
      <trkpt lat="43.3385" lon="5.20315">
        <ele>75</ele>
        <time>2016-05-12T12:11:01Z</time>
      </trkpt>
      <trkpt lat="43.33849" lon="5.20317">
        <ele>75</ele>
        <time>2016-05-12T12:11:02Z</time>
      </trkpt>
      <trkpt lat="43.33849" lon="5.20319">
        <ele>75</ele>
        <time>2016-05-12T12:11:03Z</time>
      </trkpt>
      <trkpt lat="43.33848" lon="5.2032">
        <ele>75</ele>
        <time>2016-05-12T12:11:04Z</time>
      </trkpt>
      <trkpt lat="43.33847" lon="5.20322">
        <ele>75</ele>
        <time>2016-05-12T12:11:05Z</time>
      </trkpt>
      <trkpt lat="43.33847" lon="5.20324">
        <ele>75</ele>
        <time>2016-05-12T12:11:06Z</time>
      </trkpt>
      <trkpt lat="43.33846" lon="5.20325">
        <ele>75</ele>
        <time>2016-05-12T12:11:07Z</time>
      </trkpt>
      <trkpt lat="43.33845" lon="5.20327">
        <ele>75</ele>
        <time>2016-05-12T12:11:08Z</time>
      </trkpt>
      <trkpt lat="43.33844" lon="5.20329">
        <ele>75</ele>
        <time>2016-05-12T12:11:09Z</time>
      </trkpt>
      <trkpt lat="43.33844" lon="5.2033">
        <ele>75</ele>
        <time>2016-05-12T12:11:10Z</time>
      </trkpt>
      <trkpt lat="43.33843" lon="5.20332">
        <ele>75</ele>
        <time>2016-05-12T12:11:11Z</time>
      </trkpt>
      <trkpt lat="43.33842" lon="5.20334">
        <ele>75</ele>
        <time>2016-05-12T12:11:12Z</time>
      </trkpt>
      <trkpt lat="43.33842" lon="5.20336">
        <ele>75</ele>
        <time>2016-05-12T12:11:13Z</time>
      </trkpt>
      <trkpt lat="43.33842" lon="5.20338">
        <ele>75</ele>
        <time>2016-05-12T12:11:13Z</time>
      </trkpt>
      <trkpt lat="43.33841" lon="5.2034">
        <ele>75</ele>
        <time>2016-05-12T12:11:15Z</time>
      </trkpt>
      <trkpt lat="43.3384" lon="5.20341">
        <ele>75</ele>
        <time>2016-05-12T12:11:16Z</time>
      </trkpt>
      <trkpt lat="43.3384" lon="5.20343">
        <ele>75</ele>
        <time>2016-05-12T12:11:17Z</time>
      </trkpt>
      <trkpt lat="43.33839" lon="5.20345">
        <ele>75</ele>
        <time>2016-05-12T12:11:18Z</time>
      </trkpt>
      <trkpt lat="43.33839" lon="5.20347">
        <ele>75</ele>
        <time>2016-05-12T12:11:19Z</time>
      </trkpt>
      <trkpt lat="43.33838" lon="5.20349">
        <ele>75</ele>
        <time>2016-05-12T12:11:20Z</time>
      </trkpt>
      <trkpt lat="43.33838" lon="5.20351">
        <ele>75</ele>
        <time>2016-05-12T12:11:21Z</time>
      </trkpt>
      <trkpt lat="43.33838" lon="5.20353">
        <ele>75</ele>
        <time>2016-05-12T12:11:21Z</time>
      </trkpt>
      <trkpt lat="43.33837" lon="5.20354">
        <ele>75</ele>
        <time>2016-05-12T12:11:22Z</time>
      </trkpt>
      <trkpt lat="43.33836" lon="5.20356">
        <ele>75</ele>
        <time>2016-05-12T12:11:24Z</time>
      </trkpt>
      <trkpt lat="43.33836" lon="5.20358">
        <ele>75</ele>
        <time>2016-05-12T12:11:25Z</time>
      </trkpt>
      <trkpt lat="43.33836" lon="5.2036">
        <ele>75</ele>
        <time>2016-05-12T12:11:25Z</time>
      </trkpt>
      <trkpt lat="43.33835" lon="5.20362">
        <ele>75</ele>
        <time>2016-05-12T12:11:27Z</time>
      </trkpt>
      <trkpt lat="43.33834" lon="5.20363">
        <ele>75</ele>
        <time>2016-05-12T12:11:28Z</time>
      </trkpt>
      <trkpt lat="43.33833" lon="5.20365">
        <ele>75</ele>
        <time>2016-05-12T12:11:29Z</time>
      </trkpt>
      <trkpt lat="43.33833" lon="5.20367">
        <ele>75</ele>
        <time>2016-05-12T12:11:30Z</time>
      </trkpt>
      <trkpt lat="43.33832" lon="5.20368">
        <ele>74</ele>
        <time>2016-05-12T12:11:31Z</time>
      </trkpt>
      <trkpt lat="43.33831" lon="5.2037">
        <ele>74</ele>
        <time>2016-05-12T12:11:32Z</time>
      </trkpt>
      <trkpt lat="43.3383" lon="5.20371">
        <ele>74</ele>
        <time>2016-05-12T12:11:33Z</time>
      </trkpt>
      <trkpt lat="43.33828" lon="5.20374">
        <ele>74</ele>
        <time>2016-05-12T12:11:34Z</time>
      </trkpt>
      <trkpt lat="43.33827" lon="5.20375">
        <ele>74</ele>
        <time>2016-05-12T12:11:36Z</time>
      </trkpt>
      <trkpt lat="43.33825" lon="5.20378">
        <ele>73</ele>
        <time>2016-05-12T12:11:37Z</time>
      </trkpt>
      <trkpt lat="43.33823" lon="5.20379">
        <ele>73</ele>
        <time>2016-05-12T12:11:38Z</time>
      </trkpt>
      <trkpt lat="43.33821" lon="5.20382">
        <ele>73</ele>
        <time>2016-05-12T12:11:41Z</time>
      </trkpt>
      <trkpt lat="43.3382" lon="5.20384">
        <ele>72</ele>
        <time>2016-05-12T12:11:42Z</time>
      </trkpt>
      <trkpt lat="43.33819" lon="5.20385">
        <ele>72</ele>
        <time>2016-05-12T12:11:42Z</time>
      </trkpt>
      <trkpt lat="43.33818" lon="5.20386">
        <ele>72</ele>
        <time>2016-05-12T12:11:44Z</time>
      </trkpt>
      <trkpt lat="43.33817" lon="5.20388">
        <ele>72</ele>
        <time>2016-05-12T12:11:45Z</time>
      </trkpt>
      <trkpt lat="43.33815" lon="5.2039">
        <ele>72</ele>
        <time>2016-05-12T12:11:47Z</time>
      </trkpt>
      <trkpt lat="43.33814" lon="5.20392">
        <ele>72</ele>
        <time>2016-05-12T12:11:48Z</time>
      </trkpt>
      <trkpt lat="43.33812" lon="5.20394">
        <ele>72</ele>
        <time>2016-05-12T12:11:49Z</time>
      </trkpt>
      <trkpt lat="43.33811" lon="5.20396">
        <ele>72</ele>
        <time>2016-05-12T12:11:51Z</time>
      </trkpt>
      <trkpt lat="43.3381" lon="5.20397">
        <ele>72</ele>
        <time>2016-05-12T12:11:52Z</time>
      </trkpt>
      <trkpt lat="43.33809" lon="5.20399">
        <ele>71</ele>
        <time>2016-05-12T12:11:53Z</time>
      </trkpt>
      <trkpt lat="43.33807" lon="5.20401">
        <ele>71</ele>
        <time>2016-05-12T12:11:54Z</time>
      </trkpt>
      <trkpt lat="43.33805" lon="5.20403">
        <ele>71</ele>
        <time>2016-05-12T12:11:56Z</time>
      </trkpt>
      <trkpt lat="43.33804" lon="5.20404">
        <ele>70</ele>
        <time>2016-05-12T12:11:56Z</time>
      </trkpt>
      <trkpt lat="43.33803" lon="5.20406">
        <ele>70</ele>
        <time>2016-05-12T12:11:58Z</time>
      </trkpt>
      <trkpt lat="43.33803" lon="5.20407">
        <ele>70</ele>
        <time>2016-05-12T12:11:59Z</time>
      </trkpt>
      <trkpt lat="43.33802" lon="5.20409">
        <ele>70</ele>
        <time>2016-05-12T12:12:00Z</time>
      </trkpt>
      <trkpt lat="43.33801" lon="5.20411">
        <ele>69</ele>
        <time>2016-05-12T12:12:01Z</time>
      </trkpt>
      <trkpt lat="43.33801" lon="5.20412">
        <ele>69</ele>
        <time>2016-05-12T12:12:01Z</time>
      </trkpt>
      <trkpt lat="43.338" lon="5.20414">
        <ele>69</ele>
        <time>2016-05-12T12:12:03Z</time>
      </trkpt>
      <trkpt lat="43.33799" lon="5.20416">
        <ele>69</ele>
        <time>2016-05-12T12:12:04Z</time>
      </trkpt>
      <trkpt lat="43.33799" lon="5.20418">
        <ele>69</ele>
        <time>2016-05-12T12:12:05Z</time>
      </trkpt>
      <trkpt lat="43.33799" lon="5.2042">
        <ele>68</ele>
        <time>2016-05-12T12:12:06Z</time>
      </trkpt>
      <trkpt lat="43.33799" lon="5.20422">
        <ele>68</ele>
        <time>2016-05-12T12:12:06Z</time>
      </trkpt>
      <trkpt lat="43.33799" lon="5.20424">
        <ele>68</ele>
        <time>2016-05-12T12:12:08Z</time>
      </trkpt>
      <trkpt lat="43.33799" lon="5.20426">
        <ele>68</ele>
        <time>2016-05-12T12:12:08Z</time>
      </trkpt>
      <trkpt lat="43.33799" lon="5.20428">
        <ele>68</ele>
        <time>2016-05-12T12:12:09Z</time>
      </trkpt>
      <trkpt lat="43.33799" lon="5.20429">
        <ele>68</ele>
        <time>2016-05-12T12:12:10Z</time>
      </trkpt>
      <trkpt lat="43.338" lon="5.20431">
        <ele>68</ele>
        <time>2016-05-12T12:12:12Z</time>
      </trkpt>
      <trkpt lat="43.33801" lon="5.20433">
        <ele>68</ele>
        <time>2016-05-12T12:12:13Z</time>
      </trkpt>
      <trkpt lat="43.33801" lon="5.20435">
        <ele>68</ele>
        <time>2016-05-12T12:12:13Z</time>
      </trkpt>
      <trkpt lat="43.33802" lon="5.20436">
        <ele>67</ele>
        <time>2016-05-12T12:12:15Z</time>
      </trkpt>
      <trkpt lat="43.33802" lon="5.20438">
        <ele>67</ele>
        <time>2016-05-12T12:12:16Z</time>
      </trkpt>
      <trkpt lat="43.33803" lon="5.2044">
        <ele>67</ele>
        <time>2016-05-12T12:12:16Z</time>
      </trkpt>
      <trkpt lat="43.33804" lon="5.20441">
        <ele>67</ele>
        <time>2016-05-12T12:12:17Z</time>
      </trkpt>
      <trkpt lat="43.33805" lon="5.20443">
        <ele>67</ele>
        <time>2016-05-12T12:12:19Z</time>
      </trkpt>
      <trkpt lat="43.33806" lon="5.20445">
        <ele>67</ele>
        <time>2016-05-12T12:12:20Z</time>
      </trkpt>
      <trkpt lat="43.33807" lon="5.20446">
        <ele>67</ele>
        <time>2016-05-12T12:12:20Z</time>
      </trkpt>
      <trkpt lat="43.33807" lon="5.20448">
        <ele>66</ele>
        <time>2016-05-12T12:12:21Z</time>
      </trkpt>
      <trkpt lat="43.33808" lon="5.20449">
        <ele>66</ele>
        <time>2016-05-12T12:12:23Z</time>
      </trkpt>
      <trkpt lat="43.33809" lon="5.20451">
        <ele>66</ele>
        <time>2016-05-12T12:12:24Z</time>
      </trkpt>
      <trkpt lat="43.3381" lon="5.20453">
        <ele>66</ele>
        <time>2016-05-12T12:12:25Z</time>
      </trkpt>
      <trkpt lat="43.33811" lon="5.20454">
        <ele>66</ele>
        <time>2016-05-12T12:12:25Z</time>
      </trkpt>
      <trkpt lat="43.33812" lon="5.20456">
        <ele>66</ele>
        <time>2016-05-12T12:12:27Z</time>
      </trkpt>
      <trkpt lat="43.33812" lon="5.20457">
        <ele>66</ele>
        <time>2016-05-12T12:12:28Z</time>
      </trkpt>
      <trkpt lat="43.33813" lon="5.20459">
        <ele>66</ele>
        <time>2016-05-12T12:12:29Z</time>
      </trkpt>
      <trkpt lat="43.33815" lon="5.2046">
        <ele>66</ele>
        <time>2016-05-12T12:12:29Z</time>
      </trkpt>
      <trkpt lat="43.33816" lon="5.20463">
        <ele>66</ele>
        <time>2016-05-12T12:12:31Z</time>
      </trkpt>
      <trkpt lat="43.33817" lon="5.20465">
        <ele>66</ele>
        <time>2016-05-12T12:12:32Z</time>
      </trkpt>
      <trkpt lat="43.33819" lon="5.20467">
        <ele>66</ele>
        <time>2016-05-12T12:12:35Z</time>
      </trkpt>
      <trkpt lat="43.3382" lon="5.20469">
        <ele>66</ele>
        <time>2016-05-12T12:12:36Z</time>
      </trkpt>
      <trkpt lat="43.33821" lon="5.2047">
        <ele>66</ele>
        <time>2016-05-12T12:12:36Z</time>
      </trkpt>
      <trkpt lat="43.33821" lon="5.20472">
        <ele>66</ele>
        <time>2016-05-12T12:12:37Z</time>
      </trkpt>
      <trkpt lat="43.33822" lon="5.20473">
        <ele>66</ele>
        <time>2016-05-12T12:12:38Z</time>
      </trkpt>
      <trkpt lat="43.33823" lon="5.20475">
        <ele>66</ele>
        <time>2016-05-12T12:12:40Z</time>
      </trkpt>
      <trkpt lat="43.33823" lon="5.20476">
        <ele>66</ele>
        <time>2016-05-12T12:12:40Z</time>
      </trkpt>
      <trkpt lat="43.33823" lon="5.20478">
        <ele>66</ele>
        <time>2016-05-12T12:12:41Z</time>
      </trkpt>
      <trkpt lat="43.33823" lon="5.2048">
        <ele>66</ele>
        <time>2016-05-12T12:12:42Z</time>
      </trkpt>
      <trkpt lat="43.33823" lon="5.20482">
        <ele>66</ele>
        <time>2016-05-12T12:12:44Z</time>
      </trkpt>
      <trkpt lat="43.33822" lon="5.20483">
        <ele>66</ele>
        <time>2016-05-12T12:12:44Z</time>
      </trkpt>
      <trkpt lat="43.33822" lon="5.20485">
        <ele>66</ele>
        <time>2016-05-12T12:12:46Z</time>
      </trkpt>
      <trkpt lat="43.33821" lon="5.20487">
        <ele>66</ele>
        <time>2016-05-12T12:12:46Z</time>
      </trkpt>
      <trkpt lat="43.3382" lon="5.20488">
        <ele>66</ele>
        <time>2016-05-12T12:12:48Z</time>
      </trkpt>
      <trkpt lat="43.3382" lon="5.2049">
        <ele>66</ele>
        <time>2016-05-12T12:12:49Z</time>
      </trkpt>
      <trkpt lat="43.3382" lon="5.20492">
        <ele>66</ele>
        <time>2016-05-12T12:12:49Z</time>
      </trkpt>
      <trkpt lat="43.33819" lon="5.20493">
        <ele>66</ele>
        <time>2016-05-12T12:12:51Z</time>
      </trkpt>
      <trkpt lat="43.33818" lon="5.20495">
        <ele>66</ele>
        <time>2016-05-12T12:12:52Z</time>
      </trkpt>
      <trkpt lat="43.33818" lon="5.20497">
        <ele>66</ele>
        <time>2016-05-12T12:12:52Z</time>
      </trkpt>
      <trkpt lat="43.33817" lon="5.20498">
        <ele>66</ele>
        <time>2016-05-12T12:12:53Z</time>
      </trkpt>
      <trkpt lat="43.33816" lon="5.205">
        <ele>66</ele>
        <time>2016-05-12T12:12:54Z</time>
      </trkpt>
      <trkpt lat="43.33816" lon="5.20501">
        <ele>66</ele>
        <time>2016-05-12T12:12:56Z</time>
      </trkpt>
      <trkpt lat="43.33815" lon="5.20503">
        <ele>66</ele>
        <time>2016-05-12T12:12:56Z</time>
      </trkpt>
      <trkpt lat="43.33815" lon="5.20504">
        <ele>66</ele>
        <time>2016-05-12T12:12:57Z</time>
      </trkpt>
      <trkpt lat="43.33814" lon="5.20506">
        <ele>66</ele>
        <time>2016-05-12T12:12:58Z</time>
      </trkpt>
      <trkpt lat="43.33814" lon="5.20507">
        <ele>66</ele>
        <time>2016-05-12T12:13:00Z</time>
      </trkpt>
      <trkpt lat="43.33813" lon="5.20508">
        <ele>66</ele>
        <time>2016-05-12T12:13:01Z</time>
      </trkpt>
      <trkpt lat="43.33813" lon="5.2051">
        <ele>66</ele>
        <time>2016-05-12T12:13:01Z</time>
      </trkpt>
      <trkpt lat="43.33812" lon="5.20513">
        <ele>66</ele>
        <time>2016-05-12T12:13:04Z</time>
      </trkpt>
      <trkpt lat="43.33811" lon="5.20514">
        <ele>66</ele>
        <time>2016-05-12T12:13:04Z</time>
      </trkpt>
      <trkpt lat="43.3381" lon="5.20516">
        <ele>66</ele>
        <time>2016-05-12T12:13:05Z</time>
      </trkpt>
      <trkpt lat="43.3381" lon="5.20517">
        <ele>66</ele>
        <time>2016-05-12T12:13:07Z</time>
      </trkpt>
      <trkpt lat="43.3381" lon="5.20519">
        <ele>66</ele>
        <time>2016-05-12T12:13:08Z</time>
      </trkpt>
      <trkpt lat="43.33809" lon="5.2052">
        <ele>66</ele>
        <time>2016-05-12T12:13:08Z</time>
      </trkpt>
      <trkpt lat="43.33809" lon="5.20522">
        <ele>67</ele>
        <time>2016-05-12T12:13:09Z</time>
      </trkpt>
      <trkpt lat="43.33808" lon="5.20523">
        <ele>67</ele>
        <time>2016-05-12T12:13:10Z</time>
      </trkpt>
      <trkpt lat="43.33808" lon="5.20525">
        <ele>67</ele>
        <time>2016-05-12T12:13:12Z</time>
      </trkpt>
      <trkpt lat="43.33807" lon="5.20526">
        <ele>67</ele>
        <time>2016-05-12T12:13:12Z</time>
      </trkpt>
      <trkpt lat="43.33807" lon="5.20528">
        <ele>68</ele>
        <time>2016-05-12T12:13:13Z</time>
      </trkpt>
      <trkpt lat="43.33807" lon="5.20529">
        <ele>68</ele>
        <time>2016-05-12T12:13:14Z</time>
      </trkpt>
      <trkpt lat="43.33807" lon="5.20531">
        <ele>68</ele>
        <time>2016-05-12T12:13:15Z</time>
      </trkpt>
      <trkpt lat="43.33806" lon="5.20533">
        <ele>68</ele>
        <time>2016-05-12T12:13:16Z</time>
      </trkpt>
      <trkpt lat="43.33806" lon="5.20535">
        <ele>68</ele>
        <time>2016-05-12T12:13:18Z</time>
      </trkpt>
      <trkpt lat="43.33806" lon="5.20537">
        <ele>68</ele>
        <time>2016-05-12T12:13:18Z</time>
      </trkpt>
      <trkpt lat="43.33805" lon="5.20538">
        <ele>68</ele>
        <time>2016-05-12T12:13:20Z</time>
      </trkpt>
      <trkpt lat="43.33805" lon="5.2054">
        <ele>69</ele>
        <time>2016-05-12T12:13:20Z</time>
      </trkpt>
      <trkpt lat="43.33805" lon="5.20541">
        <ele>69</ele>
        <time>2016-05-12T12:13:21Z</time>
      </trkpt>
      <trkpt lat="43.33803" lon="5.20544">
        <ele>69</ele>
        <time>2016-05-12T12:13:24Z</time>
      </trkpt>
      <trkpt lat="43.33801" lon="5.20547">
        <ele>69</ele>
        <time>2016-05-12T12:13:25Z</time>
      </trkpt>
      <trkpt lat="43.33799" lon="5.20549">
        <ele>69</ele>
        <time>2016-05-12T12:13:28Z</time>
      </trkpt>
      <trkpt lat="43.33798" lon="5.20552">
        <ele>69</ele>
        <time>2016-05-12T12:13:30Z</time>
      </trkpt>
      <trkpt lat="43.33797" lon="5.20553">
        <ele>69</ele>
        <time>2016-05-12T12:13:30Z</time>
      </trkpt>
      <trkpt lat="43.33796" lon="5.20555">
        <ele>69</ele>
        <time>2016-05-12T12:13:31Z</time>
      </trkpt>
      <trkpt lat="43.33795" lon="5.20556">
        <ele>69</ele>
        <time>2016-05-12T12:13:33Z</time>
      </trkpt>
      <trkpt lat="43.33794" lon="5.20558">
        <ele>69</ele>
        <time>2016-05-12T12:13:33Z</time>
      </trkpt>
      <trkpt lat="43.33794" lon="5.2056">
        <ele>69</ele>
        <time>2016-05-12T12:13:35Z</time>
      </trkpt>
      <trkpt lat="43.33793" lon="5.20562">
        <ele>69</ele>
        <time>2016-05-12T12:13:36Z</time>
      </trkpt>
      <trkpt lat="43.33792" lon="5.20563">
        <ele>69</ele>
        <time>2016-05-12T12:13:36Z</time>
      </trkpt>
      <trkpt lat="43.33791" lon="5.20565">
        <ele>69</ele>
        <time>2016-05-12T12:13:37Z</time>
      </trkpt>
      <trkpt lat="43.33791" lon="5.20567">
        <ele>69</ele>
        <time>2016-05-12T12:13:38Z</time>
      </trkpt>
      <trkpt lat="43.3379" lon="5.20569">
        <ele>69</ele>
        <time>2016-05-12T12:13:40Z</time>
      </trkpt>
      <trkpt lat="43.3379" lon="5.20571">
        <ele>69</ele>
        <time>2016-05-12T12:13:41Z</time>
      </trkpt>
      <trkpt lat="43.33789" lon="5.20573">
        <ele>69</ele>
        <time>2016-05-12T12:13:41Z</time>
      </trkpt>
      <trkpt lat="43.33789" lon="5.20575">
        <ele>69</ele>
        <time>2016-05-12T12:13:42Z</time>
      </trkpt>
      <trkpt lat="43.33788" lon="5.20576">
        <ele>69</ele>
        <time>2016-05-12T12:13:44Z</time>
      </trkpt>
      <trkpt lat="43.33788" lon="5.20578">
        <ele>69</ele>
        <time>2016-05-12T12:13:44Z</time>
      </trkpt>
      <trkpt lat="43.33788" lon="5.2058">
        <ele>69</ele>
        <time>2016-05-12T12:13:46Z</time>
      </trkpt>
      <trkpt lat="43.33788" lon="5.20581">
        <ele>69</ele>
        <time>2016-05-12T12:13:46Z</time>
      </trkpt>
      <trkpt lat="43.33788" lon="5.20583">
        <ele>69</ele>
        <time>2016-05-12T12:13:48Z</time>
      </trkpt>
      <trkpt lat="43.33787" lon="5.20585">
        <ele>69</ele>
        <time>2016-05-12T12:13:48Z</time>
      </trkpt>
      <trkpt lat="43.33787" lon="5.20587">
        <ele>69</ele>
        <time>2016-05-12T12:13:49Z</time>
      </trkpt>
      <trkpt lat="43.33786" lon="5.20588">
        <ele>69</ele>
        <time>2016-05-12T12:13:51Z</time>
      </trkpt>
      <trkpt lat="43.33786" lon="5.2059">
        <ele>69</ele>
        <time>2016-05-12T12:13:52Z</time>
      </trkpt>
      <trkpt lat="43.33786" lon="5.20592">
        <ele>69</ele>
        <time>2016-05-12T12:13:52Z</time>
      </trkpt>
      <trkpt lat="43.33785" lon="5.20593">
        <ele>69</ele>
        <time>2016-05-12T12:13:53Z</time>
      </trkpt>
      <trkpt lat="43.33784" lon="5.20595">
        <ele>69</ele>
        <time>2016-05-12T12:13:54Z</time>
      </trkpt>
      <trkpt lat="43.33784" lon="5.20597">
        <ele>69</ele>
        <time>2016-05-12T12:13:56Z</time>
      </trkpt>
      <trkpt lat="43.33783" lon="5.20599">
        <ele>69</ele>
        <time>2016-05-12T12:13:56Z</time>
      </trkpt>
      <trkpt lat="43.33783" lon="5.206">
        <ele>69</ele>
        <time>2016-05-12T12:13:57Z</time>
      </trkpt>
      <trkpt lat="43.33783" lon="5.20602">
        <ele>69</ele>
        <time>2016-05-12T12:13:58Z</time>
      </trkpt>
      <trkpt lat="43.33782" lon="5.20604">
        <ele>69</ele>
        <time>2016-05-12T12:14:00Z</time>
      </trkpt>
      <trkpt lat="43.33781" lon="5.20606">
        <ele>69</ele>
        <time>2016-05-12T12:14:00Z</time>
      </trkpt>
      <trkpt lat="43.33781" lon="5.20608">
        <ele>69</ele>
        <time>2016-05-12T12:14:02Z</time>
      </trkpt>
      <trkpt lat="43.3378" lon="5.20609">
        <ele>69</ele>
        <time>2016-05-12T12:14:02Z</time>
      </trkpt>
      <trkpt lat="43.33779" lon="5.20612">
        <ele>69</ele>
        <time>2016-05-12T12:14:04Z</time>
      </trkpt>
      <trkpt lat="43.33778" lon="5.20614">
        <ele>69</ele>
        <time>2016-05-12T12:14:07Z</time>
      </trkpt>
      <trkpt lat="43.33777" lon="5.20616">
        <ele>69</ele>
        <time>2016-05-12T12:14:07Z</time>
      </trkpt>
      <trkpt lat="43.33777" lon="5.20618">
        <ele>69</ele>
        <time>2016-05-12T12:14:08Z</time>
      </trkpt>
      <trkpt lat="43.33776" lon="5.20619">
        <ele>69</ele>
        <time>2016-05-12T12:14:09Z</time>
      </trkpt>
      <trkpt lat="43.33775" lon="5.20621">
        <ele>69</ele>
        <time>2016-05-12T12:14:10Z</time>
      </trkpt>
      <trkpt lat="43.33775" lon="5.20623">
        <ele>69</ele>
        <time>2016-05-12T12:14:12Z</time>
      </trkpt>
      <trkpt lat="43.33774" lon="5.20625">
        <ele>69</ele>
        <time>2016-05-12T12:14:12Z</time>
      </trkpt>
      <trkpt lat="43.33773" lon="5.20626">
        <ele>69</ele>
        <time>2016-05-12T12:14:13Z</time>
      </trkpt>
      <trkpt lat="43.33772" lon="5.20628">
        <ele>69</ele>
        <time>2016-05-12T12:14:14Z</time>
      </trkpt>
      <trkpt lat="43.33771" lon="5.2063">
        <ele>69</ele>
        <time>2016-05-12T12:14:16Z</time>
      </trkpt>
      <trkpt lat="43.3377" lon="5.20632">
        <ele>69</ele>
        <time>2016-05-12T12:14:17Z</time>
      </trkpt>
      <trkpt lat="43.3377" lon="5.20633">
        <ele>69</ele>
        <time>2016-05-12T12:14:17Z</time>
      </trkpt>
      <trkpt lat="43.33769" lon="5.20635">
        <ele>69</ele>
        <time>2016-05-12T12:14:18Z</time>
      </trkpt>
      <trkpt lat="43.33768" lon="5.20637">
        <ele>69</ele>
        <time>2016-05-12T12:14:19Z</time>
      </trkpt>
      <trkpt lat="43.33767" lon="5.20638">
        <ele>69</ele>
        <time>2016-05-12T12:14:20Z</time>
      </trkpt>
      <trkpt lat="43.33765" lon="5.20641">
        <ele>69</ele>
        <time>2016-05-12T12:14:23Z</time>
      </trkpt>
      <trkpt lat="43.33765" lon="5.20642">
        <ele>69</ele>
        <time>2016-05-12T12:14:23Z</time>
      </trkpt>
      <trkpt lat="43.33764" lon="5.20644">
        <ele>69</ele>
        <time>2016-05-12T12:14:24Z</time>
      </trkpt>
      <trkpt lat="43.33763" lon="5.20646">
        <ele>69</ele>
        <time>2016-05-12T12:14:25Z</time>
      </trkpt>
      <trkpt lat="43.33763" lon="5.20647">
        <ele>69</ele>
        <time>2016-05-12T12:14:26Z</time>
      </trkpt>
      <trkpt lat="43.33762" lon="5.20649">
        <ele>69</ele>
        <time>2016-05-12T12:14:28Z</time>
      </trkpt>
      <trkpt lat="43.33762" lon="5.20651">
        <ele>69</ele>
        <time>2016-05-12T12:14:28Z</time>
      </trkpt>
      <trkpt lat="43.33761" lon="5.20652">
        <ele>69</ele>
        <time>2016-05-12T12:14:29Z</time>
      </trkpt>
      <trkpt lat="43.33761" lon="5.20654">
        <ele>69</ele>
        <time>2016-05-12T12:14:30Z</time>
      </trkpt>
      <trkpt lat="43.3376" lon="5.20656">
        <ele>69</ele>
        <time>2016-05-12T12:14:31Z</time>
      </trkpt>
      <trkpt lat="43.3376" lon="5.20658">
        <ele>69</ele>
        <time>2016-05-12T12:14:33Z</time>
      </trkpt>
      <trkpt lat="43.3376" lon="5.2066">
        <ele>69</ele>
        <time>2016-05-12T12:14:33Z</time>
      </trkpt>
      <trkpt lat="43.3376" lon="5.20661">
        <ele>69</ele>
        <time>2016-05-12T12:14:34Z</time>
      </trkpt>
      <trkpt lat="43.33759" lon="5.20663">
        <ele>69</ele>
        <time>2016-05-12T12:14:35Z</time>
      </trkpt>
      <trkpt lat="43.33759" lon="5.20665">
        <ele>69</ele>
        <time>2016-05-12T12:14:36Z</time>
      </trkpt>
      <trkpt lat="43.33759" lon="5.20667">
        <ele>69</ele>
        <time>2016-05-12T12:14:38Z</time>
      </trkpt>
      <trkpt lat="43.33759" lon="5.20668">
        <ele>69</ele>
        <time>2016-05-12T12:14:38Z</time>
      </trkpt>
      <trkpt lat="43.33758" lon="5.2067">
        <ele>69</ele>
        <time>2016-05-12T12:14:39Z</time>
      </trkpt>
      <trkpt lat="43.33758" lon="5.20672">
        <ele>69</ele>
        <time>2016-05-12T12:14:40Z</time>
      </trkpt>
      <trkpt lat="43.33758" lon="5.20674">
        <ele>69</ele>
        <time>2016-05-12T12:14:41Z</time>
      </trkpt>
      <trkpt lat="43.33758" lon="5.20675">
        <ele>69</ele>
        <time>2016-05-12T12:14:43Z</time>
      </trkpt>
      <trkpt lat="43.33758" lon="5.20677">
        <ele>69</ele>
        <time>2016-05-12T12:14:43Z</time>
      </trkpt>
      <trkpt lat="43.33758" lon="5.20679">
        <ele>69</ele>
        <time>2016-05-12T12:14:44Z</time>
      </trkpt>
      <trkpt lat="43.33758" lon="5.20681">
        <ele>70</ele>
        <time>2016-05-12T12:14:45Z</time>
      </trkpt>
      <trkpt lat="43.33758" lon="5.20682">
        <ele>70</ele>
        <time>2016-05-12T12:14:46Z</time>
      </trkpt>
      <trkpt lat="43.33758" lon="5.20684">
        <ele>70</ele>
        <time>2016-05-12T12:14:48Z</time>
      </trkpt>
      <trkpt lat="43.33758" lon="5.20686">
        <ele>70</ele>
        <time>2016-05-12T12:14:48Z</time>
      </trkpt>
      <trkpt lat="43.33758" lon="5.20688">
        <ele>70</ele>
        <time>2016-05-12T12:14:49Z</time>
      </trkpt>
      <trkpt lat="43.33758" lon="5.2069">
        <ele>70</ele>
        <time>2016-05-12T12:14:50Z</time>
      </trkpt>
      <trkpt lat="43.33758" lon="5.20692">
        <ele>70</ele>
        <time>2016-05-12T12:14:51Z</time>
      </trkpt>
      <trkpt lat="43.33758" lon="5.20694">
        <ele>70</ele>
        <time>2016-05-12T12:14:52Z</time>
      </trkpt>
      <trkpt lat="43.33758" lon="5.20695">
        <ele>70</ele>
        <time>2016-05-12T12:14:53Z</time>
      </trkpt>
      <trkpt lat="43.33758" lon="5.20697">
        <ele>71</ele>
        <time>2016-05-12T12:14:54Z</time>
      </trkpt>
      <trkpt lat="43.33758" lon="5.20699">
        <ele>71</ele>
        <time>2016-05-12T12:14:55Z</time>
      </trkpt>
      <trkpt lat="43.33758" lon="5.207">
        <ele>71</ele>
        <time>2016-05-12T12:14:56Z</time>
      </trkpt>
      <trkpt lat="43.33758" lon="5.20702">
        <ele>71</ele>
        <time>2016-05-12T12:14:57Z</time>
      </trkpt>
      <trkpt lat="43.33758" lon="5.20704">
        <ele>71</ele>
        <time>2016-05-12T12:14:58Z</time>
      </trkpt>
      <trkpt lat="43.33758" lon="5.20706">
        <ele>71</ele>
        <time>2016-05-12T12:14:59Z</time>
      </trkpt>
      <trkpt lat="43.33757" lon="5.20707">
        <ele>71</ele>
        <time>2016-05-12T12:15:00Z</time>
      </trkpt>
      <trkpt lat="43.33757" lon="5.20709">
        <ele>71</ele>
        <time>2016-05-12T12:15:01Z</time>
      </trkpt>
      <trkpt lat="43.33757" lon="5.20711">
        <ele>71</ele>
        <time>2016-05-12T12:15:02Z</time>
      </trkpt>
      <trkpt lat="43.33757" lon="5.20713">
        <ele>71</ele>
        <time>2016-05-12T12:15:03Z</time>
      </trkpt>
      <trkpt lat="43.33757" lon="5.20714">
        <ele>72</ele>
        <time>2016-05-12T12:15:04Z</time>
      </trkpt>
      <trkpt lat="43.33758" lon="5.20716">
        <ele>72</ele>
        <time>2016-05-12T12:15:05Z</time>
      </trkpt>
      <trkpt lat="43.33758" lon="5.20718">
        <ele>72</ele>
        <time>2016-05-12T12:15:06Z</time>
      </trkpt>
      <trkpt lat="43.33758" lon="5.2072">
        <ele>72</ele>
        <time>2016-05-12T12:15:08Z</time>
      </trkpt>
      <trkpt lat="43.33758" lon="5.20721">
        <ele>72</ele>
        <time>2016-05-12T12:15:08Z</time>
      </trkpt>
      <trkpt lat="43.33758" lon="5.20723">
        <ele>72</ele>
        <time>2016-05-12T12:15:09Z</time>
      </trkpt>
      <trkpt lat="43.33758" lon="5.20725">
        <ele>72</ele>
        <time>2016-05-12T12:15:10Z</time>
      </trkpt>
      <trkpt lat="43.33758" lon="5.20726">
        <ele>73</ele>
        <time>2016-05-12T12:15:11Z</time>
      </trkpt>
      <trkpt lat="43.33758" lon="5.20728">
        <ele>73</ele>
        <time>2016-05-12T12:15:13Z</time>
      </trkpt>
      <trkpt lat="43.33758" lon="5.2073">
        <ele>73</ele>
        <time>2016-05-12T12:15:13Z</time>
      </trkpt>
      <trkpt lat="43.33759" lon="5.20732">
        <ele>73</ele>
        <time>2016-05-12T12:15:14Z</time>
      </trkpt>
      <trkpt lat="43.33759" lon="5.20733">
        <ele>73</ele>
        <time>2016-05-12T12:15:15Z</time>
      </trkpt>
      <trkpt lat="43.33759" lon="5.20735">
        <ele>74</ele>
        <time>2016-05-12T12:15:16Z</time>
      </trkpt>
      <trkpt lat="43.33759" lon="5.20737">
        <ele>74</ele>
        <time>2016-05-12T12:15:17Z</time>
      </trkpt>
      <trkpt lat="43.33759" lon="5.20739">
        <ele>74</ele>
        <time>2016-05-12T12:15:18Z</time>
      </trkpt>
      <trkpt lat="43.33759" lon="5.20741">
        <ele>74</ele>
        <time>2016-05-12T12:15:19Z</time>
      </trkpt>
      <trkpt lat="43.33759" lon="5.20743">
        <ele>74</ele>
        <time>2016-05-12T12:15:20Z</time>
      </trkpt>
      <trkpt lat="43.3376" lon="5.20744">
        <ele>74</ele>
        <time>2016-05-12T12:15:21Z</time>
      </trkpt>
      <trkpt lat="43.3376" lon="5.20746">
        <ele>74</ele>
        <time>2016-05-12T12:15:23Z</time>
      </trkpt>
      <trkpt lat="43.3376" lon="5.20748">
        <ele>74</ele>
        <time>2016-05-12T12:15:23Z</time>
      </trkpt>
      <trkpt lat="43.3376" lon="5.20749">
        <ele>75</ele>
        <time>2016-05-12T12:15:24Z</time>
      </trkpt>
      <trkpt lat="43.3376" lon="5.20751">
        <ele>75</ele>
        <time>2016-05-12T12:15:25Z</time>
      </trkpt>
      <trkpt lat="43.3376" lon="5.20753">
        <ele>75</ele>
        <time>2016-05-12T12:15:26Z</time>
      </trkpt>
      <trkpt lat="43.3376" lon="5.20754">
        <ele>75</ele>
        <time>2016-05-12T12:15:27Z</time>
      </trkpt>
      <trkpt lat="43.3376" lon="5.20756">
        <ele>75</ele>
        <time>2016-05-12T12:15:28Z</time>
      </trkpt>
      <trkpt lat="43.33761" lon="5.20758">
        <ele>75</ele>
        <time>2016-05-12T12:15:29Z</time>
      </trkpt>
      <trkpt lat="43.33761" lon="5.20759">
        <ele>76</ele>
        <time>2016-05-12T12:15:30Z</time>
      </trkpt>
      <trkpt lat="43.33761" lon="5.20761">
        <ele>76</ele>
        <time>2016-05-12T12:15:31Z</time>
      </trkpt>
      <trkpt lat="43.33762" lon="5.20763">
        <ele>76</ele>
        <time>2016-05-12T12:15:32Z</time>
      </trkpt>
      <trkpt lat="43.33762" lon="5.20765">
        <ele>76</ele>
        <time>2016-05-12T12:15:33Z</time>
      </trkpt>
      <trkpt lat="43.33762" lon="5.20766">
        <ele>76</ele>
        <time>2016-05-12T12:15:34Z</time>
      </trkpt>
      <trkpt lat="43.33762" lon="5.20768">
        <ele>76</ele>
        <time>2016-05-12T12:15:35Z</time>
      </trkpt>
      <trkpt lat="43.33762" lon="5.2077">
        <ele>76</ele>
        <time>2016-05-12T12:15:36Z</time>
      </trkpt>
      <trkpt lat="43.33763" lon="5.20772">
        <ele>76</ele>
        <time>2016-05-12T12:15:37Z</time>
      </trkpt>
      <trkpt lat="43.33763" lon="5.20773">
        <ele>76</ele>
        <time>2016-05-12T12:15:38Z</time>
      </trkpt>
      <trkpt lat="43.33764" lon="5.20775">
        <ele>76</ele>
        <time>2016-05-12T12:15:39Z</time>
      </trkpt>
      <trkpt lat="43.33764" lon="5.20777">
        <ele>77</ele>
        <time>2016-05-12T12:15:40Z</time>
      </trkpt>
      <trkpt lat="43.33764" lon="5.20779">
        <ele>77</ele>
        <time>2016-05-12T12:15:41Z</time>
      </trkpt>
      <trkpt lat="43.33764" lon="5.20781">
        <ele>77</ele>
        <time>2016-05-12T12:15:42Z</time>
      </trkpt>
      <trkpt lat="43.33765" lon="5.20782">
        <ele>77</ele>
        <time>2016-05-12T12:15:43Z</time>
      </trkpt>
      <trkpt lat="43.33765" lon="5.20784">
        <ele>77</ele>
        <time>2016-05-12T12:15:44Z</time>
      </trkpt>
      <trkpt lat="43.33765" lon="5.20786">
        <ele>77</ele>
        <time>2016-05-12T12:15:45Z</time>
      </trkpt>
      <trkpt lat="43.33765" lon="5.20788">
        <ele>78</ele>
        <time>2016-05-12T12:15:46Z</time>
      </trkpt>
      <trkpt lat="43.33765" lon="5.20789">
        <ele>78</ele>
        <time>2016-05-12T12:15:48Z</time>
      </trkpt>
      <trkpt lat="43.33765" lon="5.20791">
        <ele>78</ele>
        <time>2016-05-12T12:15:48Z</time>
      </trkpt>
      <trkpt lat="43.33765" lon="5.20793">
        <ele>78</ele>
        <time>2016-05-12T12:15:49Z</time>
      </trkpt>
      <trkpt lat="43.33765" lon="5.20795">
        <ele>78</ele>
        <time>2016-05-12T12:15:50Z</time>
      </trkpt>
      <trkpt lat="43.33765" lon="5.20797">
        <ele>78</ele>
        <time>2016-05-12T12:15:51Z</time>
      </trkpt>
      <trkpt lat="43.33765" lon="5.20799">
        <ele>78</ele>
        <time>2016-05-12T12:15:52Z</time>
      </trkpt>
      <trkpt lat="43.33765" lon="5.20801">
        <ele>78</ele>
        <time>2016-05-12T12:15:53Z</time>
      </trkpt>
      <trkpt lat="43.33765" lon="5.20802">
        <ele>78</ele>
        <time>2016-05-12T12:15:54Z</time>
      </trkpt>
      <trkpt lat="43.33764" lon="5.20804">
        <ele>79</ele>
        <time>2016-05-12T12:15:55Z</time>
      </trkpt>
      <trkpt lat="43.33764" lon="5.20806">
        <ele>79</ele>
        <time>2016-05-12T12:15:56Z</time>
      </trkpt>
      <trkpt lat="43.33764" lon="5.20808">
        <ele>79</ele>
        <time>2016-05-12T12:15:57Z</time>
      </trkpt>
      <trkpt lat="43.33764" lon="5.2081">
        <ele>79</ele>
        <time>2016-05-12T12:15:58Z</time>
      </trkpt>
      <trkpt lat="43.33764" lon="5.20812">
        <ele>79</ele>
        <time>2016-05-12T12:15:59Z</time>
      </trkpt>
      <trkpt lat="43.33763" lon="5.20813">
        <ele>80</ele>
        <time>2016-05-12T12:16:00Z</time>
      </trkpt>
      <trkpt lat="43.33763" lon="5.20815">
        <ele>80</ele>
        <time>2016-05-12T12:16:01Z</time>
      </trkpt>
      <trkpt lat="43.33763" lon="5.20817">
        <ele>80</ele>
        <time>2016-05-12T12:16:02Z</time>
      </trkpt>
      <trkpt lat="43.33763" lon="5.20818">
        <ele>80</ele>
        <time>2016-05-12T12:16:03Z</time>
      </trkpt>
      <trkpt lat="43.33762" lon="5.2082">
        <ele>80</ele>
        <time>2016-05-12T12:16:04Z</time>
      </trkpt>
      <trkpt lat="43.33762" lon="5.20822">
        <ele>80</ele>
        <time>2016-05-12T12:16:05Z</time>
      </trkpt>
      <trkpt lat="43.33762" lon="5.20823">
        <ele>81</ele>
        <time>2016-05-12T12:16:06Z</time>
      </trkpt>
      <trkpt lat="43.33762" lon="5.20825">
        <ele>81</ele>
        <time>2016-05-12T12:16:08Z</time>
      </trkpt>
      <trkpt lat="43.33762" lon="5.20827">
        <ele>81</ele>
        <time>2016-05-12T12:16:09Z</time>
      </trkpt>
      <trkpt lat="43.33761" lon="5.20829">
        <ele>81</ele>
        <time>2016-05-12T12:16:10Z</time>
      </trkpt>
      <trkpt lat="43.33762" lon="5.20831">
        <ele>81</ele>
        <time>2016-05-12T12:16:12Z</time>
      </trkpt>
      <trkpt lat="43.33762" lon="5.20834">
        <ele>82</ele>
        <time>2016-05-12T12:16:14Z</time>
      </trkpt>
      <trkpt lat="43.33762" lon="5.20837">
        <ele>82</ele>
        <time>2016-05-12T12:16:16Z</time>
      </trkpt>
      <trkpt lat="43.33762" lon="5.20839">
        <ele>82</ele>
        <time>2016-05-12T12:16:17Z</time>
      </trkpt>
      <trkpt lat="43.33762" lon="5.20841">
        <ele>83</ele>
        <time>2016-05-12T12:16:19Z</time>
      </trkpt>
      <trkpt lat="43.33762" lon="5.20844">
        <ele>83</ele>
        <time>2016-05-12T12:16:21Z</time>
      </trkpt>
      <trkpt lat="43.33762" lon="5.20845">
        <ele>83</ele>
        <time>2016-05-12T12:16:22Z</time>
      </trkpt>
      <trkpt lat="43.33762" lon="5.20848">
        <ele>83</ele>
        <time>2016-05-12T12:16:24Z</time>
      </trkpt>
      <trkpt lat="43.33763" lon="5.2085">
        <ele>84</ele>
        <time>2016-05-12T12:16:26Z</time>
      </trkpt>
      <trkpt lat="43.33763" lon="5.20853">
        <ele>84</ele>
        <time>2016-05-12T12:16:28Z</time>
      </trkpt>
      <trkpt lat="43.33764" lon="5.20855">
        <ele>84</ele>
        <time>2016-05-12T12:16:30Z</time>
      </trkpt>
      <trkpt lat="43.33765" lon="5.20857">
        <ele>85</ele>
        <time>2016-05-12T12:16:32Z</time>
      </trkpt>
      <trkpt lat="43.33765" lon="5.20859">
        <ele>85</ele>
        <time>2016-05-12T12:16:34Z</time>
      </trkpt>
      <trkpt lat="43.33766" lon="5.20862">
        <ele>86</ele>
        <time>2016-05-12T12:16:36Z</time>
      </trkpt>
      <trkpt lat="43.33766" lon="5.20863">
        <ele>86</ele>
        <time>2016-05-12T12:16:37Z</time>
      </trkpt>
      <trkpt lat="43.33766" lon="5.20865">
        <ele>86</ele>
        <time>2016-05-12T12:16:39Z</time>
      </trkpt>
      <trkpt lat="43.33767" lon="5.20867">
        <ele>86</ele>
        <time>2016-05-12T12:16:41Z</time>
      </trkpt>
      <trkpt lat="43.33767" lon="5.2087">
        <ele>87</ele>
        <time>2016-05-12T12:16:42Z</time>
      </trkpt>
      <trkpt lat="43.33767" lon="5.20871">
        <ele>87</ele>
        <time>2016-05-12T12:16:43Z</time>
      </trkpt>
      <trkpt lat="43.33768" lon="5.20874">
        <ele>87</ele>
        <time>2016-05-12T12:16:45Z</time>
      </trkpt>
      <trkpt lat="43.33768" lon="5.20877">
        <ele>88</ele>
        <time>2016-05-12T12:16:47Z</time>
      </trkpt>
      <trkpt lat="43.33768" lon="5.20879">
        <ele>88</ele>
        <time>2016-05-12T12:16:48Z</time>
      </trkpt>
      <trkpt lat="43.33768" lon="5.2088">
        <ele>88</ele>
        <time>2016-05-12T12:16:49Z</time>
      </trkpt>
      <trkpt lat="43.33768" lon="5.20882">
        <ele>88</ele>
        <time>2016-05-12T12:16:50Z</time>
      </trkpt>
      <trkpt lat="43.33768" lon="5.20884">
        <ele>88</ele>
        <time>2016-05-12T12:16:51Z</time>
      </trkpt>
      <trkpt lat="43.33768" lon="5.20885">
        <ele>88</ele>
        <time>2016-05-12T12:16:52Z</time>
      </trkpt>
      <trkpt lat="43.33768" lon="5.20887">
        <ele>88</ele>
        <time>2016-05-12T12:16:53Z</time>
      </trkpt>
      <trkpt lat="43.33768" lon="5.20889">
        <ele>88</ele>
        <time>2016-05-12T12:16:54Z</time>
      </trkpt>
      <trkpt lat="43.33768" lon="5.20891">
        <ele>89</ele>
        <time>2016-05-12T12:16:56Z</time>
      </trkpt>
      <trkpt lat="43.33768" lon="5.20893">
        <ele>89</ele>
        <time>2016-05-12T12:16:57Z</time>
      </trkpt>
      <trkpt lat="43.33768" lon="5.20894">
        <ele>89</ele>
        <time>2016-05-12T12:16:58Z</time>
      </trkpt>
      <trkpt lat="43.33768" lon="5.20896">
        <ele>89</ele>
        <time>2016-05-12T12:16:59Z</time>
      </trkpt>
      <trkpt lat="43.33768" lon="5.20897">
        <ele>89</ele>
        <time>2016-05-12T12:17:00Z</time>
      </trkpt>
      <trkpt lat="43.33768" lon="5.20899">
        <ele>90</ele>
        <time>2016-05-12T12:17:01Z</time>
      </trkpt>
      <trkpt lat="43.33768" lon="5.209">
        <ele>90</ele>
        <time>2016-05-12T12:17:02Z</time>
      </trkpt>
      <trkpt lat="43.33768" lon="5.20902">
        <ele>90</ele>
        <time>2016-05-12T12:17:03Z</time>
      </trkpt>
      <trkpt lat="43.33768" lon="5.20904">
        <ele>90</ele>
        <time>2016-05-12T12:17:04Z</time>
      </trkpt>
      <trkpt lat="43.33768" lon="5.20905">
        <ele>90</ele>
        <time>2016-05-12T12:17:05Z</time>
      </trkpt>
      <trkpt lat="43.33768" lon="5.20907">
        <ele>90</ele>
        <time>2016-05-12T12:17:06Z</time>
      </trkpt>
      <trkpt lat="43.33768" lon="5.20909">
        <ele>90</ele>
        <time>2016-05-12T12:17:07Z</time>
      </trkpt>
      <trkpt lat="43.33768" lon="5.20911">
        <ele>90</ele>
        <time>2016-05-12T12:17:08Z</time>
      </trkpt>
      <trkpt lat="43.33769" lon="5.20914">
        <ele>91</ele>
        <time>2016-05-12T12:17:10Z</time>
      </trkpt>
      <trkpt lat="43.33769" lon="5.20915">
        <ele>91</ele>
        <time>2016-05-12T12:17:12Z</time>
      </trkpt>
      <trkpt lat="43.33769" lon="5.20917">
        <ele>91</ele>
        <time>2016-05-12T12:17:12Z</time>
      </trkpt>
      <trkpt lat="43.33769" lon="5.20919">
        <ele>91</ele>
        <time>2016-05-12T12:17:13Z</time>
      </trkpt>
      <trkpt lat="43.33769" lon="5.2092">
        <ele>91</ele>
        <time>2016-05-12T12:17:14Z</time>
      </trkpt>
      <trkpt lat="43.33769" lon="5.20922">
        <ele>91</ele>
        <time>2016-05-12T12:17:15Z</time>
      </trkpt>
      <trkpt lat="43.33769" lon="5.20924">
        <ele>91</ele>
        <time>2016-05-12T12:17:16Z</time>
      </trkpt>
      <trkpt lat="43.33769" lon="5.20926">
        <ele>91</ele>
        <time>2016-05-12T12:17:17Z</time>
      </trkpt>
      <trkpt lat="43.33769" lon="5.20927">
        <ele>91</ele>
        <time>2016-05-12T12:17:18Z</time>
      </trkpt>
      <trkpt lat="43.33769" lon="5.20929">
        <ele>91</ele>
        <time>2016-05-12T12:17:19Z</time>
      </trkpt>
      <trkpt lat="43.33769" lon="5.20931">
        <ele>91</ele>
        <time>2016-05-12T12:17:20Z</time>
      </trkpt>
      <trkpt lat="43.33769" lon="5.20933">
        <ele>91</ele>
        <time>2016-05-12T12:17:21Z</time>
      </trkpt>
      <trkpt lat="43.33769" lon="5.20935">
        <ele>92</ele>
        <time>2016-05-12T12:17:22Z</time>
      </trkpt>
      <trkpt lat="43.33769" lon="5.20936">
        <ele>92</ele>
        <time>2016-05-12T12:17:23Z</time>
      </trkpt>
      <trkpt lat="43.33769" lon="5.20938">
        <ele>92</ele>
        <time>2016-05-12T12:17:24Z</time>
      </trkpt>
      <trkpt lat="43.33769" lon="5.2094">
        <ele>92</ele>
        <time>2016-05-12T12:17:25Z</time>
      </trkpt>
      <trkpt lat="43.33768" lon="5.20942">
        <ele>92</ele>
        <time>2016-05-12T12:17:26Z</time>
      </trkpt>
      <trkpt lat="43.33768" lon="5.20944">
        <ele>92</ele>
        <time>2016-05-12T12:17:27Z</time>
      </trkpt>
      <trkpt lat="43.33768" lon="5.20946">
        <ele>92</ele>
        <time>2016-05-12T12:17:28Z</time>
      </trkpt>
      <trkpt lat="43.33767" lon="5.20948">
        <ele>92</ele>
        <time>2016-05-12T12:17:29Z</time>
      </trkpt>
      <trkpt lat="43.33767" lon="5.2095">
        <ele>92</ele>
        <time>2016-05-12T12:17:30Z</time>
      </trkpt>
      <trkpt lat="43.33766" lon="5.20952">
        <ele>92</ele>
        <time>2016-05-12T12:17:32Z</time>
      </trkpt>
      <trkpt lat="43.33766" lon="5.20953">
        <ele>92</ele>
        <time>2016-05-12T12:17:32Z</time>
      </trkpt>
      <trkpt lat="43.33765" lon="5.20955">
        <ele>92</ele>
        <time>2016-05-12T12:17:33Z</time>
      </trkpt>
      <trkpt lat="43.33765" lon="5.20957">
        <ele>92</ele>
        <time>2016-05-12T12:17:34Z</time>
      </trkpt>
      <trkpt lat="43.33764" lon="5.20958">
        <ele>92</ele>
        <time>2016-05-12T12:17:35Z</time>
      </trkpt>
      <trkpt lat="43.33764" lon="5.2096">
        <ele>92</ele>
        <time>2016-05-12T12:17:36Z</time>
      </trkpt>
      <trkpt lat="43.33763" lon="5.20961">
        <ele>93</ele>
        <time>2016-05-12T12:17:37Z</time>
      </trkpt>
      <trkpt lat="43.33763" lon="5.20963">
        <ele>93</ele>
        <time>2016-05-12T12:17:38Z</time>
      </trkpt>
      <trkpt lat="43.33762" lon="5.20964">
        <ele>93</ele>
        <time>2016-05-12T12:17:39Z</time>
      </trkpt>
      <trkpt lat="43.33762" lon="5.20966">
        <ele>93</ele>
        <time>2016-05-12T12:17:40Z</time>
      </trkpt>
      <trkpt lat="43.33762" lon="5.20967">
        <ele>93</ele>
        <time>2016-05-12T12:17:41Z</time>
      </trkpt>
      <trkpt lat="43.33761" lon="5.20969">
        <ele>94</ele>
        <time>2016-05-12T12:17:42Z</time>
      </trkpt>
      <trkpt lat="43.33761" lon="5.2097">
        <ele>94</ele>
        <time>2016-05-12T12:17:43Z</time>
      </trkpt>
      <trkpt lat="43.33761" lon="5.20972">
        <ele>94</ele>
        <time>2016-05-12T12:17:44Z</time>
      </trkpt>
      <trkpt lat="43.3376" lon="5.20974">
        <ele>94</ele>
        <time>2016-05-12T12:17:45Z</time>
      </trkpt>
      <trkpt lat="43.3376" lon="5.20976">
        <ele>94</ele>
        <time>2016-05-12T12:17:46Z</time>
      </trkpt>
      <trkpt lat="43.3376" lon="5.20977">
        <ele>94</ele>
        <time>2016-05-12T12:17:47Z</time>
      </trkpt>
      <trkpt lat="43.3376" lon="5.20979">
        <ele>95</ele>
        <time>2016-05-12T12:17:48Z</time>
      </trkpt>
      <trkpt lat="43.3376" lon="5.20981">
        <ele>95</ele>
        <time>2016-05-12T12:17:49Z</time>
      </trkpt>
      <trkpt lat="43.33759" lon="5.20983">
        <ele>95</ele>
        <time>2016-05-12T12:17:50Z</time>
      </trkpt>
      <trkpt lat="43.33759" lon="5.20984">
        <ele>95</ele>
        <time>2016-05-12T12:17:51Z</time>
      </trkpt>
      <trkpt lat="43.33758" lon="5.20986">
        <ele>95</ele>
        <time>2016-05-12T12:17:52Z</time>
      </trkpt>
      <trkpt lat="43.33757" lon="5.20987">
        <ele>95</ele>
        <time>2016-05-12T12:17:53Z</time>
      </trkpt>
      <trkpt lat="43.33757" lon="5.20989">
        <ele>95</ele>
        <time>2016-05-12T12:17:54Z</time>
      </trkpt>
      <trkpt lat="43.33757" lon="5.20991">
        <ele>96</ele>
        <time>2016-05-12T12:17:55Z</time>
      </trkpt>
      <trkpt lat="43.33756" lon="5.20992">
        <ele>96</ele>
        <time>2016-05-12T12:17:56Z</time>
      </trkpt>
      <trkpt lat="43.33755" lon="5.20994">
        <ele>96</ele>
        <time>2016-05-12T12:17:57Z</time>
      </trkpt>
      <trkpt lat="43.33755" lon="5.20996">
        <ele>96</ele>
        <time>2016-05-12T12:17:58Z</time>
      </trkpt>
      <trkpt lat="43.33755" lon="5.20998">
        <ele>96</ele>
        <time>2016-05-12T12:17:59Z</time>
      </trkpt>
      <trkpt lat="43.33754" lon="5.21">
        <ele>96</ele>
        <time>2016-05-12T12:18:00Z</time>
      </trkpt>
      <trkpt lat="43.33754" lon="5.21002">
        <ele>96</ele>
        <time>2016-05-12T12:18:01Z</time>
      </trkpt>
      <trkpt lat="43.33753" lon="5.21003">
        <ele>96</ele>
        <time>2016-05-12T12:18:02Z</time>
      </trkpt>
      <trkpt lat="43.33753" lon="5.21005">
        <ele>96</ele>
        <time>2016-05-12T12:18:03Z</time>
      </trkpt>
      <trkpt lat="43.33753" lon="5.21007">
        <ele>96</ele>
        <time>2016-05-12T12:18:04Z</time>
      </trkpt>
      <trkpt lat="43.33752" lon="5.21009">
        <ele>96</ele>
        <time>2016-05-12T12:18:05Z</time>
      </trkpt>
      <trkpt lat="43.33752" lon="5.21011">
        <ele>96</ele>
        <time>2016-05-12T12:18:06Z</time>
      </trkpt>
      <trkpt lat="43.33751" lon="5.21013">
        <ele>96</ele>
        <time>2016-05-12T12:18:07Z</time>
      </trkpt>
      <trkpt lat="43.33751" lon="5.21015">
        <ele>96</ele>
        <time>2016-05-12T12:18:08Z</time>
      </trkpt>
      <trkpt lat="43.33751" lon="5.21016">
        <ele>96</ele>
        <time>2016-05-12T12:18:09Z</time>
      </trkpt>
      <trkpt lat="43.3375" lon="5.21018">
        <ele>97</ele>
        <time>2016-05-12T12:18:10Z</time>
      </trkpt>
      <trkpt lat="43.33749" lon="5.2102">
        <ele>97</ele>
        <time>2016-05-12T12:18:11Z</time>
      </trkpt>
      <trkpt lat="43.33749" lon="5.21021">
        <ele>97</ele>
        <time>2016-05-12T12:18:12Z</time>
      </trkpt>
      <trkpt lat="43.33748" lon="5.21023">
        <ele>97</ele>
        <time>2016-05-12T12:18:13Z</time>
      </trkpt>
      <trkpt lat="43.33748" lon="5.21025">
        <ele>97</ele>
        <time>2016-05-12T12:18:14Z</time>
      </trkpt>
      <trkpt lat="43.33747" lon="5.21027">
        <ele>97</ele>
        <time>2016-05-12T12:18:15Z</time>
      </trkpt>
      <trkpt lat="43.33747" lon="5.21028">
        <ele>97</ele>
        <time>2016-05-12T12:18:16Z</time>
      </trkpt>
      <trkpt lat="43.33747" lon="5.2103">
        <ele>97</ele>
        <time>2016-05-12T12:18:17Z</time>
      </trkpt>
      <trkpt lat="43.33746" lon="5.21032">
        <ele>97</ele>
        <time>2016-05-12T12:18:18Z</time>
      </trkpt>
      <trkpt lat="43.33746" lon="5.21033">
        <ele>97</ele>
        <time>2016-05-12T12:18:19Z</time>
      </trkpt>
      <trkpt lat="43.33746" lon="5.21035">
        <ele>97</ele>
        <time>2016-05-12T12:18:20Z</time>
      </trkpt>
      <trkpt lat="43.33745" lon="5.21036">
        <ele>98</ele>
        <time>2016-05-12T12:18:21Z</time>
      </trkpt>
      <trkpt lat="43.33745" lon="5.21038">
        <ele>98</ele>
        <time>2016-05-12T12:18:22Z</time>
      </trkpt>
      <trkpt lat="43.33745" lon="5.2104">
        <ele>98</ele>
        <time>2016-05-12T12:18:23Z</time>
      </trkpt>
      <trkpt lat="43.33744" lon="5.21041">
        <ele>98</ele>
        <time>2016-05-12T12:18:24Z</time>
      </trkpt>
      <trkpt lat="43.33744" lon="5.21043">
        <ele>99</ele>
        <time>2016-05-12T12:18:25Z</time>
      </trkpt>
      <trkpt lat="43.33744" lon="5.21045">
        <ele>99</ele>
        <time>2016-05-12T12:18:26Z</time>
      </trkpt>
      <trkpt lat="43.33744" lon="5.21046">
        <ele>99</ele>
        <time>2016-05-12T12:18:27Z</time>
      </trkpt>
      <trkpt lat="43.33744" lon="5.21048">
        <ele>99</ele>
        <time>2016-05-12T12:18:28Z</time>
      </trkpt>
      <trkpt lat="43.33743" lon="5.21049">
        <ele>100</ele>
        <time>2016-05-12T12:18:29Z</time>
      </trkpt>
      <trkpt lat="43.33742" lon="5.21053">
        <ele>100</ele>
        <time>2016-05-12T12:18:31Z</time>
      </trkpt>
      <trkpt lat="43.33741" lon="5.21055">
        <ele>100</ele>
        <time>2016-05-12T12:18:33Z</time>
      </trkpt>
      <trkpt lat="43.33741" lon="5.21057">
        <ele>101</ele>
        <time>2016-05-12T12:18:34Z</time>
      </trkpt>
      <trkpt lat="43.33741" lon="5.21059">
        <ele>101</ele>
        <time>2016-05-12T12:18:35Z</time>
      </trkpt>
      <trkpt lat="43.3374" lon="5.2106">
        <ele>101</ele>
        <time>2016-05-12T12:18:36Z</time>
      </trkpt>
      <trkpt lat="43.3374" lon="5.21062">
        <ele>101</ele>
        <time>2016-05-12T12:18:37Z</time>
      </trkpt>
      <trkpt lat="43.33739" lon="5.21064">
        <ele>101</ele>
        <time>2016-05-12T12:18:38Z</time>
      </trkpt>
      <trkpt lat="43.33739" lon="5.21065">
        <ele>102</ele>
        <time>2016-05-12T12:18:39Z</time>
      </trkpt>
      <trkpt lat="43.33739" lon="5.21067">
        <ele>102</ele>
        <time>2016-05-12T12:18:40Z</time>
      </trkpt>
      <trkpt lat="43.33738" lon="5.21068">
        <ele>102</ele>
        <time>2016-05-12T12:18:41Z</time>
      </trkpt>
      <trkpt lat="43.33738" lon="5.2107">
        <ele>102</ele>
        <time>2016-05-12T12:18:42Z</time>
      </trkpt>
      <trkpt lat="43.33737" lon="5.21072">
        <ele>102</ele>
        <time>2016-05-12T12:18:43Z</time>
      </trkpt>
      <trkpt lat="43.33737" lon="5.21073">
        <ele>102</ele>
        <time>2016-05-12T12:18:44Z</time>
      </trkpt>
      <trkpt lat="43.33736" lon="5.21075">
        <ele>102</ele>
        <time>2016-05-12T12:18:45Z</time>
      </trkpt>
      <trkpt lat="43.33736" lon="5.21077">
        <ele>102</ele>
        <time>2016-05-12T12:18:46Z</time>
      </trkpt>
      <trkpt lat="43.33736" lon="5.21078">
        <ele>102</ele>
        <time>2016-05-12T12:18:47Z</time>
      </trkpt>
      <trkpt lat="43.33735" lon="5.21081">
        <ele>103</ele>
        <time>2016-05-12T12:18:49Z</time>
      </trkpt>
      <trkpt lat="43.33734" lon="5.21082">
        <ele>103</ele>
        <time>2016-05-12T12:18:50Z</time>
      </trkpt>
      <trkpt lat="43.33734" lon="5.21084">
        <ele>103</ele>
        <time>2016-05-12T12:18:51Z</time>
      </trkpt>
      <trkpt lat="43.33733" lon="5.21086">
        <ele>103</ele>
        <time>2016-05-12T12:18:52Z</time>
      </trkpt>
      <trkpt lat="43.33733" lon="5.21087">
        <ele>103</ele>
        <time>2016-05-12T12:18:53Z</time>
      </trkpt>
      <trkpt lat="43.33733" lon="5.21089">
        <ele>103</ele>
        <time>2016-05-12T12:18:54Z</time>
      </trkpt>
      <trkpt lat="43.33732" lon="5.21091">
        <ele>103</ele>
        <time>2016-05-12T12:18:55Z</time>
      </trkpt>
      <trkpt lat="43.33732" lon="5.21092">
        <ele>104</ele>
        <time>2016-05-12T12:18:56Z</time>
      </trkpt>
      <trkpt lat="43.33732" lon="5.21094">
        <ele>104</ele>
        <time>2016-05-12T12:18:57Z</time>
      </trkpt>
      <trkpt lat="43.33731" lon="5.21096">
        <ele>104</ele>
        <time>2016-05-12T12:18:58Z</time>
      </trkpt>
      <trkpt lat="43.33731" lon="5.21097">
        <ele>104</ele>
        <time>2016-05-12T12:18:59Z</time>
      </trkpt>
      <trkpt lat="43.3373" lon="5.21099">
        <ele>104</ele>
        <time>2016-05-12T12:19:00Z</time>
      </trkpt>
      <trkpt lat="43.3373" lon="5.211">
        <ele>105</ele>
        <time>2016-05-12T12:19:01Z</time>
      </trkpt>
      <trkpt lat="43.33729" lon="5.21102">
        <ele>105</ele>
        <time>2016-05-12T12:19:02Z</time>
      </trkpt>
      <trkpt lat="43.33728" lon="5.21104">
        <ele>105</ele>
        <time>2016-05-12T12:19:03Z</time>
      </trkpt>
      <trkpt lat="43.33728" lon="5.21105">
        <ele>105</ele>
        <time>2016-05-12T12:19:04Z</time>
      </trkpt>
      <trkpt lat="43.33727" lon="5.21107">
        <ele>105</ele>
        <time>2016-05-12T12:19:05Z</time>
      </trkpt>
      <trkpt lat="43.33727" lon="5.21108">
        <ele>105</ele>
        <time>2016-05-12T12:19:06Z</time>
      </trkpt>
      <trkpt lat="43.33726" lon="5.2111">
        <ele>105</ele>
        <time>2016-05-12T12:19:07Z</time>
      </trkpt>
      <trkpt lat="43.33725" lon="5.21113">
        <ele>105</ele>
        <time>2016-05-12T12:19:09Z</time>
      </trkpt>
      <trkpt lat="43.33724" lon="5.21116">
        <ele>106</ele>
        <time>2016-05-12T12:19:11Z</time>
      </trkpt>
      <trkpt lat="43.33723" lon="5.21117">
        <ele>106</ele>
        <time>2016-05-12T12:19:12Z</time>
      </trkpt>
      <trkpt lat="43.33723" lon="5.21119">
        <ele>106</ele>
        <time>2016-05-12T12:19:13Z</time>
      </trkpt>
      <trkpt lat="43.33722" lon="5.2112">
        <ele>106</ele>
        <time>2016-05-12T12:19:14Z</time>
      </trkpt>
      <trkpt lat="43.33722" lon="5.21122">
        <ele>106</ele>
        <time>2016-05-12T12:19:15Z</time>
      </trkpt>
      <trkpt lat="43.33721" lon="5.21124">
        <ele>106</ele>
        <time>2016-05-12T12:19:16Z</time>
      </trkpt>
      <trkpt lat="43.3372" lon="5.21125">
        <ele>106</ele>
        <time>2016-05-12T12:19:17Z</time>
      </trkpt>
      <trkpt lat="43.3372" lon="5.21127">
        <ele>107</ele>
        <time>2016-05-12T12:19:18Z</time>
      </trkpt>
      <trkpt lat="43.33719" lon="5.21129">
        <ele>107</ele>
        <time>2016-05-12T12:19:20Z</time>
      </trkpt>
      <trkpt lat="43.33718" lon="5.21131">
        <ele>107</ele>
        <time>2016-05-12T12:19:21Z</time>
      </trkpt>
      <trkpt lat="43.33717" lon="5.21133">
        <ele>108</ele>
        <time>2016-05-12T12:19:23Z</time>
      </trkpt>
      <trkpt lat="43.33717" lon="5.21135">
        <ele>108</ele>
        <time>2016-05-12T12:19:24Z</time>
      </trkpt>
      <trkpt lat="43.33716" lon="5.21137">
        <ele>108</ele>
        <time>2016-05-12T12:19:25Z</time>
      </trkpt>
      <trkpt lat="43.33715" lon="5.21138">
        <ele>108</ele>
        <time>2016-05-12T12:19:26Z</time>
      </trkpt>
      <trkpt lat="43.33715" lon="5.2114">
        <ele>108</ele>
        <time>2016-05-12T12:19:27Z</time>
      </trkpt>
      <trkpt lat="43.33714" lon="5.21141">
        <ele>108</ele>
        <time>2016-05-12T12:19:28Z</time>
      </trkpt>
      <trkpt lat="43.33713" lon="5.21143">
        <ele>108</ele>
        <time>2016-05-12T12:19:29Z</time>
      </trkpt>
      <trkpt lat="43.33713" lon="5.21144">
        <ele>108</ele>
        <time>2016-05-12T12:19:30Z</time>
      </trkpt>
      <trkpt lat="43.33711" lon="5.21147">
        <ele>108</ele>
        <time>2016-05-12T12:19:32Z</time>
      </trkpt>
      <trkpt lat="43.33711" lon="5.21149">
        <ele>108</ele>
        <time>2016-05-12T12:19:33Z</time>
      </trkpt>
      <trkpt lat="43.3371" lon="5.2115">
        <ele>108</ele>
        <time>2016-05-12T12:19:34Z</time>
      </trkpt>
      <trkpt lat="43.3371" lon="5.21152">
        <ele>108</ele>
        <time>2016-05-12T12:19:35Z</time>
      </trkpt>
      <trkpt lat="43.33709" lon="5.21154">
        <ele>108</ele>
        <time>2016-05-12T12:19:36Z</time>
      </trkpt>
      <trkpt lat="43.33709" lon="5.21156">
        <ele>108</ele>
        <time>2016-05-12T12:19:37Z</time>
      </trkpt>
      <trkpt lat="43.33708" lon="5.21157">
        <ele>108</ele>
        <time>2016-05-12T12:19:38Z</time>
      </trkpt>
      <trkpt lat="43.33707" lon="5.21159">
        <ele>108</ele>
        <time>2016-05-12T12:19:39Z</time>
      </trkpt>
      <trkpt lat="43.33707" lon="5.21161">
        <ele>108</ele>
        <time>2016-05-12T12:19:40Z</time>
      </trkpt>
      <trkpt lat="43.33706" lon="5.21163">
        <ele>108</ele>
        <time>2016-05-12T12:19:41Z</time>
      </trkpt>
      <trkpt lat="43.33705" lon="5.21164">
        <ele>108</ele>
        <time>2016-05-12T12:19:42Z</time>
      </trkpt>
      <trkpt lat="43.33705" lon="5.21166">
        <ele>108</ele>
        <time>2016-05-12T12:19:43Z</time>
      </trkpt>
      <trkpt lat="43.33704" lon="5.21168">
        <ele>108</ele>
        <time>2016-05-12T12:19:44Z</time>
      </trkpt>
      <trkpt lat="43.33704" lon="5.2117">
        <ele>108</ele>
        <time>2016-05-12T12:19:45Z</time>
      </trkpt>
      <trkpt lat="43.33703" lon="5.21172">
        <ele>108</ele>
        <time>2016-05-12T12:19:46Z</time>
      </trkpt>
      <trkpt lat="43.33702" lon="5.21173">
        <ele>108</ele>
        <time>2016-05-12T12:19:47Z</time>
      </trkpt>
      <trkpt lat="43.33702" lon="5.21174">
        <ele>108</ele>
        <time>2016-05-12T12:19:48Z</time>
      </trkpt>
      <trkpt lat="43.33701" lon="5.21176">
        <ele>108</ele>
        <time>2016-05-12T12:19:49Z</time>
      </trkpt>
      <trkpt lat="43.33701" lon="5.21178">
        <ele>108</ele>
        <time>2016-05-12T12:19:50Z</time>
      </trkpt>
      <trkpt lat="43.33701" lon="5.21179">
        <ele>108</ele>
        <time>2016-05-12T12:19:51Z</time>
      </trkpt>
      <trkpt lat="43.337" lon="5.21182">
        <ele>108</ele>
        <time>2016-05-12T12:19:53Z</time>
      </trkpt>
      <trkpt lat="43.33699" lon="5.21183">
        <ele>108</ele>
        <time>2016-05-12T12:19:54Z</time>
      </trkpt>
      <trkpt lat="43.33699" lon="5.21185">
        <ele>108</ele>
        <time>2016-05-12T12:19:55Z</time>
      </trkpt>
      <trkpt lat="43.33697" lon="5.21187">
        <ele>108</ele>
        <time>2016-05-12T12:19:57Z</time>
      </trkpt>
      <trkpt lat="43.33696" lon="5.21188">
        <ele>109</ele>
        <time>2016-05-12T12:19:58Z</time>
      </trkpt>
      <trkpt lat="43.33694" lon="5.2119">
        <ele>109</ele>
        <time>2016-05-12T12:20:00Z</time>
      </trkpt>
      <trkpt lat="43.33691" lon="5.21193">
        <ele>109</ele>
        <time>2016-05-12T12:20:02Z</time>
      </trkpt>
      <trkpt lat="43.3369" lon="5.21193">
        <ele>109</ele>
        <time>2016-05-12T12:20:03Z</time>
      </trkpt>
      <trkpt lat="43.33689" lon="5.21194">
        <ele>109</ele>
        <time>2016-05-12T12:20:04Z</time>
      </trkpt>
      <trkpt lat="43.33688" lon="5.21194">
        <ele>109</ele>
        <time>2016-05-12T12:20:05Z</time>
      </trkpt>
      <trkpt lat="43.33686" lon="5.21195">
        <ele>109</ele>
        <time>2016-05-12T12:20:06Z</time>
      </trkpt>
      <trkpt lat="43.33685" lon="5.21196">
        <ele>109</ele>
        <time>2016-05-12T12:20:07Z</time>
      </trkpt>
      <trkpt lat="43.33683" lon="5.21198">
        <ele>109</ele>
        <time>2016-05-12T12:20:09Z</time>
      </trkpt>
      <trkpt lat="43.33683" lon="5.21199">
        <ele>109</ele>
        <time>2016-05-12T12:20:10Z</time>
      </trkpt>
      <trkpt lat="43.33681" lon="5.21202">
        <ele>109</ele>
        <time>2016-05-12T12:20:12Z</time>
      </trkpt>
      <trkpt lat="43.33681" lon="5.21204">
        <ele>109</ele>
        <time>2016-05-12T12:20:13Z</time>
      </trkpt>
      <trkpt lat="43.33681" lon="5.21206">
        <ele>109</ele>
        <time>2016-05-12T12:20:14Z</time>
      </trkpt>
      <trkpt lat="43.33681" lon="5.21207">
        <ele>110</ele>
        <time>2016-05-12T12:20:15Z</time>
      </trkpt>
      <trkpt lat="43.33681" lon="5.21209">
        <ele>110</ele>
        <time>2016-05-12T12:20:16Z</time>
      </trkpt>
      <trkpt lat="43.3368" lon="5.2121">
        <ele>110</ele>
        <time>2016-05-12T12:20:17Z</time>
      </trkpt>
      <trkpt lat="43.3368" lon="5.21212">
        <ele>110</ele>
        <time>2016-05-12T12:20:18Z</time>
      </trkpt>
      <trkpt lat="43.3368" lon="5.21214">
        <ele>110</ele>
        <time>2016-05-12T12:20:19Z</time>
      </trkpt>
      <trkpt lat="43.3368" lon="5.21215">
        <ele>111</ele>
        <time>2016-05-12T12:20:20Z</time>
      </trkpt>
      <trkpt lat="43.3368" lon="5.21217">
        <ele>111</ele>
        <time>2016-05-12T12:20:21Z</time>
      </trkpt>
      <trkpt lat="43.3368" lon="5.21218">
        <ele>111</ele>
        <time>2016-05-12T12:20:22Z</time>
      </trkpt>
      <trkpt lat="43.33679" lon="5.2122">
        <ele>111</ele>
        <time>2016-05-12T12:20:23Z</time>
      </trkpt>
      <trkpt lat="43.33679" lon="5.21221">
        <ele>112</ele>
        <time>2016-05-12T12:20:24Z</time>
      </trkpt>
      <trkpt lat="43.33679" lon="5.21223">
        <ele>112</ele>
        <time>2016-05-12T12:20:25Z</time>
      </trkpt>
      <trkpt lat="43.33679" lon="5.21225">
        <ele>112</ele>
        <time>2016-05-12T12:20:26Z</time>
      </trkpt>
      <trkpt lat="43.33679" lon="5.21226">
        <ele>112</ele>
        <time>2016-05-12T12:20:27Z</time>
      </trkpt>
      <trkpt lat="43.33679" lon="5.21228">
        <ele>112</ele>
        <time>2016-05-12T12:20:28Z</time>
      </trkpt>
      <trkpt lat="43.33679" lon="5.2123">
        <ele>113</ele>
        <time>2016-05-12T12:20:30Z</time>
      </trkpt>
      <trkpt lat="43.33679" lon="5.21232">
        <ele>113</ele>
        <time>2016-05-12T12:20:31Z</time>
      </trkpt>
      <trkpt lat="43.33679" lon="5.21233">
        <ele>113</ele>
        <time>2016-05-12T12:20:32Z</time>
      </trkpt>
      <trkpt lat="43.33679" lon="5.21235">
        <ele>113</ele>
        <time>2016-05-12T12:20:33Z</time>
      </trkpt>
      <trkpt lat="43.33679" lon="5.21237">
        <ele>114</ele>
        <time>2016-05-12T12:20:34Z</time>
      </trkpt>
      <trkpt lat="43.33679" lon="5.21239">
        <ele>114</ele>
        <time>2016-05-12T12:20:35Z</time>
      </trkpt>
      <trkpt lat="43.3368" lon="5.21241">
        <ele>114</ele>
        <time>2016-05-12T12:20:37Z</time>
      </trkpt>
      <trkpt lat="43.3368" lon="5.21243">
        <ele>114</ele>
        <time>2016-05-12T12:20:38Z</time>
      </trkpt>
      <trkpt lat="43.3368" lon="5.21244">
        <ele>114</ele>
        <time>2016-05-12T12:20:39Z</time>
      </trkpt>
      <trkpt lat="43.3368" lon="5.21246">
        <ele>114</ele>
        <time>2016-05-12T12:20:40Z</time>
      </trkpt>
      <trkpt lat="43.3368" lon="5.21248">
        <ele>115</ele>
        <time>2016-05-12T12:20:42Z</time>
      </trkpt>
      <trkpt lat="43.33681" lon="5.21251">
        <ele>115</ele>
        <time>2016-05-12T12:20:44Z</time>
      </trkpt>
      <trkpt lat="43.33682" lon="5.21253">
        <ele>116</ele>
        <time>2016-05-12T12:20:46Z</time>
      </trkpt>
      <trkpt lat="43.33683" lon="5.21255">
        <ele>116</ele>
        <time>2016-05-12T12:20:48Z</time>
      </trkpt>
      <trkpt lat="43.33684" lon="5.21258">
        <ele>116</ele>
        <time>2016-05-12T12:20:50Z</time>
      </trkpt>
      <trkpt lat="43.33684" lon="5.2126">
        <ele>117</ele>
        <time>2016-05-12T12:20:52Z</time>
      </trkpt>
      <trkpt lat="43.33685" lon="5.21263">
        <ele>117</ele>
        <time>2016-05-12T12:20:54Z</time>
      </trkpt>
      <trkpt lat="43.33686" lon="5.21265">
        <ele>118</ele>
        <time>2016-05-12T12:20:56Z</time>
      </trkpt>
      <trkpt lat="43.33687" lon="5.21268">
        <ele>118</ele>
        <time>2016-05-12T12:20:58Z</time>
      </trkpt>
      <trkpt lat="43.33687" lon="5.21269">
        <ele>118</ele>
        <time>2016-05-12T12:20:59Z</time>
      </trkpt>
      <trkpt lat="43.33688" lon="5.21271">
        <ele>118</ele>
        <time>2016-05-12T12:21:00Z</time>
      </trkpt>
      <trkpt lat="43.33688" lon="5.21272">
        <ele>118</ele>
        <time>2016-05-12T12:21:01Z</time>
      </trkpt>
      <trkpt lat="43.33689" lon="5.21275">
        <ele>119</ele>
        <time>2016-05-12T12:21:03Z</time>
      </trkpt>
      <trkpt lat="43.33689" lon="5.21277">
        <ele>119</ele>
        <time>2016-05-12T12:21:04Z</time>
      </trkpt>
      <trkpt lat="43.33689" lon="5.21278">
        <ele>119</ele>
        <time>2016-05-12T12:21:05Z</time>
      </trkpt>
      <trkpt lat="43.33689" lon="5.2128">
        <ele>119</ele>
        <time>2016-05-12T12:21:06Z</time>
      </trkpt>
      <trkpt lat="43.33689" lon="5.21282">
        <ele>119</ele>
        <time>2016-05-12T12:21:07Z</time>
      </trkpt>
      <trkpt lat="43.33689" lon="5.21283">
        <ele>120</ele>
        <time>2016-05-12T12:21:08Z</time>
      </trkpt>
      <trkpt lat="43.33689" lon="5.21285">
        <ele>120</ele>
        <time>2016-05-12T12:21:09Z</time>
      </trkpt>
      <trkpt lat="43.3369" lon="5.21287">
        <ele>120</ele>
        <time>2016-05-12T12:21:10Z</time>
      </trkpt>
      <trkpt lat="43.3369" lon="5.21288">
        <ele>120</ele>
        <time>2016-05-12T12:21:11Z</time>
      </trkpt>
      <trkpt lat="43.33691" lon="5.21291">
        <ele>121</ele>
        <time>2016-05-12T12:21:13Z</time>
      </trkpt>
      <trkpt lat="43.33691" lon="5.21293">
        <ele>121</ele>
        <time>2016-05-12T12:21:14Z</time>
      </trkpt>
      <trkpt lat="43.33691" lon="5.21294">
        <ele>121</ele>
        <time>2016-05-12T12:21:15Z</time>
      </trkpt>
      <trkpt lat="43.33691" lon="5.21296">
        <ele>121</ele>
        <time>2016-05-12T12:21:16Z</time>
      </trkpt>
      <trkpt lat="43.33692" lon="5.21298">
        <ele>121</ele>
        <time>2016-05-12T12:21:17Z</time>
      </trkpt>
      <trkpt lat="43.33692" lon="5.21301">
        <ele>121</ele>
        <time>2016-05-12T12:21:19Z</time>
      </trkpt>
      <trkpt lat="43.33692" lon="5.21302">
        <ele>121</ele>
        <time>2016-05-12T12:21:20Z</time>
      </trkpt>
      <trkpt lat="43.33692" lon="5.21304">
        <ele>122</ele>
        <time>2016-05-12T12:21:21Z</time>
      </trkpt>
      <trkpt lat="43.33692" lon="5.21306">
        <ele>122</ele>
        <time>2016-05-12T12:21:22Z</time>
      </trkpt>
      <trkpt lat="43.33693" lon="5.21308">
        <ele>122</ele>
        <time>2016-05-12T12:21:23Z</time>
      </trkpt>
      <trkpt lat="43.33693" lon="5.2131">
        <ele>122</ele>
        <time>2016-05-12T12:21:24Z</time>
      </trkpt>
      <trkpt lat="43.33694" lon="5.21311">
        <ele>122</ele>
        <time>2016-05-12T12:21:25Z</time>
      </trkpt>
      <trkpt lat="43.33696" lon="5.21313">
        <ele>122</ele>
        <time>2016-05-12T12:21:27Z</time>
      </trkpt>
      <trkpt lat="43.33698" lon="5.21313">
        <ele>122</ele>
        <time>2016-05-12T12:21:29Z</time>
      </trkpt>
      <trkpt lat="43.33699" lon="5.21313">
        <ele>123</ele>
        <time>2016-05-12T12:21:30Z</time>
      </trkpt>
      <trkpt lat="43.33701" lon="5.21313">
        <ele>123</ele>
        <time>2016-05-12T12:21:31Z</time>
      </trkpt>
      <trkpt lat="43.33702" lon="5.21314">
        <ele>123</ele>
        <time>2016-05-12T12:21:32Z</time>
      </trkpt>
      <trkpt lat="43.33703" lon="5.21314">
        <ele>123</ele>
        <time>2016-05-12T12:21:33Z</time>
      </trkpt>
      <trkpt lat="43.33704" lon="5.21314">
        <ele>123</ele>
        <time>2016-05-12T12:21:34Z</time>
      </trkpt>
      <trkpt lat="43.33706" lon="5.21314">
        <ele>123</ele>
        <time>2016-05-12T12:21:35Z</time>
      </trkpt>
      <trkpt lat="43.33707" lon="5.21313">
        <ele>123</ele>
        <time>2016-05-12T12:21:36Z</time>
      </trkpt>
      <trkpt lat="43.33709" lon="5.21313">
        <ele>124</ele>
        <time>2016-05-12T12:21:37Z</time>
      </trkpt>
      <trkpt lat="43.3371" lon="5.21313">
        <ele>124</ele>
        <time>2016-05-12T12:21:38Z</time>
      </trkpt>
      <trkpt lat="43.33712" lon="5.21311">
        <ele>124</ele>
        <time>2016-05-12T12:21:40Z</time>
      </trkpt>
      <trkpt lat="43.33713" lon="5.2131">
        <ele>124</ele>
        <time>2016-05-12T12:21:41Z</time>
      </trkpt>
      <trkpt lat="43.33715" lon="5.21309">
        <ele>124</ele>
        <time>2016-05-12T12:21:42Z</time>
      </trkpt>
      <trkpt lat="43.33716" lon="5.21308">
        <ele>124</ele>
        <time>2016-05-12T12:21:43Z</time>
      </trkpt>
      <trkpt lat="43.33718" lon="5.21306">
        <ele>125</ele>
        <time>2016-05-12T12:21:45Z</time>
      </trkpt>
      <trkpt lat="43.33719" lon="5.21305">
        <ele>125</ele>
        <time>2016-05-12T12:21:46Z</time>
      </trkpt>
      <trkpt lat="43.3372" lon="5.21304">
        <ele>125</ele>
        <time>2016-05-12T12:21:47Z</time>
      </trkpt>
      <trkpt lat="43.33722" lon="5.21302">
        <ele>125</ele>
        <time>2016-05-12T12:21:49Z</time>
      </trkpt>
      <trkpt lat="43.33723" lon="5.21301">
        <ele>125</ele>
        <time>2016-05-12T12:21:50Z</time>
      </trkpt>
      <trkpt lat="43.33725" lon="5.213">
        <ele>125</ele>
        <time>2016-05-12T12:21:51Z</time>
      </trkpt>
      <trkpt lat="43.33726" lon="5.21299">
        <ele>125</ele>
        <time>2016-05-12T12:21:52Z</time>
      </trkpt>
      <trkpt lat="43.33727" lon="5.21299">
        <ele>125</ele>
        <time>2016-05-12T12:21:53Z</time>
      </trkpt>
      <trkpt lat="43.33728" lon="5.21299">
        <ele>125</ele>
        <time>2016-05-12T12:21:54Z</time>
      </trkpt>
      <trkpt lat="43.3373" lon="5.21299">
        <ele>125</ele>
        <time>2016-05-12T12:21:55Z</time>
      </trkpt>
      <trkpt lat="43.33731" lon="5.21298">
        <ele>126</ele>
        <time>2016-05-12T12:21:56Z</time>
      </trkpt>
      <trkpt lat="43.33732" lon="5.21298">
        <ele>126</ele>
        <time>2016-05-12T12:21:57Z</time>
      </trkpt>
      <trkpt lat="43.33734" lon="5.21299">
        <ele>126</ele>
        <time>2016-05-12T12:21:58Z</time>
      </trkpt>
      <trkpt lat="43.33735" lon="5.213">
        <ele>126</ele>
        <time>2016-05-12T12:21:59Z</time>
      </trkpt>
      <trkpt lat="43.33736" lon="5.21301">
        <ele>126</ele>
        <time>2016-05-12T12:22:00Z</time>
      </trkpt>
      <trkpt lat="43.33738" lon="5.21301">
        <ele>126</ele>
        <time>2016-05-12T12:22:01Z</time>
      </trkpt>
      <trkpt lat="43.33739" lon="5.21302">
        <ele>126</ele>
        <time>2016-05-12T12:22:02Z</time>
      </trkpt>
      <trkpt lat="43.3374" lon="5.21303">
        <ele>126</ele>
        <time>2016-05-12T12:22:03Z</time>
      </trkpt>
      <trkpt lat="43.33741" lon="5.21304">
        <ele>126</ele>
        <time>2016-05-12T12:22:04Z</time>
      </trkpt>
      <trkpt lat="43.33742" lon="5.21305">
        <ele>126</ele>
        <time>2016-05-12T12:22:05Z</time>
      </trkpt>
      <trkpt lat="43.33743" lon="5.21306">
        <ele>126</ele>
        <time>2016-05-12T12:22:06Z</time>
      </trkpt>
      <trkpt lat="43.33745" lon="5.21308">
        <ele>126</ele>
        <time>2016-05-12T12:22:08Z</time>
      </trkpt>
      <trkpt lat="43.33747" lon="5.21311">
        <ele>126</ele>
        <time>2016-05-12T12:22:10Z</time>
      </trkpt>
      <trkpt lat="43.33749" lon="5.21313">
        <ele>126</ele>
        <time>2016-05-12T12:22:12Z</time>
      </trkpt>
      <trkpt lat="43.3375" lon="5.21315">
        <ele>126</ele>
        <time>2016-05-12T12:22:13Z</time>
      </trkpt>
      <trkpt lat="43.33751" lon="5.21316">
        <ele>126</ele>
        <time>2016-05-12T12:22:14Z</time>
      </trkpt>
      <trkpt lat="43.33751" lon="5.21318">
        <ele>126</ele>
        <time>2016-05-12T12:22:15Z</time>
      </trkpt>
      <trkpt lat="43.33752" lon="5.21319">
        <ele>126</ele>
        <time>2016-05-12T12:22:16Z</time>
      </trkpt>
      <trkpt lat="43.33753" lon="5.21321">
        <ele>126</ele>
        <time>2016-05-12T12:22:17Z</time>
      </trkpt>
      <trkpt lat="43.33754" lon="5.21322">
        <ele>127</ele>
        <time>2016-05-12T12:22:18Z</time>
      </trkpt>
      <trkpt lat="43.33756" lon="5.21325">
        <ele>127</ele>
        <time>2016-05-12T12:22:20Z</time>
      </trkpt>
      <trkpt lat="43.33757" lon="5.21327">
        <ele>127</ele>
        <time>2016-05-12T12:22:22Z</time>
      </trkpt>
      <trkpt lat="43.33759" lon="5.2133">
        <ele>128</ele>
        <time>2016-05-12T12:22:24Z</time>
      </trkpt>
      <trkpt lat="43.3376" lon="5.21332">
        <ele>128</ele>
        <time>2016-05-12T12:22:25Z</time>
      </trkpt>
      <trkpt lat="43.33761" lon="5.21333">
        <ele>128</ele>
        <time>2016-05-12T12:22:26Z</time>
      </trkpt>
      <trkpt lat="43.33762" lon="5.21335">
        <ele>128</ele>
        <time>2016-05-12T12:22:27Z</time>
      </trkpt>
      <trkpt lat="43.33762" lon="5.21336">
        <ele>128</ele>
        <time>2016-05-12T12:22:28Z</time>
      </trkpt>
      <trkpt lat="43.33764" lon="5.21339">
        <ele>128</ele>
        <time>2016-05-12T12:22:30Z</time>
      </trkpt>
      <trkpt lat="43.33765" lon="5.2134">
        <ele>129</ele>
        <time>2016-05-12T12:22:31Z</time>
      </trkpt>
      <trkpt lat="43.33766" lon="5.21342">
        <ele>129</ele>
        <time>2016-05-12T12:22:32Z</time>
      </trkpt>
      <trkpt lat="43.33768" lon="5.21344">
        <ele>129</ele>
        <time>2016-05-12T12:22:34Z</time>
      </trkpt>
      <trkpt lat="43.3377" lon="5.21345">
        <ele>129</ele>
        <time>2016-05-12T12:22:36Z</time>
      </trkpt>
      <trkpt lat="43.33771" lon="5.21345">
        <ele>129</ele>
        <time>2016-05-12T12:22:36Z</time>
      </trkpt>
      <trkpt lat="43.33772" lon="5.21346">
        <ele>129</ele>
        <time>2016-05-12T12:22:37Z</time>
      </trkpt>
      <trkpt lat="43.33774" lon="5.21346">
        <ele>130</ele>
        <time>2016-05-12T12:22:38Z</time>
      </trkpt>
      <trkpt lat="43.33775" lon="5.21346">
        <ele>130</ele>
        <time>2016-05-12T12:22:39Z</time>
      </trkpt>
      <trkpt lat="43.33776" lon="5.21346">
        <ele>130</ele>
        <time>2016-05-12T12:22:40Z</time>
      </trkpt>
      <trkpt lat="43.33778" lon="5.21345">
        <ele>130</ele>
        <time>2016-05-12T12:22:41Z</time>
      </trkpt>
      <trkpt lat="43.33779" lon="5.21345">
        <ele>130</ele>
        <time>2016-05-12T12:22:42Z</time>
      </trkpt>
      <trkpt lat="43.3378" lon="5.21344">
        <ele>131</ele>
        <time>2016-05-12T12:22:43Z</time>
      </trkpt>
      <trkpt lat="43.33782" lon="5.21343">
        <ele>131</ele>
        <time>2016-05-12T12:22:44Z</time>
      </trkpt>
      <trkpt lat="43.33783" lon="5.21342">
        <ele>131</ele>
        <time>2016-05-12T12:22:45Z</time>
      </trkpt>
      <trkpt lat="43.33785" lon="5.21339">
        <ele>131</ele>
        <time>2016-05-12T12:22:47Z</time>
      </trkpt>
      <trkpt lat="43.33786" lon="5.21338">
        <ele>131</ele>
        <time>2016-05-12T12:22:48Z</time>
      </trkpt>
      <trkpt lat="43.33787" lon="5.21337">
        <ele>132</ele>
        <time>2016-05-12T12:22:49Z</time>
      </trkpt>
      <trkpt lat="43.33789" lon="5.21335">
        <ele>132</ele>
        <time>2016-05-12T12:22:51Z</time>
      </trkpt>
      <trkpt lat="43.33791" lon="5.21334">
        <ele>132</ele>
        <time>2016-05-12T12:22:52Z</time>
      </trkpt>
      <trkpt lat="43.33792" lon="5.21333">
        <ele>132</ele>
        <time>2016-05-12T12:22:53Z</time>
      </trkpt>
      <trkpt lat="43.33793" lon="5.21331">
        <ele>132</ele>
        <time>2016-05-12T12:22:54Z</time>
      </trkpt>
      <trkpt lat="43.33794" lon="5.2133">
        <ele>132</ele>
        <time>2016-05-12T12:22:55Z</time>
      </trkpt>
      <trkpt lat="43.33795" lon="5.21329">
        <ele>132</ele>
        <time>2016-05-12T12:22:56Z</time>
      </trkpt>
      <trkpt lat="43.33796" lon="5.21327">
        <ele>132</ele>
        <time>2016-05-12T12:22:57Z</time>
      </trkpt>
      <trkpt lat="43.33798" lon="5.21326">
        <ele>132</ele>
        <time>2016-05-12T12:22:58Z</time>
      </trkpt>
      <trkpt lat="43.33799" lon="5.21325">
        <ele>132</ele>
        <time>2016-05-12T12:22:59Z</time>
      </trkpt>
      <trkpt lat="43.33801" lon="5.21323">
        <ele>132</ele>
        <time>2016-05-12T12:23:01Z</time>
      </trkpt>
      <trkpt lat="43.33803" lon="5.21321">
        <ele>132</ele>
        <time>2016-05-12T12:23:03Z</time>
      </trkpt>
      <trkpt lat="43.33804" lon="5.21321">
        <ele>132</ele>
        <time>2016-05-12T12:23:04Z</time>
      </trkpt>
      <trkpt lat="43.33805" lon="5.2132">
        <ele>133</ele>
        <time>2016-05-12T12:23:05Z</time>
      </trkpt>
      <trkpt lat="43.33807" lon="5.2132">
        <ele>133</ele>
        <time>2016-05-12T12:23:06Z</time>
      </trkpt>
      <trkpt lat="43.33808" lon="5.2132">
        <ele>133</ele>
        <time>2016-05-12T12:23:08Z</time>
      </trkpt>
      <trkpt lat="43.33809" lon="5.21318">
        <ele>133</ele>
        <time>2016-05-12T12:23:10Z</time>
      </trkpt>
      <trkpt lat="43.3381" lon="5.21317">
        <ele>133</ele>
        <time>2016-05-12T12:23:11Z</time>
      </trkpt>
      <trkpt lat="43.33812" lon="5.21316">
        <ele>134</ele>
        <time>2016-05-12T12:23:12Z</time>
      </trkpt>
      <trkpt lat="43.33813" lon="5.21316">
        <ele>134</ele>
        <time>2016-05-12T12:23:13Z</time>
      </trkpt>
      <trkpt lat="43.33814" lon="5.21316">
        <ele>134</ele>
        <time>2016-05-12T12:23:14Z</time>
      </trkpt>
      <trkpt lat="43.33816" lon="5.21316">
        <ele>134</ele>
        <time>2016-05-12T12:23:15Z</time>
      </trkpt>
      <trkpt lat="43.33817" lon="5.21316">
        <ele>134</ele>
        <time>2016-05-12T12:23:16Z</time>
      </trkpt>
      <trkpt lat="43.33818" lon="5.21316">
        <ele>134</ele>
        <time>2016-05-12T12:23:17Z</time>
      </trkpt>
      <trkpt lat="43.3382" lon="5.21315">
        <ele>134</ele>
        <time>2016-05-12T12:23:18Z</time>
      </trkpt>
      <trkpt lat="43.33821" lon="5.21316">
        <ele>134</ele>
        <time>2016-05-12T12:23:19Z</time>
      </trkpt>
      <trkpt lat="43.33822" lon="5.21315">
        <ele>134</ele>
        <time>2016-05-12T12:23:20Z</time>
      </trkpt>
      <trkpt lat="43.33823" lon="5.21315">
        <ele>134</ele>
        <time>2016-05-12T12:23:21Z</time>
      </trkpt>
      <trkpt lat="43.33825" lon="5.21315">
        <ele>134</ele>
        <time>2016-05-12T12:23:22Z</time>
      </trkpt>
      <trkpt lat="43.33826" lon="5.21315">
        <ele>134</ele>
        <time>2016-05-12T12:23:23Z</time>
      </trkpt>
      <trkpt lat="43.33827" lon="5.21315">
        <ele>134</ele>
        <time>2016-05-12T12:23:24Z</time>
      </trkpt>
      <trkpt lat="43.33829" lon="5.21315">
        <ele>134</ele>
        <time>2016-05-12T12:23:25Z</time>
      </trkpt>
      <trkpt lat="43.3383" lon="5.21315">
        <ele>134</ele>
        <time>2016-05-12T12:23:26Z</time>
      </trkpt>
      <trkpt lat="43.33832" lon="5.21315">
        <ele>134</ele>
        <time>2016-05-12T12:23:27Z</time>
      </trkpt>
      <trkpt lat="43.33833" lon="5.21315">
        <ele>134</ele>
        <time>2016-05-12T12:23:28Z</time>
      </trkpt>
      <trkpt lat="43.33834" lon="5.21315">
        <ele>134</ele>
        <time>2016-05-12T12:23:29Z</time>
      </trkpt>
      <trkpt lat="43.33836" lon="5.21315">
        <ele>134</ele>
        <time>2016-05-12T12:23:30Z</time>
      </trkpt>
      <trkpt lat="43.33838" lon="5.21316">
        <ele>134</ele>
        <time>2016-05-12T12:23:31Z</time>
      </trkpt>
      <trkpt lat="43.33839" lon="5.21315">
        <ele>134</ele>
        <time>2016-05-12T12:23:32Z</time>
      </trkpt>
      <trkpt lat="43.3384" lon="5.21315">
        <ele>134</ele>
        <time>2016-05-12T12:23:33Z</time>
      </trkpt>
      <trkpt lat="43.33842" lon="5.21315">
        <ele>134</ele>
        <time>2016-05-12T12:23:34Z</time>
      </trkpt>
      <trkpt lat="43.33843" lon="5.21315">
        <ele>135</ele>
        <time>2016-05-12T12:23:35Z</time>
      </trkpt>
      <trkpt lat="43.33845" lon="5.21315">
        <ele>135</ele>
        <time>2016-05-12T12:23:36Z</time>
      </trkpt>
      <trkpt lat="43.33846" lon="5.21315">
        <ele>135</ele>
        <time>2016-05-12T12:23:37Z</time>
      </trkpt>
      <trkpt lat="43.33847" lon="5.21315">
        <ele>135</ele>
        <time>2016-05-12T12:23:38Z</time>
      </trkpt>
      <trkpt lat="43.33849" lon="5.21315">
        <ele>135</ele>
        <time>2016-05-12T12:23:39Z</time>
      </trkpt>
      <trkpt lat="43.3385" lon="5.21315">
        <ele>135</ele>
        <time>2016-05-12T12:23:40Z</time>
      </trkpt>
      <trkpt lat="43.33852" lon="5.21315">
        <ele>135</ele>
        <time>2016-05-12T12:23:41Z</time>
      </trkpt>
      <trkpt lat="43.33853" lon="5.21315">
        <ele>135</ele>
        <time>2016-05-12T12:23:42Z</time>
      </trkpt>
      <trkpt lat="43.33854" lon="5.21316">
        <ele>135</ele>
        <time>2016-05-12T12:23:43Z</time>
      </trkpt>
      <trkpt lat="43.33856" lon="5.21316">
        <ele>135</ele>
        <time>2016-05-12T12:23:44Z</time>
      </trkpt>
      <trkpt lat="43.33857" lon="5.21315">
        <ele>135</ele>
        <time>2016-05-12T12:23:45Z</time>
      </trkpt>
      <trkpt lat="43.33859" lon="5.21315">
        <ele>135</ele>
        <time>2016-05-12T12:23:46Z</time>
      </trkpt>
      <trkpt lat="43.3386" lon="5.21315">
        <ele>135</ele>
        <time>2016-05-12T12:23:47Z</time>
      </trkpt>
      <trkpt lat="43.33862" lon="5.21315">
        <ele>135</ele>
        <time>2016-05-12T12:23:48Z</time>
      </trkpt>
      <trkpt lat="43.33863" lon="5.21315">
        <ele>135</ele>
        <time>2016-05-12T12:23:49Z</time>
      </trkpt>
      <trkpt lat="43.33865" lon="5.21315">
        <ele>135</ele>
        <time>2016-05-12T12:23:50Z</time>
      </trkpt>
      <trkpt lat="43.33866" lon="5.21315">
        <ele>136</ele>
        <time>2016-05-12T12:23:51Z</time>
      </trkpt>
      <trkpt lat="43.33868" lon="5.21314">
        <ele>136</ele>
        <time>2016-05-12T12:23:52Z</time>
      </trkpt>
      <trkpt lat="43.33869" lon="5.21314">
        <ele>136</ele>
        <time>2016-05-12T12:23:53Z</time>
      </trkpt>
      <trkpt lat="43.3387" lon="5.21314">
        <ele>136</ele>
        <time>2016-05-12T12:23:54Z</time>
      </trkpt>
      <trkpt lat="43.33872" lon="5.21314">
        <ele>136</ele>
        <time>2016-05-12T12:23:55Z</time>
      </trkpt>
      <trkpt lat="43.33873" lon="5.21314">
        <ele>136</ele>
        <time>2016-05-12T12:23:56Z</time>
      </trkpt>
      <trkpt lat="43.33875" lon="5.21314">
        <ele>136</ele>
        <time>2016-05-12T12:23:57Z</time>
      </trkpt>
      <trkpt lat="43.33876" lon="5.21314">
        <ele>136</ele>
        <time>2016-05-12T12:23:58Z</time>
      </trkpt>
      <trkpt lat="43.33878" lon="5.21313">
        <ele>136</ele>
        <time>2016-05-12T12:23:59Z</time>
      </trkpt>
      <trkpt lat="43.33879" lon="5.21313">
        <ele>136</ele>
        <time>2016-05-12T12:24:00Z</time>
      </trkpt>
      <trkpt lat="43.3388" lon="5.21313">
        <ele>136</ele>
        <time>2016-05-12T12:24:01Z</time>
      </trkpt>
      <trkpt lat="43.33882" lon="5.21312">
        <ele>136</ele>
        <time>2016-05-12T12:24:02Z</time>
      </trkpt>
      <trkpt lat="43.33883" lon="5.21312">
        <ele>136</ele>
        <time>2016-05-12T12:24:03Z</time>
      </trkpt>
      <trkpt lat="43.33885" lon="5.21312">
        <ele>136</ele>
        <time>2016-05-12T12:24:04Z</time>
      </trkpt>
      <trkpt lat="43.33886" lon="5.21312">
        <ele>136</ele>
        <time>2016-05-12T12:24:05Z</time>
      </trkpt>
      <trkpt lat="43.33887" lon="5.21312">
        <ele>136</ele>
        <time>2016-05-12T12:24:06Z</time>
      </trkpt>
      <trkpt lat="43.33889" lon="5.21311">
        <ele>136</ele>
        <time>2016-05-12T12:24:07Z</time>
      </trkpt>
      <trkpt lat="43.3389" lon="5.2131">
        <ele>136</ele>
        <time>2016-05-12T12:24:08Z</time>
      </trkpt>
      <trkpt lat="43.33891" lon="5.21309">
        <ele>136</ele>
        <time>2016-05-12T12:24:09Z</time>
      </trkpt>
      <trkpt lat="43.33893" lon="5.21309">
        <ele>136</ele>
        <time>2016-05-12T12:24:10Z</time>
      </trkpt>
      <trkpt lat="43.33894" lon="5.21308">
        <ele>136</ele>
        <time>2016-05-12T12:24:11Z</time>
      </trkpt>
      <trkpt lat="43.33895" lon="5.21308">
        <ele>136</ele>
        <time>2016-05-12T12:24:12Z</time>
      </trkpt>
      <trkpt lat="43.33897" lon="5.21307">
        <ele>136</ele>
        <time>2016-05-12T12:24:13Z</time>
      </trkpt>
      <trkpt lat="43.33898" lon="5.21307">
        <ele>136</ele>
        <time>2016-05-12T12:24:14Z</time>
      </trkpt>
      <trkpt lat="43.339" lon="5.21307">
        <ele>136</ele>
        <time>2016-05-12T12:24:15Z</time>
      </trkpt>
      <trkpt lat="43.33901" lon="5.21308">
        <ele>136</ele>
        <time>2016-05-12T12:24:16Z</time>
      </trkpt>
      <trkpt lat="43.33902" lon="5.2131">
        <ele>136</ele>
        <time>2016-05-12T12:24:18Z</time>
      </trkpt>
      <trkpt lat="43.33904" lon="5.21312">
        <ele>137</ele>
        <time>2016-05-12T12:24:20Z</time>
      </trkpt>
      <trkpt lat="43.33905" lon="5.21314">
        <ele>137</ele>
        <time>2016-05-12T12:24:22Z</time>
      </trkpt>
      <trkpt lat="43.33906" lon="5.21317">
        <ele>138</ele>
        <time>2016-05-12T12:24:24Z</time>
      </trkpt>
      <trkpt lat="43.33907" lon="5.21319">
        <ele>138</ele>
        <time>2016-05-12T12:24:26Z</time>
      </trkpt>
      <trkpt lat="43.33908" lon="5.21322">
        <ele>139</ele>
        <time>2016-05-12T12:24:28Z</time>
      </trkpt>
      <trkpt lat="43.33909" lon="5.21324">
        <ele>139</ele>
        <time>2016-05-12T12:24:30Z</time>
      </trkpt>
      <trkpt lat="43.3391" lon="5.21327">
        <ele>140</ele>
        <time>2016-05-12T12:24:32Z</time>
      </trkpt>
      <trkpt lat="43.33912" lon="5.21329">
        <ele>140</ele>
        <time>2016-05-12T12:24:34Z</time>
      </trkpt>
      <trkpt lat="43.33912" lon="5.21331">
        <ele>140</ele>
        <time>2016-05-12T12:24:35Z</time>
      </trkpt>
      <trkpt lat="43.33912" lon="5.21332">
        <ele>141</ele>
        <time>2016-05-12T12:24:36Z</time>
      </trkpt>
      <trkpt lat="43.33913" lon="5.21334">
        <ele>141</ele>
        <time>2016-05-12T12:24:37Z</time>
      </trkpt>
      <trkpt lat="43.33913" lon="5.21335">
        <ele>141</ele>
        <time>2016-05-12T12:24:38Z</time>
      </trkpt>
      <trkpt lat="43.33913" lon="5.21337">
        <ele>141</ele>
        <time>2016-05-12T12:24:39Z</time>
      </trkpt>
      <trkpt lat="43.33914" lon="5.2134">
        <ele>142</ele>
        <time>2016-05-12T12:24:41Z</time>
      </trkpt>
      <trkpt lat="43.33914" lon="5.21341">
        <ele>142</ele>
        <time>2016-05-12T12:24:42Z</time>
      </trkpt>
      <trkpt lat="43.33914" lon="5.21343">
        <ele>142</ele>
        <time>2016-05-12T12:24:43Z</time>
      </trkpt>
      <trkpt lat="43.33914" lon="5.21345">
        <ele>143</ele>
        <time>2016-05-12T12:24:44Z</time>
      </trkpt>
      <trkpt lat="43.33913" lon="5.21346">
        <ele>143</ele>
        <time>2016-05-12T12:24:45Z</time>
      </trkpt>
      <trkpt lat="43.33913" lon="5.21348">
        <ele>143</ele>
        <time>2016-05-12T12:24:46Z</time>
      </trkpt>
      <trkpt lat="43.33913" lon="5.21349">
        <ele>143</ele>
        <time>2016-05-12T12:24:47Z</time>
      </trkpt>
      <trkpt lat="43.33913" lon="5.21351">
        <ele>143</ele>
        <time>2016-05-12T12:24:48Z</time>
      </trkpt>
      <trkpt lat="43.33913" lon="5.21353">
        <ele>143</ele>
        <time>2016-05-12T12:24:49Z</time>
      </trkpt>
      <trkpt lat="43.33912" lon="5.21354">
        <ele>143</ele>
        <time>2016-05-12T12:24:50Z</time>
      </trkpt>
      <trkpt lat="43.33912" lon="5.21356">
        <ele>143</ele>
        <time>2016-05-12T12:24:51Z</time>
      </trkpt>
      <trkpt lat="43.33912" lon="5.21358">
        <ele>143</ele>
        <time>2016-05-12T12:24:52Z</time>
      </trkpt>
      <trkpt lat="43.33912" lon="5.21359">
        <ele>144</ele>
        <time>2016-05-12T12:24:53Z</time>
      </trkpt>
      <trkpt lat="43.33912" lon="5.21361">
        <ele>144</ele>
        <time>2016-05-12T12:24:54Z</time>
      </trkpt>
      <trkpt lat="43.33912" lon="5.21363">
        <ele>144</ele>
        <time>2016-05-12T12:24:55Z</time>
      </trkpt>
      <trkpt lat="43.33912" lon="5.21364">
        <ele>144</ele>
        <time>2016-05-12T12:24:56Z</time>
      </trkpt>
      <trkpt lat="43.33912" lon="5.21366">
        <ele>144</ele>
        <time>2016-05-12T12:24:57Z</time>
      </trkpt>
      <trkpt lat="43.33912" lon="5.21368">
        <ele>144</ele>
        <time>2016-05-12T12:24:58Z</time>
      </trkpt>
      <trkpt lat="43.33912" lon="5.21369">
        <ele>145</ele>
        <time>2016-05-12T12:24:59Z</time>
      </trkpt>
      <trkpt lat="43.33912" lon="5.21371">
        <ele>145</ele>
        <time>2016-05-12T12:25:00Z</time>
      </trkpt>
      <trkpt lat="43.33911" lon="5.21373">
        <ele>145</ele>
        <time>2016-05-12T12:25:01Z</time>
      </trkpt>
      <trkpt lat="43.33912" lon="5.21374">
        <ele>145</ele>
        <time>2016-05-12T12:25:02Z</time>
      </trkpt>
      <trkpt lat="43.33912" lon="5.21376">
        <ele>145</ele>
        <time>2016-05-12T12:25:03Z</time>
      </trkpt>
      <trkpt lat="43.33912" lon="5.21378">
        <ele>145</ele>
        <time>2016-05-12T12:25:04Z</time>
      </trkpt>
      <trkpt lat="43.33912" lon="5.21379">
        <ele>145</ele>
        <time>2016-05-12T12:25:05Z</time>
      </trkpt>
      <trkpt lat="43.33912" lon="5.21381">
        <ele>145</ele>
        <time>2016-05-12T12:25:06Z</time>
      </trkpt>
      <trkpt lat="43.33912" lon="5.21383">
        <ele>145</ele>
        <time>2016-05-12T12:25:07Z</time>
      </trkpt>
      <trkpt lat="43.33912" lon="5.21384">
        <ele>146</ele>
        <time>2016-05-12T12:25:08Z</time>
      </trkpt>
      <trkpt lat="43.33912" lon="5.21386">
        <ele>146</ele>
        <time>2016-05-12T12:25:09Z</time>
      </trkpt>
      <trkpt lat="43.33912" lon="5.21388">
        <ele>146</ele>
        <time>2016-05-12T12:25:10Z</time>
      </trkpt>
      <trkpt lat="43.33913" lon="5.21389">
        <ele>146</ele>
        <time>2016-05-12T12:25:11Z</time>
      </trkpt>
      <trkpt lat="43.33913" lon="5.21391">
        <ele>146</ele>
        <time>2016-05-12T12:25:12Z</time>
      </trkpt>
      <trkpt lat="43.33913" lon="5.21393">
        <ele>146</ele>
        <time>2016-05-12T12:25:13Z</time>
      </trkpt>
      <trkpt lat="43.33913" lon="5.21395">
        <ele>146</ele>
        <time>2016-05-12T12:25:14Z</time>
      </trkpt>
      <trkpt lat="43.33914" lon="5.21396">
        <ele>146</ele>
        <time>2016-05-12T12:25:15Z</time>
      </trkpt>
      <trkpt lat="43.33915" lon="5.21398">
        <ele>146</ele>
        <time>2016-05-12T12:25:16Z</time>
      </trkpt>
      <trkpt lat="43.33915" lon="5.214">
        <ele>146</ele>
        <time>2016-05-12T12:25:17Z</time>
      </trkpt>
      <trkpt lat="43.33915" lon="5.21402">
        <ele>147</ele>
        <time>2016-05-12T12:25:18Z</time>
      </trkpt>
      <trkpt lat="43.33916" lon="5.21403">
        <ele>147</ele>
        <time>2016-05-12T12:25:19Z</time>
      </trkpt>
      <trkpt lat="43.33916" lon="5.21405">
        <ele>147</ele>
        <time>2016-05-12T12:25:20Z</time>
      </trkpt>
      <trkpt lat="43.33916" lon="5.21407">
        <ele>147</ele>
        <time>2016-05-12T12:25:21Z</time>
      </trkpt>
      <trkpt lat="43.33917" lon="5.21409">
        <ele>147</ele>
        <time>2016-05-12T12:25:22Z</time>
      </trkpt>
      <trkpt lat="43.33917" lon="5.21411">
        <ele>147</ele>
        <time>2016-05-12T12:25:23Z</time>
      </trkpt>
      <trkpt lat="43.33918" lon="5.21412">
        <ele>147</ele>
        <time>2016-05-12T12:25:24Z</time>
      </trkpt>
      <trkpt lat="43.33918" lon="5.21414">
        <ele>147</ele>
        <time>2016-05-12T12:25:25Z</time>
      </trkpt>
      <trkpt lat="43.33918" lon="5.21416">
        <ele>147</ele>
        <time>2016-05-12T12:25:26Z</time>
      </trkpt>
      <trkpt lat="43.33919" lon="5.21418">
        <ele>147</ele>
        <time>2016-05-12T12:25:27Z</time>
      </trkpt>
      <trkpt lat="43.33919" lon="5.2142">
        <ele>147</ele>
        <time>2016-05-12T12:25:28Z</time>
      </trkpt>
      <trkpt lat="43.3392" lon="5.21422">
        <ele>147</ele>
        <time>2016-05-12T12:25:29Z</time>
      </trkpt>
      <trkpt lat="43.3392" lon="5.21424">
        <ele>147</ele>
        <time>2016-05-12T12:25:30Z</time>
      </trkpt>
      <trkpt lat="43.33921" lon="5.21426">
        <ele>147</ele>
        <time>2016-05-12T12:25:31Z</time>
      </trkpt>
      <trkpt lat="43.33921" lon="5.21427">
        <ele>147</ele>
        <time>2016-05-12T12:25:32Z</time>
      </trkpt>
      <trkpt lat="43.33922" lon="5.21429">
        <ele>148</ele>
        <time>2016-05-12T12:25:33Z</time>
      </trkpt>
      <trkpt lat="43.33923" lon="5.21431">
        <ele>148</ele>
        <time>2016-05-12T12:25:34Z</time>
      </trkpt>
      <trkpt lat="43.33923" lon="5.21433">
        <ele>148</ele>
        <time>2016-05-12T12:25:35Z</time>
      </trkpt>
      <trkpt lat="43.33923" lon="5.21434">
        <ele>148</ele>
        <time>2016-05-12T12:25:36Z</time>
      </trkpt>
      <trkpt lat="43.33924" lon="5.21436">
        <ele>148</ele>
        <time>2016-05-12T12:25:37Z</time>
      </trkpt>
      <trkpt lat="43.33924" lon="5.21438">
        <ele>149</ele>
        <time>2016-05-12T12:25:38Z</time>
      </trkpt>
      <trkpt lat="43.33924" lon="5.2144">
        <ele>149</ele>
        <time>2016-05-12T12:25:39Z</time>
      </trkpt>
      <trkpt lat="43.33925" lon="5.21442">
        <ele>149</ele>
        <time>2016-05-12T12:25:40Z</time>
      </trkpt>
      <trkpt lat="43.33926" lon="5.21444">
        <ele>149</ele>
        <time>2016-05-12T12:25:41Z</time>
      </trkpt>
      <trkpt lat="43.33926" lon="5.21445">
        <ele>149</ele>
        <time>2016-05-12T12:25:42Z</time>
      </trkpt>
      <trkpt lat="43.33926" lon="5.21447">
        <ele>149</ele>
        <time>2016-05-12T12:25:43Z</time>
      </trkpt>
      <trkpt lat="43.33927" lon="5.21449">
        <ele>149</ele>
        <time>2016-05-12T12:25:44Z</time>
      </trkpt>
      <trkpt lat="43.33927" lon="5.21451">
        <ele>149</ele>
        <time>2016-05-12T12:25:45Z</time>
      </trkpt>
      <trkpt lat="43.33928" lon="5.21453">
        <ele>149</ele>
        <time>2016-05-12T12:25:46Z</time>
      </trkpt>
      <trkpt lat="43.33928" lon="5.21454">
        <ele>149</ele>
        <time>2016-05-12T12:25:47Z</time>
      </trkpt>
      <trkpt lat="43.33929" lon="5.21456">
        <ele>149</ele>
        <time>2016-05-12T12:25:48Z</time>
      </trkpt>
      <trkpt lat="43.33929" lon="5.21458">
        <ele>149</ele>
        <time>2016-05-12T12:25:49Z</time>
      </trkpt>
      <trkpt lat="43.33929" lon="5.2146">
        <ele>149</ele>
        <time>2016-05-12T12:25:50Z</time>
      </trkpt>
      <trkpt lat="43.3393" lon="5.21462">
        <ele>150</ele>
        <time>2016-05-12T12:25:51Z</time>
      </trkpt>
      <trkpt lat="43.3393" lon="5.21463">
        <ele>150</ele>
        <time>2016-05-12T12:25:52Z</time>
      </trkpt>
      <trkpt lat="43.33931" lon="5.21465">
        <ele>150</ele>
        <time>2016-05-12T12:25:53Z</time>
      </trkpt>
      <trkpt lat="43.33931" lon="5.21467">
        <ele>150</ele>
        <time>2016-05-12T12:25:54Z</time>
      </trkpt>
      <trkpt lat="43.33932" lon="5.21468">
        <ele>150</ele>
        <time>2016-05-12T12:25:55Z</time>
      </trkpt>
      <trkpt lat="43.33932" lon="5.2147">
        <ele>150</ele>
        <time>2016-05-12T12:25:56Z</time>
      </trkpt>
      <trkpt lat="43.33933" lon="5.21472">
        <ele>150</ele>
        <time>2016-05-12T12:25:57Z</time>
      </trkpt>
      <trkpt lat="43.33934" lon="5.21474">
        <ele>150</ele>
        <time>2016-05-12T12:25:58Z</time>
      </trkpt>
      <trkpt lat="43.33934" lon="5.21475">
        <ele>150</ele>
        <time>2016-05-12T12:25:59Z</time>
      </trkpt>
      <trkpt lat="43.33935" lon="5.21477">
        <ele>150</ele>
        <time>2016-05-12T12:26:00Z</time>
      </trkpt>
      <trkpt lat="43.33936" lon="5.21479">
        <ele>150</ele>
        <time>2016-05-12T12:26:01Z</time>
      </trkpt>
      <trkpt lat="43.33936" lon="5.2148">
        <ele>151</ele>
        <time>2016-05-12T12:26:02Z</time>
      </trkpt>
      <trkpt lat="43.33937" lon="5.21482">
        <ele>151</ele>
        <time>2016-05-12T12:26:03Z</time>
      </trkpt>
      <trkpt lat="43.33938" lon="5.21484">
        <ele>151</ele>
        <time>2016-05-12T12:26:04Z</time>
      </trkpt>
      <trkpt lat="43.33939" lon="5.21486">
        <ele>151</ele>
        <time>2016-05-12T12:26:05Z</time>
      </trkpt>
      <trkpt lat="43.33939" lon="5.21487">
        <ele>151</ele>
        <time>2016-05-12T12:26:06Z</time>
      </trkpt>
      <trkpt lat="43.33941" lon="5.21489">
        <ele>151</ele>
        <time>2016-05-12T12:26:07Z</time>
      </trkpt>
      <trkpt lat="43.33942" lon="5.2149">
        <ele>151</ele>
        <time>2016-05-12T12:26:08Z</time>
      </trkpt>
      <trkpt lat="43.33942" lon="5.21492">
        <ele>151</ele>
        <time>2016-05-12T12:26:09Z</time>
      </trkpt>
      <trkpt lat="43.33943" lon="5.21494">
        <ele>151</ele>
        <time>2016-05-12T12:26:10Z</time>
      </trkpt>
      <trkpt lat="43.33944" lon="5.21495">
        <ele>152</ele>
        <time>2016-05-12T12:26:11Z</time>
      </trkpt>
      <trkpt lat="43.33945" lon="5.21497">
        <ele>152</ele>
        <time>2016-05-12T12:26:12Z</time>
      </trkpt>
      <trkpt lat="43.33946" lon="5.21499">
        <ele>152</ele>
        <time>2016-05-12T12:26:13Z</time>
      </trkpt>
      <trkpt lat="43.33947" lon="5.215">
        <ele>152</ele>
        <time>2016-05-12T12:26:14Z</time>
      </trkpt>
      <trkpt lat="43.33948" lon="5.21502">
        <ele>152</ele>
        <time>2016-05-12T12:26:15Z</time>
      </trkpt>
      <trkpt lat="43.33949" lon="5.21503">
        <ele>152</ele>
        <time>2016-05-12T12:26:16Z</time>
      </trkpt>
      <trkpt lat="43.3395" lon="5.21505">
        <ele>152</ele>
        <time>2016-05-12T12:26:17Z</time>
      </trkpt>
      <trkpt lat="43.3395" lon="5.21507">
        <ele>152</ele>
        <time>2016-05-12T12:26:18Z</time>
      </trkpt>
      <trkpt lat="43.33951" lon="5.21508">
        <ele>152</ele>
        <time>2016-05-12T12:26:19Z</time>
      </trkpt>
      <trkpt lat="43.33952" lon="5.2151">
        <ele>152</ele>
        <time>2016-05-12T12:26:20Z</time>
      </trkpt>
      <trkpt lat="43.33955" lon="5.21512">
        <ele>152</ele>
        <time>2016-05-12T12:26:22Z</time>
      </trkpt>
      <trkpt lat="43.33956" lon="5.21514">
        <ele>152</ele>
        <time>2016-05-12T12:26:23Z</time>
      </trkpt>
      <trkpt lat="43.33957" lon="5.21515">
        <ele>152</ele>
        <time>2016-05-12T12:26:24Z</time>
      </trkpt>
      <trkpt lat="43.33958" lon="5.21517">
        <ele>152</ele>
        <time>2016-05-12T12:26:25Z</time>
      </trkpt>
      <trkpt lat="43.33959" lon="5.21518">
        <ele>152</ele>
        <time>2016-05-12T12:26:26Z</time>
      </trkpt>
      <trkpt lat="43.3396" lon="5.2152">
        <ele>152</ele>
        <time>2016-05-12T12:26:27Z</time>
      </trkpt>
      <trkpt lat="43.33961" lon="5.21522">
        <ele>152</ele>
        <time>2016-05-12T12:26:28Z</time>
      </trkpt>
      <trkpt lat="43.33962" lon="5.21523">
        <ele>152</ele>
        <time>2016-05-12T12:26:29Z</time>
      </trkpt>
      <trkpt lat="43.33963" lon="5.21525">
        <ele>152</ele>
        <time>2016-05-12T12:26:30Z</time>
      </trkpt>
      <trkpt lat="43.33964" lon="5.21526">
        <ele>152</ele>
        <time>2016-05-12T12:26:31Z</time>
      </trkpt>
      <trkpt lat="43.33965" lon="5.21528">
        <ele>152</ele>
        <time>2016-05-12T12:26:32Z</time>
      </trkpt>
      <trkpt lat="43.33966" lon="5.21529">
        <ele>152</ele>
        <time>2016-05-12T12:26:33Z</time>
      </trkpt>
      <trkpt lat="43.33967" lon="5.21531">
        <ele>152</ele>
        <time>2016-05-12T12:26:34Z</time>
      </trkpt>
      <trkpt lat="43.33968" lon="5.21533">
        <ele>152</ele>
        <time>2016-05-12T12:26:35Z</time>
      </trkpt>
      <trkpt lat="43.33969" lon="5.21534">
        <ele>152</ele>
        <time>2016-05-12T12:26:36Z</time>
      </trkpt>
      <trkpt lat="43.3397" lon="5.21536">
        <ele>152</ele>
        <time>2016-05-12T12:26:37Z</time>
      </trkpt>
      <trkpt lat="43.33971" lon="5.21538">
        <ele>152</ele>
        <time>2016-05-12T12:26:38Z</time>
      </trkpt>
      <trkpt lat="43.33972" lon="5.21539">
        <ele>152</ele>
        <time>2016-05-12T12:26:39Z</time>
      </trkpt>
      <trkpt lat="43.33973" lon="5.21541">
        <ele>152</ele>
        <time>2016-05-12T12:26:40Z</time>
      </trkpt>
      <trkpt lat="43.33974" lon="5.21543">
        <ele>152</ele>
        <time>2016-05-12T12:26:41Z</time>
      </trkpt>
      <trkpt lat="43.33975" lon="5.21544">
        <ele>152</ele>
        <time>2016-05-12T12:26:42Z</time>
      </trkpt>
      <trkpt lat="43.33976" lon="5.21546">
        <ele>152</ele>
        <time>2016-05-12T12:26:43Z</time>
      </trkpt>
      <trkpt lat="43.33977" lon="5.21548">
        <ele>152</ele>
        <time>2016-05-12T12:26:44Z</time>
      </trkpt>
      <trkpt lat="43.33978" lon="5.21549">
        <ele>152</ele>
        <time>2016-05-12T12:26:45Z</time>
      </trkpt>
      <trkpt lat="43.3398" lon="5.2155">
        <ele>152</ele>
        <time>2016-05-12T12:26:46Z</time>
      </trkpt>
      <trkpt lat="43.33981" lon="5.21551">
        <ele>152</ele>
        <time>2016-05-12T12:26:47Z</time>
      </trkpt>
      <trkpt lat="43.33982" lon="5.21553">
        <ele>152</ele>
        <time>2016-05-12T12:26:48Z</time>
      </trkpt>
      <trkpt lat="43.33984" lon="5.21553">
        <ele>152</ele>
        <time>2016-05-12T12:26:49Z</time>
      </trkpt>
      <trkpt lat="43.33985" lon="5.21554">
        <ele>152</ele>
        <time>2016-05-12T12:26:50Z</time>
      </trkpt>
      <trkpt lat="43.33987" lon="5.21555">
        <ele>152</ele>
        <time>2016-05-12T12:26:51Z</time>
      </trkpt>
      <trkpt lat="43.33988" lon="5.21556">
        <ele>152</ele>
        <time>2016-05-12T12:26:52Z</time>
      </trkpt>
      <trkpt lat="43.33989" lon="5.21557">
        <ele>152</ele>
        <time>2016-05-12T12:26:53Z</time>
      </trkpt>
      <trkpt lat="43.33991" lon="5.21557">
        <ele>152</ele>
        <time>2016-05-12T12:26:54Z</time>
      </trkpt>
      <trkpt lat="43.33992" lon="5.21558">
        <ele>152</ele>
        <time>2016-05-12T12:26:55Z</time>
      </trkpt>
      <trkpt lat="43.33994" lon="5.21558">
        <ele>152</ele>
        <time>2016-05-12T12:26:56Z</time>
      </trkpt>
      <trkpt lat="43.33996" lon="5.21558">
        <ele>152</ele>
        <time>2016-05-12T12:26:57Z</time>
      </trkpt>
      <trkpt lat="43.33997" lon="5.21558">
        <ele>152</ele>
        <time>2016-05-12T12:26:58Z</time>
      </trkpt>
      <trkpt lat="43.33999" lon="5.21557">
        <ele>152</ele>
        <time>2016-05-12T12:26:59Z</time>
      </trkpt>
      <trkpt lat="43.34" lon="5.21557">
        <ele>152</ele>
        <time>2016-05-12T12:27:00Z</time>
      </trkpt>
      <trkpt lat="43.34002" lon="5.21557">
        <ele>152</ele>
        <time>2016-05-12T12:27:01Z</time>
      </trkpt>
      <trkpt lat="43.34004" lon="5.21557">
        <ele>152</ele>
        <time>2016-05-12T12:27:02Z</time>
      </trkpt>
      <trkpt lat="43.34005" lon="5.21558">
        <ele>152</ele>
        <time>2016-05-12T12:27:03Z</time>
      </trkpt>
      <trkpt lat="43.34007" lon="5.21558">
        <ele>152</ele>
        <time>2016-05-12T12:27:04Z</time>
      </trkpt>
      <trkpt lat="43.34008" lon="5.21557">
        <ele>152</ele>
        <time>2016-05-12T12:27:05Z</time>
      </trkpt>
      <trkpt lat="43.3401" lon="5.21557">
        <ele>152</ele>
        <time>2016-05-12T12:27:06Z</time>
      </trkpt>
      <trkpt lat="43.34011" lon="5.21557">
        <ele>152</ele>
        <time>2016-05-12T12:27:07Z</time>
      </trkpt>
      <trkpt lat="43.34013" lon="5.21557">
        <ele>152</ele>
        <time>2016-05-12T12:27:08Z</time>
      </trkpt>
      <trkpt lat="43.34014" lon="5.21556">
        <ele>152</ele>
        <time>2016-05-12T12:27:09Z</time>
      </trkpt>
      <trkpt lat="43.34015" lon="5.21556">
        <ele>152</ele>
        <time>2016-05-12T12:27:10Z</time>
      </trkpt>
      <trkpt lat="43.34017" lon="5.21555">
        <ele>152</ele>
        <time>2016-05-12T12:27:11Z</time>
      </trkpt>
      <trkpt lat="43.34018" lon="5.21555">
        <ele>152</ele>
        <time>2016-05-12T12:27:12Z</time>
      </trkpt>
      <trkpt lat="43.34019" lon="5.21554">
        <ele>152</ele>
        <time>2016-05-12T12:27:13Z</time>
      </trkpt>
      <trkpt lat="43.34021" lon="5.21553">
        <ele>152</ele>
        <time>2016-05-12T12:27:14Z</time>
      </trkpt>
      <trkpt lat="43.34022" lon="5.21553">
        <ele>152</ele>
        <time>2016-05-12T12:27:15Z</time>
      </trkpt>
      <trkpt lat="43.34024" lon="5.21552">
        <ele>152</ele>
        <time>2016-05-12T12:27:16Z</time>
      </trkpt>
      <trkpt lat="43.34025" lon="5.21551">
        <ele>152</ele>
        <time>2016-05-12T12:27:17Z</time>
      </trkpt>
      <trkpt lat="43.34026" lon="5.2155">
        <ele>152</ele>
        <time>2016-05-12T12:27:18Z</time>
      </trkpt>
      <trkpt lat="43.34027" lon="5.21549">
        <ele>152</ele>
        <time>2016-05-12T12:27:19Z</time>
      </trkpt>
      <trkpt lat="43.34029" lon="5.21548">
        <ele>152</ele>
        <time>2016-05-12T12:27:20Z</time>
      </trkpt>
      <trkpt lat="43.3403" lon="5.21547">
        <ele>152</ele>
        <time>2016-05-12T12:27:21Z</time>
      </trkpt>
      <trkpt lat="43.34031" lon="5.21547">
        <ele>152</ele>
        <time>2016-05-12T12:27:22Z</time>
      </trkpt>
      <trkpt lat="43.34032" lon="5.21546">
        <ele>152</ele>
        <time>2016-05-12T12:27:23Z</time>
      </trkpt>
      <trkpt lat="43.34034" lon="5.21545">
        <ele>152</ele>
        <time>2016-05-12T12:27:24Z</time>
      </trkpt>
      <trkpt lat="43.34035" lon="5.21544">
        <ele>152</ele>
        <time>2016-05-12T12:27:25Z</time>
      </trkpt>
      <trkpt lat="43.34037" lon="5.21543">
        <ele>152</ele>
        <time>2016-05-12T12:27:26Z</time>
      </trkpt>
      <trkpt lat="43.34038" lon="5.21542">
        <ele>152</ele>
        <time>2016-05-12T12:27:27Z</time>
      </trkpt>
      <trkpt lat="43.34039" lon="5.21542">
        <ele>152</ele>
        <time>2016-05-12T12:27:28Z</time>
      </trkpt>
      <trkpt lat="43.3404" lon="5.2154">
        <ele>152</ele>
        <time>2016-05-12T12:27:29Z</time>
      </trkpt>
      <trkpt lat="43.34042" lon="5.2154">
        <ele>152</ele>
        <time>2016-05-12T12:27:30Z</time>
      </trkpt>
      <trkpt lat="43.34043" lon="5.21539">
        <ele>152</ele>
        <time>2016-05-12T12:27:31Z</time>
      </trkpt>
      <trkpt lat="43.34044" lon="5.21538">
        <ele>152</ele>
        <time>2016-05-12T12:27:32Z</time>
      </trkpt>
      <trkpt lat="43.34046" lon="5.21537">
        <ele>152</ele>
        <time>2016-05-12T12:27:33Z</time>
      </trkpt>
      <trkpt lat="43.34047" lon="5.21537">
        <ele>152</ele>
        <time>2016-05-12T12:27:34Z</time>
      </trkpt>
      <trkpt lat="43.34048" lon="5.21536">
        <ele>152</ele>
        <time>2016-05-12T12:27:35Z</time>
      </trkpt>
      <trkpt lat="43.3405" lon="5.21535">
        <ele>152</ele>
        <time>2016-05-12T12:27:36Z</time>
      </trkpt>
      <trkpt lat="43.34051" lon="5.21534">
        <ele>152</ele>
        <time>2016-05-12T12:27:37Z</time>
      </trkpt>
      <trkpt lat="43.34053" lon="5.21534">
        <ele>153</ele>
        <time>2016-05-12T12:27:38Z</time>
      </trkpt>
      <trkpt lat="43.34054" lon="5.21533">
        <ele>153</ele>
        <time>2016-05-12T12:27:39Z</time>
      </trkpt>
      <trkpt lat="43.34055" lon="5.21533">
        <ele>153</ele>
        <time>2016-05-12T12:27:40Z</time>
      </trkpt>
      <trkpt lat="43.34057" lon="5.21533">
        <ele>153</ele>
        <time>2016-05-12T12:27:41Z</time>
      </trkpt>
      <trkpt lat="43.34058" lon="5.21532">
        <ele>153</ele>
        <time>2016-05-12T12:27:42Z</time>
      </trkpt>
      <trkpt lat="43.3406" lon="5.21531">
        <ele>153</ele>
        <time>2016-05-12T12:27:43Z</time>
      </trkpt>
      <trkpt lat="43.34061" lon="5.21531">
        <ele>153</ele>
        <time>2016-05-12T12:27:44Z</time>
      </trkpt>
      <trkpt lat="43.34063" lon="5.2153">
        <ele>153</ele>
        <time>2016-05-12T12:27:45Z</time>
      </trkpt>
      <trkpt lat="43.34064" lon="5.2153">
        <ele>153</ele>
        <time>2016-05-12T12:27:46Z</time>
      </trkpt>
      <trkpt lat="43.34066" lon="5.21529">
        <ele>153</ele>
        <time>2016-05-12T12:27:47Z</time>
      </trkpt>
      <trkpt lat="43.34067" lon="5.21529">
        <ele>153</ele>
        <time>2016-05-12T12:27:48Z</time>
      </trkpt>
      <trkpt lat="43.34069" lon="5.21529">
        <ele>153</ele>
        <time>2016-05-12T12:27:49Z</time>
      </trkpt>
      <trkpt lat="43.3407" lon="5.21529">
        <ele>153</ele>
        <time>2016-05-12T12:27:50Z</time>
      </trkpt>
      <trkpt lat="43.34072" lon="5.21529">
        <ele>153</ele>
        <time>2016-05-12T12:27:51Z</time>
      </trkpt>
      <trkpt lat="43.34073" lon="5.2153">
        <ele>153</ele>
        <time>2016-05-12T12:27:52Z</time>
      </trkpt>
      <trkpt lat="43.34075" lon="5.2153">
        <ele>153</ele>
        <time>2016-05-12T12:27:53Z</time>
      </trkpt>
      <trkpt lat="43.34076" lon="5.2153">
        <ele>153</ele>
        <time>2016-05-12T12:27:54Z</time>
      </trkpt>
      <trkpt lat="43.34078" lon="5.2153">
        <ele>153</ele>
        <time>2016-05-12T12:27:55Z</time>
      </trkpt>
      <trkpt lat="43.34079" lon="5.21531">
        <ele>153</ele>
        <time>2016-05-12T12:27:56Z</time>
      </trkpt>
      <trkpt lat="43.34081" lon="5.21532">
        <ele>153</ele>
        <time>2016-05-12T12:27:57Z</time>
      </trkpt>
      <trkpt lat="43.34082" lon="5.21533">
        <ele>153</ele>
        <time>2016-05-12T12:27:58Z</time>
      </trkpt>
      <trkpt lat="43.34083" lon="5.21533">
        <ele>153</ele>
        <time>2016-05-12T12:27:59Z</time>
      </trkpt>
      <trkpt lat="43.34085" lon="5.21534">
        <ele>153</ele>
        <time>2016-05-12T12:28:00Z</time>
      </trkpt>
      <trkpt lat="43.34086" lon="5.21535">
        <ele>153</ele>
        <time>2016-05-12T12:28:01Z</time>
      </trkpt>
      <trkpt lat="43.34088" lon="5.21538">
        <ele>154</ele>
        <time>2016-05-12T12:28:03Z</time>
      </trkpt>
      <trkpt lat="43.3409" lon="5.2154">
        <ele>154</ele>
        <time>2016-05-12T12:28:05Z</time>
      </trkpt>
      <trkpt lat="43.3409" lon="5.21542">
        <ele>155</ele>
        <time>2016-05-12T12:28:06Z</time>
      </trkpt>
      <trkpt lat="43.34091" lon="5.21544">
        <ele>155</ele>
        <time>2016-05-12T12:28:07Z</time>
      </trkpt>
      <trkpt lat="43.34092" lon="5.21545">
        <ele>155</ele>
        <time>2016-05-12T12:28:08Z</time>
      </trkpt>
      <trkpt lat="43.34092" lon="5.21547">
        <ele>155</ele>
        <time>2016-05-12T12:28:09Z</time>
      </trkpt>
      <trkpt lat="43.34093" lon="5.21549">
        <ele>156</ele>
        <time>2016-05-12T12:28:10Z</time>
      </trkpt>
      <trkpt lat="43.34093" lon="5.2155">
        <ele>156</ele>
        <time>2016-05-12T12:28:11Z</time>
      </trkpt>
      <trkpt lat="43.34094" lon="5.21552">
        <ele>156</ele>
        <time>2016-05-12T12:28:12Z</time>
      </trkpt>
      <trkpt lat="43.34095" lon="5.21553">
        <ele>156</ele>
        <time>2016-05-12T12:28:13Z</time>
      </trkpt>
      <trkpt lat="43.34095" lon="5.21555">
        <ele>156</ele>
        <time>2016-05-12T12:28:14Z</time>
      </trkpt>
      <trkpt lat="43.34096" lon="5.21556">
        <ele>156</ele>
        <time>2016-05-12T12:28:15Z</time>
      </trkpt>
      <trkpt lat="43.34096" lon="5.21558">
        <ele>157</ele>
        <time>2016-05-12T12:28:16Z</time>
      </trkpt>
      <trkpt lat="43.34097" lon="5.21559">
        <ele>157</ele>
        <time>2016-05-12T12:28:17Z</time>
      </trkpt>
      <trkpt lat="43.34097" lon="5.21561">
        <ele>157</ele>
        <time>2016-05-12T12:28:18Z</time>
      </trkpt>
      <trkpt lat="43.34098" lon="5.21563">
        <ele>157</ele>
        <time>2016-05-12T12:28:19Z</time>
      </trkpt>
      <trkpt lat="43.34098" lon="5.21565">
        <ele>157</ele>
        <time>2016-05-12T12:28:21Z</time>
      </trkpt>
      <trkpt lat="43.34099" lon="5.21567">
        <ele>157</ele>
        <time>2016-05-12T12:28:21Z</time>
      </trkpt>
      <trkpt lat="43.34099" lon="5.21568">
        <ele>158</ele>
        <time>2016-05-12T12:28:22Z</time>
      </trkpt>
      <trkpt lat="43.341" lon="5.2157">
        <ele>158</ele>
        <time>2016-05-12T12:28:23Z</time>
      </trkpt>
      <trkpt lat="43.341" lon="5.21572">
        <ele>158</ele>
        <time>2016-05-12T12:28:24Z</time>
      </trkpt>
      <trkpt lat="43.34101" lon="5.21574">
        <ele>158</ele>
        <time>2016-05-12T12:28:25Z</time>
      </trkpt>
      <trkpt lat="43.34101" lon="5.21576">
        <ele>158</ele>
        <time>2016-05-12T12:28:26Z</time>
      </trkpt>
      <trkpt lat="43.34102" lon="5.21578">
        <ele>158</ele>
        <time>2016-05-12T12:28:27Z</time>
      </trkpt>
      <trkpt lat="43.34102" lon="5.21579">
        <ele>158</ele>
        <time>2016-05-12T12:28:28Z</time>
      </trkpt>
      <trkpt lat="43.34103" lon="5.21581">
        <ele>158</ele>
        <time>2016-05-12T12:28:29Z</time>
      </trkpt>
      <trkpt lat="43.34103" lon="5.21583">
        <ele>158</ele>
        <time>2016-05-12T12:28:30Z</time>
      </trkpt>
      <trkpt lat="43.34103" lon="5.21585">
        <ele>158</ele>
        <time>2016-05-12T12:28:31Z</time>
      </trkpt>
      <trkpt lat="43.34104" lon="5.21587">
        <ele>158</ele>
        <time>2016-05-12T12:28:32Z</time>
      </trkpt>
      <trkpt lat="43.34104" lon="5.21589">
        <ele>158</ele>
        <time>2016-05-12T12:28:33Z</time>
      </trkpt>
      <trkpt lat="43.34105" lon="5.21591">
        <ele>158</ele>
        <time>2016-05-12T12:28:34Z</time>
      </trkpt>
      <trkpt lat="43.34105" lon="5.21593">
        <ele>159</ele>
        <time>2016-05-12T12:28:35Z</time>
      </trkpt>
      <trkpt lat="43.34106" lon="5.21595">
        <ele>159</ele>
        <time>2016-05-12T12:28:36Z</time>
      </trkpt>
      <trkpt lat="43.34106" lon="5.21597">
        <ele>159</ele>
        <time>2016-05-12T12:28:37Z</time>
      </trkpt>
      <trkpt lat="43.34106" lon="5.21599">
        <ele>159</ele>
        <time>2016-05-12T12:28:38Z</time>
      </trkpt>
      <trkpt lat="43.34107" lon="5.216">
        <ele>159</ele>
        <time>2016-05-12T12:28:39Z</time>
      </trkpt>
      <trkpt lat="43.34107" lon="5.21603">
        <ele>159</ele>
        <time>2016-05-12T12:28:40Z</time>
      </trkpt>
      <trkpt lat="43.34108" lon="5.21604">
        <ele>159</ele>
        <time>2016-05-12T12:28:41Z</time>
      </trkpt>
      <trkpt lat="43.34108" lon="5.21606">
        <ele>159</ele>
        <time>2016-05-12T12:28:42Z</time>
      </trkpt>
      <trkpt lat="43.34108" lon="5.21608">
        <ele>159</ele>
        <time>2016-05-12T12:28:43Z</time>
      </trkpt>
      <trkpt lat="43.34108" lon="5.2161">
        <ele>160</ele>
        <time>2016-05-12T12:28:44Z</time>
      </trkpt>
      <trkpt lat="43.34109" lon="5.21612">
        <ele>160</ele>
        <time>2016-05-12T12:28:45Z</time>
      </trkpt>
      <trkpt lat="43.34109" lon="5.21614">
        <ele>160</ele>
        <time>2016-05-12T12:28:46Z</time>
      </trkpt>
      <trkpt lat="43.3411" lon="5.21615">
        <ele>160</ele>
        <time>2016-05-12T12:28:47Z</time>
      </trkpt>
      <trkpt lat="43.3411" lon="5.21617">
        <ele>160</ele>
        <time>2016-05-12T12:28:48Z</time>
      </trkpt>
      <trkpt lat="43.34111" lon="5.21619">
        <ele>160</ele>
        <time>2016-05-12T12:28:49Z</time>
      </trkpt>
      <trkpt lat="43.34111" lon="5.21621">
        <ele>160</ele>
        <time>2016-05-12T12:28:50Z</time>
      </trkpt>
      <trkpt lat="43.34112" lon="5.21623">
        <ele>161</ele>
        <time>2016-05-12T12:28:51Z</time>
      </trkpt>
      <trkpt lat="43.34112" lon="5.21625">
        <ele>161</ele>
        <time>2016-05-12T12:28:52Z</time>
      </trkpt>
      <trkpt lat="43.34112" lon="5.21626">
        <ele>161</ele>
        <time>2016-05-12T12:28:53Z</time>
      </trkpt>
      <trkpt lat="43.34113" lon="5.21628">
        <ele>161</ele>
        <time>2016-05-12T12:28:54Z</time>
      </trkpt>
      <trkpt lat="43.34113" lon="5.2163">
        <ele>162</ele>
        <time>2016-05-12T12:28:55Z</time>
      </trkpt>
      <trkpt lat="43.34113" lon="5.21631">
        <ele>162</ele>
        <time>2016-05-12T12:28:56Z</time>
      </trkpt>
      <trkpt lat="43.34114" lon="5.21633">
        <ele>162</ele>
        <time>2016-05-12T12:28:57Z</time>
      </trkpt>
      <trkpt lat="43.34114" lon="5.21635">
        <ele>162</ele>
        <time>2016-05-12T12:28:58Z</time>
      </trkpt>
      <trkpt lat="43.34114" lon="5.21637">
        <ele>163</ele>
        <time>2016-05-12T12:28:59Z</time>
      </trkpt>
      <trkpt lat="43.34115" lon="5.21638">
        <ele>163</ele>
        <time>2016-05-12T12:29:00Z</time>
      </trkpt>
      <trkpt lat="43.34115" lon="5.2164">
        <ele>163</ele>
        <time>2016-05-12T12:29:01Z</time>
      </trkpt>
      <trkpt lat="43.34115" lon="5.21642">
        <ele>163</ele>
        <time>2016-05-12T12:29:02Z</time>
      </trkpt>
      <trkpt lat="43.34116" lon="5.21644">
        <ele>163</ele>
        <time>2016-05-12T12:29:03Z</time>
      </trkpt>
      <trkpt lat="43.34116" lon="5.21646">
        <ele>163</ele>
        <time>2016-05-12T12:29:04Z</time>
      </trkpt>
      <trkpt lat="43.34116" lon="5.21647">
        <ele>163</ele>
        <time>2016-05-12T12:29:05Z</time>
      </trkpt>
      <trkpt lat="43.34117" lon="5.21649">
        <ele>164</ele>
        <time>2016-05-12T12:29:06Z</time>
      </trkpt>
      <trkpt lat="43.34118" lon="5.21651">
        <ele>164</ele>
        <time>2016-05-12T12:29:07Z</time>
      </trkpt>
      <trkpt lat="43.34118" lon="5.21653">
        <ele>164</ele>
        <time>2016-05-12T12:29:08Z</time>
      </trkpt>
      <trkpt lat="43.34118" lon="5.21654">
        <ele>164</ele>
        <time>2016-05-12T12:29:09Z</time>
      </trkpt>
      <trkpt lat="43.34119" lon="5.21656">
        <ele>164</ele>
        <time>2016-05-12T12:29:10Z</time>
      </trkpt>
      <trkpt lat="43.34119" lon="5.21657">
        <ele>164</ele>
        <time>2016-05-12T12:29:11Z</time>
      </trkpt>
      <trkpt lat="43.3412" lon="5.21659">
        <ele>164</ele>
        <time>2016-05-12T12:29:12Z</time>
      </trkpt>
      <trkpt lat="43.3412" lon="5.21661">
        <ele>165</ele>
        <time>2016-05-12T12:29:13Z</time>
      </trkpt>
      <trkpt lat="43.34121" lon="5.21663">
        <ele>165</ele>
        <time>2016-05-12T12:29:14Z</time>
      </trkpt>
      <trkpt lat="43.34121" lon="5.21664">
        <ele>165</ele>
        <time>2016-05-12T12:29:15Z</time>
      </trkpt>
      <trkpt lat="43.34121" lon="5.21666">
        <ele>165</ele>
        <time>2016-05-12T12:29:16Z</time>
      </trkpt>
      <trkpt lat="43.34121" lon="5.21668">
        <ele>165</ele>
        <time>2016-05-12T12:29:17Z</time>
      </trkpt>
      <trkpt lat="43.34122" lon="5.2167">
        <ele>165</ele>
        <time>2016-05-12T12:29:18Z</time>
      </trkpt>
      <trkpt lat="43.34122" lon="5.21671">
        <ele>165</ele>
        <time>2016-05-12T12:29:19Z</time>
      </trkpt>
      <trkpt lat="43.34122" lon="5.21673">
        <ele>166</ele>
        <time>2016-05-12T12:29:20Z</time>
      </trkpt>
      <trkpt lat="43.34123" lon="5.21675">
        <ele>166</ele>
        <time>2016-05-12T12:29:21Z</time>
      </trkpt>
      <trkpt lat="43.34123" lon="5.21677">
        <ele>166</ele>
        <time>2016-05-12T12:29:22Z</time>
      </trkpt>
      <trkpt lat="43.34123" lon="5.21679">
        <ele>166</ele>
        <time>2016-05-12T12:29:23Z</time>
      </trkpt>
      <trkpt lat="43.34123" lon="5.2168">
        <ele>166</ele>
        <time>2016-05-12T12:29:24Z</time>
      </trkpt>
      <trkpt lat="43.34124" lon="5.21682">
        <ele>167</ele>
        <time>2016-05-12T12:29:25Z</time>
      </trkpt>
      <trkpt lat="43.34124" lon="5.21684">
        <ele>167</ele>
        <time>2016-05-12T12:29:26Z</time>
      </trkpt>
      <trkpt lat="43.34124" lon="5.21686">
        <ele>167</ele>
        <time>2016-05-12T12:29:27Z</time>
      </trkpt>
      <trkpt lat="43.34124" lon="5.21688">
        <ele>167</ele>
        <time>2016-05-12T12:29:28Z</time>
      </trkpt>
      <trkpt lat="43.34124" lon="5.2169">
        <ele>167</ele>
        <time>2016-05-12T12:29:29Z</time>
      </trkpt>
      <trkpt lat="43.34124" lon="5.21691">
        <ele>167</ele>
        <time>2016-05-12T12:29:30Z</time>
      </trkpt>
      <trkpt lat="43.34124" lon="5.21693">
        <ele>168</ele>
        <time>2016-05-12T12:29:31Z</time>
      </trkpt>
      <trkpt lat="43.34123" lon="5.21695">
        <ele>168</ele>
        <time>2016-05-12T12:29:32Z</time>
      </trkpt>
      <trkpt lat="43.34123" lon="5.21697">
        <ele>168</ele>
        <time>2016-05-12T12:29:33Z</time>
      </trkpt>
      <trkpt lat="43.34123" lon="5.21699">
        <ele>168</ele>
        <time>2016-05-12T12:29:34Z</time>
      </trkpt>
      <trkpt lat="43.34122" lon="5.21701">
        <ele>168</ele>
        <time>2016-05-12T12:29:35Z</time>
      </trkpt>
      <trkpt lat="43.34122" lon="5.21703">
        <ele>168</ele>
        <time>2016-05-12T12:29:36Z</time>
      </trkpt>
      <trkpt lat="43.34122" lon="5.21704">
        <ele>169</ele>
        <time>2016-05-12T12:29:37Z</time>
      </trkpt>
      <trkpt lat="43.34122" lon="5.21706">
        <ele>169</ele>
        <time>2016-05-12T12:29:38Z</time>
      </trkpt>
      <trkpt lat="43.34121" lon="5.21708">
        <ele>169</ele>
        <time>2016-05-12T12:29:39Z</time>
      </trkpt>
      <trkpt lat="43.34121" lon="5.2171">
        <ele>169</ele>
        <time>2016-05-12T12:29:40Z</time>
      </trkpt>
      <trkpt lat="43.34121" lon="5.21712">
        <ele>169</ele>
        <time>2016-05-12T12:29:41Z</time>
      </trkpt>
      <trkpt lat="43.34121" lon="5.21714">
        <ele>169</ele>
        <time>2016-05-12T12:29:42Z</time>
      </trkpt>
      <trkpt lat="43.3412" lon="5.21715">
        <ele>169</ele>
        <time>2016-05-12T12:29:43Z</time>
      </trkpt>
      <trkpt lat="43.3412" lon="5.21717">
        <ele>170</ele>
        <time>2016-05-12T12:29:44Z</time>
      </trkpt>
      <trkpt lat="43.3412" lon="5.21719">
        <ele>170</ele>
        <time>2016-05-12T12:29:45Z</time>
      </trkpt>
      <trkpt lat="43.3412" lon="5.21721">
        <ele>170</ele>
        <time>2016-05-12T12:29:46Z</time>
      </trkpt>
      <trkpt lat="43.34119" lon="5.21722">
        <ele>170</ele>
        <time>2016-05-12T12:29:47Z</time>
      </trkpt>
      <trkpt lat="43.34119" lon="5.21724">
        <ele>170</ele>
        <time>2016-05-12T12:29:48Z</time>
      </trkpt>
      <trkpt lat="43.34119" lon="5.21726">
        <ele>170</ele>
        <time>2016-05-12T12:29:49Z</time>
      </trkpt>
      <trkpt lat="43.34119" lon="5.21728">
        <ele>170</ele>
        <time>2016-05-12T12:29:50Z</time>
      </trkpt>
      <trkpt lat="43.34118" lon="5.2173">
        <ele>171</ele>
        <time>2016-05-12T12:29:51Z</time>
      </trkpt>
      <trkpt lat="43.34118" lon="5.21732">
        <ele>171</ele>
        <time>2016-05-12T12:29:52Z</time>
      </trkpt>
      <trkpt lat="43.34118" lon="5.21734">
        <ele>171</ele>
        <time>2016-05-12T12:29:53Z</time>
      </trkpt>
      <trkpt lat="43.34118" lon="5.21735">
        <ele>171</ele>
        <time>2016-05-12T12:29:54Z</time>
      </trkpt>
      <trkpt lat="43.34118" lon="5.21737">
        <ele>171</ele>
        <time>2016-05-12T12:29:55Z</time>
      </trkpt>
      <trkpt lat="43.34117" lon="5.21739">
        <ele>171</ele>
        <time>2016-05-12T12:29:56Z</time>
      </trkpt>
      <trkpt lat="43.34117" lon="5.21741">
        <ele>171</ele>
        <time>2016-05-12T12:29:57Z</time>
      </trkpt>
      <trkpt lat="43.34117" lon="5.21743">
        <ele>171</ele>
        <time>2016-05-12T12:29:58Z</time>
      </trkpt>
      <trkpt lat="43.34117" lon="5.21745">
        <ele>172</ele>
        <time>2016-05-12T12:29:59Z</time>
      </trkpt>
      <trkpt lat="43.34117" lon="5.21747">
        <ele>172</ele>
        <time>2016-05-12T12:30:00Z</time>
      </trkpt>
      <trkpt lat="43.34117" lon="5.21749">
        <ele>172</ele>
        <time>2016-05-12T12:30:01Z</time>
      </trkpt>
      <trkpt lat="43.34117" lon="5.2175">
        <ele>172</ele>
        <time>2016-05-12T12:30:02Z</time>
      </trkpt>
      <trkpt lat="43.34116" lon="5.21753">
        <ele>172</ele>
        <time>2016-05-12T12:30:03Z</time>
      </trkpt>
      <trkpt lat="43.34116" lon="5.21755">
        <ele>172</ele>
        <time>2016-05-12T12:30:04Z</time>
      </trkpt>
      <trkpt lat="43.34116" lon="5.21757">
        <ele>172</ele>
        <time>2016-05-12T12:30:05Z</time>
      </trkpt>
      <trkpt lat="43.34116" lon="5.21759">
        <ele>173</ele>
        <time>2016-05-12T12:30:06Z</time>
      </trkpt>
      <trkpt lat="43.34116" lon="5.21761">
        <ele>173</ele>
        <time>2016-05-12T12:30:07Z</time>
      </trkpt>
      <trkpt lat="43.34115" lon="5.21763">
        <ele>173</ele>
        <time>2016-05-12T12:30:08Z</time>
      </trkpt>
      <trkpt lat="43.34115" lon="5.21764">
        <ele>173</ele>
        <time>2016-05-12T12:30:09Z</time>
      </trkpt>
      <trkpt lat="43.34115" lon="5.21766">
        <ele>173</ele>
        <time>2016-05-12T12:30:10Z</time>
      </trkpt>
      <trkpt lat="43.34115" lon="5.21768">
        <ele>173</ele>
        <time>2016-05-12T12:30:11Z</time>
      </trkpt>
      <trkpt lat="43.34114" lon="5.2177">
        <ele>174</ele>
        <time>2016-05-12T12:30:12Z</time>
      </trkpt>
      <trkpt lat="43.34114" lon="5.21771">
        <ele>174</ele>
        <time>2016-05-12T12:30:13Z</time>
      </trkpt>
      <trkpt lat="43.34114" lon="5.21773">
        <ele>174</ele>
        <time>2016-05-12T12:30:14Z</time>
      </trkpt>
      <trkpt lat="43.34114" lon="5.21775">
        <ele>174</ele>
        <time>2016-05-12T12:30:15Z</time>
      </trkpt>
      <trkpt lat="43.34114" lon="5.21777">
        <ele>174</ele>
        <time>2016-05-12T12:30:16Z</time>
      </trkpt>
      <trkpt lat="43.34113" lon="5.21779">
        <ele>174</ele>
        <time>2016-05-12T12:30:17Z</time>
      </trkpt>
      <trkpt lat="43.34113" lon="5.21781">
        <ele>174</ele>
        <time>2016-05-12T12:30:18Z</time>
      </trkpt>
      <trkpt lat="43.34113" lon="5.21783">
        <ele>174</ele>
        <time>2016-05-12T12:30:19Z</time>
      </trkpt>
      <trkpt lat="43.34113" lon="5.21785">
        <ele>174</ele>
        <time>2016-05-12T12:30:20Z</time>
      </trkpt>
      <trkpt lat="43.34112" lon="5.21787">
        <ele>175</ele>
        <time>2016-05-12T12:30:21Z</time>
      </trkpt>
      <trkpt lat="43.34112" lon="5.21788">
        <ele>175</ele>
        <time>2016-05-12T12:30:22Z</time>
      </trkpt>
      <trkpt lat="43.34112" lon="5.2179">
        <ele>175</ele>
        <time>2016-05-12T12:30:23Z</time>
      </trkpt>
      <trkpt lat="43.34112" lon="5.21792">
        <ele>175</ele>
        <time>2016-05-12T12:30:24Z</time>
      </trkpt>
      <trkpt lat="43.34112" lon="5.21794">
        <ele>175</ele>
        <time>2016-05-12T12:30:25Z</time>
      </trkpt>
      <trkpt lat="43.34111" lon="5.21796">
        <ele>175</ele>
        <time>2016-05-12T12:30:26Z</time>
      </trkpt>
      <trkpt lat="43.34111" lon="5.21798">
        <ele>175</ele>
        <time>2016-05-12T12:30:27Z</time>
      </trkpt>
      <trkpt lat="43.34111" lon="5.218">
        <ele>175</ele>
        <time>2016-05-12T12:30:28Z</time>
      </trkpt>
      <trkpt lat="43.34111" lon="5.21801">
        <ele>176</ele>
        <time>2016-05-12T12:30:29Z</time>
      </trkpt>
      <trkpt lat="43.34111" lon="5.21803">
        <ele>176</ele>
        <time>2016-05-12T12:30:30Z</time>
      </trkpt>
      <trkpt lat="43.34111" lon="5.21805">
        <ele>176</ele>
        <time>2016-05-12T12:30:31Z</time>
      </trkpt>
      <trkpt lat="43.3411" lon="5.21806">
        <ele>176</ele>
        <time>2016-05-12T12:30:32Z</time>
      </trkpt>
      <trkpt lat="43.3411" lon="5.21808">
        <ele>176</ele>
        <time>2016-05-12T12:30:33Z</time>
      </trkpt>
      <trkpt lat="43.3411" lon="5.2181">
        <ele>177</ele>
        <time>2016-05-12T12:30:34Z</time>
      </trkpt>
      <trkpt lat="43.3411" lon="5.21812">
        <ele>177</ele>
        <time>2016-05-12T12:30:35Z</time>
      </trkpt>
      <trkpt lat="43.34109" lon="5.21814">
        <ele>177</ele>
        <time>2016-05-12T12:30:36Z</time>
      </trkpt>
      <trkpt lat="43.34109" lon="5.21815">
        <ele>177</ele>
        <time>2016-05-12T12:30:37Z</time>
      </trkpt>
      <trkpt lat="43.34109" lon="5.21817">
        <ele>177</ele>
        <time>2016-05-12T12:30:38Z</time>
      </trkpt>
      <trkpt lat="43.34109" lon="5.21819">
        <ele>177</ele>
        <time>2016-05-12T12:30:39Z</time>
      </trkpt>
      <trkpt lat="43.34108" lon="5.21821">
        <ele>178</ele>
        <time>2016-05-12T12:30:40Z</time>
      </trkpt>
      <trkpt lat="43.34108" lon="5.21823">
        <ele>178</ele>
        <time>2016-05-12T12:30:41Z</time>
      </trkpt>
      <trkpt lat="43.34108" lon="5.21825">
        <ele>178</ele>
        <time>2016-05-12T12:30:42Z</time>
      </trkpt>
      <trkpt lat="43.34108" lon="5.21826">
        <ele>178</ele>
        <time>2016-05-12T12:30:43Z</time>
      </trkpt>
      <trkpt lat="43.34107" lon="5.21828">
        <ele>178</ele>
        <time>2016-05-12T12:30:44Z</time>
      </trkpt>
      <trkpt lat="43.34107" lon="5.2183">
        <ele>179</ele>
        <time>2016-05-12T12:30:45Z</time>
      </trkpt>
      <trkpt lat="43.34107" lon="5.21831">
        <ele>179</ele>
        <time>2016-05-12T12:30:46Z</time>
      </trkpt>
      <trkpt lat="43.34106" lon="5.21833">
        <ele>179</ele>
        <time>2016-05-12T12:30:47Z</time>
      </trkpt>
      <trkpt lat="43.34106" lon="5.21835">
        <ele>179</ele>
        <time>2016-05-12T12:30:48Z</time>
      </trkpt>
      <trkpt lat="43.34106" lon="5.21836">
        <ele>180</ele>
        <time>2016-05-12T12:30:49Z</time>
      </trkpt>
      <trkpt lat="43.34106" lon="5.21838">
        <ele>180</ele>
        <time>2016-05-12T12:30:50Z</time>
      </trkpt>
      <trkpt lat="43.34106" lon="5.2184">
        <ele>180</ele>
        <time>2016-05-12T12:30:51Z</time>
      </trkpt>
      <trkpt lat="43.34106" lon="5.21842">
        <ele>180</ele>
        <time>2016-05-12T12:30:52Z</time>
      </trkpt>
      <trkpt lat="43.34105" lon="5.21843">
        <ele>180</ele>
        <time>2016-05-12T12:30:53Z</time>
      </trkpt>
      <trkpt lat="43.34105" lon="5.21845">
        <ele>180</ele>
        <time>2016-05-12T12:30:54Z</time>
      </trkpt>
      <trkpt lat="43.34105" lon="5.21847">
        <ele>180</ele>
        <time>2016-05-12T12:30:55Z</time>
      </trkpt>
      <trkpt lat="43.34105" lon="5.21849">
        <ele>181</ele>
        <time>2016-05-12T12:30:56Z</time>
      </trkpt>
      <trkpt lat="43.34104" lon="5.21851">
        <ele>181</ele>
        <time>2016-05-12T12:30:57Z</time>
      </trkpt>
      <trkpt lat="43.34104" lon="5.21852">
        <ele>181</ele>
        <time>2016-05-12T12:30:58Z</time>
      </trkpt>
      <trkpt lat="43.34104" lon="5.21854">
        <ele>181</ele>
        <time>2016-05-12T12:30:59Z</time>
      </trkpt>
      <trkpt lat="43.34104" lon="5.21856">
        <ele>181</ele>
        <time>2016-05-12T12:31:00Z</time>
      </trkpt>
      <trkpt lat="43.34105" lon="5.21858">
        <ele>182</ele>
        <time>2016-05-12T12:31:01Z</time>
      </trkpt>
      <trkpt lat="43.34105" lon="5.2186">
        <ele>182</ele>
        <time>2016-05-12T12:31:02Z</time>
      </trkpt>
      <trkpt lat="43.34105" lon="5.21861">
        <ele>182</ele>
        <time>2016-05-12T12:31:03Z</time>
      </trkpt>
      <trkpt lat="43.34105" lon="5.21863">
        <ele>182</ele>
        <time>2016-05-12T12:31:04Z</time>
      </trkpt>
      <trkpt lat="43.34105" lon="5.21865">
        <ele>182</ele>
        <time>2016-05-12T12:31:05Z</time>
      </trkpt>
      <trkpt lat="43.34105" lon="5.21867">
        <ele>182</ele>
        <time>2016-05-12T12:31:06Z</time>
      </trkpt>
      <trkpt lat="43.34105" lon="5.21869">
        <ele>182</ele>
        <time>2016-05-12T12:31:07Z</time>
      </trkpt>
      <trkpt lat="43.34105" lon="5.21871">
        <ele>182</ele>
        <time>2016-05-12T12:31:08Z</time>
      </trkpt>
      <trkpt lat="43.34105" lon="5.21873">
        <ele>182</ele>
        <time>2016-05-12T12:31:09Z</time>
      </trkpt>
      <trkpt lat="43.34106" lon="5.21875">
        <ele>182</ele>
        <time>2016-05-12T12:31:10Z</time>
      </trkpt>
      <trkpt lat="43.34106" lon="5.21876">
        <ele>183</ele>
        <time>2016-05-12T12:31:11Z</time>
      </trkpt>
      <trkpt lat="43.34106" lon="5.21878">
        <ele>183</ele>
        <time>2016-05-12T12:31:12Z</time>
      </trkpt>
      <trkpt lat="43.34106" lon="5.2188">
        <ele>183</ele>
        <time>2016-05-12T12:31:13Z</time>
      </trkpt>
      <trkpt lat="43.34107" lon="5.21882">
        <ele>183</ele>
        <time>2016-05-12T12:31:14Z</time>
      </trkpt>
      <trkpt lat="43.34107" lon="5.21883">
        <ele>183</ele>
        <time>2016-05-12T12:31:15Z</time>
      </trkpt>
      <trkpt lat="43.34108" lon="5.21885">
        <ele>184</ele>
        <time>2016-05-12T12:31:16Z</time>
      </trkpt>
      <trkpt lat="43.34108" lon="5.21887">
        <ele>184</ele>
        <time>2016-05-12T12:31:17Z</time>
      </trkpt>
      <trkpt lat="43.34109" lon="5.21888">
        <ele>184</ele>
        <time>2016-05-12T12:31:18Z</time>
      </trkpt>
      <trkpt lat="43.34109" lon="5.2189">
        <ele>184</ele>
        <time>2016-05-12T12:31:19Z</time>
      </trkpt>
      <trkpt lat="43.34109" lon="5.21892">
        <ele>184</ele>
        <time>2016-05-12T12:31:20Z</time>
      </trkpt>
      <trkpt lat="43.3411" lon="5.21893">
        <ele>184</ele>
        <time>2016-05-12T12:31:22Z</time>
      </trkpt>
      <trkpt lat="43.34111" lon="5.21896">
        <ele>184</ele>
        <time>2016-05-12T12:31:24Z</time>
      </trkpt>
      <trkpt lat="43.34111" lon="5.21898">
        <ele>184</ele>
        <time>2016-05-12T12:31:25Z</time>
      </trkpt>
      <trkpt lat="43.34111" lon="5.21899">
        <ele>184</ele>
        <time>2016-05-12T12:31:26Z</time>
      </trkpt>
      <trkpt lat="43.34111" lon="5.21901">
        <ele>184</ele>
        <time>2016-05-12T12:31:27Z</time>
      </trkpt>
      <trkpt lat="43.34111" lon="5.21903">
        <ele>184</ele>
        <time>2016-05-12T12:31:28Z</time>
      </trkpt>
      <trkpt lat="43.34111" lon="5.21904">
        <ele>184</ele>
        <time>2016-05-12T12:31:29Z</time>
      </trkpt>
      <trkpt lat="43.34112" lon="5.21906">
        <ele>184</ele>
        <time>2016-05-12T12:31:30Z</time>
      </trkpt>
      <trkpt lat="43.34112" lon="5.21907">
        <ele>185</ele>
        <time>2016-05-12T12:31:31Z</time>
      </trkpt>
      <trkpt lat="43.34113" lon="5.21909">
        <ele>185</ele>
        <time>2016-05-12T12:31:32Z</time>
      </trkpt>
      <trkpt lat="43.34113" lon="5.2191">
        <ele>185</ele>
        <time>2016-05-12T12:31:33Z</time>
      </trkpt>
      <trkpt lat="43.34113" lon="5.21912">
        <ele>185</ele>
        <time>2016-05-12T12:31:34Z</time>
      </trkpt>
      <trkpt lat="43.34113" lon="5.21914">
        <ele>185</ele>
        <time>2016-05-12T12:31:35Z</time>
      </trkpt>
      <trkpt lat="43.34114" lon="5.21915">
        <ele>185</ele>
        <time>2016-05-12T12:31:36Z</time>
      </trkpt>
      <trkpt lat="43.34114" lon="5.21917">
        <ele>185</ele>
        <time>2016-05-12T12:31:37Z</time>
      </trkpt>
      <trkpt lat="43.34114" lon="5.21919">
        <ele>185</ele>
        <time>2016-05-12T12:31:38Z</time>
      </trkpt>
      <trkpt lat="43.34115" lon="5.2192">
        <ele>185</ele>
        <time>2016-05-12T12:31:39Z</time>
      </trkpt>
      <trkpt lat="43.34115" lon="5.21922">
        <ele>185</ele>
        <time>2016-05-12T12:31:40Z</time>
      </trkpt>
      <trkpt lat="43.34116" lon="5.21923">
        <ele>185</ele>
        <time>2016-05-12T12:31:41Z</time>
      </trkpt>
      <trkpt lat="43.34116" lon="5.21925">
        <ele>185</ele>
        <time>2016-05-12T12:31:42Z</time>
      </trkpt>
      <trkpt lat="43.34116" lon="5.21927">
        <ele>186</ele>
        <time>2016-05-12T12:31:43Z</time>
      </trkpt>
      <trkpt lat="43.34117" lon="5.21929">
        <ele>186</ele>
        <time>2016-05-12T12:31:44Z</time>
      </trkpt>
      <trkpt lat="43.34117" lon="5.2193">
        <ele>186</ele>
        <time>2016-05-12T12:31:45Z</time>
      </trkpt>
      <trkpt lat="43.34117" lon="5.21932">
        <ele>186</ele>
        <time>2016-05-12T12:31:46Z</time>
      </trkpt>
      <trkpt lat="43.34118" lon="5.21934">
        <ele>186</ele>
        <time>2016-05-12T12:31:47Z</time>
      </trkpt>
      <trkpt lat="43.34118" lon="5.21935">
        <ele>186</ele>
        <time>2016-05-12T12:31:48Z</time>
      </trkpt>
      <trkpt lat="43.34118" lon="5.21937">
        <ele>187</ele>
        <time>2016-05-12T12:31:49Z</time>
      </trkpt>
      <trkpt lat="43.34118" lon="5.21939">
        <ele>187</ele>
        <time>2016-05-12T12:31:50Z</time>
      </trkpt>
      <trkpt lat="43.34119" lon="5.2194">
        <ele>187</ele>
        <time>2016-05-12T12:31:51Z</time>
      </trkpt>
      <trkpt lat="43.34119" lon="5.21942">
        <ele>187</ele>
        <time>2016-05-12T12:31:52Z</time>
      </trkpt>
      <trkpt lat="43.34119" lon="5.21944">
        <ele>187</ele>
        <time>2016-05-12T12:31:53Z</time>
      </trkpt>
      <trkpt lat="43.3412" lon="5.21945">
        <ele>187</ele>
        <time>2016-05-12T12:31:54Z</time>
      </trkpt>
      <trkpt lat="43.3412" lon="5.21947">
        <ele>187</ele>
        <time>2016-05-12T12:31:55Z</time>
      </trkpt>
      <trkpt lat="43.3412" lon="5.21948">
        <ele>187</ele>
        <time>2016-05-12T12:31:56Z</time>
      </trkpt>
      <trkpt lat="43.34121" lon="5.2195">
        <ele>188</ele>
        <time>2016-05-12T12:31:57Z</time>
      </trkpt>
      <trkpt lat="43.34121" lon="5.21952">
        <ele>188</ele>
        <time>2016-05-12T12:31:58Z</time>
      </trkpt>
      <trkpt lat="43.34121" lon="5.21954">
        <ele>188</ele>
        <time>2016-05-12T12:31:59Z</time>
      </trkpt>
      <trkpt lat="43.34121" lon="5.21955">
        <ele>188</ele>
        <time>2016-05-12T12:32:00Z</time>
      </trkpt>
      <trkpt lat="43.34122" lon="5.21957">
        <ele>188</ele>
        <time>2016-05-12T12:32:01Z</time>
      </trkpt>
      <trkpt lat="43.34122" lon="5.21959">
        <ele>188</ele>
        <time>2016-05-12T12:32:02Z</time>
      </trkpt>
      <trkpt lat="43.34123" lon="5.2196">
        <ele>188</ele>
        <time>2016-05-12T12:32:03Z</time>
      </trkpt>
      <trkpt lat="43.34123" lon="5.21962">
        <ele>189</ele>
        <time>2016-05-12T12:32:04Z</time>
      </trkpt>
      <trkpt lat="43.34123" lon="5.21964">
        <ele>189</ele>
        <time>2016-05-12T12:32:05Z</time>
      </trkpt>
      <trkpt lat="43.34124" lon="5.21965">
        <ele>189</ele>
        <time>2016-05-12T12:32:06Z</time>
      </trkpt>
      <trkpt lat="43.34124" lon="5.21967">
        <ele>189</ele>
        <time>2016-05-12T12:32:07Z</time>
      </trkpt>
      <trkpt lat="43.34124" lon="5.21969">
        <ele>189</ele>
        <time>2016-05-12T12:32:08Z</time>
      </trkpt>
      <trkpt lat="43.34124" lon="5.2197">
        <ele>190</ele>
        <time>2016-05-12T12:32:09Z</time>
      </trkpt>
      <trkpt lat="43.34125" lon="5.21972">
        <ele>190</ele>
        <time>2016-05-12T12:32:10Z</time>
      </trkpt>
      <trkpt lat="43.34125" lon="5.21974">
        <ele>190</ele>
        <time>2016-05-12T12:32:11Z</time>
      </trkpt>
      <trkpt lat="43.34126" lon="5.21976">
        <ele>190</ele>
        <time>2016-05-12T12:32:12Z</time>
      </trkpt>
      <trkpt lat="43.34126" lon="5.21977">
        <ele>190</ele>
        <time>2016-05-12T12:32:13Z</time>
      </trkpt>
      <trkpt lat="43.34126" lon="5.21979">
        <ele>190</ele>
        <time>2016-05-12T12:32:14Z</time>
      </trkpt>
      <trkpt lat="43.34127" lon="5.2198">
        <ele>190</ele>
        <time>2016-05-12T12:32:15Z</time>
      </trkpt>
      <trkpt lat="43.34127" lon="5.21982">
        <ele>190</ele>
        <time>2016-05-12T12:32:16Z</time>
      </trkpt>
      <trkpt lat="43.34129" lon="5.21985">
        <ele>191</ele>
        <time>2016-05-12T12:32:18Z</time>
      </trkpt>
      <trkpt lat="43.34129" lon="5.21986">
        <ele>191</ele>
        <time>2016-05-12T12:32:19Z</time>
      </trkpt>
      <trkpt lat="43.34129" lon="5.21988">
        <ele>191</ele>
        <time>2016-05-12T12:32:20Z</time>
      </trkpt>
      <trkpt lat="43.3413" lon="5.21989">
        <ele>191</ele>
        <time>2016-05-12T12:32:21Z</time>
      </trkpt>
      <trkpt lat="43.34131" lon="5.21991">
        <ele>191</ele>
        <time>2016-05-12T12:32:22Z</time>
      </trkpt>
      <trkpt lat="43.34132" lon="5.21993">
        <ele>191</ele>
        <time>2016-05-12T12:32:24Z</time>
      </trkpt>
      <trkpt lat="43.34134" lon="5.21996">
        <ele>191</ele>
        <time>2016-05-12T12:32:26Z</time>
      </trkpt>
      <trkpt lat="43.34135" lon="5.21998">
        <ele>191</ele>
        <time>2016-05-12T12:32:27Z</time>
      </trkpt>
      <trkpt lat="43.34135" lon="5.21999">
        <ele>191</ele>
        <time>2016-05-12T12:32:28Z</time>
      </trkpt>
      <trkpt lat="43.34137" lon="5.22002">
        <ele>191</ele>
        <time>2016-05-12T12:32:30Z</time>
      </trkpt>
      <trkpt lat="43.34139" lon="5.22003">
        <ele>192</ele>
        <time>2016-05-12T12:32:31Z</time>
      </trkpt>
      <trkpt lat="43.3414" lon="5.22003">
        <ele>192</ele>
        <time>2016-05-12T12:32:32Z</time>
      </trkpt>
      <trkpt lat="43.34141" lon="5.22004">
        <ele>192</ele>
        <time>2016-05-12T12:32:33Z</time>
      </trkpt>
      <trkpt lat="43.34142" lon="5.22005">
        <ele>192</ele>
        <time>2016-05-12T12:32:34Z</time>
      </trkpt>
      <trkpt lat="43.34143" lon="5.22006">
        <ele>192</ele>
        <time>2016-05-12T12:32:35Z</time>
      </trkpt>
      <trkpt lat="43.34145" lon="5.22006">
        <ele>192</ele>
        <time>2016-05-12T12:32:36Z</time>
      </trkpt>
      <trkpt lat="43.34146" lon="5.22007">
        <ele>192</ele>
        <time>2016-05-12T12:32:37Z</time>
      </trkpt>
      <trkpt lat="43.34147" lon="5.22007">
        <ele>192</ele>
        <time>2016-05-12T12:32:38Z</time>
      </trkpt>
      <trkpt lat="43.34149" lon="5.22007">
        <ele>192</ele>
        <time>2016-05-12T12:32:39Z</time>
      </trkpt>
      <trkpt lat="43.3415" lon="5.22008">
        <ele>192</ele>
        <time>2016-05-12T12:32:40Z</time>
      </trkpt>
      <trkpt lat="43.34151" lon="5.22009">
        <ele>192</ele>
        <time>2016-05-12T12:32:41Z</time>
      </trkpt>
      <trkpt lat="43.34152" lon="5.2201">
        <ele>192</ele>
        <time>2016-05-12T12:32:42Z</time>
      </trkpt>
      <trkpt lat="43.34153" lon="5.2201">
        <ele>192</ele>
        <time>2016-05-12T12:32:43Z</time>
      </trkpt>
      <trkpt lat="43.34155" lon="5.22011">
        <ele>193</ele>
        <time>2016-05-12T12:32:44Z</time>
      </trkpt>
      <trkpt lat="43.34156" lon="5.22012">
        <ele>193</ele>
        <time>2016-05-12T12:32:45Z</time>
      </trkpt>
      <trkpt lat="43.34157" lon="5.22013">
        <ele>193</ele>
        <time>2016-05-12T12:32:46Z</time>
      </trkpt>
      <trkpt lat="43.34158" lon="5.22014">
        <ele>193</ele>
        <time>2016-05-12T12:32:47Z</time>
      </trkpt>
      <trkpt lat="43.3416" lon="5.22014">
        <ele>193</ele>
        <time>2016-05-12T12:32:48Z</time>
      </trkpt>
      <trkpt lat="43.34161" lon="5.22015">
        <ele>193</ele>
        <time>2016-05-12T12:32:49Z</time>
      </trkpt>
      <trkpt lat="43.34162" lon="5.22015">
        <ele>193</ele>
        <time>2016-05-12T12:32:50Z</time>
      </trkpt>
      <trkpt lat="43.34163" lon="5.22016">
        <ele>194</ele>
        <time>2016-05-12T12:32:51Z</time>
      </trkpt>
      <trkpt lat="43.34165" lon="5.22016">
        <ele>194</ele>
        <time>2016-05-12T12:32:52Z</time>
      </trkpt>
      <trkpt lat="43.34167" lon="5.22018">
        <ele>194</ele>
        <time>2016-05-12T12:32:54Z</time>
      </trkpt>
      <trkpt lat="43.34168" lon="5.22018">
        <ele>194</ele>
        <time>2016-05-12T12:32:55Z</time>
      </trkpt>
      <trkpt lat="43.34169" lon="5.22019">
        <ele>194</ele>
        <time>2016-05-12T12:32:56Z</time>
      </trkpt>
      <trkpt lat="43.34171" lon="5.2202">
        <ele>194</ele>
        <time>2016-05-12T12:32:57Z</time>
      </trkpt>
      <trkpt lat="43.34172" lon="5.22021">
        <ele>194</ele>
        <time>2016-05-12T12:32:58Z</time>
      </trkpt>
      <trkpt lat="43.34173" lon="5.22022">
        <ele>194</ele>
        <time>2016-05-12T12:32:59Z</time>
      </trkpt>
      <trkpt lat="43.34174" lon="5.22022">
        <ele>195</ele>
        <time>2016-05-12T12:33:00Z</time>
      </trkpt>
      <trkpt lat="43.34175" lon="5.22023">
        <ele>195</ele>
        <time>2016-05-12T12:33:01Z</time>
      </trkpt>
      <trkpt lat="43.34177" lon="5.22024">
        <ele>195</ele>
        <time>2016-05-12T12:33:02Z</time>
      </trkpt>
      <trkpt lat="43.34178" lon="5.22024">
        <ele>195</ele>
        <time>2016-05-12T12:33:03Z</time>
      </trkpt>
      <trkpt lat="43.3418" lon="5.22025">
        <ele>195</ele>
        <time>2016-05-12T12:33:04Z</time>
      </trkpt>
      <trkpt lat="43.34181" lon="5.22026">
        <ele>195</ele>
        <time>2016-05-12T12:33:05Z</time>
      </trkpt>
      <trkpt lat="43.34183" lon="5.22029">
        <ele>195</ele>
        <time>2016-05-12T12:33:07Z</time>
      </trkpt>
      <trkpt lat="43.34185" lon="5.22031">
        <ele>196</ele>
        <time>2016-05-12T12:33:09Z</time>
      </trkpt>
      <trkpt lat="43.34186" lon="5.22032">
        <ele>196</ele>
        <time>2016-05-12T12:33:10Z</time>
      </trkpt>
      <trkpt lat="43.34187" lon="5.22033">
        <ele>196</ele>
        <time>2016-05-12T12:33:11Z</time>
      </trkpt>
      <trkpt lat="43.34189" lon="5.22035">
        <ele>196</ele>
        <time>2016-05-12T12:33:13Z</time>
      </trkpt>
      <trkpt lat="43.3419" lon="5.22037">
        <ele>196</ele>
        <time>2016-05-12T12:33:14Z</time>
      </trkpt>
      <trkpt lat="43.34192" lon="5.22037">
        <ele>196</ele>
        <time>2016-05-12T12:33:15Z</time>
      </trkpt>
      <trkpt lat="43.34193" lon="5.22038">
        <ele>196</ele>
        <time>2016-05-12T12:33:16Z</time>
      </trkpt>
      <trkpt lat="43.34194" lon="5.22039">
        <ele>197</ele>
        <time>2016-05-12T12:33:17Z</time>
      </trkpt>
      <trkpt lat="43.34195" lon="5.2204">
        <ele>197</ele>
        <time>2016-05-12T12:33:18Z</time>
      </trkpt>
      <trkpt lat="43.34196" lon="5.22042">
        <ele>197</ele>
        <time>2016-05-12T12:33:19Z</time>
      </trkpt>
      <trkpt lat="43.34197" lon="5.22043">
        <ele>197</ele>
        <time>2016-05-12T12:33:20Z</time>
      </trkpt>
      <trkpt lat="43.34198" lon="5.22045">
        <ele>197</ele>
        <time>2016-05-12T12:33:21Z</time>
      </trkpt>
      <trkpt lat="43.34199" lon="5.22046">
        <ele>197</ele>
        <time>2016-05-12T12:33:22Z</time>
      </trkpt>
      <trkpt lat="43.342" lon="5.22048">
        <ele>197</ele>
        <time>2016-05-12T12:33:23Z</time>
      </trkpt>
      <trkpt lat="43.342" lon="5.2205">
        <ele>197</ele>
        <time>2016-05-12T12:33:24Z</time>
      </trkpt>
      <trkpt lat="43.34201" lon="5.22052">
        <ele>197</ele>
        <time>2016-05-12T12:33:25Z</time>
      </trkpt>
      <trkpt lat="43.34202" lon="5.22053">
        <ele>197</ele>
        <time>2016-05-12T12:33:26Z</time>
      </trkpt>
      <trkpt lat="43.34202" lon="5.22055">
        <ele>197</ele>
        <time>2016-05-12T12:33:27Z</time>
      </trkpt>
      <trkpt lat="43.34203" lon="5.22057">
        <ele>197</ele>
        <time>2016-05-12T12:33:28Z</time>
      </trkpt>
      <trkpt lat="43.34203" lon="5.22059">
        <ele>197</ele>
        <time>2016-05-12T12:33:29Z</time>
      </trkpt>
      <trkpt lat="43.34204" lon="5.22061">
        <ele>197</ele>
        <time>2016-05-12T12:33:30Z</time>
      </trkpt>
      <trkpt lat="43.34204" lon="5.22063">
        <ele>197</ele>
        <time>2016-05-12T12:33:31Z</time>
      </trkpt>
      <trkpt lat="43.34204" lon="5.22065">
        <ele>197</ele>
        <time>2016-05-12T12:33:32Z</time>
      </trkpt>
      <trkpt lat="43.34204" lon="5.22067">
        <ele>197</ele>
        <time>2016-05-12T12:33:33Z</time>
      </trkpt>
      <trkpt lat="43.34205" lon="5.22069">
        <ele>197</ele>
        <time>2016-05-12T12:33:34Z</time>
      </trkpt>
      <trkpt lat="43.34205" lon="5.22071">
        <ele>197</ele>
        <time>2016-05-12T12:33:35Z</time>
      </trkpt>
      <trkpt lat="43.34205" lon="5.22073">
        <ele>197</ele>
        <time>2016-05-12T12:33:36Z</time>
      </trkpt>
      <trkpt lat="43.34205" lon="5.22075">
        <ele>198</ele>
        <time>2016-05-12T12:33:37Z</time>
      </trkpt>
      <trkpt lat="43.34205" lon="5.22077">
        <ele>198</ele>
        <time>2016-05-12T12:33:38Z</time>
      </trkpt>
      <trkpt lat="43.34205" lon="5.22079">
        <ele>198</ele>
        <time>2016-05-12T12:33:39Z</time>
      </trkpt>
      <trkpt lat="43.34205" lon="5.22081">
        <ele>198</ele>
        <time>2016-05-12T12:33:40Z</time>
      </trkpt>
      <trkpt lat="43.34205" lon="5.22082">
        <ele>198</ele>
        <time>2016-05-12T12:33:41Z</time>
      </trkpt>
      <trkpt lat="43.34205" lon="5.22084">
        <ele>198</ele>
        <time>2016-05-12T12:33:42Z</time>
      </trkpt>
      <trkpt lat="43.34204" lon="5.22086">
        <ele>198</ele>
        <time>2016-05-12T12:33:43Z</time>
      </trkpt>
      <trkpt lat="43.34204" lon="5.22088">
        <ele>199</ele>
        <time>2016-05-12T12:33:44Z</time>
      </trkpt>
      <trkpt lat="43.34204" lon="5.2209">
        <ele>199</ele>
        <time>2016-05-12T12:33:45Z</time>
      </trkpt>
      <trkpt lat="43.34204" lon="5.22091">
        <ele>199</ele>
        <time>2016-05-12T12:33:46Z</time>
      </trkpt>
      <trkpt lat="43.34204" lon="5.22093">
        <ele>199</ele>
        <time>2016-05-12T12:33:47Z</time>
      </trkpt>
      <trkpt lat="43.34203" lon="5.22095">
        <ele>199</ele>
        <time>2016-05-12T12:33:48Z</time>
      </trkpt>
      <trkpt lat="43.34203" lon="5.22097">
        <ele>199</ele>
        <time>2016-05-12T12:33:49Z</time>
      </trkpt>
      <trkpt lat="43.34203" lon="5.22099">
        <ele>199</ele>
        <time>2016-05-12T12:33:50Z</time>
      </trkpt>
      <trkpt lat="43.34203" lon="5.22101">
        <ele>200</ele>
        <time>2016-05-12T12:33:51Z</time>
      </trkpt>
      <trkpt lat="43.34203" lon="5.22102">
        <ele>200</ele>
        <time>2016-05-12T12:33:52Z</time>
      </trkpt>
      <trkpt lat="43.34202" lon="5.22104">
        <ele>200</ele>
        <time>2016-05-12T12:33:53Z</time>
      </trkpt>
      <trkpt lat="43.34202" lon="5.22106">
        <ele>200</ele>
        <time>2016-05-12T12:33:54Z</time>
      </trkpt>
      <trkpt lat="43.34202" lon="5.22108">
        <ele>200</ele>
        <time>2016-05-12T12:33:55Z</time>
      </trkpt>
      <trkpt lat="43.34201" lon="5.2211">
        <ele>200</ele>
        <time>2016-05-12T12:33:56Z</time>
      </trkpt>
      <trkpt lat="43.34201" lon="5.22111">
        <ele>200</ele>
        <time>2016-05-12T12:33:57Z</time>
      </trkpt>
      <trkpt lat="43.34201" lon="5.22113">
        <ele>200</ele>
        <time>2016-05-12T12:33:58Z</time>
      </trkpt>
      <trkpt lat="43.34201" lon="5.22115">
        <ele>200</ele>
        <time>2016-05-12T12:33:59Z</time>
      </trkpt>
      <trkpt lat="43.34201" lon="5.22117">
        <ele>201</ele>
        <time>2016-05-12T12:34:00Z</time>
      </trkpt>
      <trkpt lat="43.342" lon="5.22118">
        <ele>201</ele>
        <time>2016-05-12T12:34:01Z</time>
      </trkpt>
      <trkpt lat="43.342" lon="5.2212">
        <ele>201</ele>
        <time>2016-05-12T12:34:02Z</time>
      </trkpt>
      <trkpt lat="43.342" lon="5.22121">
        <ele>201</ele>
        <time>2016-05-12T12:34:03Z</time>
      </trkpt>
      <trkpt lat="43.342" lon="5.22123">
        <ele>201</ele>
        <time>2016-05-12T12:34:04Z</time>
      </trkpt>
      <trkpt lat="43.34199" lon="5.22125">
        <ele>202</ele>
        <time>2016-05-12T12:34:05Z</time>
      </trkpt>
      <trkpt lat="43.34199" lon="5.22127">
        <ele>202</ele>
        <time>2016-05-12T12:34:06Z</time>
      </trkpt>
      <trkpt lat="43.34199" lon="5.22128">
        <ele>202</ele>
        <time>2016-05-12T12:34:07Z</time>
      </trkpt>
      <trkpt lat="43.34199" lon="5.2213">
        <ele>202</ele>
        <time>2016-05-12T12:34:08Z</time>
      </trkpt>
      <trkpt lat="43.34198" lon="5.22132">
        <ele>202</ele>
        <time>2016-05-12T12:34:09Z</time>
      </trkpt>
      <trkpt lat="43.34198" lon="5.22133">
        <ele>202</ele>
        <time>2016-05-12T12:34:10Z</time>
      </trkpt>
      <trkpt lat="43.34198" lon="5.22135">
        <ele>203</ele>
        <time>2016-05-12T12:34:11Z</time>
      </trkpt>
      <trkpt lat="43.34198" lon="5.22137">
        <ele>203</ele>
        <time>2016-05-12T12:34:12Z</time>
      </trkpt>
      <trkpt lat="43.34198" lon="5.22139">
        <ele>203</ele>
        <time>2016-05-12T12:34:13Z</time>
      </trkpt>
      <trkpt lat="43.34197" lon="5.2214">
        <ele>203</ele>
        <time>2016-05-12T12:34:14Z</time>
      </trkpt>
      <trkpt lat="43.34197" lon="5.22142">
        <ele>203</ele>
        <time>2016-05-12T12:34:15Z</time>
      </trkpt>
      <trkpt lat="43.34197" lon="5.22144">
        <ele>203</ele>
        <time>2016-05-12T12:34:16Z</time>
      </trkpt>
      <trkpt lat="43.34197" lon="5.22145">
        <ele>203</ele>
        <time>2016-05-12T12:34:17Z</time>
      </trkpt>
      <trkpt lat="43.34197" lon="5.22147">
        <ele>203</ele>
        <time>2016-05-12T12:34:18Z</time>
      </trkpt>
      <trkpt lat="43.34197" lon="5.22149">
        <ele>203</ele>
        <time>2016-05-12T12:34:19Z</time>
      </trkpt>
      <trkpt lat="43.34196" lon="5.22151">
        <ele>204</ele>
        <time>2016-05-12T12:34:20Z</time>
      </trkpt>
      <trkpt lat="43.34196" lon="5.22153">
        <ele>204</ele>
        <time>2016-05-12T12:34:21Z</time>
      </trkpt>
      <trkpt lat="43.34196" lon="5.22154">
        <ele>204</ele>
        <time>2016-05-12T12:34:22Z</time>
      </trkpt>
      <trkpt lat="43.34196" lon="5.22156">
        <ele>204</ele>
        <time>2016-05-12T12:34:23Z</time>
      </trkpt>
      <trkpt lat="43.34195" lon="5.22158">
        <ele>204</ele>
        <time>2016-05-12T12:34:24Z</time>
      </trkpt>
      <trkpt lat="43.34195" lon="5.22159">
        <ele>204</ele>
        <time>2016-05-12T12:34:25Z</time>
      </trkpt>
      <trkpt lat="43.34195" lon="5.22161">
        <ele>204</ele>
        <time>2016-05-12T12:34:26Z</time>
      </trkpt>
      <trkpt lat="43.34194" lon="5.22163">
        <ele>204</ele>
        <time>2016-05-12T12:34:27Z</time>
      </trkpt>
      <trkpt lat="43.34194" lon="5.22165">
        <ele>205</ele>
        <time>2016-05-12T12:34:28Z</time>
      </trkpt>
      <trkpt lat="43.34193" lon="5.22166">
        <ele>205</ele>
        <time>2016-05-12T12:34:29Z</time>
      </trkpt>
      <trkpt lat="43.34193" lon="5.22168">
        <ele>205</ele>
        <time>2016-05-12T12:34:30Z</time>
      </trkpt>
      <trkpt lat="43.34193" lon="5.2217">
        <ele>205</ele>
        <time>2016-05-12T12:34:31Z</time>
      </trkpt>
      <trkpt lat="43.34193" lon="5.22171">
        <ele>205</ele>
        <time>2016-05-12T12:34:32Z</time>
      </trkpt>
      <trkpt lat="43.34193" lon="5.22173">
        <ele>205</ele>
        <time>2016-05-12T12:34:33Z</time>
      </trkpt>
      <trkpt lat="43.34192" lon="5.22175">
        <ele>205</ele>
        <time>2016-05-12T12:34:34Z</time>
      </trkpt>
      <trkpt lat="43.34192" lon="5.22177">
        <ele>205</ele>
        <time>2016-05-12T12:34:35Z</time>
      </trkpt>
      <trkpt lat="43.34192" lon="5.22179">
        <ele>205</ele>
        <time>2016-05-12T12:34:36Z</time>
      </trkpt>
      <trkpt lat="43.34191" lon="5.2218">
        <ele>205</ele>
        <time>2016-05-12T12:34:37Z</time>
      </trkpt>
      <trkpt lat="43.34191" lon="5.22182">
        <ele>205</ele>
        <time>2016-05-12T12:34:38Z</time>
      </trkpt>
      <trkpt lat="43.3419" lon="5.22184">
        <ele>205</ele>
        <time>2016-05-12T12:34:39Z</time>
      </trkpt>
      <trkpt lat="43.3419" lon="5.22186">
        <ele>206</ele>
        <time>2016-05-12T12:34:40Z</time>
      </trkpt>
      <trkpt lat="43.3419" lon="5.22187">
        <ele>206</ele>
        <time>2016-05-12T12:34:41Z</time>
      </trkpt>
      <trkpt lat="43.3419" lon="5.22189">
        <ele>206</ele>
        <time>2016-05-12T12:34:42Z</time>
      </trkpt>
      <trkpt lat="43.34189" lon="5.22191">
        <ele>206</ele>
        <time>2016-05-12T12:34:43Z</time>
      </trkpt>
      <trkpt lat="43.34189" lon="5.22193">
        <ele>206</ele>
        <time>2016-05-12T12:34:44Z</time>
      </trkpt>
      <trkpt lat="43.34188" lon="5.22194">
        <ele>206</ele>
        <time>2016-05-12T12:34:45Z</time>
      </trkpt>
      <trkpt lat="43.34188" lon="5.22196">
        <ele>207</ele>
        <time>2016-05-12T12:34:46Z</time>
      </trkpt>
      <trkpt lat="43.34187" lon="5.22198">
        <ele>207</ele>
        <time>2016-05-12T12:34:47Z</time>
      </trkpt>
      <trkpt lat="43.34186" lon="5.222">
        <ele>207</ele>
        <time>2016-05-12T12:34:48Z</time>
      </trkpt>
      <trkpt lat="43.34186" lon="5.22201">
        <ele>207</ele>
        <time>2016-05-12T12:34:49Z</time>
      </trkpt>
      <trkpt lat="43.34185" lon="5.22203">
        <ele>207</ele>
        <time>2016-05-12T12:34:50Z</time>
      </trkpt>
      <trkpt lat="43.34185" lon="5.22205">
        <ele>207</ele>
        <time>2016-05-12T12:34:51Z</time>
      </trkpt>
      <trkpt lat="43.34184" lon="5.22206">
        <ele>207</ele>
        <time>2016-05-12T12:34:52Z</time>
      </trkpt>
      <trkpt lat="43.34184" lon="5.22208">
        <ele>207</ele>
        <time>2016-05-12T12:34:53Z</time>
      </trkpt>
      <trkpt lat="43.34183" lon="5.2221">
        <ele>207</ele>
        <time>2016-05-12T12:34:54Z</time>
      </trkpt>
      <trkpt lat="43.34182" lon="5.22211">
        <ele>208</ele>
        <time>2016-05-12T12:34:55Z</time>
      </trkpt>
      <trkpt lat="43.34182" lon="5.22213">
        <ele>208</ele>
        <time>2016-05-12T12:34:56Z</time>
      </trkpt>
      <trkpt lat="43.34181" lon="5.22215">
        <ele>208</ele>
        <time>2016-05-12T12:34:57Z</time>
      </trkpt>
      <trkpt lat="43.3418" lon="5.22216">
        <ele>208</ele>
        <time>2016-05-12T12:34:58Z</time>
      </trkpt>
      <trkpt lat="43.3418" lon="5.22218">
        <ele>208</ele>
        <time>2016-05-12T12:34:59Z</time>
      </trkpt>
      <trkpt lat="43.34178" lon="5.2222">
        <ele>208</ele>
        <time>2016-05-12T12:35:01Z</time>
      </trkpt>
      <trkpt lat="43.34177" lon="5.22222">
        <ele>208</ele>
        <time>2016-05-12T12:35:02Z</time>
      </trkpt>
      <trkpt lat="43.34176" lon="5.22223">
        <ele>208</ele>
        <time>2016-05-12T12:35:03Z</time>
      </trkpt>
      <trkpt lat="43.34175" lon="5.22225">
        <ele>208</ele>
        <time>2016-05-12T12:35:04Z</time>
      </trkpt>
      <trkpt lat="43.34174" lon="5.22227">
        <ele>209</ele>
        <time>2016-05-12T12:35:06Z</time>
      </trkpt>
      <trkpt lat="43.34173" lon="5.22229">
        <ele>209</ele>
        <time>2016-05-12T12:35:07Z</time>
      </trkpt>
      <trkpt lat="43.34172" lon="5.22231">
        <ele>209</ele>
        <time>2016-05-12T12:35:09Z</time>
      </trkpt>
      <trkpt lat="43.3417" lon="5.22233">
        <ele>209</ele>
        <time>2016-05-12T12:35:11Z</time>
      </trkpt>
      <trkpt lat="43.34169" lon="5.22236">
        <ele>209</ele>
        <time>2016-05-12T12:35:13Z</time>
      </trkpt>
      <trkpt lat="43.34167" lon="5.22238">
        <ele>209</ele>
        <time>2016-05-12T12:35:15Z</time>
      </trkpt>
      <trkpt lat="43.34165" lon="5.22241">
        <ele>209</ele>
        <time>2016-05-12T12:35:17Z</time>
      </trkpt>
      <trkpt lat="43.34164" lon="5.22244">
        <ele>209</ele>
        <time>2016-05-12T12:35:19Z</time>
      </trkpt>
      <trkpt lat="43.34163" lon="5.22246">
        <ele>209</ele>
        <time>2016-05-12T12:35:21Z</time>
      </trkpt>
      <trkpt lat="43.34163" lon="5.22248">
        <ele>209</ele>
        <time>2016-05-12T12:35:23Z</time>
      </trkpt>
      <trkpt lat="43.34163" lon="5.22251">
        <ele>209</ele>
        <time>2016-05-12T12:35:25Z</time>
      </trkpt>
      <trkpt lat="43.34162" lon="5.22253">
        <ele>209</ele>
        <time>2016-05-12T12:35:27Z</time>
      </trkpt>
      <trkpt lat="43.34162" lon="5.22255">
        <ele>209</ele>
        <time>2016-05-12T12:35:29Z</time>
      </trkpt>
      <trkpt lat="43.34162" lon="5.22256">
        <ele>209</ele>
        <time>2016-05-12T12:35:31Z</time>
      </trkpt>
      <trkpt lat="43.34162" lon="5.22258">
        <ele>209</ele>
        <time>2016-05-12T12:35:33Z</time>
      </trkpt>
      <trkpt lat="43.34162" lon="5.2226">
        <ele>209</ele>
        <time>2016-05-12T12:35:35Z</time>
      </trkpt>
      <trkpt lat="43.34163" lon="5.22262">
        <ele>209</ele>
        <time>2016-05-12T12:35:37Z</time>
      </trkpt>
      <trkpt lat="43.34163" lon="5.22264">
        <ele>209</ele>
        <time>2016-05-12T12:35:39Z</time>
      </trkpt>
      <trkpt lat="43.34164" lon="5.22266">
        <ele>209</ele>
        <time>2016-05-12T12:35:42Z</time>
      </trkpt>
      <trkpt lat="43.34165" lon="5.22266">
        <ele>209</ele>
        <time>2016-05-12T12:36:50Z</time>
      </trkpt>
      <trkpt lat="43.34167" lon="5.22267">
        <ele>209</ele>
        <time>2016-05-12T12:36:53Z</time>
      </trkpt>
      <trkpt lat="43.34168" lon="5.22268">
        <ele>209</ele>
        <time>2016-05-12T12:36:55Z</time>
      </trkpt>
      <trkpt lat="43.34169" lon="5.22269">
        <ele>209</ele>
        <time>2016-05-12T12:36:57Z</time>
      </trkpt>
      <trkpt lat="43.3417" lon="5.22269">
        <ele>209</ele>
        <time>2016-05-12T12:36:59Z</time>
      </trkpt>
      <trkpt lat="43.34172" lon="5.22269">
        <ele>209</ele>
        <time>2016-05-12T12:37:08Z</time>
      </trkpt>
      <trkpt lat="43.34173" lon="5.2227">
        <ele>209</ele>
        <time>2016-05-12T12:37:10Z</time>
      </trkpt>
      <trkpt lat="43.34174" lon="5.2227">
        <ele>209</ele>
        <time>2016-05-12T12:37:12Z</time>
      </trkpt>
      <trkpt lat="43.34176" lon="5.2227">
        <ele>209</ele>
        <time>2016-05-12T12:37:14Z</time>
      </trkpt>
      <trkpt lat="43.34177" lon="5.2227">
        <ele>209</ele>
        <time>2016-05-12T12:37:17Z</time>
      </trkpt>
      <trkpt lat="43.34179" lon="5.22271">
        <ele>209</ele>
        <time>2016-05-12T12:37:29Z</time>
      </trkpt>
      <trkpt lat="43.3418" lon="5.22272">
        <ele>209</ele>
        <time>2016-05-12T12:37:54Z</time>
      </trkpt>
      <trkpt lat="43.34181" lon="5.22273">
        <ele>209</ele>
        <time>2016-05-12T12:37:56Z</time>
      </trkpt>
      <trkpt lat="43.34182" lon="5.22274">
        <ele>209</ele>
        <time>2016-05-12T12:38:07Z</time>
      </trkpt>
      <trkpt lat="43.34182" lon="5.22275">
        <ele>209</ele>
        <time>2016-05-12T12:38:53Z</time>
      </trkpt>
      <trkpt lat="43.34183" lon="5.22274">
        <ele>209</ele>
        <time>2016-05-12T12:39:38Z</time>
      </trkpt>
      <trkpt lat="43.34183" lon="5.22272">
        <ele>209</ele>
        <time>2016-05-12T12:39:59Z</time>
      </trkpt>
      <trkpt lat="43.34184" lon="5.22272">
        <ele>209</ele>
        <time>2016-05-12T12:40:40Z</time>
      </trkpt>
      <trkpt lat="43.34185" lon="5.22272">
        <ele>209</ele>
        <time>2016-05-12T12:40:42Z</time>
      </trkpt>
      <trkpt lat="43.34187" lon="5.22273">
        <ele>208</ele>
        <time>2016-05-12T12:40:44Z</time>
      </trkpt>
      <trkpt lat="43.34188" lon="5.22273">
        <ele>208</ele>
        <time>2016-05-12T12:40:45Z</time>
      </trkpt>
      <trkpt lat="43.3419" lon="5.22273">
        <ele>208</ele>
        <time>2016-05-12T12:40:46Z</time>
      </trkpt>
      <trkpt lat="43.34191" lon="5.22273">
        <ele>208</ele>
        <time>2016-05-12T12:40:47Z</time>
      </trkpt>
      <trkpt lat="43.34192" lon="5.22273">
        <ele>208</ele>
        <time>2016-05-12T12:40:48Z</time>
      </trkpt>
      <trkpt lat="43.34193" lon="5.22273">
        <ele>208</ele>
        <time>2016-05-12T12:40:49Z</time>
      </trkpt>
      <trkpt lat="43.34194" lon="5.22274">
        <ele>208</ele>
        <time>2016-05-12T12:40:50Z</time>
      </trkpt>
      <trkpt lat="43.34195" lon="5.22274">
        <ele>208</ele>
        <time>2016-05-12T12:40:51Z</time>
      </trkpt>
      <trkpt lat="43.34197" lon="5.22274">
        <ele>207</ele>
        <time>2016-05-12T12:40:52Z</time>
      </trkpt>
      <trkpt lat="43.34198" lon="5.22274">
        <ele>207</ele>
        <time>2016-05-12T12:40:53Z</time>
      </trkpt>
      <trkpt lat="43.34199" lon="5.22274">
        <ele>207</ele>
        <time>2016-05-12T12:40:54Z</time>
      </trkpt>
      <trkpt lat="43.34201" lon="5.22274">
        <ele>207</ele>
        <time>2016-05-12T12:40:55Z</time>
      </trkpt>
      <trkpt lat="43.34202" lon="5.22273">
        <ele>207</ele>
        <time>2016-05-12T12:40:56Z</time>
      </trkpt>
      <trkpt lat="43.34203" lon="5.22273">
        <ele>207</ele>
        <time>2016-05-12T12:40:57Z</time>
      </trkpt>
      <trkpt lat="43.34204" lon="5.22273">
        <ele>207</ele>
        <time>2016-05-12T12:40:58Z</time>
      </trkpt>
      <trkpt lat="43.34206" lon="5.22273">
        <ele>207</ele>
        <time>2016-05-12T12:40:59Z</time>
      </trkpt>
      <trkpt lat="43.34207" lon="5.22272">
        <ele>207</ele>
        <time>2016-05-12T12:41:00Z</time>
      </trkpt>
      <trkpt lat="43.34208" lon="5.22272">
        <ele>207</ele>
        <time>2016-05-12T12:41:01Z</time>
      </trkpt>
      <trkpt lat="43.3421" lon="5.22271">
        <ele>207</ele>
        <time>2016-05-12T12:41:02Z</time>
      </trkpt>
      <trkpt lat="43.34211" lon="5.22271">
        <ele>207</ele>
        <time>2016-05-12T12:41:03Z</time>
      </trkpt>
      <trkpt lat="43.34212" lon="5.2227">
        <ele>207</ele>
        <time>2016-05-12T12:41:04Z</time>
      </trkpt>
      <trkpt lat="43.34214" lon="5.2227">
        <ele>207</ele>
        <time>2016-05-12T12:41:05Z</time>
      </trkpt>
      <trkpt lat="43.34215" lon="5.22269">
        <ele>207</ele>
        <time>2016-05-12T12:41:06Z</time>
      </trkpt>
      <trkpt lat="43.34216" lon="5.22268">
        <ele>207</ele>
        <time>2016-05-12T12:41:07Z</time>
      </trkpt>
      <trkpt lat="43.34218" lon="5.22267">
        <ele>207</ele>
        <time>2016-05-12T12:41:08Z</time>
      </trkpt>
      <trkpt lat="43.34219" lon="5.22266">
        <ele>207</ele>
        <time>2016-05-12T12:41:09Z</time>
      </trkpt>
      <trkpt lat="43.3422" lon="5.22266">
        <ele>207</ele>
        <time>2016-05-12T12:41:10Z</time>
      </trkpt>
      <trkpt lat="43.34221" lon="5.22265">
        <ele>207</ele>
        <time>2016-05-12T12:41:11Z</time>
      </trkpt>
      <trkpt lat="43.34222" lon="5.22264">
        <ele>207</ele>
        <time>2016-05-12T12:41:12Z</time>
      </trkpt>
      <trkpt lat="43.34224" lon="5.22263">
        <ele>207</ele>
        <time>2016-05-12T12:41:13Z</time>
      </trkpt>
      <trkpt lat="43.34225" lon="5.22262">
        <ele>207</ele>
        <time>2016-05-12T12:41:14Z</time>
      </trkpt>
      <trkpt lat="43.34226" lon="5.22261">
        <ele>207</ele>
        <time>2016-05-12T12:41:15Z</time>
      </trkpt>
      <trkpt lat="43.34227" lon="5.22261">
        <ele>207</ele>
        <time>2016-05-12T12:41:16Z</time>
      </trkpt>
      <trkpt lat="43.34229" lon="5.2226">
        <ele>207</ele>
        <time>2016-05-12T12:41:17Z</time>
      </trkpt>
      <trkpt lat="43.3423" lon="5.22259">
        <ele>207</ele>
        <time>2016-05-12T12:41:18Z</time>
      </trkpt>
      <trkpt lat="43.34231" lon="5.22258">
        <ele>207</ele>
        <time>2016-05-12T12:41:19Z</time>
      </trkpt>
      <trkpt lat="43.34232" lon="5.22257">
        <ele>207</ele>
        <time>2016-05-12T12:41:20Z</time>
      </trkpt>
      <trkpt lat="43.34233" lon="5.22256">
        <ele>207</ele>
        <time>2016-05-12T12:41:21Z</time>
      </trkpt>
      <trkpt lat="43.34235" lon="5.22255">
        <ele>207</ele>
        <time>2016-05-12T12:41:22Z</time>
      </trkpt>
      <trkpt lat="43.34236" lon="5.22254">
        <ele>207</ele>
        <time>2016-05-12T12:41:23Z</time>
      </trkpt>
      <trkpt lat="43.34237" lon="5.22253">
        <ele>207</ele>
        <time>2016-05-12T12:41:24Z</time>
      </trkpt>
      <trkpt lat="43.34238" lon="5.22252">
        <ele>207</ele>
        <time>2016-05-12T12:41:25Z</time>
      </trkpt>
      <trkpt lat="43.3424" lon="5.22249">
        <ele>207</ele>
        <time>2016-05-12T12:41:27Z</time>
      </trkpt>
      <trkpt lat="43.34241" lon="5.22248">
        <ele>207</ele>
        <time>2016-05-12T12:41:28Z</time>
      </trkpt>
      <trkpt lat="43.34243" lon="5.22246">
        <ele>207</ele>
        <time>2016-05-12T12:41:30Z</time>
      </trkpt>
      <trkpt lat="43.34245" lon="5.22243">
        <ele>207</ele>
        <time>2016-05-12T12:41:32Z</time>
      </trkpt>
      <trkpt lat="43.34247" lon="5.2224">
        <ele>207</ele>
        <time>2016-05-12T12:41:34Z</time>
      </trkpt>
      <trkpt lat="43.34248" lon="5.22239">
        <ele>207</ele>
        <time>2016-05-12T12:41:35Z</time>
      </trkpt>
      <trkpt lat="43.34249" lon="5.22237">
        <ele>207</ele>
        <time>2016-05-12T12:41:36Z</time>
      </trkpt>
      <trkpt lat="43.34251" lon="5.22235">
        <ele>207</ele>
        <time>2016-05-12T12:41:38Z</time>
      </trkpt>
      <trkpt lat="43.34253" lon="5.22232">
        <ele>207</ele>
        <time>2016-05-12T12:41:40Z</time>
      </trkpt>
      <trkpt lat="43.34254" lon="5.22231">
        <ele>207</ele>
        <time>2016-05-12T12:41:41Z</time>
      </trkpt>
      <trkpt lat="43.34255" lon="5.22229">
        <ele>207</ele>
        <time>2016-05-12T12:41:42Z</time>
      </trkpt>
      <trkpt lat="43.34256" lon="5.22228">
        <ele>207</ele>
        <time>2016-05-12T12:41:43Z</time>
      </trkpt>
      <trkpt lat="43.34258" lon="5.22227">
        <ele>206</ele>
        <time>2016-05-12T12:41:44Z</time>
      </trkpt>
      <trkpt lat="43.3426" lon="5.22225">
        <ele>206</ele>
        <time>2016-05-12T12:41:46Z</time>
      </trkpt>
      <trkpt lat="43.34261" lon="5.22225">
        <ele>206</ele>
        <time>2016-05-12T12:41:47Z</time>
      </trkpt>
      <trkpt lat="43.34262" lon="5.22224">
        <ele>206</ele>
        <time>2016-05-12T12:41:48Z</time>
      </trkpt>
      <trkpt lat="43.34264" lon="5.22223">
        <ele>205</ele>
        <time>2016-05-12T12:41:49Z</time>
      </trkpt>
      <trkpt lat="43.34265" lon="5.22222">
        <ele>205</ele>
        <time>2016-05-12T12:41:50Z</time>
      </trkpt>
      <trkpt lat="43.34266" lon="5.22222">
        <ele>205</ele>
        <time>2016-05-12T12:41:51Z</time>
      </trkpt>
      <trkpt lat="43.34267" lon="5.22222">
        <ele>205</ele>
        <time>2016-05-12T12:41:52Z</time>
      </trkpt>
      <trkpt lat="43.34269" lon="5.22221">
        <ele>205</ele>
        <time>2016-05-12T12:41:53Z</time>
      </trkpt>
      <trkpt lat="43.3427" lon="5.22221">
        <ele>205</ele>
        <time>2016-05-12T12:41:54Z</time>
      </trkpt>
      <trkpt lat="43.34271" lon="5.22221">
        <ele>205</ele>
        <time>2016-05-12T12:41:55Z</time>
      </trkpt>
      <trkpt lat="43.34273" lon="5.22221">
        <ele>205</ele>
        <time>2016-05-12T12:41:56Z</time>
      </trkpt>
      <trkpt lat="43.34274" lon="5.22221">
        <ele>205</ele>
        <time>2016-05-12T12:41:57Z</time>
      </trkpt>
      <trkpt lat="43.34275" lon="5.22221">
        <ele>205</ele>
        <time>2016-05-12T12:41:58Z</time>
      </trkpt>
      <trkpt lat="43.34277" lon="5.22221">
        <ele>205</ele>
        <time>2016-05-12T12:41:59Z</time>
      </trkpt>
      <trkpt lat="43.34278" lon="5.22221">
        <ele>205</ele>
        <time>2016-05-12T12:42:00Z</time>
      </trkpt>
      <trkpt lat="43.3428" lon="5.22222">
        <ele>205</ele>
        <time>2016-05-12T12:42:01Z</time>
      </trkpt>
      <trkpt lat="43.34281" lon="5.22222">
        <ele>205</ele>
        <time>2016-05-12T12:42:02Z</time>
      </trkpt>
      <trkpt lat="43.34282" lon="5.22222">
        <ele>204</ele>
        <time>2016-05-12T12:42:03Z</time>
      </trkpt>
      <trkpt lat="43.34284" lon="5.22223">
        <ele>204</ele>
        <time>2016-05-12T12:42:04Z</time>
      </trkpt>
      <trkpt lat="43.34285" lon="5.22223">
        <ele>204</ele>
        <time>2016-05-12T12:42:05Z</time>
      </trkpt>
      <trkpt lat="43.34287" lon="5.22224">
        <ele>204</ele>
        <time>2016-05-12T12:42:06Z</time>
      </trkpt>
      <trkpt lat="43.34288" lon="5.22224">
        <ele>204</ele>
        <time>2016-05-12T12:42:07Z</time>
      </trkpt>
      <trkpt lat="43.3429" lon="5.22225">
        <ele>204</ele>
        <time>2016-05-12T12:42:08Z</time>
      </trkpt>
      <trkpt lat="43.34291" lon="5.22226">
        <ele>204</ele>
        <time>2016-05-12T12:42:09Z</time>
      </trkpt>
      <trkpt lat="43.34292" lon="5.22226">
        <ele>204</ele>
        <time>2016-05-12T12:42:10Z</time>
      </trkpt>
      <trkpt lat="43.34294" lon="5.22227">
        <ele>204</ele>
        <time>2016-05-12T12:42:11Z</time>
      </trkpt>
      <trkpt lat="43.34295" lon="5.22228">
        <ele>204</ele>
        <time>2016-05-12T12:42:12Z</time>
      </trkpt>
      <trkpt lat="43.34296" lon="5.22229">
        <ele>204</ele>
        <time>2016-05-12T12:42:13Z</time>
      </trkpt>
      <trkpt lat="43.34298" lon="5.22229">
        <ele>204</ele>
        <time>2016-05-12T12:42:14Z</time>
      </trkpt>
      <trkpt lat="43.34299" lon="5.2223">
        <ele>204</ele>
        <time>2016-05-12T12:42:15Z</time>
      </trkpt>
      <trkpt lat="43.34301" lon="5.22231">
        <ele>204</ele>
        <time>2016-05-12T12:42:16Z</time>
      </trkpt>
      <trkpt lat="43.34302" lon="5.22232">
        <ele>204</ele>
        <time>2016-05-12T12:42:17Z</time>
      </trkpt>
      <trkpt lat="43.34303" lon="5.22233">
        <ele>204</ele>
        <time>2016-05-12T12:42:18Z</time>
      </trkpt>
      <trkpt lat="43.34304" lon="5.22235">
        <ele>204</ele>
        <time>2016-05-12T12:42:19Z</time>
      </trkpt>
      <trkpt lat="43.34306" lon="5.22236">
        <ele>204</ele>
        <time>2016-05-12T12:42:20Z</time>
      </trkpt>
      <trkpt lat="43.34307" lon="5.22237">
        <ele>204</ele>
        <time>2016-05-12T12:42:21Z</time>
      </trkpt>
      <trkpt lat="43.34308" lon="5.22239">
        <ele>204</ele>
        <time>2016-05-12T12:42:22Z</time>
      </trkpt>
      <trkpt lat="43.34309" lon="5.22241">
        <ele>204</ele>
        <time>2016-05-12T12:42:23Z</time>
      </trkpt>
      <trkpt lat="43.3431" lon="5.22242">
        <ele>204</ele>
        <time>2016-05-12T12:42:24Z</time>
      </trkpt>
      <trkpt lat="43.34311" lon="5.22244">
        <ele>204</ele>
        <time>2016-05-12T12:42:25Z</time>
      </trkpt>
      <trkpt lat="43.34311" lon="5.22246">
        <ele>204</ele>
        <time>2016-05-12T12:42:26Z</time>
      </trkpt>
      <trkpt lat="43.34312" lon="5.22248">
        <ele>204</ele>
        <time>2016-05-12T12:42:27Z</time>
      </trkpt>
      <trkpt lat="43.34312" lon="5.2225">
        <ele>204</ele>
        <time>2016-05-12T12:42:28Z</time>
      </trkpt>
      <trkpt lat="43.34313" lon="5.22252">
        <ele>204</ele>
        <time>2016-05-12T12:42:29Z</time>
      </trkpt>
      <trkpt lat="43.34313" lon="5.22254">
        <ele>204</ele>
        <time>2016-05-12T12:42:30Z</time>
      </trkpt>
      <trkpt lat="43.34314" lon="5.22255">
        <ele>204</ele>
        <time>2016-05-12T12:42:31Z</time>
      </trkpt>
      <trkpt lat="43.34314" lon="5.22257">
        <ele>204</ele>
        <time>2016-05-12T12:42:32Z</time>
      </trkpt>
      <trkpt lat="43.34314" lon="5.2226">
        <ele>204</ele>
        <time>2016-05-12T12:42:33Z</time>
      </trkpt>
      <trkpt lat="43.34314" lon="5.22261">
        <ele>204</ele>
        <time>2016-05-12T12:42:34Z</time>
      </trkpt>
      <trkpt lat="43.34314" lon="5.22263">
        <ele>204</ele>
        <time>2016-05-12T12:42:35Z</time>
      </trkpt>
      <trkpt lat="43.34314" lon="5.22265">
        <ele>204</ele>
        <time>2016-05-12T12:42:36Z</time>
      </trkpt>
      <trkpt lat="43.34314" lon="5.22267">
        <ele>203</ele>
        <time>2016-05-12T12:42:37Z</time>
      </trkpt>
      <trkpt lat="43.34314" lon="5.22269">
        <ele>203</ele>
        <time>2016-05-12T12:42:38Z</time>
      </trkpt>
      <trkpt lat="43.34314" lon="5.22271">
        <ele>203</ele>
        <time>2016-05-12T12:42:39Z</time>
      </trkpt>
      <trkpt lat="43.34313" lon="5.22273">
        <ele>203</ele>
        <time>2016-05-12T12:42:40Z</time>
      </trkpt>
      <trkpt lat="43.34313" lon="5.22275">
        <ele>203</ele>
        <time>2016-05-12T12:42:41Z</time>
      </trkpt>
      <trkpt lat="43.34312" lon="5.22277">
        <ele>203</ele>
        <time>2016-05-12T12:42:42Z</time>
      </trkpt>
      <trkpt lat="43.34312" lon="5.22279">
        <ele>203</ele>
        <time>2016-05-12T12:42:43Z</time>
      </trkpt>
      <trkpt lat="43.34312" lon="5.22281">
        <ele>203</ele>
        <time>2016-05-12T12:42:44Z</time>
      </trkpt>
      <trkpt lat="43.34311" lon="5.22283">
        <ele>203</ele>
        <time>2016-05-12T12:42:45Z</time>
      </trkpt>
      <trkpt lat="43.34311" lon="5.22285">
        <ele>203</ele>
        <time>2016-05-12T12:42:46Z</time>
      </trkpt>
      <trkpt lat="43.3431" lon="5.22287">
        <ele>202</ele>
        <time>2016-05-12T12:42:47Z</time>
      </trkpt>
      <trkpt lat="43.34309" lon="5.22289">
        <ele>202</ele>
        <time>2016-05-12T12:42:48Z</time>
      </trkpt>
      <trkpt lat="43.34309" lon="5.2229">
        <ele>202</ele>
        <time>2016-05-12T12:42:49Z</time>
      </trkpt>
      <trkpt lat="43.34309" lon="5.22292">
        <ele>202</ele>
        <time>2016-05-12T12:42:50Z</time>
      </trkpt>
      <trkpt lat="43.34308" lon="5.22293">
        <ele>202</ele>
        <time>2016-05-12T12:42:51Z</time>
      </trkpt>
      <trkpt lat="43.34309" lon="5.22295">
        <ele>202</ele>
        <time>2016-05-12T12:42:52Z</time>
      </trkpt>
      <trkpt lat="43.34309" lon="5.22296">
        <ele>202</ele>
        <time>2016-05-12T12:42:53Z</time>
      </trkpt>
      <trkpt lat="43.3431" lon="5.22298">
        <ele>201</ele>
        <time>2016-05-12T12:42:55Z</time>
      </trkpt>
      <trkpt lat="43.34311" lon="5.22301">
        <ele>201</ele>
        <time>2016-05-12T12:42:57Z</time>
      </trkpt>
      <trkpt lat="43.34313" lon="5.22303">
        <ele>201</ele>
        <time>2016-05-12T12:42:59Z</time>
      </trkpt>
      <trkpt lat="43.34313" lon="5.22305">
        <ele>200</ele>
        <time>2016-05-12T12:43:00Z</time>
      </trkpt>
      <trkpt lat="43.34314" lon="5.22306">
        <ele>200</ele>
        <time>2016-05-12T12:43:01Z</time>
      </trkpt>
      <trkpt lat="43.34315" lon="5.22308">
        <ele>200</ele>
        <time>2016-05-12T12:43:03Z</time>
      </trkpt>
      <trkpt lat="43.34317" lon="5.2231">
        <ele>199</ele>
        <time>2016-05-12T12:43:05Z</time>
      </trkpt>
      <trkpt lat="43.34318" lon="5.22312">
        <ele>199</ele>
        <time>2016-05-12T12:43:07Z</time>
      </trkpt>
      <trkpt lat="43.3432" lon="5.22314">
        <ele>198</ele>
        <time>2016-05-12T12:43:09Z</time>
      </trkpt>
      <trkpt lat="43.3432" lon="5.22316">
        <ele>198</ele>
        <time>2016-05-12T12:43:10Z</time>
      </trkpt>
      <trkpt lat="43.34322" lon="5.22318">
        <ele>197</ele>
        <time>2016-05-12T12:43:12Z</time>
      </trkpt>
      <trkpt lat="43.34324" lon="5.22321">
        <ele>196</ele>
        <time>2016-05-12T12:43:14Z</time>
      </trkpt>
      <trkpt lat="43.34325" lon="5.22322">
        <ele>196</ele>
        <time>2016-05-12T12:43:15Z</time>
      </trkpt>
      <trkpt lat="43.34327" lon="5.22325">
        <ele>196</ele>
        <time>2016-05-12T12:43:17Z</time>
      </trkpt>
      <trkpt lat="43.34329" lon="5.22327">
        <ele>196</ele>
        <time>2016-05-12T12:43:19Z</time>
      </trkpt>
      <trkpt lat="43.3433" lon="5.22328">
        <ele>195</ele>
        <time>2016-05-12T12:43:20Z</time>
      </trkpt>
      <trkpt lat="43.34332" lon="5.22329">
        <ele>195</ele>
        <time>2016-05-12T12:43:21Z</time>
      </trkpt>
      <trkpt lat="43.34333" lon="5.2233">
        <ele>195</ele>
        <time>2016-05-12T12:43:22Z</time>
      </trkpt>
      <trkpt lat="43.34334" lon="5.22331">
        <ele>195</ele>
        <time>2016-05-12T12:43:23Z</time>
      </trkpt>
      <trkpt lat="43.34335" lon="5.22332">
        <ele>195</ele>
        <time>2016-05-12T12:43:24Z</time>
      </trkpt>
      <trkpt lat="43.34336" lon="5.22333">
        <ele>195</ele>
        <time>2016-05-12T12:43:25Z</time>
      </trkpt>
      <trkpt lat="43.34339" lon="5.22336">
        <ele>195</ele>
        <time>2016-05-12T12:43:27Z</time>
      </trkpt>
      <trkpt lat="43.3434" lon="5.22337">
        <ele>195</ele>
        <time>2016-05-12T12:43:28Z</time>
      </trkpt>
      <trkpt lat="43.34342" lon="5.22339">
        <ele>195</ele>
        <time>2016-05-12T12:43:30Z</time>
      </trkpt>
      <trkpt lat="43.34343" lon="5.2234">
        <ele>195</ele>
        <time>2016-05-12T12:43:31Z</time>
      </trkpt>
      <trkpt lat="43.34344" lon="5.22341">
        <ele>195</ele>
        <time>2016-05-12T12:43:32Z</time>
      </trkpt>
      <trkpt lat="43.34346" lon="5.22342">
        <ele>195</ele>
        <time>2016-05-12T12:43:33Z</time>
      </trkpt>
      <trkpt lat="43.34347" lon="5.22343">
        <ele>195</ele>
        <time>2016-05-12T12:43:34Z</time>
      </trkpt>
      <trkpt lat="43.34348" lon="5.22344">
        <ele>195</ele>
        <time>2016-05-12T12:43:35Z</time>
      </trkpt>
      <trkpt lat="43.34349" lon="5.22346">
        <ele>195</ele>
        <time>2016-05-12T12:43:36Z</time>
      </trkpt>
      <trkpt lat="43.3435" lon="5.22347">
        <ele>195</ele>
        <time>2016-05-12T12:43:37Z</time>
      </trkpt>
      <trkpt lat="43.34351" lon="5.22348">
        <ele>195</ele>
        <time>2016-05-12T12:43:38Z</time>
      </trkpt>
      <trkpt lat="43.34353" lon="5.22349">
        <ele>195</ele>
        <time>2016-05-12T12:43:39Z</time>
      </trkpt>
      <trkpt lat="43.34354" lon="5.2235">
        <ele>195</ele>
        <time>2016-05-12T12:43:40Z</time>
      </trkpt>
      <trkpt lat="43.34355" lon="5.22351">
        <ele>195</ele>
        <time>2016-05-12T12:43:41Z</time>
      </trkpt>
      <trkpt lat="43.34356" lon="5.22353">
        <ele>195</ele>
        <time>2016-05-12T12:43:42Z</time>
      </trkpt>
      <trkpt lat="43.34357" lon="5.22354">
        <ele>195</ele>
        <time>2016-05-12T12:43:43Z</time>
      </trkpt>
      <trkpt lat="43.34359" lon="5.22355">
        <ele>195</ele>
        <time>2016-05-12T12:43:44Z</time>
      </trkpt>
      <trkpt lat="43.3436" lon="5.22356">
        <ele>195</ele>
        <time>2016-05-12T12:43:45Z</time>
      </trkpt>
      <trkpt lat="43.34361" lon="5.22357">
        <ele>195</ele>
        <time>2016-05-12T12:43:46Z</time>
      </trkpt>
      <trkpt lat="43.34362" lon="5.22358">
        <ele>195</ele>
        <time>2016-05-12T12:43:47Z</time>
      </trkpt>
      <trkpt lat="43.34365" lon="5.2236">
        <ele>195</ele>
        <time>2016-05-12T12:43:49Z</time>
      </trkpt>
      <trkpt lat="43.34366" lon="5.22361">
        <ele>195</ele>
        <time>2016-05-12T12:43:50Z</time>
      </trkpt>
      <trkpt lat="43.34367" lon="5.22362">
        <ele>195</ele>
        <time>2016-05-12T12:43:51Z</time>
      </trkpt>
      <trkpt lat="43.34368" lon="5.22363">
        <ele>195</ele>
        <time>2016-05-12T12:43:52Z</time>
      </trkpt>
      <trkpt lat="43.3437" lon="5.22364">
        <ele>195</ele>
        <time>2016-05-12T12:43:53Z</time>
      </trkpt>
      <trkpt lat="43.34372" lon="5.22366">
        <ele>195</ele>
        <time>2016-05-12T12:43:55Z</time>
      </trkpt>
      <trkpt lat="43.34373" lon="5.22367">
        <ele>195</ele>
        <time>2016-05-12T12:43:56Z</time>
      </trkpt>
      <trkpt lat="43.34375" lon="5.22367">
        <ele>195</ele>
        <time>2016-05-12T12:43:57Z</time>
      </trkpt>
      <trkpt lat="43.34376" lon="5.22368">
        <ele>195</ele>
        <time>2016-05-12T12:43:58Z</time>
      </trkpt>
      <trkpt lat="43.34377" lon="5.22369">
        <ele>195</ele>
        <time>2016-05-12T12:43:59Z</time>
      </trkpt>
      <trkpt lat="43.34379" lon="5.22369">
        <ele>195</ele>
        <time>2016-05-12T12:44:00Z</time>
      </trkpt>
      <trkpt lat="43.3438" lon="5.2237">
        <ele>195</ele>
        <time>2016-05-12T12:44:01Z</time>
      </trkpt>
      <trkpt lat="43.34381" lon="5.22371">
        <ele>195</ele>
        <time>2016-05-12T12:44:02Z</time>
      </trkpt>
      <trkpt lat="43.34383" lon="5.22372">
        <ele>195</ele>
        <time>2016-05-12T12:44:03Z</time>
      </trkpt>
      <trkpt lat="43.34384" lon="5.22373">
        <ele>195</ele>
        <time>2016-05-12T12:44:04Z</time>
      </trkpt>
      <trkpt lat="43.34386" lon="5.22374">
        <ele>195</ele>
        <time>2016-05-12T12:44:05Z</time>
      </trkpt>
      <trkpt lat="43.34387" lon="5.22374">
        <ele>195</ele>
        <time>2016-05-12T12:44:06Z</time>
      </trkpt>
      <trkpt lat="43.34388" lon="5.22375">
        <ele>195</ele>
        <time>2016-05-12T12:44:07Z</time>
      </trkpt>
      <trkpt lat="43.3439" lon="5.22375">
        <ele>195</ele>
        <time>2016-05-12T12:44:08Z</time>
      </trkpt>
      <trkpt lat="43.34391" lon="5.22376">
        <ele>195</ele>
        <time>2016-05-12T12:44:09Z</time>
      </trkpt>
      <trkpt lat="43.34393" lon="5.22377">
        <ele>195</ele>
        <time>2016-05-12T12:44:10Z</time>
      </trkpt>
      <trkpt lat="43.34394" lon="5.22378">
        <ele>195</ele>
        <time>2016-05-12T12:44:11Z</time>
      </trkpt>
      <trkpt lat="43.34395" lon="5.22379">
        <ele>195</ele>
        <time>2016-05-12T12:44:12Z</time>
      </trkpt>
      <trkpt lat="43.34397" lon="5.2238">
        <ele>195</ele>
        <time>2016-05-12T12:44:13Z</time>
      </trkpt>
      <trkpt lat="43.34398" lon="5.22381">
        <ele>195</ele>
        <time>2016-05-12T12:44:14Z</time>
      </trkpt>
      <trkpt lat="43.34399" lon="5.22382">
        <ele>195</ele>
        <time>2016-05-12T12:44:15Z</time>
      </trkpt>
      <trkpt lat="43.34401" lon="5.22383">
        <ele>195</ele>
        <time>2016-05-12T12:44:16Z</time>
      </trkpt>
      <trkpt lat="43.34402" lon="5.22384">
        <ele>195</ele>
        <time>2016-05-12T12:44:17Z</time>
      </trkpt>
      <trkpt lat="43.34403" lon="5.22385">
        <ele>195</ele>
        <time>2016-05-12T12:44:18Z</time>
      </trkpt>
      <trkpt lat="43.34404" lon="5.22386">
        <ele>195</ele>
        <time>2016-05-12T12:44:19Z</time>
      </trkpt>
      <trkpt lat="43.34406" lon="5.22387">
        <ele>195</ele>
        <time>2016-05-12T12:44:20Z</time>
      </trkpt>
      <trkpt lat="43.34407" lon="5.22388">
        <ele>195</ele>
        <time>2016-05-12T12:44:21Z</time>
      </trkpt>
      <trkpt lat="43.34408" lon="5.22389">
        <ele>195</ele>
        <time>2016-05-12T12:44:22Z</time>
      </trkpt>
      <trkpt lat="43.34409" lon="5.2239">
        <ele>195</ele>
        <time>2016-05-12T12:44:23Z</time>
      </trkpt>
      <trkpt lat="43.3441" lon="5.22391">
        <ele>195</ele>
        <time>2016-05-12T12:44:24Z</time>
      </trkpt>
      <trkpt lat="43.34412" lon="5.22392">
        <ele>195</ele>
        <time>2016-05-12T12:44:25Z</time>
      </trkpt>
      <trkpt lat="43.34413" lon="5.22393">
        <ele>195</ele>
        <time>2016-05-12T12:44:26Z</time>
      </trkpt>
      <trkpt lat="43.34414" lon="5.22394">
        <ele>195</ele>
        <time>2016-05-12T12:44:27Z</time>
      </trkpt>
      <trkpt lat="43.34416" lon="5.22395">
        <ele>195</ele>
        <time>2016-05-12T12:44:28Z</time>
      </trkpt>
      <trkpt lat="43.34417" lon="5.22396">
        <ele>195</ele>
        <time>2016-05-12T12:44:29Z</time>
      </trkpt>
      <trkpt lat="43.34418" lon="5.22397">
        <ele>194</ele>
        <time>2016-05-12T12:44:30Z</time>
      </trkpt>
      <trkpt lat="43.3442" lon="5.22397">
        <ele>194</ele>
        <time>2016-05-12T12:44:31Z</time>
      </trkpt>
      <trkpt lat="43.34421" lon="5.22398">
        <ele>194</ele>
        <time>2016-05-12T12:44:32Z</time>
      </trkpt>
      <trkpt lat="43.34422" lon="5.22399">
        <ele>194</ele>
        <time>2016-05-12T12:44:33Z</time>
      </trkpt>
      <trkpt lat="43.34423" lon="5.224">
        <ele>194</ele>
        <time>2016-05-12T12:44:34Z</time>
      </trkpt>
      <trkpt lat="43.34425" lon="5.22401">
        <ele>194</ele>
        <time>2016-05-12T12:44:35Z</time>
      </trkpt>
      <trkpt lat="43.34426" lon="5.22401">
        <ele>193</ele>
        <time>2016-05-12T12:44:36Z</time>
      </trkpt>
      <trkpt lat="43.34427" lon="5.22402">
        <ele>193</ele>
        <time>2016-05-12T12:44:37Z</time>
      </trkpt>
      <trkpt lat="43.34429" lon="5.22403">
        <ele>193</ele>
        <time>2016-05-12T12:44:38Z</time>
      </trkpt>
      <trkpt lat="43.3443" lon="5.22404">
        <ele>193</ele>
        <time>2016-05-12T12:44:39Z</time>
      </trkpt>
      <trkpt lat="43.34432" lon="5.22404">
        <ele>193</ele>
        <time>2016-05-12T12:44:40Z</time>
      </trkpt>
      <trkpt lat="43.34433" lon="5.22405">
        <ele>193</ele>
        <time>2016-05-12T12:44:41Z</time>
      </trkpt>
      <trkpt lat="43.34434" lon="5.22405">
        <ele>193</ele>
        <time>2016-05-12T12:44:42Z</time>
      </trkpt>
      <trkpt lat="43.34436" lon="5.22406">
        <ele>193</ele>
        <time>2016-05-12T12:44:43Z</time>
      </trkpt>
      <trkpt lat="43.34437" lon="5.22407">
        <ele>193</ele>
        <time>2016-05-12T12:44:44Z</time>
      </trkpt>
      <trkpt lat="43.34439" lon="5.22408">
        <ele>193</ele>
        <time>2016-05-12T12:44:45Z</time>
      </trkpt>
      <trkpt lat="43.3444" lon="5.22408">
        <ele>193</ele>
        <time>2016-05-12T12:44:46Z</time>
      </trkpt>
      <trkpt lat="43.34442" lon="5.22409">
        <ele>193</ele>
        <time>2016-05-12T12:44:47Z</time>
      </trkpt>
      <trkpt lat="43.34443" lon="5.2241">
        <ele>193</ele>
        <time>2016-05-12T12:44:48Z</time>
      </trkpt>
      <trkpt lat="43.34445" lon="5.2241">
        <ele>193</ele>
        <time>2016-05-12T12:44:49Z</time>
      </trkpt>
      <trkpt lat="43.34446" lon="5.22411">
        <ele>193</ele>
        <time>2016-05-12T12:44:50Z</time>
      </trkpt>
      <trkpt lat="43.34448" lon="5.22411">
        <ele>193</ele>
        <time>2016-05-12T12:44:51Z</time>
      </trkpt>
      <trkpt lat="43.34449" lon="5.22412">
        <ele>193</ele>
        <time>2016-05-12T12:44:52Z</time>
      </trkpt>
      <trkpt lat="43.3445" lon="5.22412">
        <ele>193</ele>
        <time>2016-05-12T12:44:53Z</time>
      </trkpt>
      <trkpt lat="43.34452" lon="5.22413">
        <ele>193</ele>
        <time>2016-05-12T12:44:54Z</time>
      </trkpt>
      <trkpt lat="43.34453" lon="5.22413">
        <ele>193</ele>
        <time>2016-05-12T12:44:56Z</time>
      </trkpt>
      <trkpt lat="43.34454" lon="5.22414">
        <ele>192</ele>
        <time>2016-05-12T12:44:58Z</time>
      </trkpt>
      <trkpt lat="43.34457" lon="5.22415">
        <ele>192</ele>
        <time>2016-05-12T12:45:00Z</time>
      </trkpt>
      <trkpt lat="43.34459" lon="5.22417">
        <ele>192</ele>
        <time>2016-05-12T12:45:02Z</time>
      </trkpt>
      <trkpt lat="43.3446" lon="5.22419">
        <ele>192</ele>
        <time>2016-05-12T12:45:04Z</time>
      </trkpt>
      <trkpt lat="43.34462" lon="5.22422">
        <ele>192</ele>
        <time>2016-05-12T12:45:06Z</time>
      </trkpt>
      <trkpt lat="43.34464" lon="5.22424">
        <ele>192</ele>
        <time>2016-05-12T12:45:08Z</time>
      </trkpt>
      <trkpt lat="43.34464" lon="5.22426">
        <ele>192</ele>
        <time>2016-05-12T12:45:09Z</time>
      </trkpt>
      <trkpt lat="43.34465" lon="5.22428">
        <ele>192</ele>
        <time>2016-05-12T12:45:10Z</time>
      </trkpt>
      <trkpt lat="43.34465" lon="5.22429">
        <ele>192</ele>
        <time>2016-05-12T12:45:11Z</time>
      </trkpt>
      <trkpt lat="43.34466" lon="5.22431">
        <ele>192</ele>
        <time>2016-05-12T12:45:12Z</time>
      </trkpt>
      <trkpt lat="43.34466" lon="5.22433">
        <ele>192</ele>
        <time>2016-05-12T12:45:13Z</time>
      </trkpt>
      <trkpt lat="43.34466" lon="5.22434">
        <ele>192</ele>
        <time>2016-05-12T12:45:14Z</time>
      </trkpt>
      <trkpt lat="43.34466" lon="5.22436">
        <ele>192</ele>
        <time>2016-05-12T12:45:15Z</time>
      </trkpt>
      <trkpt lat="43.34466" lon="5.22437">
        <ele>192</ele>
        <time>2016-05-12T12:45:16Z</time>
      </trkpt>
      <trkpt lat="43.34466" lon="5.2244">
        <ele>192</ele>
        <time>2016-05-12T12:45:18Z</time>
      </trkpt>
      <trkpt lat="43.34466" lon="5.22442">
        <ele>192</ele>
        <time>2016-05-12T12:45:19Z</time>
      </trkpt>
      <trkpt lat="43.34467" lon="5.22444">
        <ele>192</ele>
        <time>2016-05-12T12:45:20Z</time>
      </trkpt>
      <trkpt lat="43.34467" lon="5.22446">
        <ele>192</ele>
        <time>2016-05-12T12:45:21Z</time>
      </trkpt>
      <trkpt lat="43.34468" lon="5.22448">
        <ele>192</ele>
        <time>2016-05-12T12:45:22Z</time>
      </trkpt>
      <trkpt lat="43.34468" lon="5.2245">
        <ele>191</ele>
        <time>2016-05-12T12:45:23Z</time>
      </trkpt>
      <trkpt lat="43.34468" lon="5.22452">
        <ele>191</ele>
        <time>2016-05-12T12:45:24Z</time>
      </trkpt>
      <trkpt lat="43.34468" lon="5.22454">
        <ele>191</ele>
        <time>2016-05-12T12:45:25Z</time>
      </trkpt>
      <trkpt lat="43.34468" lon="5.22457">
        <ele>191</ele>
        <time>2016-05-12T12:45:26Z</time>
      </trkpt>
      <trkpt lat="43.34468" lon="5.22459">
        <ele>191</ele>
        <time>2016-05-12T12:45:27Z</time>
      </trkpt>
      <trkpt lat="43.34468" lon="5.22461">
        <ele>191</ele>
        <time>2016-05-12T12:45:28Z</time>
      </trkpt>
      <trkpt lat="43.34468" lon="5.22463">
        <ele>191</ele>
        <time>2016-05-12T12:45:29Z</time>
      </trkpt>
      <trkpt lat="43.34469" lon="5.22465">
        <ele>191</ele>
        <time>2016-05-12T12:45:30Z</time>
      </trkpt>
      <trkpt lat="43.34469" lon="5.22466">
        <ele>191</ele>
        <time>2016-05-12T12:45:31Z</time>
      </trkpt>
      <trkpt lat="43.34469" lon="5.22468">
        <ele>191</ele>
        <time>2016-05-12T12:45:32Z</time>
      </trkpt>
      <trkpt lat="43.3447" lon="5.22469">
        <ele>191</ele>
        <time>2016-05-12T12:45:33Z</time>
      </trkpt>
      <trkpt lat="43.3447" lon="5.22472">
        <ele>191</ele>
        <time>2016-05-12T12:45:35Z</time>
      </trkpt>
      <trkpt lat="43.34472" lon="5.22473">
        <ele>191</ele>
        <time>2016-05-12T12:45:37Z</time>
      </trkpt>
      <trkpt lat="43.34474" lon="5.22472">
        <ele>190</ele>
        <time>2016-05-12T12:45:39Z</time>
      </trkpt>
      <trkpt lat="43.34475" lon="5.2247">
        <ele>190</ele>
        <time>2016-05-12T12:45:41Z</time>
      </trkpt>
      <trkpt lat="43.34476" lon="5.22469">
        <ele>189</ele>
        <time>2016-05-12T12:45:42Z</time>
      </trkpt>
      <trkpt lat="43.34476" lon="5.22467">
        <ele>189</ele>
        <time>2016-05-12T12:45:43Z</time>
      </trkpt>
      <trkpt lat="43.34476" lon="5.22466">
        <ele>189</ele>
        <time>2016-05-12T12:45:44Z</time>
      </trkpt>
      <trkpt lat="43.34477" lon="5.22464">
        <ele>189</ele>
        <time>2016-05-12T12:45:45Z</time>
      </trkpt>
      <trkpt lat="43.34477" lon="5.22462">
        <ele>189</ele>
        <time>2016-05-12T12:45:46Z</time>
      </trkpt>
      <trkpt lat="43.34478" lon="5.22461">
        <ele>189</ele>
        <time>2016-05-12T12:45:47Z</time>
      </trkpt>
      <trkpt lat="43.34478" lon="5.22459">
        <ele>189</ele>
        <time>2016-05-12T12:45:48Z</time>
      </trkpt>
      <trkpt lat="43.34478" lon="5.22457">
        <ele>189</ele>
        <time>2016-05-12T12:45:49Z</time>
      </trkpt>
      <trkpt lat="43.34478" lon="5.22456">
        <ele>188</ele>
        <time>2016-05-12T12:45:50Z</time>
      </trkpt>
      <trkpt lat="43.34479" lon="5.22454">
        <ele>188</ele>
        <time>2016-05-12T12:45:51Z</time>
      </trkpt>
      <trkpt lat="43.34479" lon="5.22452">
        <ele>188</ele>
        <time>2016-05-12T12:45:52Z</time>
      </trkpt>
      <trkpt lat="43.34479" lon="5.2245">
        <ele>188</ele>
        <time>2016-05-12T12:45:53Z</time>
      </trkpt>
      <trkpt lat="43.3448" lon="5.22449">
        <ele>188</ele>
        <time>2016-05-12T12:45:54Z</time>
      </trkpt>
      <trkpt lat="43.3448" lon="5.22447">
        <ele>188</ele>
        <time>2016-05-12T12:45:55Z</time>
      </trkpt>
      <trkpt lat="43.3448" lon="5.22445">
        <ele>187</ele>
        <time>2016-05-12T12:45:56Z</time>
      </trkpt>
      <trkpt lat="43.34481" lon="5.22443">
        <ele>187</ele>
        <time>2016-05-12T12:45:57Z</time>
      </trkpt>
      <trkpt lat="43.34481" lon="5.22441">
        <ele>187</ele>
        <time>2016-05-12T12:45:58Z</time>
      </trkpt>
      <trkpt lat="43.34481" lon="5.2244">
        <ele>187</ele>
        <time>2016-05-12T12:45:59Z</time>
      </trkpt>
      <trkpt lat="43.34481" lon="5.22438">
        <ele>187</ele>
        <time>2016-05-12T12:46:00Z</time>
      </trkpt>
      <trkpt lat="43.34482" lon="5.22436">
        <ele>187</ele>
        <time>2016-05-12T12:46:01Z</time>
      </trkpt>
      <trkpt lat="43.34482" lon="5.22434">
        <ele>186</ele>
        <time>2016-05-12T12:46:02Z</time>
      </trkpt>
      <trkpt lat="43.34483" lon="5.22433">
        <ele>186</ele>
        <time>2016-05-12T12:46:03Z</time>
      </trkpt>
      <trkpt lat="43.34483" lon="5.22431">
        <ele>186</ele>
        <time>2016-05-12T12:46:04Z</time>
      </trkpt>
      <trkpt lat="43.34483" lon="5.2243">
        <ele>186</ele>
        <time>2016-05-12T12:46:05Z</time>
      </trkpt>
      <trkpt lat="43.34484" lon="5.22428">
        <ele>186</ele>
        <time>2016-05-12T12:46:06Z</time>
      </trkpt>
      <trkpt lat="43.34484" lon="5.22426">
        <ele>186</ele>
        <time>2016-05-12T12:46:07Z</time>
      </trkpt>
      <trkpt lat="43.34484" lon="5.22424">
        <ele>186</ele>
        <time>2016-05-12T12:46:08Z</time>
      </trkpt>
      <trkpt lat="43.34485" lon="5.22423">
        <ele>186</ele>
        <time>2016-05-12T12:46:09Z</time>
      </trkpt>
      <trkpt lat="43.34485" lon="5.22421">
        <ele>186</ele>
        <time>2016-05-12T12:46:10Z</time>
      </trkpt>
      <trkpt lat="43.34485" lon="5.22419">
        <ele>186</ele>
        <time>2016-05-12T12:46:11Z</time>
      </trkpt>
      <trkpt lat="43.34485" lon="5.22417">
        <ele>186</ele>
        <time>2016-05-12T12:46:12Z</time>
      </trkpt>
      <trkpt lat="43.34486" lon="5.22415">
        <ele>186</ele>
        <time>2016-05-12T12:46:13Z</time>
      </trkpt>
      <trkpt lat="43.34486" lon="5.22413">
        <ele>185</ele>
        <time>2016-05-12T12:46:14Z</time>
      </trkpt>
      <trkpt lat="43.34486" lon="5.22411">
        <ele>185</ele>
        <time>2016-05-12T12:46:15Z</time>
      </trkpt>
      <trkpt lat="43.34486" lon="5.22409">
        <ele>185</ele>
        <time>2016-05-12T12:46:16Z</time>
      </trkpt>
      <trkpt lat="43.34486" lon="5.22408">
        <ele>185</ele>
        <time>2016-05-12T12:46:17Z</time>
      </trkpt>
      <trkpt lat="43.34486" lon="5.22406">
        <ele>184</ele>
        <time>2016-05-12T12:46:18Z</time>
      </trkpt>
      <trkpt lat="43.34487" lon="5.22404">
        <ele>184</ele>
        <time>2016-05-12T12:46:19Z</time>
      </trkpt>
      <trkpt lat="43.34487" lon="5.22402">
        <ele>184</ele>
        <time>2016-05-12T12:46:20Z</time>
      </trkpt>
      <trkpt lat="43.34487" lon="5.22401">
        <ele>184</ele>
        <time>2016-05-12T12:46:21Z</time>
      </trkpt>
      <trkpt lat="43.34487" lon="5.22399">
        <ele>184</ele>
        <time>2016-05-12T12:46:22Z</time>
      </trkpt>
      <trkpt lat="43.34487" lon="5.22397">
        <ele>184</ele>
        <time>2016-05-12T12:46:23Z</time>
      </trkpt>
      <trkpt lat="43.34487" lon="5.22395">
        <ele>184</ele>
        <time>2016-05-12T12:46:24Z</time>
      </trkpt>
      <trkpt lat="43.34487" lon="5.22393">
        <ele>184</ele>
        <time>2016-05-12T12:46:25Z</time>
      </trkpt>
      <trkpt lat="43.34487" lon="5.22391">
        <ele>184</ele>
        <time>2016-05-12T12:46:26Z</time>
      </trkpt>
      <trkpt lat="43.34486" lon="5.22389">
        <ele>184</ele>
        <time>2016-05-12T12:46:27Z</time>
      </trkpt>
      <trkpt lat="43.34486" lon="5.22387">
        <ele>184</ele>
        <time>2016-05-12T12:46:28Z</time>
      </trkpt>
      <trkpt lat="43.34486" lon="5.22385">
        <ele>183</ele>
        <time>2016-05-12T12:46:29Z</time>
      </trkpt>
      <trkpt lat="43.34486" lon="5.22383">
        <ele>183</ele>
        <time>2016-05-12T12:46:30Z</time>
      </trkpt>
      <trkpt lat="43.34486" lon="5.22381">
        <ele>183</ele>
        <time>2016-05-12T12:46:31Z</time>
      </trkpt>
      <trkpt lat="43.34486" lon="5.22379">
        <ele>183</ele>
        <time>2016-05-12T12:46:32Z</time>
      </trkpt>
      <trkpt lat="43.34486" lon="5.22377">
        <ele>183</ele>
        <time>2016-05-12T12:46:33Z</time>
      </trkpt>
      <trkpt lat="43.34486" lon="5.22375">
        <ele>183</ele>
        <time>2016-05-12T12:46:34Z</time>
      </trkpt>
      <trkpt lat="43.34486" lon="5.22373">
        <ele>183</ele>
        <time>2016-05-12T12:46:35Z</time>
      </trkpt>
      <trkpt lat="43.34486" lon="5.22371">
        <ele>182</ele>
        <time>2016-05-12T12:46:36Z</time>
      </trkpt>
      <trkpt lat="43.34486" lon="5.2237">
        <ele>182</ele>
        <time>2016-05-12T12:46:37Z</time>
      </trkpt>
      <trkpt lat="43.34486" lon="5.22368">
        <ele>182</ele>
        <time>2016-05-12T12:46:38Z</time>
      </trkpt>
      <trkpt lat="43.34486" lon="5.22366">
        <ele>182</ele>
        <time>2016-05-12T12:46:39Z</time>
      </trkpt>
      <trkpt lat="43.34485" lon="5.22365">
        <ele>182</ele>
        <time>2016-05-12T12:46:40Z</time>
      </trkpt>
      <trkpt lat="43.34485" lon="5.22363">
        <ele>182</ele>
        <time>2016-05-12T12:46:41Z</time>
      </trkpt>
      <trkpt lat="43.34485" lon="5.22362">
        <ele>182</ele>
        <time>2016-05-12T12:46:42Z</time>
      </trkpt>
      <trkpt lat="43.34484" lon="5.2236">
        <ele>182</ele>
        <time>2016-05-12T12:46:43Z</time>
      </trkpt>
      <trkpt lat="43.34484" lon="5.22359">
        <ele>182</ele>
        <time>2016-05-12T12:46:44Z</time>
      </trkpt>
      <trkpt lat="43.34484" lon="5.22357">
        <ele>182</ele>
        <time>2016-05-12T12:46:46Z</time>
      </trkpt>
      <trkpt lat="43.34484" lon="5.22355">
        <ele>181</ele>
        <time>2016-05-12T12:46:47Z</time>
      </trkpt>
      <trkpt lat="43.34484" lon="5.22354">
        <ele>181</ele>
        <time>2016-05-12T12:46:48Z</time>
      </trkpt>
      <trkpt lat="43.34484" lon="5.22352">
        <ele>181</ele>
        <time>2016-05-12T12:46:49Z</time>
      </trkpt>
      <trkpt lat="43.34484" lon="5.2235">
        <ele>181</ele>
        <time>2016-05-12T12:46:50Z</time>
      </trkpt>
      <trkpt lat="43.34484" lon="5.22348">
        <ele>180</ele>
        <time>2016-05-12T12:46:51Z</time>
      </trkpt>
      <trkpt lat="43.34484" lon="5.22346">
        <ele>180</ele>
        <time>2016-05-12T12:46:52Z</time>
      </trkpt>
      <trkpt lat="43.34484" lon="5.22344">
        <ele>180</ele>
        <time>2016-05-12T12:46:53Z</time>
      </trkpt>
      <trkpt lat="43.34484" lon="5.22342">
        <ele>179</ele>
        <time>2016-05-12T12:46:54Z</time>
      </trkpt>
      <trkpt lat="43.34484" lon="5.2234">
        <ele>179</ele>
        <time>2016-05-12T12:46:55Z</time>
      </trkpt>
      <trkpt lat="43.34483" lon="5.22338">
        <ele>179</ele>
        <time>2016-05-12T12:46:56Z</time>
      </trkpt>
      <trkpt lat="43.34483" lon="5.22336">
        <ele>179</ele>
        <time>2016-05-12T12:46:57Z</time>
      </trkpt>
      <trkpt lat="43.34482" lon="5.22334">
        <ele>179</ele>
        <time>2016-05-12T12:46:58Z</time>
      </trkpt>
      <trkpt lat="43.34482" lon="5.22332">
        <ele>179</ele>
        <time>2016-05-12T12:46:59Z</time>
      </trkpt>
      <trkpt lat="43.34481" lon="5.22331">
        <ele>179</ele>
        <time>2016-05-12T12:47:00Z</time>
      </trkpt>
      <trkpt lat="43.34481" lon="5.22329">
        <ele>178</ele>
        <time>2016-05-12T12:47:01Z</time>
      </trkpt>
      <trkpt lat="43.3448" lon="5.22327">
        <ele>178</ele>
        <time>2016-05-12T12:47:02Z</time>
      </trkpt>
      <trkpt lat="43.3448" lon="5.22325">
        <ele>178</ele>
        <time>2016-05-12T12:47:03Z</time>
      </trkpt>
      <trkpt lat="43.34479" lon="5.22323">
        <ele>178</ele>
        <time>2016-05-12T12:47:04Z</time>
      </trkpt>
      <trkpt lat="43.34478" lon="5.22321">
        <ele>178</ele>
        <time>2016-05-12T12:47:05Z</time>
      </trkpt>
      <trkpt lat="43.34478" lon="5.22319">
        <ele>178</ele>
        <time>2016-05-12T12:47:06Z</time>
      </trkpt>
      <trkpt lat="43.34477" lon="5.22317">
        <ele>178</ele>
        <time>2016-05-12T12:47:07Z</time>
      </trkpt>
      <trkpt lat="43.34476" lon="5.22315">
        <ele>178</ele>
        <time>2016-05-12T12:47:08Z</time>
      </trkpt>
      <trkpt lat="43.34476" lon="5.22313">
        <ele>178</ele>
        <time>2016-05-12T12:47:09Z</time>
      </trkpt>
      <trkpt lat="43.34475" lon="5.22311">
        <ele>178</ele>
        <time>2016-05-12T12:47:10Z</time>
      </trkpt>
      <trkpt lat="43.34475" lon="5.22308">
        <ele>178</ele>
        <time>2016-05-12T12:47:11Z</time>
      </trkpt>
      <trkpt lat="43.34475" lon="5.22306">
        <ele>177</ele>
        <time>2016-05-12T12:47:12Z</time>
      </trkpt>
      <trkpt lat="43.34475" lon="5.22304">
        <ele>177</ele>
        <time>2016-05-12T12:47:13Z</time>
      </trkpt>
      <trkpt lat="43.34474" lon="5.22302">
        <ele>177</ele>
        <time>2016-05-12T12:47:14Z</time>
      </trkpt>
      <trkpt lat="43.34474" lon="5.223">
        <ele>177</ele>
        <time>2016-05-12T12:47:15Z</time>
      </trkpt>
      <trkpt lat="43.34473" lon="5.22298">
        <ele>177</ele>
        <time>2016-05-12T12:47:16Z</time>
      </trkpt>
      <trkpt lat="43.34473" lon="5.22296">
        <ele>177</ele>
        <time>2016-05-12T12:47:17Z</time>
      </trkpt>
      <trkpt lat="43.34473" lon="5.22294">
        <ele>177</ele>
        <time>2016-05-12T12:47:18Z</time>
      </trkpt>
      <trkpt lat="43.34473" lon="5.22292">
        <ele>177</ele>
        <time>2016-05-12T12:47:19Z</time>
      </trkpt>
      <trkpt lat="43.34472" lon="5.2229">
        <ele>177</ele>
        <time>2016-05-12T12:47:20Z</time>
      </trkpt>
      <trkpt lat="43.34472" lon="5.22288">
        <ele>176</ele>
        <time>2016-05-12T12:47:21Z</time>
      </trkpt>
      <trkpt lat="43.34472" lon="5.22286">
        <ele>176</ele>
        <time>2016-05-12T12:47:22Z</time>
      </trkpt>
      <trkpt lat="43.34472" lon="5.22284">
        <ele>176</ele>
        <time>2016-05-12T12:47:23Z</time>
      </trkpt>
      <trkpt lat="43.34471" lon="5.22282">
        <ele>176</ele>
        <time>2016-05-12T12:47:24Z</time>
      </trkpt>
      <trkpt lat="43.34471" lon="5.2228">
        <ele>176</ele>
        <time>2016-05-12T12:47:25Z</time>
      </trkpt>
      <trkpt lat="43.3447" lon="5.22278">
        <ele>176</ele>
        <time>2016-05-12T12:47:26Z</time>
      </trkpt>
      <trkpt lat="43.3447" lon="5.22276">
        <ele>176</ele>
        <time>2016-05-12T12:47:27Z</time>
      </trkpt>
      <trkpt lat="43.34469" lon="5.22274">
        <ele>176</ele>
        <time>2016-05-12T12:47:28Z</time>
      </trkpt>
      <trkpt lat="43.34469" lon="5.22272">
        <ele>176</ele>
        <time>2016-05-12T12:47:29Z</time>
      </trkpt>
      <trkpt lat="43.34468" lon="5.2227">
        <ele>176</ele>
        <time>2016-05-12T12:47:30Z</time>
      </trkpt>
      <trkpt lat="43.34468" lon="5.22268">
        <ele>176</ele>
        <time>2016-05-12T12:47:31Z</time>
      </trkpt>
      <trkpt lat="43.34468" lon="5.22266">
        <ele>176</ele>
        <time>2016-05-12T12:47:32Z</time>
      </trkpt>
      <trkpt lat="43.34467" lon="5.22264">
        <ele>176</ele>
        <time>2016-05-12T12:47:33Z</time>
      </trkpt>
      <trkpt lat="43.34467" lon="5.22262">
        <ele>176</ele>
        <time>2016-05-12T12:47:34Z</time>
      </trkpt>
      <trkpt lat="43.34467" lon="5.2226">
        <ele>176</ele>
        <time>2016-05-12T12:47:35Z</time>
      </trkpt>
      <trkpt lat="43.34466" lon="5.22258">
        <ele>176</ele>
        <time>2016-05-12T12:47:36Z</time>
      </trkpt>
      <trkpt lat="43.34466" lon="5.22256">
        <ele>176</ele>
        <time>2016-05-12T12:47:37Z</time>
      </trkpt>
      <trkpt lat="43.34465" lon="5.22254">
        <ele>176</ele>
        <time>2016-05-12T12:47:38Z</time>
      </trkpt>
      <trkpt lat="43.34465" lon="5.22252">
        <ele>176</ele>
        <time>2016-05-12T12:47:39Z</time>
      </trkpt>
      <trkpt lat="43.34465" lon="5.2225">
        <ele>176</ele>
        <time>2016-05-12T12:47:40Z</time>
      </trkpt>
      <trkpt lat="43.34464" lon="5.22248">
        <ele>176</ele>
        <time>2016-05-12T12:47:41Z</time>
      </trkpt>
      <trkpt lat="43.34464" lon="5.22246">
        <ele>176</ele>
        <time>2016-05-12T12:47:42Z</time>
      </trkpt>
      <trkpt lat="43.34464" lon="5.22244">
        <ele>176</ele>
        <time>2016-05-12T12:47:43Z</time>
      </trkpt>
      <trkpt lat="43.34464" lon="5.22242">
        <ele>176</ele>
        <time>2016-05-12T12:47:44Z</time>
      </trkpt>
      <trkpt lat="43.34464" lon="5.2224">
        <ele>176</ele>
        <time>2016-05-12T12:47:45Z</time>
      </trkpt>
      <trkpt lat="43.34463" lon="5.22238">
        <ele>176</ele>
        <time>2016-05-12T12:47:46Z</time>
      </trkpt>
      <trkpt lat="43.34463" lon="5.22236">
        <ele>176</ele>
        <time>2016-05-12T12:47:47Z</time>
      </trkpt>
      <trkpt lat="43.34462" lon="5.22234">
        <ele>176</ele>
        <time>2016-05-12T12:47:48Z</time>
      </trkpt>
      <trkpt lat="43.34462" lon="5.22232">
        <ele>176</ele>
        <time>2016-05-12T12:47:49Z</time>
      </trkpt>
      <trkpt lat="43.34462" lon="5.22231">
        <ele>176</ele>
        <time>2016-05-12T12:47:50Z</time>
      </trkpt>
      <trkpt lat="43.34461" lon="5.22229">
        <ele>176</ele>
        <time>2016-05-12T12:47:51Z</time>
      </trkpt>
      <trkpt lat="43.34461" lon="5.22227">
        <ele>176</ele>
        <time>2016-05-12T12:47:52Z</time>
      </trkpt>
      <trkpt lat="43.34461" lon="5.22225">
        <ele>176</ele>
        <time>2016-05-12T12:47:53Z</time>
      </trkpt>
      <trkpt lat="43.3446" lon="5.22223">
        <ele>176</ele>
        <time>2016-05-12T12:47:54Z</time>
      </trkpt>
      <trkpt lat="43.3446" lon="5.22221">
        <ele>175</ele>
        <time>2016-05-12T12:47:55Z</time>
      </trkpt>
      <trkpt lat="43.34459" lon="5.22219">
        <ele>175</ele>
        <time>2016-05-12T12:47:56Z</time>
      </trkpt>
      <trkpt lat="43.34459" lon="5.22217">
        <ele>175</ele>
        <time>2016-05-12T12:47:57Z</time>
      </trkpt>
      <trkpt lat="43.34459" lon="5.22215">
        <ele>175</ele>
        <time>2016-05-12T12:47:58Z</time>
      </trkpt>
      <trkpt lat="43.34458" lon="5.22213">
        <ele>175</ele>
        <time>2016-05-12T12:47:59Z</time>
      </trkpt>
      <trkpt lat="43.34457" lon="5.22211">
        <ele>175</ele>
        <time>2016-05-12T12:48:00Z</time>
      </trkpt>
      <trkpt lat="43.34457" lon="5.22209">
        <ele>175</ele>
        <time>2016-05-12T12:48:01Z</time>
      </trkpt>
      <trkpt lat="43.34456" lon="5.22207">
        <ele>175</ele>
        <time>2016-05-12T12:48:02Z</time>
      </trkpt>
      <trkpt lat="43.34456" lon="5.22205">
        <ele>175</ele>
        <time>2016-05-12T12:48:03Z</time>
      </trkpt>
      <trkpt lat="43.34456" lon="5.22203">
        <ele>175</ele>
        <time>2016-05-12T12:48:04Z</time>
      </trkpt>
      <trkpt lat="43.34455" lon="5.22201">
        <ele>175</ele>
        <time>2016-05-12T12:48:05Z</time>
      </trkpt>
      <trkpt lat="43.34455" lon="5.22199">
        <ele>175</ele>
        <time>2016-05-12T12:48:06Z</time>
      </trkpt>
      <trkpt lat="43.34454" lon="5.22197">
        <ele>175</ele>
        <time>2016-05-12T12:48:07Z</time>
      </trkpt>
      <trkpt lat="43.34454" lon="5.22195">
        <ele>175</ele>
        <time>2016-05-12T12:48:08Z</time>
      </trkpt>
      <trkpt lat="43.34454" lon="5.22193">
        <ele>174</ele>
        <time>2016-05-12T12:48:09Z</time>
      </trkpt>
      <trkpt lat="43.34453" lon="5.22191">
        <ele>174</ele>
        <time>2016-05-12T12:48:10Z</time>
      </trkpt>
      <trkpt lat="43.34453" lon="5.22189">
        <ele>174</ele>
        <time>2016-05-12T12:48:11Z</time>
      </trkpt>
      <trkpt lat="43.34452" lon="5.22187">
        <ele>174</ele>
        <time>2016-05-12T12:48:12Z</time>
      </trkpt>
      <trkpt lat="43.34452" lon="5.22185">
        <ele>174</ele>
        <time>2016-05-12T12:48:13Z</time>
      </trkpt>
      <trkpt lat="43.34452" lon="5.22183">
        <ele>174</ele>
        <time>2016-05-12T12:48:14Z</time>
      </trkpt>
      <trkpt lat="43.34451" lon="5.22181">
        <ele>174</ele>
        <time>2016-05-12T12:48:15Z</time>
      </trkpt>
      <trkpt lat="43.34451" lon="5.22179">
        <ele>173</ele>
        <time>2016-05-12T12:48:16Z</time>
      </trkpt>
      <trkpt lat="43.3445" lon="5.22177">
        <ele>173</ele>
        <time>2016-05-12T12:48:17Z</time>
      </trkpt>
      <trkpt lat="43.3445" lon="5.22176">
        <ele>173</ele>
        <time>2016-05-12T12:48:18Z</time>
      </trkpt>
      <trkpt lat="43.34449" lon="5.22174">
        <ele>173</ele>
        <time>2016-05-12T12:48:19Z</time>
      </trkpt>
      <trkpt lat="43.34449" lon="5.22172">
        <ele>173</ele>
        <time>2016-05-12T12:48:20Z</time>
      </trkpt>
      <trkpt lat="43.34449" lon="5.2217">
        <ele>173</ele>
        <time>2016-05-12T12:48:21Z</time>
      </trkpt>
      <trkpt lat="43.34448" lon="5.22168">
        <ele>173</ele>
        <time>2016-05-12T12:48:22Z</time>
      </trkpt>
      <trkpt lat="43.34448" lon="5.22166">
        <ele>173</ele>
        <time>2016-05-12T12:48:23Z</time>
      </trkpt>
      <trkpt lat="43.34447" lon="5.22164">
        <ele>173</ele>
        <time>2016-05-12T12:48:24Z</time>
      </trkpt>
      <trkpt lat="43.34447" lon="5.22162">
        <ele>173</ele>
        <time>2016-05-12T12:48:25Z</time>
      </trkpt>
      <trkpt lat="43.34446" lon="5.2216">
        <ele>173</ele>
        <time>2016-05-12T12:48:26Z</time>
      </trkpt>
      <trkpt lat="43.34446" lon="5.22158">
        <ele>173</ele>
        <time>2016-05-12T12:48:27Z</time>
      </trkpt>
      <trkpt lat="43.34445" lon="5.22156">
        <ele>173</ele>
        <time>2016-05-12T12:48:28Z</time>
      </trkpt>
      <trkpt lat="43.34445" lon="5.22154">
        <ele>173</ele>
        <time>2016-05-12T12:48:29Z</time>
      </trkpt>
      <trkpt lat="43.34445" lon="5.22152">
        <ele>173</ele>
        <time>2016-05-12T12:48:30Z</time>
      </trkpt>
      <trkpt lat="43.34444" lon="5.2215">
        <ele>172</ele>
        <time>2016-05-12T12:48:31Z</time>
      </trkpt>
      <trkpt lat="43.34444" lon="5.22148">
        <ele>172</ele>
        <time>2016-05-12T12:48:32Z</time>
      </trkpt>
      <trkpt lat="43.34444" lon="5.22146">
        <ele>172</ele>
        <time>2016-05-12T12:48:33Z</time>
      </trkpt>
      <trkpt lat="43.34443" lon="5.22144">
        <ele>172</ele>
        <time>2016-05-12T12:48:34Z</time>
      </trkpt>
      <trkpt lat="43.34443" lon="5.22142">
        <ele>172</ele>
        <time>2016-05-12T12:48:35Z</time>
      </trkpt>
      <trkpt lat="43.34442" lon="5.2214">
        <ele>172</ele>
        <time>2016-05-12T12:48:36Z</time>
      </trkpt>
      <trkpt lat="43.34442" lon="5.22139">
        <ele>172</ele>
        <time>2016-05-12T12:48:37Z</time>
      </trkpt>
      <trkpt lat="43.34441" lon="5.22137">
        <ele>172</ele>
        <time>2016-05-12T12:48:38Z</time>
      </trkpt>
      <trkpt lat="43.34441" lon="5.22135">
        <ele>172</ele>
        <time>2016-05-12T12:48:39Z</time>
      </trkpt>
      <trkpt lat="43.34441" lon="5.22133">
        <ele>172</ele>
        <time>2016-05-12T12:48:40Z</time>
      </trkpt>
      <trkpt lat="43.3444" lon="5.22131">
        <ele>172</ele>
        <time>2016-05-12T12:48:41Z</time>
      </trkpt>
      <trkpt lat="43.34439" lon="5.22129">
        <ele>172</ele>
        <time>2016-05-12T12:48:42Z</time>
      </trkpt>
      <trkpt lat="43.34439" lon="5.22128">
        <ele>172</ele>
        <time>2016-05-12T12:48:43Z</time>
      </trkpt>
      <trkpt lat="43.34438" lon="5.22126">
        <ele>172</ele>
        <time>2016-05-12T12:48:44Z</time>
      </trkpt>
      <trkpt lat="43.34438" lon="5.22124">
        <ele>172</ele>
        <time>2016-05-12T12:48:45Z</time>
      </trkpt>
      <trkpt lat="43.34438" lon="5.22122">
        <ele>172</ele>
        <time>2016-05-12T12:48:46Z</time>
      </trkpt>
      <trkpt lat="43.34438" lon="5.2212">
        <ele>172</ele>
        <time>2016-05-12T12:48:47Z</time>
      </trkpt>
      <trkpt lat="43.34437" lon="5.22118">
        <ele>172</ele>
        <time>2016-05-12T12:48:48Z</time>
      </trkpt>
      <trkpt lat="43.34437" lon="5.22116">
        <ele>172</ele>
        <time>2016-05-12T12:48:49Z</time>
      </trkpt>
      <trkpt lat="43.34436" lon="5.22115">
        <ele>172</ele>
        <time>2016-05-12T12:48:50Z</time>
      </trkpt>
      <trkpt lat="43.34436" lon="5.22113">
        <ele>172</ele>
        <time>2016-05-12T12:48:51Z</time>
      </trkpt>
      <trkpt lat="43.34435" lon="5.22111">
        <ele>172</ele>
        <time>2016-05-12T12:48:52Z</time>
      </trkpt>
      <trkpt lat="43.34435" lon="5.22109">
        <ele>172</ele>
        <time>2016-05-12T12:48:53Z</time>
      </trkpt>
      <trkpt lat="43.34435" lon="5.22107">
        <ele>172</ele>
        <time>2016-05-12T12:48:54Z</time>
      </trkpt>
      <trkpt lat="43.34435" lon="5.22105">
        <ele>172</ele>
        <time>2016-05-12T12:48:55Z</time>
      </trkpt>
      <trkpt lat="43.34435" lon="5.22102">
        <ele>172</ele>
        <time>2016-05-12T12:48:56Z</time>
      </trkpt>
      <trkpt lat="43.34435" lon="5.221">
        <ele>172</ele>
        <time>2016-05-12T12:48:57Z</time>
      </trkpt>
      <trkpt lat="43.34435" lon="5.22098">
        <ele>172</ele>
        <time>2016-05-12T12:48:58Z</time>
      </trkpt>
      <trkpt lat="43.34435" lon="5.22096">
        <ele>172</ele>
        <time>2016-05-12T12:48:59Z</time>
      </trkpt>
      <trkpt lat="43.34435" lon="5.22094">
        <ele>172</ele>
        <time>2016-05-12T12:49:00Z</time>
      </trkpt>
      <trkpt lat="43.34435" lon="5.22092">
        <ele>172</ele>
        <time>2016-05-12T12:49:01Z</time>
      </trkpt>
      <trkpt lat="43.34435" lon="5.2209">
        <ele>172</ele>
        <time>2016-05-12T12:49:02Z</time>
      </trkpt>
      <trkpt lat="43.34435" lon="5.22088">
        <ele>172</ele>
        <time>2016-05-12T12:49:03Z</time>
      </trkpt>
      <trkpt lat="43.34435" lon="5.22086">
        <ele>172</ele>
        <time>2016-05-12T12:49:04Z</time>
      </trkpt>
      <trkpt lat="43.34435" lon="5.22084">
        <ele>172</ele>
        <time>2016-05-12T12:49:05Z</time>
      </trkpt>
      <trkpt lat="43.34435" lon="5.22082">
        <ele>172</ele>
        <time>2016-05-12T12:49:06Z</time>
      </trkpt>
      <trkpt lat="43.34435" lon="5.2208">
        <ele>172</ele>
        <time>2016-05-12T12:49:07Z</time>
      </trkpt>
      <trkpt lat="43.34434" lon="5.22078">
        <ele>172</ele>
        <time>2016-05-12T12:49:08Z</time>
      </trkpt>
      <trkpt lat="43.34434" lon="5.22076">
        <ele>172</ele>
        <time>2016-05-12T12:49:09Z</time>
      </trkpt>
      <trkpt lat="43.34434" lon="5.22074">
        <ele>172</ele>
        <time>2016-05-12T12:49:10Z</time>
      </trkpt>
      <trkpt lat="43.34434" lon="5.22072">
        <ele>172</ele>
        <time>2016-05-12T12:49:11Z</time>
      </trkpt>
      <trkpt lat="43.34434" lon="5.2207">
        <ele>172</ele>
        <time>2016-05-12T12:49:12Z</time>
      </trkpt>
      <trkpt lat="43.34433" lon="5.22068">
        <ele>172</ele>
        <time>2016-05-12T12:49:13Z</time>
      </trkpt>
      <trkpt lat="43.34433" lon="5.22066">
        <ele>172</ele>
        <time>2016-05-12T12:49:14Z</time>
      </trkpt>
      <trkpt lat="43.34433" lon="5.22064">
        <ele>172</ele>
        <time>2016-05-12T12:49:15Z</time>
      </trkpt>
      <trkpt lat="43.34433" lon="5.22062">
        <ele>172</ele>
        <time>2016-05-12T12:49:16Z</time>
      </trkpt>
      <trkpt lat="43.34433" lon="5.22061">
        <ele>172</ele>
        <time>2016-05-12T12:49:17Z</time>
      </trkpt>
      <trkpt lat="43.34431" lon="5.22059">
        <ele>172</ele>
        <time>2016-05-12T12:49:19Z</time>
      </trkpt>
      <trkpt lat="43.3443" lon="5.22059">
        <ele>172</ele>
        <time>2016-05-12T12:49:21Z</time>
      </trkpt>
      <trkpt lat="43.34429" lon="5.22059">
        <ele>172</ele>
        <time>2016-05-12T12:49:22Z</time>
      </trkpt>
      <trkpt lat="43.34428" lon="5.22059">
        <ele>172</ele>
        <time>2016-05-12T12:49:23Z</time>
      </trkpt>
      <trkpt lat="43.34426" lon="5.22058">
        <ele>172</ele>
        <time>2016-05-12T12:49:24Z</time>
      </trkpt>
      <trkpt lat="43.34425" lon="5.22056">
        <ele>171</ele>
        <time>2016-05-12T12:49:26Z</time>
      </trkpt>
      <trkpt lat="43.34424" lon="5.22055">
        <ele>171</ele>
        <time>2016-05-12T12:49:27Z</time>
      </trkpt>
      <trkpt lat="43.34423" lon="5.22053">
        <ele>171</ele>
        <time>2016-05-12T12:49:28Z</time>
      </trkpt>
      <trkpt lat="43.34423" lon="5.22051">
        <ele>170</ele>
        <time>2016-05-12T12:49:29Z</time>
      </trkpt>
      <trkpt lat="43.34423" lon="5.2205">
        <ele>170</ele>
        <time>2016-05-12T12:49:30Z</time>
      </trkpt>
      <trkpt lat="43.34423" lon="5.22048">
        <ele>170</ele>
        <time>2016-05-12T12:49:31Z</time>
      </trkpt>
      <trkpt lat="43.34423" lon="5.22047">
        <ele>169</ele>
        <time>2016-05-12T12:49:32Z</time>
      </trkpt>
      <trkpt lat="43.34422" lon="5.22045">
        <ele>169</ele>
        <time>2016-05-12T12:49:33Z</time>
      </trkpt>
      <trkpt lat="43.34422" lon="5.22044">
        <ele>169</ele>
        <time>2016-05-12T12:49:34Z</time>
      </trkpt>
      <trkpt lat="43.34421" lon="5.22041">
        <ele>168</ele>
        <time>2016-05-12T12:49:36Z</time>
      </trkpt>
      <trkpt lat="43.3442" lon="5.22039">
        <ele>168</ele>
        <time>2016-05-12T12:49:38Z</time>
      </trkpt>
      <trkpt lat="43.34418" lon="5.22037">
        <ele>168</ele>
        <time>2016-05-12T12:49:40Z</time>
      </trkpt>
      <trkpt lat="43.34417" lon="5.22035">
        <ele>167</ele>
        <time>2016-05-12T12:49:42Z</time>
      </trkpt>
      <trkpt lat="43.34415" lon="5.22033">
        <ele>167</ele>
        <time>2016-05-12T12:49:44Z</time>
      </trkpt>
      <trkpt lat="43.34414" lon="5.22031">
        <ele>167</ele>
        <time>2016-05-12T12:49:46Z</time>
      </trkpt>
      <trkpt lat="43.34413" lon="5.22028">
        <ele>167</ele>
        <time>2016-05-12T12:49:48Z</time>
      </trkpt>
      <trkpt lat="43.34412" lon="5.22026">
        <ele>166</ele>
        <time>2016-05-12T12:49:50Z</time>
      </trkpt>
      <trkpt lat="43.34412" lon="5.22024">
        <ele>166</ele>
        <time>2016-05-12T12:49:51Z</time>
      </trkpt>
      <trkpt lat="43.34411" lon="5.22022">
        <ele>166</ele>
        <time>2016-05-12T12:49:53Z</time>
      </trkpt>
      <trkpt lat="43.34411" lon="5.22019">
        <ele>165</ele>
        <time>2016-05-12T12:49:55Z</time>
      </trkpt>
      <trkpt lat="43.34411" lon="5.22017">
        <ele>164</ele>
        <time>2016-05-12T12:49:57Z</time>
      </trkpt>
      <trkpt lat="43.34411" lon="5.22015">
        <ele>164</ele>
        <time>2016-05-12T12:49:59Z</time>
      </trkpt>
      <trkpt lat="43.3441" lon="5.22012">
        <ele>163</ele>
        <time>2016-05-12T12:50:01Z</time>
      </trkpt>
      <trkpt lat="43.3441" lon="5.22011">
        <ele>163</ele>
        <time>2016-05-12T12:50:02Z</time>
      </trkpt>
      <trkpt lat="43.3441" lon="5.22009">
        <ele>163</ele>
        <time>2016-05-12T12:50:03Z</time>
      </trkpt>
      <trkpt lat="43.3441" lon="5.22007">
        <ele>163</ele>
        <time>2016-05-12T12:50:04Z</time>
      </trkpt>
      <trkpt lat="43.3441" lon="5.22005">
        <ele>163</ele>
        <time>2016-05-12T12:50:05Z</time>
      </trkpt>
      <trkpt lat="43.3441" lon="5.22003">
        <ele>162</ele>
        <time>2016-05-12T12:50:06Z</time>
      </trkpt>
      <trkpt lat="43.3441" lon="5.22002">
        <ele>162</ele>
        <time>2016-05-12T12:50:07Z</time>
      </trkpt>
      <trkpt lat="43.3441" lon="5.22">
        <ele>162</ele>
        <time>2016-05-12T12:50:08Z</time>
      </trkpt>
      <trkpt lat="43.3441" lon="5.21997">
        <ele>162</ele>
        <time>2016-05-12T12:50:09Z</time>
      </trkpt>
      <trkpt lat="43.3441" lon="5.21995">
        <ele>161</ele>
        <time>2016-05-12T12:50:10Z</time>
      </trkpt>
      <trkpt lat="43.3441" lon="5.21994">
        <ele>161</ele>
        <time>2016-05-12T12:50:11Z</time>
      </trkpt>
      <trkpt lat="43.3441" lon="5.21992">
        <ele>161</ele>
        <time>2016-05-12T12:50:12Z</time>
      </trkpt>
      <trkpt lat="43.3441" lon="5.2199">
        <ele>161</ele>
        <time>2016-05-12T12:50:13Z</time>
      </trkpt>
      <trkpt lat="43.3441" lon="5.21988">
        <ele>161</ele>
        <time>2016-05-12T12:50:14Z</time>
      </trkpt>
      <trkpt lat="43.34409" lon="5.21986">
        <ele>161</ele>
        <time>2016-05-12T12:50:15Z</time>
      </trkpt>
      <trkpt lat="43.34409" lon="5.21985">
        <ele>161</ele>
        <time>2016-05-12T12:50:16Z</time>
      </trkpt>
      <trkpt lat="43.34409" lon="5.21983">
        <ele>160</ele>
        <time>2016-05-12T12:50:17Z</time>
      </trkpt>
      <trkpt lat="43.34409" lon="5.21981">
        <ele>160</ele>
        <time>2016-05-12T12:50:18Z</time>
      </trkpt>
      <trkpt lat="43.34408" lon="5.2198">
        <ele>160</ele>
        <time>2016-05-12T12:50:19Z</time>
      </trkpt>
      <trkpt lat="43.34408" lon="5.21978">
        <ele>160</ele>
        <time>2016-05-12T12:50:20Z</time>
      </trkpt>
      <trkpt lat="43.34407" lon="5.21976">
        <ele>159</ele>
        <time>2016-05-12T12:50:21Z</time>
      </trkpt>
      <trkpt lat="43.34407" lon="5.21974">
        <ele>159</ele>
        <time>2016-05-12T12:50:22Z</time>
      </trkpt>
      <trkpt lat="43.34406" lon="5.21973">
        <ele>159</ele>
        <time>2016-05-12T12:50:23Z</time>
      </trkpt>
      <trkpt lat="43.34406" lon="5.21971">
        <ele>159</ele>
        <time>2016-05-12T12:50:24Z</time>
      </trkpt>
      <trkpt lat="43.34405" lon="5.21969">
        <ele>158</ele>
        <time>2016-05-12T12:50:25Z</time>
      </trkpt>
      <trkpt lat="43.34405" lon="5.21967">
        <ele>158</ele>
        <time>2016-05-12T12:50:26Z</time>
      </trkpt>
      <trkpt lat="43.34404" lon="5.21965">
        <ele>158</ele>
        <time>2016-05-12T12:50:27Z</time>
      </trkpt>
      <trkpt lat="43.34403" lon="5.21963">
        <ele>158</ele>
        <time>2016-05-12T12:50:28Z</time>
      </trkpt>
      <trkpt lat="43.34403" lon="5.21961">
        <ele>158</ele>
        <time>2016-05-12T12:50:29Z</time>
      </trkpt>
      <trkpt lat="43.34402" lon="5.2196">
        <ele>157</ele>
        <time>2016-05-12T12:50:30Z</time>
      </trkpt>
      <trkpt lat="43.34402" lon="5.21958">
        <ele>157</ele>
        <time>2016-05-12T12:50:31Z</time>
      </trkpt>
      <trkpt lat="43.34401" lon="5.21956">
        <ele>157</ele>
        <time>2016-05-12T12:50:32Z</time>
      </trkpt>
      <trkpt lat="43.34401" lon="5.21954">
        <ele>157</ele>
        <time>2016-05-12T12:50:33Z</time>
      </trkpt>
      <trkpt lat="43.344" lon="5.21953">
        <ele>157</ele>
        <time>2016-05-12T12:50:34Z</time>
      </trkpt>
      <trkpt lat="43.34399" lon="5.21951">
        <ele>157</ele>
        <time>2016-05-12T12:50:35Z</time>
      </trkpt>
      <trkpt lat="43.34399" lon="5.21949">
        <ele>157</ele>
        <time>2016-05-12T12:50:36Z</time>
      </trkpt>
      <trkpt lat="43.34399" lon="5.21947">
        <ele>156</ele>
        <time>2016-05-12T12:50:37Z</time>
      </trkpt>
      <trkpt lat="43.34398" lon="5.21945">
        <ele>156</ele>
        <time>2016-05-12T12:50:38Z</time>
      </trkpt>
      <trkpt lat="43.34398" lon="5.21944">
        <ele>156</ele>
        <time>2016-05-12T12:50:39Z</time>
      </trkpt>
      <trkpt lat="43.34397" lon="5.21942">
        <ele>155</ele>
        <time>2016-05-12T12:50:40Z</time>
      </trkpt>
      <trkpt lat="43.34397" lon="5.2194">
        <ele>155</ele>
        <time>2016-05-12T12:50:41Z</time>
      </trkpt>
      <trkpt lat="43.34397" lon="5.21939">
        <ele>155</ele>
        <time>2016-05-12T12:50:42Z</time>
      </trkpt>
      <trkpt lat="43.34396" lon="5.21937">
        <ele>154</ele>
        <time>2016-05-12T12:50:43Z</time>
      </trkpt>
      <trkpt lat="43.34396" lon="5.21935">
        <ele>154</ele>
        <time>2016-05-12T12:50:44Z</time>
      </trkpt>
      <trkpt lat="43.34395" lon="5.21934">
        <ele>154</ele>
        <time>2016-05-12T12:50:45Z</time>
      </trkpt>
      <trkpt lat="43.34394" lon="5.21932">
        <ele>154</ele>
        <time>2016-05-12T12:50:46Z</time>
      </trkpt>
      <trkpt lat="43.34394" lon="5.21931">
        <ele>154</ele>
        <time>2016-05-12T12:50:47Z</time>
      </trkpt>
      <trkpt lat="43.34394" lon="5.21929">
        <ele>154</ele>
        <time>2016-05-12T12:50:48Z</time>
      </trkpt>
      <trkpt lat="43.34393" lon="5.21926">
        <ele>153</ele>
        <time>2016-05-12T12:50:50Z</time>
      </trkpt>
      <trkpt lat="43.34392" lon="5.21924">
        <ele>153</ele>
        <time>2016-05-12T12:50:51Z</time>
      </trkpt>
      <trkpt lat="43.34391" lon="5.21923">
        <ele>153</ele>
        <time>2016-05-12T12:50:52Z</time>
      </trkpt>
      <trkpt lat="43.34388" lon="5.2192">
        <ele>153</ele>
        <time>2016-05-12T12:50:54Z</time>
      </trkpt>
      <trkpt lat="43.34387" lon="5.21919">
        <ele>153</ele>
        <time>2016-05-12T12:50:55Z</time>
      </trkpt>
      <trkpt lat="43.34386" lon="5.21918">
        <ele>153</ele>
        <time>2016-05-12T12:50:56Z</time>
      </trkpt>
      <trkpt lat="43.34384" lon="5.21917">
        <ele>153</ele>
        <time>2016-05-12T12:50:57Z</time>
      </trkpt>
      <trkpt lat="43.34383" lon="5.21916">
        <ele>153</ele>
        <time>2016-05-12T12:50:58Z</time>
      </trkpt>
      <trkpt lat="43.34381" lon="5.21915">
        <ele>153</ele>
        <time>2016-05-12T12:50:59Z</time>
      </trkpt>
      <trkpt lat="43.3438" lon="5.21914">
        <ele>153</ele>
        <time>2016-05-12T12:51:00Z</time>
      </trkpt>
      <trkpt lat="43.34379" lon="5.21912">
        <ele>153</ele>
        <time>2016-05-12T12:51:01Z</time>
      </trkpt>
      <trkpt lat="43.34377" lon="5.2191">
        <ele>152</ele>
        <time>2016-05-12T12:51:03Z</time>
      </trkpt>
      <trkpt lat="43.34376" lon="5.21909">
        <ele>152</ele>
        <time>2016-05-12T12:51:04Z</time>
      </trkpt>
      <trkpt lat="43.34375" lon="5.21907">
        <ele>152</ele>
        <time>2016-05-12T12:51:05Z</time>
      </trkpt>
      <trkpt lat="43.34374" lon="5.21905">
        <ele>152</ele>
        <time>2016-05-12T12:51:06Z</time>
      </trkpt>
      <trkpt lat="43.34372" lon="5.21904">
        <ele>152</ele>
        <time>2016-05-12T12:51:07Z</time>
      </trkpt>
      <trkpt lat="43.34372" lon="5.21902">
        <ele>152</ele>
        <time>2016-05-12T12:51:08Z</time>
      </trkpt>
      <trkpt lat="43.34371" lon="5.219">
        <ele>152</ele>
        <time>2016-05-12T12:51:09Z</time>
      </trkpt>
      <trkpt lat="43.3437" lon="5.21898">
        <ele>152</ele>
        <time>2016-05-12T12:51:10Z</time>
      </trkpt>
      <trkpt lat="43.34369" lon="5.21896">
        <ele>152</ele>
        <time>2016-05-12T12:51:11Z</time>
      </trkpt>
      <trkpt lat="43.34369" lon="5.21894">
        <ele>152</ele>
        <time>2016-05-12T12:51:12Z</time>
      </trkpt>
      <trkpt lat="43.34368" lon="5.21892">
        <ele>152</ele>
        <time>2016-05-12T12:51:13Z</time>
      </trkpt>
      <trkpt lat="43.34367" lon="5.21891">
        <ele>152</ele>
        <time>2016-05-12T12:51:14Z</time>
      </trkpt>
      <trkpt lat="43.34367" lon="5.21889">
        <ele>152</ele>
        <time>2016-05-12T12:51:15Z</time>
      </trkpt>
      <trkpt lat="43.34366" lon="5.21888">
        <ele>152</ele>
        <time>2016-05-12T12:51:16Z</time>
      </trkpt>
      <trkpt lat="43.34365" lon="5.21886">
        <ele>152</ele>
        <time>2016-05-12T12:51:17Z</time>
      </trkpt>
      <trkpt lat="43.34364" lon="5.21884">
        <ele>152</ele>
        <time>2016-05-12T12:51:18Z</time>
      </trkpt>
      <trkpt lat="43.34362" lon="5.21883">
        <ele>152</ele>
        <time>2016-05-12T12:51:19Z</time>
      </trkpt>
      <trkpt lat="43.34361" lon="5.21882">
        <ele>152</ele>
        <time>2016-05-12T12:51:20Z</time>
      </trkpt>
      <trkpt lat="43.3436" lon="5.21881">
        <ele>152</ele>
        <time>2016-05-12T12:51:21Z</time>
      </trkpt>
      <trkpt lat="43.34358" lon="5.21879">
        <ele>152</ele>
        <time>2016-05-12T12:51:23Z</time>
      </trkpt>
      <trkpt lat="43.34356" lon="5.21877">
        <ele>152</ele>
        <time>2016-05-12T12:51:25Z</time>
      </trkpt>
      <trkpt lat="43.34354" lon="5.21875">
        <ele>152</ele>
        <time>2016-05-12T12:51:27Z</time>
      </trkpt>
      <trkpt lat="43.34354" lon="5.21873">
        <ele>152</ele>
        <time>2016-05-12T12:51:28Z</time>
      </trkpt>
      <trkpt lat="43.34352" lon="5.21871">
        <ele>152</ele>
        <time>2016-05-12T12:51:30Z</time>
      </trkpt>
      <trkpt lat="43.34352" lon="5.2187">
        <ele>152</ele>
        <time>2016-05-12T12:51:31Z</time>
      </trkpt>
      <trkpt lat="43.34351" lon="5.21867">
        <ele>152</ele>
        <time>2016-05-12T12:51:33Z</time>
      </trkpt>
      <trkpt lat="43.3435" lon="5.21865">
        <ele>152</ele>
        <time>2016-05-12T12:51:34Z</time>
      </trkpt>
      <trkpt lat="43.34349" lon="5.21863">
        <ele>152</ele>
        <time>2016-05-12T12:51:35Z</time>
      </trkpt>
      <trkpt lat="43.34349" lon="5.21861">
        <ele>152</ele>
        <time>2016-05-12T12:51:36Z</time>
      </trkpt>
      <trkpt lat="43.34349" lon="5.21859">
        <ele>152</ele>
        <time>2016-05-12T12:51:37Z</time>
      </trkpt>
      <trkpt lat="43.34348" lon="5.21858">
        <ele>152</ele>
        <time>2016-05-12T12:51:38Z</time>
      </trkpt>
      <trkpt lat="43.34348" lon="5.21856">
        <ele>152</ele>
        <time>2016-05-12T12:51:39Z</time>
      </trkpt>
      <trkpt lat="43.34347" lon="5.21854">
        <ele>152</ele>
        <time>2016-05-12T12:51:40Z</time>
      </trkpt>
      <trkpt lat="43.34347" lon="5.21852">
        <ele>152</ele>
        <time>2016-05-12T12:51:41Z</time>
      </trkpt>
      <trkpt lat="43.34346" lon="5.21851">
        <ele>152</ele>
        <time>2016-05-12T12:51:42Z</time>
      </trkpt>
      <trkpt lat="43.34345" lon="5.21849">
        <ele>152</ele>
        <time>2016-05-12T12:51:43Z</time>
      </trkpt>
      <trkpt lat="43.34344" lon="5.21847">
        <ele>152</ele>
        <time>2016-05-12T12:51:44Z</time>
      </trkpt>
      <trkpt lat="43.34343" lon="5.21845">
        <ele>152</ele>
        <time>2016-05-12T12:51:46Z</time>
      </trkpt>
      <trkpt lat="43.34341" lon="5.21843">
        <ele>152</ele>
        <time>2016-05-12T12:51:48Z</time>
      </trkpt>
      <trkpt lat="43.3434" lon="5.21841">
        <ele>152</ele>
        <time>2016-05-12T12:51:49Z</time>
      </trkpt>
      <trkpt lat="43.34338" lon="5.21839">
        <ele>152</ele>
        <time>2016-05-12T12:51:51Z</time>
      </trkpt>
      <trkpt lat="43.34336" lon="5.21836">
        <ele>152</ele>
        <time>2016-05-12T12:51:53Z</time>
      </trkpt>
      <trkpt lat="43.34334" lon="5.21833">
        <ele>152</ele>
        <time>2016-05-12T12:51:55Z</time>
      </trkpt>
      <trkpt lat="43.34333" lon="5.21831">
        <ele>152</ele>
        <time>2016-05-12T12:51:57Z</time>
      </trkpt>
      <trkpt lat="43.34331" lon="5.21829">
        <ele>152</ele>
        <time>2016-05-12T12:51:59Z</time>
      </trkpt>
      <trkpt lat="43.3433" lon="5.21827">
        <ele>152</ele>
        <time>2016-05-12T12:52:01Z</time>
      </trkpt>
      <trkpt lat="43.34328" lon="5.21825">
        <ele>152</ele>
        <time>2016-05-12T12:52:03Z</time>
      </trkpt>
      <trkpt lat="43.34327" lon="5.21823">
        <ele>152</ele>
        <time>2016-05-12T12:52:05Z</time>
      </trkpt>
      <trkpt lat="43.34325" lon="5.21822">
        <ele>152</ele>
        <time>2016-05-12T12:52:07Z</time>
      </trkpt>
      <trkpt lat="43.34324" lon="5.2182">
        <ele>152</ele>
        <time>2016-05-12T12:52:09Z</time>
      </trkpt>
      <trkpt lat="43.34322" lon="5.21818">
        <ele>152</ele>
        <time>2016-05-12T12:52:11Z</time>
      </trkpt>
      <trkpt lat="43.34321" lon="5.21817">
        <ele>152</ele>
        <time>2016-05-12T12:52:13Z</time>
      </trkpt>
      <trkpt lat="43.3432" lon="5.21814">
        <ele>152</ele>
        <time>2016-05-12T12:52:15Z</time>
      </trkpt>
      <trkpt lat="43.34319" lon="5.21813">
        <ele>152</ele>
        <time>2016-05-12T12:52:17Z</time>
      </trkpt>
      <trkpt lat="43.34317" lon="5.21811">
        <ele>152</ele>
        <time>2016-05-12T12:52:19Z</time>
      </trkpt>
      <trkpt lat="43.34316" lon="5.2181">
        <ele>152</ele>
        <time>2016-05-12T12:52:21Z</time>
      </trkpt>
      <trkpt lat="43.34314" lon="5.21808">
        <ele>151</ele>
        <time>2016-05-12T12:52:23Z</time>
      </trkpt>
      <trkpt lat="43.34313" lon="5.21805">
        <ele>151</ele>
        <time>2016-05-12T12:52:25Z</time>
      </trkpt>
      <trkpt lat="43.34312" lon="5.21803">
        <ele>150</ele>
        <time>2016-05-12T12:52:27Z</time>
      </trkpt>
      <trkpt lat="43.34311" lon="5.21801">
        <ele>149</ele>
        <time>2016-05-12T12:52:29Z</time>
      </trkpt>
      <trkpt lat="43.3431" lon="5.21799">
        <ele>148</ele>
        <time>2016-05-12T12:52:31Z</time>
      </trkpt>
      <trkpt lat="43.34309" lon="5.21797">
        <ele>148</ele>
        <time>2016-05-12T12:52:33Z</time>
      </trkpt>
      <trkpt lat="43.34308" lon="5.21796">
        <ele>147</ele>
        <time>2016-05-12T12:52:34Z</time>
      </trkpt>
      <trkpt lat="43.34307" lon="5.21794">
        <ele>147</ele>
        <time>2016-05-12T12:52:35Z</time>
      </trkpt>
      <trkpt lat="43.34306" lon="5.21792">
        <ele>146</ele>
        <time>2016-05-12T12:52:36Z</time>
      </trkpt>
      <trkpt lat="43.34305" lon="5.2179">
        <ele>146</ele>
        <time>2016-05-12T12:52:37Z</time>
      </trkpt>
      <trkpt lat="43.34305" lon="5.21788">
        <ele>145</ele>
        <time>2016-05-12T12:52:38Z</time>
      </trkpt>
      <trkpt lat="43.34304" lon="5.21785">
        <ele>145</ele>
        <time>2016-05-12T12:52:39Z</time>
      </trkpt>
      <trkpt lat="43.34304" lon="5.21783">
        <ele>144</ele>
        <time>2016-05-12T12:52:40Z</time>
      </trkpt>
      <trkpt lat="43.34304" lon="5.2178">
        <ele>144</ele>
        <time>2016-05-12T12:52:41Z</time>
      </trkpt>
      <trkpt lat="43.34305" lon="5.21778">
        <ele>144</ele>
        <time>2016-05-12T12:52:42Z</time>
      </trkpt>
      <trkpt lat="43.34306" lon="5.21776">
        <ele>143</ele>
        <time>2016-05-12T12:52:43Z</time>
      </trkpt>
      <trkpt lat="43.34307" lon="5.21774">
        <ele>143</ele>
        <time>2016-05-12T12:52:44Z</time>
      </trkpt>
      <trkpt lat="43.34308" lon="5.21773">
        <ele>143</ele>
        <time>2016-05-12T12:52:45Z</time>
      </trkpt>
      <trkpt lat="43.34309" lon="5.21771">
        <ele>143</ele>
        <time>2016-05-12T12:52:46Z</time>
      </trkpt>
      <trkpt lat="43.3431" lon="5.2177">
        <ele>143</ele>
        <time>2016-05-12T12:52:47Z</time>
      </trkpt>
      <trkpt lat="43.34311" lon="5.21768">
        <ele>143</ele>
        <time>2016-05-12T12:52:48Z</time>
      </trkpt>
      <trkpt lat="43.34312" lon="5.21767">
        <ele>142</ele>
        <time>2016-05-12T12:52:49Z</time>
      </trkpt>
      <trkpt lat="43.34314" lon="5.21764">
        <ele>142</ele>
        <time>2016-05-12T12:52:51Z</time>
      </trkpt>
      <trkpt lat="43.34315" lon="5.21761">
        <ele>142</ele>
        <time>2016-05-12T12:52:53Z</time>
      </trkpt>
      <trkpt lat="43.34316" lon="5.2176">
        <ele>142</ele>
        <time>2016-05-12T12:52:54Z</time>
      </trkpt>
      <trkpt lat="43.34316" lon="5.21758">
        <ele>141</ele>
        <time>2016-05-12T12:52:55Z</time>
      </trkpt>
      <trkpt lat="43.34317" lon="5.21756">
        <ele>141</ele>
        <time>2016-05-12T12:52:57Z</time>
      </trkpt>
      <trkpt lat="43.34317" lon="5.21754">
        <ele>141</ele>
        <time>2016-05-12T12:52:58Z</time>
      </trkpt>
      <trkpt lat="43.34318" lon="5.21752">
        <ele>141</ele>
        <time>2016-05-12T12:53:00Z</time>
      </trkpt>
      <trkpt lat="43.34318" lon="5.2175">
        <ele>140</ele>
        <time>2016-05-12T12:53:24Z</time>
      </trkpt>
      <trkpt lat="43.34318" lon="5.21748">
        <ele>140</ele>
        <time>2016-05-12T12:53:26Z</time>
      </trkpt>
      <trkpt lat="43.34318" lon="5.21745">
        <ele>140</ele>
        <time>2016-05-12T12:53:28Z</time>
      </trkpt>
      <trkpt lat="43.34318" lon="5.21743">
        <ele>140</ele>
        <time>2016-05-12T12:53:29Z</time>
      </trkpt>
      <trkpt lat="43.34318" lon="5.21742">
        <ele>140</ele>
        <time>2016-05-12T12:53:30Z</time>
      </trkpt>
      <trkpt lat="43.34318" lon="5.2174">
        <ele>140</ele>
        <time>2016-05-12T12:53:31Z</time>
      </trkpt>
      <trkpt lat="43.34318" lon="5.21739">
        <ele>140</ele>
        <time>2016-05-12T12:53:32Z</time>
      </trkpt>
      <trkpt lat="43.34318" lon="5.21737">
        <ele>140</ele>
        <time>2016-05-12T12:53:33Z</time>
      </trkpt>
      <trkpt lat="43.34318" lon="5.21736">
        <ele>140</ele>
        <time>2016-05-12T12:53:34Z</time>
      </trkpt>
      <trkpt lat="43.34318" lon="5.21734">
        <ele>140</ele>
        <time>2016-05-12T12:53:35Z</time>
      </trkpt>
      <trkpt lat="43.34318" lon="5.21732">
        <ele>140</ele>
        <time>2016-05-12T12:53:36Z</time>
      </trkpt>
      <trkpt lat="43.34318" lon="5.21731">
        <ele>140</ele>
        <time>2016-05-12T12:53:37Z</time>
      </trkpt>
      <trkpt lat="43.34318" lon="5.21729">
        <ele>140</ele>
        <time>2016-05-12T12:53:38Z</time>
      </trkpt>
      <trkpt lat="43.34318" lon="5.21727">
        <ele>140</ele>
        <time>2016-05-12T12:53:39Z</time>
      </trkpt>
      <trkpt lat="43.34318" lon="5.21726">
        <ele>139</ele>
        <time>2016-05-12T12:53:40Z</time>
      </trkpt>
      <trkpt lat="43.34318" lon="5.21724">
        <ele>139</ele>
        <time>2016-05-12T12:53:41Z</time>
      </trkpt>
      <trkpt lat="43.34318" lon="5.21722">
        <ele>139</ele>
        <time>2016-05-12T12:53:42Z</time>
      </trkpt>
      <trkpt lat="43.34318" lon="5.2172">
        <ele>139</ele>
        <time>2016-05-12T12:53:43Z</time>
      </trkpt>
      <trkpt lat="43.34319" lon="5.21718">
        <ele>139</ele>
        <time>2016-05-12T12:53:44Z</time>
      </trkpt>
      <trkpt lat="43.34319" lon="5.21716">
        <ele>139</ele>
        <time>2016-05-12T12:53:45Z</time>
      </trkpt>
      <trkpt lat="43.34319" lon="5.21714">
        <ele>138</ele>
        <time>2016-05-12T12:53:46Z</time>
      </trkpt>
      <trkpt lat="43.34319" lon="5.21712">
        <ele>138</ele>
        <time>2016-05-12T12:53:47Z</time>
      </trkpt>
      <trkpt lat="43.3432" lon="5.2171">
        <ele>137</ele>
        <time>2016-05-12T12:53:48Z</time>
      </trkpt>
      <trkpt lat="43.3432" lon="5.21708">
        <ele>137</ele>
        <time>2016-05-12T12:53:49Z</time>
      </trkpt>
      <trkpt lat="43.3432" lon="5.21706">
        <ele>137</ele>
        <time>2016-05-12T12:53:50Z</time>
      </trkpt>
      <trkpt lat="43.3432" lon="5.21704">
        <ele>136</ele>
        <time>2016-05-12T12:53:51Z</time>
      </trkpt>
      <trkpt lat="43.3432" lon="5.21702">
        <ele>136</ele>
        <time>2016-05-12T12:53:52Z</time>
      </trkpt>
      <trkpt lat="43.34321" lon="5.217">
        <ele>136</ele>
        <time>2016-05-12T12:53:53Z</time>
      </trkpt>
      <trkpt lat="43.34321" lon="5.21698">
        <ele>135</ele>
        <time>2016-05-12T12:53:54Z</time>
      </trkpt>
      <trkpt lat="43.34322" lon="5.21696">
        <ele>135</ele>
        <time>2016-05-12T12:53:55Z</time>
      </trkpt>
      <trkpt lat="43.34322" lon="5.21694">
        <ele>135</ele>
        <time>2016-05-12T12:53:56Z</time>
      </trkpt>
      <trkpt lat="43.34323" lon="5.21693">
        <ele>135</ele>
        <time>2016-05-12T12:53:57Z</time>
      </trkpt>
      <trkpt lat="43.34324" lon="5.21691">
        <ele>135</ele>
        <time>2016-05-12T12:53:58Z</time>
      </trkpt>
      <trkpt lat="43.34325" lon="5.21689">
        <ele>135</ele>
        <time>2016-05-12T12:53:59Z</time>
      </trkpt>
      <trkpt lat="43.34325" lon="5.21688">
        <ele>135</ele>
        <time>2016-05-12T12:54:00Z</time>
      </trkpt>
      <trkpt lat="43.34326" lon="5.21686">
        <ele>135</ele>
        <time>2016-05-12T12:54:01Z</time>
      </trkpt>
      <trkpt lat="43.34328" lon="5.21684">
        <ele>135</ele>
        <time>2016-05-12T12:54:03Z</time>
      </trkpt>
      <trkpt lat="43.3433" lon="5.21683">
        <ele>135</ele>
        <time>2016-05-12T12:54:05Z</time>
      </trkpt>
      <trkpt lat="43.34331" lon="5.21681">
        <ele>135</ele>
        <time>2016-05-12T12:54:07Z</time>
      </trkpt>
      <trkpt lat="43.34333" lon="5.2168">
        <ele>135</ele>
        <time>2016-05-12T12:54:09Z</time>
      </trkpt>
      <trkpt lat="43.34334" lon="5.21678">
        <ele>135</ele>
        <time>2016-05-12T12:54:11Z</time>
      </trkpt>
      <trkpt lat="43.34335" lon="5.21677">
        <ele>134</ele>
        <time>2016-05-12T12:54:13Z</time>
      </trkpt>
      <trkpt lat="43.34337" lon="5.21675">
        <ele>134</ele>
        <time>2016-05-12T12:54:15Z</time>
      </trkpt>
      <trkpt lat="43.34338" lon="5.21674">
        <ele>134</ele>
        <time>2016-05-12T12:54:17Z</time>
      </trkpt>
      <trkpt lat="43.34339" lon="5.21672">
        <ele>133</ele>
        <time>2016-05-12T12:54:19Z</time>
      </trkpt>
      <trkpt lat="43.34341" lon="5.2167">
        <ele>133</ele>
        <time>2016-05-12T12:54:21Z</time>
      </trkpt>
      <trkpt lat="43.34341" lon="5.21668">
        <ele>133</ele>
        <time>2016-05-12T12:54:22Z</time>
      </trkpt>
      <trkpt lat="43.34341" lon="5.21667">
        <ele>132</ele>
        <time>2016-05-12T12:54:23Z</time>
      </trkpt>
      <trkpt lat="43.34342" lon="5.21665">
        <ele>132</ele>
        <time>2016-05-12T12:54:24Z</time>
      </trkpt>
      <trkpt lat="43.34343" lon="5.21663">
        <ele>132</ele>
        <time>2016-05-12T12:54:25Z</time>
      </trkpt>
      <trkpt lat="43.34343" lon="5.21662">
        <ele>131</ele>
        <time>2016-05-12T12:54:26Z</time>
      </trkpt>
      <trkpt lat="43.34344" lon="5.2166">
        <ele>131</ele>
        <time>2016-05-12T12:54:27Z</time>
      </trkpt>
      <trkpt lat="43.34345" lon="5.21658">
        <ele>131</ele>
        <time>2016-05-12T12:54:28Z</time>
      </trkpt>
      <trkpt lat="43.34346" lon="5.21656">
        <ele>130</ele>
        <time>2016-05-12T12:54:29Z</time>
      </trkpt>
      <trkpt lat="43.34346" lon="5.21655">
        <ele>130</ele>
        <time>2016-05-12T12:54:30Z</time>
      </trkpt>
      <trkpt lat="43.34347" lon="5.21653">
        <ele>130</ele>
        <time>2016-05-12T12:54:31Z</time>
      </trkpt>
      <trkpt lat="43.34347" lon="5.21651">
        <ele>130</ele>
        <time>2016-05-12T12:54:32Z</time>
      </trkpt>
      <trkpt lat="43.34348" lon="5.21649">
        <ele>130</ele>
        <time>2016-05-12T12:54:33Z</time>
      </trkpt>
      <trkpt lat="43.34348" lon="5.21648">
        <ele>130</ele>
        <time>2016-05-12T12:54:34Z</time>
      </trkpt>
      <trkpt lat="43.34349" lon="5.21646">
        <ele>130</ele>
        <time>2016-05-12T12:54:35Z</time>
      </trkpt>
      <trkpt lat="43.34349" lon="5.21644">
        <ele>130</ele>
        <time>2016-05-12T12:54:36Z</time>
      </trkpt>
      <trkpt lat="43.3435" lon="5.21642">
        <ele>130</ele>
        <time>2016-05-12T12:54:37Z</time>
      </trkpt>
      <trkpt lat="43.34351" lon="5.2164">
        <ele>130</ele>
        <time>2016-05-12T12:54:38Z</time>
      </trkpt>
      <trkpt lat="43.34351" lon="5.21639">
        <ele>130</ele>
        <time>2016-05-12T12:54:39Z</time>
      </trkpt>
      <trkpt lat="43.34353" lon="5.21637">
        <ele>130</ele>
        <time>2016-05-12T12:54:40Z</time>
      </trkpt>
      <trkpt lat="43.34354" lon="5.21636">
        <ele>130</ele>
        <time>2016-05-12T12:54:41Z</time>
      </trkpt>
      <trkpt lat="43.34355" lon="5.21634">
        <ele>130</ele>
        <time>2016-05-12T12:54:42Z</time>
      </trkpt>
      <trkpt lat="43.34356" lon="5.21632">
        <ele>130</ele>
        <time>2016-05-12T12:54:43Z</time>
      </trkpt>
      <trkpt lat="43.34356" lon="5.21631">
        <ele>130</ele>
        <time>2016-05-12T12:54:44Z</time>
      </trkpt>
      <trkpt lat="43.34359" lon="5.21629">
        <ele>130</ele>
        <time>2016-05-12T12:54:46Z</time>
      </trkpt>
      <trkpt lat="43.3436" lon="5.21628">
        <ele>130</ele>
        <time>2016-05-12T12:54:47Z</time>
      </trkpt>
      <trkpt lat="43.34361" lon="5.21626">
        <ele>130</ele>
        <time>2016-05-12T12:54:48Z</time>
      </trkpt>
      <trkpt lat="43.34363" lon="5.21624">
        <ele>130</ele>
        <time>2016-05-12T12:54:50Z</time>
      </trkpt>
      <trkpt lat="43.34364" lon="5.21623">
        <ele>130</ele>
        <time>2016-05-12T12:54:51Z</time>
      </trkpt>
      <trkpt lat="43.34366" lon="5.2162">
        <ele>130</ele>
        <time>2016-05-12T12:54:53Z</time>
      </trkpt>
      <trkpt lat="43.34367" lon="5.21619">
        <ele>130</ele>
        <time>2016-05-12T12:54:54Z</time>
      </trkpt>
      <trkpt lat="43.34369" lon="5.21618">
        <ele>130</ele>
        <time>2016-05-12T12:54:55Z</time>
      </trkpt>
      <trkpt lat="43.3437" lon="5.21616">
        <ele>130</ele>
        <time>2016-05-12T12:54:56Z</time>
      </trkpt>
      <trkpt lat="43.34371" lon="5.21615">
        <ele>130</ele>
        <time>2016-05-12T12:54:57Z</time>
      </trkpt>
      <trkpt lat="43.34372" lon="5.21613">
        <ele>130</ele>
        <time>2016-05-12T12:54:58Z</time>
      </trkpt>
      <trkpt lat="43.34373" lon="5.21612">
        <ele>130</ele>
        <time>2016-05-12T12:54:59Z</time>
      </trkpt>
      <trkpt lat="43.34374" lon="5.2161">
        <ele>130</ele>
        <time>2016-05-12T12:55:00Z</time>
      </trkpt>
      <trkpt lat="43.34375" lon="5.21609">
        <ele>130</ele>
        <time>2016-05-12T12:55:01Z</time>
      </trkpt>
      <trkpt lat="43.34376" lon="5.21607">
        <ele>130</ele>
        <time>2016-05-12T12:55:02Z</time>
      </trkpt>
      <trkpt lat="43.34378" lon="5.21606">
        <ele>130</ele>
        <time>2016-05-12T12:55:03Z</time>
      </trkpt>
      <trkpt lat="43.34379" lon="5.21604">
        <ele>129</ele>
        <time>2016-05-12T12:55:04Z</time>
      </trkpt>
      <trkpt lat="43.3438" lon="5.21603">
        <ele>129</ele>
        <time>2016-05-12T12:55:05Z</time>
      </trkpt>
      <trkpt lat="43.34382" lon="5.21603">
        <ele>129</ele>
        <time>2016-05-12T12:55:06Z</time>
      </trkpt>
      <trkpt lat="43.34383" lon="5.21603">
        <ele>129</ele>
        <time>2016-05-12T12:55:07Z</time>
      </trkpt>
      <trkpt lat="43.34385" lon="5.21603">
        <ele>129</ele>
        <time>2016-05-12T12:55:08Z</time>
      </trkpt>
      <trkpt lat="43.34386" lon="5.21603">
        <ele>129</ele>
        <time>2016-05-12T12:55:09Z</time>
      </trkpt>
      <trkpt lat="43.34388" lon="5.21604">
        <ele>129</ele>
        <time>2016-05-12T12:55:11Z</time>
      </trkpt>
      <trkpt lat="43.3439" lon="5.21605">
        <ele>129</ele>
        <time>2016-05-12T12:55:12Z</time>
      </trkpt>
      <trkpt lat="43.34392" lon="5.21604">
        <ele>128</ele>
        <time>2016-05-12T12:55:13Z</time>
      </trkpt>
      <trkpt lat="43.34393" lon="5.21604">
        <ele>128</ele>
        <time>2016-05-12T12:55:14Z</time>
      </trkpt>
      <trkpt lat="43.34395" lon="5.21603">
        <ele>128</ele>
        <time>2016-05-12T12:55:16Z</time>
      </trkpt>
      <trkpt lat="43.34397" lon="5.21601">
        <ele>128</ele>
        <time>2016-05-12T12:55:18Z</time>
      </trkpt>
      <trkpt lat="43.34398" lon="5.216">
        <ele>127</ele>
        <time>2016-05-12T12:55:19Z</time>
      </trkpt>
      <trkpt lat="43.34399" lon="5.21598">
        <ele>127</ele>
        <time>2016-05-12T12:55:20Z</time>
      </trkpt>
      <trkpt lat="43.344" lon="5.21597">
        <ele>127</ele>
        <time>2016-05-12T12:55:21Z</time>
      </trkpt>
      <trkpt lat="43.34401" lon="5.21595">
        <ele>126</ele>
        <time>2016-05-12T12:55:22Z</time>
      </trkpt>
      <trkpt lat="43.34402" lon="5.21594">
        <ele>126</ele>
        <time>2016-05-12T12:55:23Z</time>
      </trkpt>
      <trkpt lat="43.34403" lon="5.21593">
        <ele>126</ele>
        <time>2016-05-12T12:55:24Z</time>
      </trkpt>
      <trkpt lat="43.34404" lon="5.21591">
        <ele>125</ele>
        <time>2016-05-12T12:55:25Z</time>
      </trkpt>
      <trkpt lat="43.34406" lon="5.2159">
        <ele>125</ele>
        <time>2016-05-12T12:55:26Z</time>
      </trkpt>
      <trkpt lat="43.34407" lon="5.21588">
        <ele>125</ele>
        <time>2016-05-12T12:55:27Z</time>
      </trkpt>
      <trkpt lat="43.34408" lon="5.21587">
        <ele>125</ele>
        <time>2016-05-12T12:55:28Z</time>
      </trkpt>
      <trkpt lat="43.3441" lon="5.21586">
        <ele>125</ele>
        <time>2016-05-12T12:55:29Z</time>
      </trkpt>
      <trkpt lat="43.34411" lon="5.21584">
        <ele>125</ele>
        <time>2016-05-12T12:55:30Z</time>
      </trkpt>
      <trkpt lat="43.34412" lon="5.21583">
        <ele>125</ele>
        <time>2016-05-12T12:55:31Z</time>
      </trkpt>
      <trkpt lat="43.34414" lon="5.21582">
        <ele>125</ele>
        <time>2016-05-12T12:55:32Z</time>
      </trkpt>
      <trkpt lat="43.34416" lon="5.2158">
        <ele>125</ele>
        <time>2016-05-12T12:55:34Z</time>
      </trkpt>
      <trkpt lat="43.34417" lon="5.21578">
        <ele>125</ele>
        <time>2016-05-12T12:55:35Z</time>
      </trkpt>
      <trkpt lat="43.34418" lon="5.21576">
        <ele>125</ele>
        <time>2016-05-12T12:55:37Z</time>
      </trkpt>
      <trkpt lat="43.34417" lon="5.21574">
        <ele>125</ele>
        <time>2016-05-12T12:55:39Z</time>
      </trkpt>
      <trkpt lat="43.34415" lon="5.21572">
        <ele>125</ele>
        <time>2016-05-12T12:55:41Z</time>
      </trkpt>
      <trkpt lat="43.34414" lon="5.21571">
        <ele>125</ele>
        <time>2016-05-12T12:55:42Z</time>
      </trkpt>
      <trkpt lat="43.34413" lon="5.21569">
        <ele>125</ele>
        <time>2016-05-12T12:55:43Z</time>
      </trkpt>
      <trkpt lat="43.34412" lon="5.21568">
        <ele>125</ele>
        <time>2016-05-12T12:55:44Z</time>
      </trkpt>
      <trkpt lat="43.3441" lon="5.21566">
        <ele>125</ele>
        <time>2016-05-12T12:55:45Z</time>
      </trkpt>
      <trkpt lat="43.34409" lon="5.21565">
        <ele>125</ele>
        <time>2016-05-12T12:55:46Z</time>
      </trkpt>
      <trkpt lat="43.34408" lon="5.21564">
        <ele>125</ele>
        <time>2016-05-12T12:55:47Z</time>
      </trkpt>
      <trkpt lat="43.34407" lon="5.21563">
        <ele>125</ele>
        <time>2016-05-12T12:55:48Z</time>
      </trkpt>
      <trkpt lat="43.34405" lon="5.21562">
        <ele>125</ele>
        <time>2016-05-12T12:55:49Z</time>
      </trkpt>
      <trkpt lat="43.34404" lon="5.2156">
        <ele>125</ele>
        <time>2016-05-12T12:55:50Z</time>
      </trkpt>
      <trkpt lat="43.34404" lon="5.21558">
        <ele>125</ele>
        <time>2016-05-12T12:55:52Z</time>
      </trkpt>
      <trkpt lat="43.34403" lon="5.21555">
        <ele>125</ele>
        <time>2016-05-12T12:55:54Z</time>
      </trkpt>
      <trkpt lat="43.34401" lon="5.21554">
        <ele>125</ele>
        <time>2016-05-12T12:55:56Z</time>
      </trkpt>
      <trkpt lat="43.34399" lon="5.21552">
        <ele>125</ele>
        <time>2016-05-12T12:55:58Z</time>
      </trkpt>
      <trkpt lat="43.34398" lon="5.2155">
        <ele>125</ele>
        <time>2016-05-12T12:56:00Z</time>
      </trkpt>
      <trkpt lat="43.34396" lon="5.21547">
        <ele>125</ele>
        <time>2016-05-12T12:56:02Z</time>
      </trkpt>
      <trkpt lat="43.34397" lon="5.21546">
        <ele>125</ele>
        <time>2016-05-12T12:56:03Z</time>
      </trkpt>
      <trkpt lat="43.34397" lon="5.21544">
        <ele>125</ele>
        <time>2016-05-12T12:56:04Z</time>
      </trkpt>
      <trkpt lat="43.34398" lon="5.21542">
        <ele>125</ele>
        <time>2016-05-12T12:56:06Z</time>
      </trkpt>
      <trkpt lat="43.34398" lon="5.2154">
        <ele>125</ele>
        <time>2016-05-12T12:56:08Z</time>
      </trkpt>
      <trkpt lat="43.34398" lon="5.21538">
        <ele>125</ele>
        <time>2016-05-12T12:56:09Z</time>
      </trkpt>
      <trkpt lat="43.34398" lon="5.21536">
        <ele>125</ele>
        <time>2016-05-12T12:56:10Z</time>
      </trkpt>
      <trkpt lat="43.34398" lon="5.21535">
        <ele>125</ele>
        <time>2016-05-12T12:56:11Z</time>
      </trkpt>
      <trkpt lat="43.34398" lon="5.21532">
        <ele>125</ele>
        <time>2016-05-12T12:56:13Z</time>
      </trkpt>
      <trkpt lat="43.34399" lon="5.2153">
        <ele>125</ele>
        <time>2016-05-12T12:56:15Z</time>
      </trkpt>
      <trkpt lat="43.34399" lon="5.21528">
        <ele>125</ele>
        <time>2016-05-12T12:56:16Z</time>
      </trkpt>
      <trkpt lat="43.344" lon="5.21526">
        <ele>125</ele>
        <time>2016-05-12T12:56:17Z</time>
      </trkpt>
      <trkpt lat="43.344" lon="5.21524">
        <ele>124</ele>
        <time>2016-05-12T12:56:18Z</time>
      </trkpt>
      <trkpt lat="43.344" lon="5.21522">
        <ele>123</ele>
        <time>2016-05-12T12:56:19Z</time>
      </trkpt>
      <trkpt lat="43.344" lon="5.2152">
        <ele>123</ele>
        <time>2016-05-12T12:56:20Z</time>
      </trkpt>
      <trkpt lat="43.344" lon="5.21518">
        <ele>122</ele>
        <time>2016-05-12T12:56:21Z</time>
      </trkpt>
      <trkpt lat="43.34401" lon="5.21516">
        <ele>122</ele>
        <time>2016-05-12T12:56:22Z</time>
      </trkpt>
      <trkpt lat="43.34402" lon="5.21514">
        <ele>121</ele>
        <time>2016-05-12T12:56:23Z</time>
      </trkpt>
      <trkpt lat="43.34403" lon="5.21512">
        <ele>121</ele>
        <time>2016-05-12T12:56:24Z</time>
      </trkpt>
      <trkpt lat="43.34404" lon="5.2151">
        <ele>120</ele>
        <time>2016-05-12T12:56:25Z</time>
      </trkpt>
      <trkpt lat="43.34405" lon="5.21508">
        <ele>120</ele>
        <time>2016-05-12T12:56:27Z</time>
      </trkpt>
      <trkpt lat="43.34406" lon="5.21506">
        <ele>119</ele>
        <time>2016-05-12T12:56:27Z</time>
      </trkpt>
      <trkpt lat="43.34407" lon="5.21504">
        <ele>119</ele>
        <time>2016-05-12T12:56:28Z</time>
      </trkpt>
      <trkpt lat="43.34407" lon="5.21503">
        <ele>119</ele>
        <time>2016-05-12T12:56:29Z</time>
      </trkpt>
      <trkpt lat="43.34408" lon="5.21501">
        <ele>119</ele>
        <time>2016-05-12T12:56:30Z</time>
      </trkpt>
      <trkpt lat="43.34409" lon="5.21499">
        <ele>119</ele>
        <time>2016-05-12T12:56:31Z</time>
      </trkpt>
      <trkpt lat="43.34409" lon="5.21498">
        <ele>119</ele>
        <time>2016-05-12T12:56:32Z</time>
      </trkpt>
      <trkpt lat="43.3441" lon="5.21496">
        <ele>119</ele>
        <time>2016-05-12T12:56:33Z</time>
      </trkpt>
      <trkpt lat="43.3441" lon="5.21494">
        <ele>119</ele>
        <time>2016-05-12T12:56:34Z</time>
      </trkpt>
      <trkpt lat="43.3441" lon="5.21492">
        <ele>119</ele>
        <time>2016-05-12T12:56:35Z</time>
      </trkpt>
      <trkpt lat="43.3441" lon="5.2149">
        <ele>119</ele>
        <time>2016-05-12T12:56:36Z</time>
      </trkpt>
      <trkpt lat="43.3441" lon="5.21488">
        <ele>119</ele>
        <time>2016-05-12T12:56:37Z</time>
      </trkpt>
      <trkpt lat="43.34409" lon="5.21486">
        <ele>119</ele>
        <time>2016-05-12T12:56:38Z</time>
      </trkpt>
      <trkpt lat="43.34409" lon="5.21484">
        <ele>119</ele>
        <time>2016-05-12T12:56:39Z</time>
      </trkpt>
      <trkpt lat="43.34409" lon="5.21482">
        <ele>119</ele>
        <time>2016-05-12T12:56:40Z</time>
      </trkpt>
      <trkpt lat="43.34409" lon="5.2148">
        <ele>118</ele>
        <time>2016-05-12T12:56:41Z</time>
      </trkpt>
      <trkpt lat="43.34409" lon="5.21478">
        <ele>118</ele>
        <time>2016-05-12T12:56:42Z</time>
      </trkpt>
      <trkpt lat="43.34409" lon="5.21476">
        <ele>118</ele>
        <time>2016-05-12T12:56:43Z</time>
      </trkpt>
      <trkpt lat="43.34409" lon="5.21474">
        <ele>118</ele>
        <time>2016-05-12T12:56:44Z</time>
      </trkpt>
      <trkpt lat="43.3441" lon="5.21472">
        <ele>118</ele>
        <time>2016-05-12T12:56:45Z</time>
      </trkpt>
      <trkpt lat="43.3441" lon="5.2147">
        <ele>118</ele>
        <time>2016-05-12T12:56:46Z</time>
      </trkpt>
      <trkpt lat="43.34411" lon="5.21468">
        <ele>118</ele>
        <time>2016-05-12T12:56:47Z</time>
      </trkpt>
      <trkpt lat="43.34412" lon="5.21466">
        <ele>118</ele>
        <time>2016-05-12T12:56:48Z</time>
      </trkpt>
      <trkpt lat="43.34412" lon="5.21464">
        <ele>118</ele>
        <time>2016-05-12T12:56:49Z</time>
      </trkpt>
      <trkpt lat="43.34412" lon="5.21463">
        <ele>118</ele>
        <time>2016-05-12T12:56:50Z</time>
      </trkpt>
      <trkpt lat="43.34412" lon="5.21461">
        <ele>118</ele>
        <time>2016-05-12T12:56:51Z</time>
      </trkpt>
      <trkpt lat="43.34412" lon="5.21459">
        <ele>118</ele>
        <time>2016-05-12T12:56:52Z</time>
      </trkpt>
      <trkpt lat="43.34412" lon="5.21457">
        <ele>118</ele>
        <time>2016-05-12T12:56:53Z</time>
      </trkpt>
      <trkpt lat="43.34412" lon="5.21456">
        <ele>118</ele>
        <time>2016-05-12T12:56:54Z</time>
      </trkpt>
      <trkpt lat="43.34411" lon="5.21454">
        <ele>118</ele>
        <time>2016-05-12T12:56:55Z</time>
      </trkpt>
      <trkpt lat="43.3441" lon="5.21452">
        <ele>118</ele>
        <time>2016-05-12T12:56:57Z</time>
      </trkpt>
      <trkpt lat="43.34409" lon="5.21451">
        <ele>118</ele>
        <time>2016-05-12T12:56:58Z</time>
      </trkpt>
      <trkpt lat="43.34407" lon="5.2145">
        <ele>118</ele>
        <time>2016-05-12T12:56:59Z</time>
      </trkpt>
      <trkpt lat="43.34405" lon="5.21448">
        <ele>118</ele>
        <time>2016-05-12T12:57:01Z</time>
      </trkpt>
      <trkpt lat="43.34404" lon="5.21446">
        <ele>118</ele>
        <time>2016-05-12T12:57:02Z</time>
      </trkpt>
      <trkpt lat="43.34403" lon="5.21445">
        <ele>118</ele>
        <time>2016-05-12T12:57:03Z</time>
      </trkpt>
      <trkpt lat="43.34401" lon="5.21443">
        <ele>118</ele>
        <time>2016-05-12T12:57:04Z</time>
      </trkpt>
      <trkpt lat="43.344" lon="5.21442">
        <ele>118</ele>
        <time>2016-05-12T12:57:05Z</time>
      </trkpt>
      <trkpt lat="43.34399" lon="5.21441">
        <ele>118</ele>
        <time>2016-05-12T12:57:06Z</time>
      </trkpt>
      <trkpt lat="43.34398" lon="5.2144">
        <ele>118</ele>
        <time>2016-05-12T12:57:07Z</time>
      </trkpt>
      <trkpt lat="43.34396" lon="5.21438">
        <ele>118</ele>
        <time>2016-05-12T12:57:08Z</time>
      </trkpt>
      <trkpt lat="43.34396" lon="5.21437">
        <ele>118</ele>
        <time>2016-05-12T12:57:09Z</time>
      </trkpt>
      <trkpt lat="43.34394" lon="5.21435">
        <ele>118</ele>
        <time>2016-05-12T12:57:10Z</time>
      </trkpt>
      <trkpt lat="43.34393" lon="5.21433">
        <ele>118</ele>
        <time>2016-05-12T12:57:11Z</time>
      </trkpt>
      <trkpt lat="43.34393" lon="5.21431">
        <ele>118</ele>
        <time>2016-05-12T12:57:12Z</time>
      </trkpt>
      <trkpt lat="43.34391" lon="5.2143">
        <ele>118</ele>
        <time>2016-05-12T12:57:13Z</time>
      </trkpt>
      <trkpt lat="43.34391" lon="5.21428">
        <ele>118</ele>
        <time>2016-05-12T12:57:14Z</time>
      </trkpt>
      <trkpt lat="43.3439" lon="5.21426">
        <ele>118</ele>
        <time>2016-05-12T12:57:15Z</time>
      </trkpt>
      <trkpt lat="43.34389" lon="5.21424">
        <ele>118</ele>
        <time>2016-05-12T12:57:16Z</time>
      </trkpt>
      <trkpt lat="43.34388" lon="5.21423">
        <ele>118</ele>
        <time>2016-05-12T12:57:17Z</time>
      </trkpt>
      <trkpt lat="43.34388" lon="5.21421">
        <ele>118</ele>
        <time>2016-05-12T12:57:18Z</time>
      </trkpt>
      <trkpt lat="43.34387" lon="5.21419">
        <ele>118</ele>
        <time>2016-05-12T12:57:19Z</time>
      </trkpt>
      <trkpt lat="43.34386" lon="5.21418">
        <ele>118</ele>
        <time>2016-05-12T12:57:20Z</time>
      </trkpt>
      <trkpt lat="43.34385" lon="5.21416">
        <ele>118</ele>
        <time>2016-05-12T12:57:21Z</time>
      </trkpt>
      <trkpt lat="43.34384" lon="5.21414">
        <ele>118</ele>
        <time>2016-05-12T12:57:22Z</time>
      </trkpt>
      <trkpt lat="43.34383" lon="5.21413">
        <ele>118</ele>
        <time>2016-05-12T12:57:23Z</time>
      </trkpt>
      <trkpt lat="43.34382" lon="5.21411">
        <ele>118</ele>
        <time>2016-05-12T12:57:24Z</time>
      </trkpt>
      <trkpt lat="43.34381" lon="5.21409">
        <ele>118</ele>
        <time>2016-05-12T12:57:25Z</time>
      </trkpt>
      <trkpt lat="43.3438" lon="5.21408">
        <ele>118</ele>
        <time>2016-05-12T12:57:26Z</time>
      </trkpt>
      <trkpt lat="43.3438" lon="5.21405">
        <ele>118</ele>
        <time>2016-05-12T12:57:27Z</time>
      </trkpt>
      <trkpt lat="43.3438" lon="5.21403">
        <ele>118</ele>
        <time>2016-05-12T12:57:28Z</time>
      </trkpt>
      <trkpt lat="43.34379" lon="5.21401">
        <ele>118</ele>
        <time>2016-05-12T12:57:29Z</time>
      </trkpt>
      <trkpt lat="43.34379" lon="5.21399">
        <ele>118</ele>
        <time>2016-05-12T12:57:30Z</time>
      </trkpt>
      <trkpt lat="43.34379" lon="5.21397">
        <ele>118</ele>
        <time>2016-05-12T12:57:31Z</time>
      </trkpt>
      <trkpt lat="43.34379" lon="5.21395">
        <ele>118</ele>
        <time>2016-05-12T12:57:32Z</time>
      </trkpt>
      <trkpt lat="43.34379" lon="5.21393">
        <ele>118</ele>
        <time>2016-05-12T12:57:33Z</time>
      </trkpt>
      <trkpt lat="43.34378" lon="5.21392">
        <ele>118</ele>
        <time>2016-05-12T12:57:34Z</time>
      </trkpt>
      <trkpt lat="43.34378" lon="5.2139">
        <ele>118</ele>
        <time>2016-05-12T12:57:35Z</time>
      </trkpt>
      <trkpt lat="43.34378" lon="5.21388">
        <ele>118</ele>
        <time>2016-05-12T12:57:36Z</time>
      </trkpt>
      <trkpt lat="43.34378" lon="5.21386">
        <ele>118</ele>
        <time>2016-05-12T12:57:37Z</time>
      </trkpt>
      <trkpt lat="43.34378" lon="5.21384">
        <ele>118</ele>
        <time>2016-05-12T12:57:38Z</time>
      </trkpt>
      <trkpt lat="43.34378" lon="5.21382">
        <ele>118</ele>
        <time>2016-05-12T12:57:39Z</time>
      </trkpt>
      <trkpt lat="43.34378" lon="5.2138">
        <ele>118</ele>
        <time>2016-05-12T12:57:40Z</time>
      </trkpt>
      <trkpt lat="43.34377" lon="5.21378">
        <ele>118</ele>
        <time>2016-05-12T12:57:41Z</time>
      </trkpt>
      <trkpt lat="43.34377" lon="5.21376">
        <ele>118</ele>
        <time>2016-05-12T12:57:42Z</time>
      </trkpt>
      <trkpt lat="43.34377" lon="5.21375">
        <ele>118</ele>
        <time>2016-05-12T12:57:43Z</time>
      </trkpt>
      <trkpt lat="43.34377" lon="5.21373">
        <ele>118</ele>
        <time>2016-05-12T12:57:44Z</time>
      </trkpt>
      <trkpt lat="43.34376" lon="5.21371">
        <ele>117</ele>
        <time>2016-05-12T12:57:45Z</time>
      </trkpt>
      <trkpt lat="43.34376" lon="5.21369">
        <ele>117</ele>
        <time>2016-05-12T12:57:46Z</time>
      </trkpt>
      <trkpt lat="43.34375" lon="5.21367">
        <ele>117</ele>
        <time>2016-05-12T12:57:47Z</time>
      </trkpt>
      <trkpt lat="43.34375" lon="5.21365">
        <ele>117</ele>
        <time>2016-05-12T12:57:48Z</time>
      </trkpt>
      <trkpt lat="43.34375" lon="5.21363">
        <ele>116</ele>
        <time>2016-05-12T12:57:49Z</time>
      </trkpt>
      <trkpt lat="43.34374" lon="5.21361">
        <ele>116</ele>
        <time>2016-05-12T12:57:50Z</time>
      </trkpt>
      <trkpt lat="43.34374" lon="5.21359">
        <ele>116</ele>
        <time>2016-05-12T12:57:51Z</time>
      </trkpt>
      <trkpt lat="43.34374" lon="5.21357">
        <ele>116</ele>
        <time>2016-05-12T12:57:52Z</time>
      </trkpt>
      <trkpt lat="43.34373" lon="5.21355">
        <ele>116</ele>
        <time>2016-05-12T12:57:53Z</time>
      </trkpt>
      <trkpt lat="43.34373" lon="5.21354">
        <ele>116</ele>
        <time>2016-05-12T12:57:54Z</time>
      </trkpt>
      <trkpt lat="43.34373" lon="5.21352">
        <ele>116</ele>
        <time>2016-05-12T12:57:55Z</time>
      </trkpt>
      <trkpt lat="43.34372" lon="5.2135">
        <ele>116</ele>
        <time>2016-05-12T12:57:56Z</time>
      </trkpt>
      <trkpt lat="43.34372" lon="5.21348">
        <ele>115</ele>
        <time>2016-05-12T12:57:57Z</time>
      </trkpt>
      <trkpt lat="43.34371" lon="5.21346">
        <ele>115</ele>
        <time>2016-05-12T12:57:58Z</time>
      </trkpt>
      <trkpt lat="43.3437" lon="5.21344">
        <ele>115</ele>
        <time>2016-05-12T12:57:59Z</time>
      </trkpt>
      <trkpt lat="43.3437" lon="5.21342">
        <ele>115</ele>
        <time>2016-05-12T12:58:00Z</time>
      </trkpt>
      <trkpt lat="43.34369" lon="5.2134">
        <ele>115</ele>
        <time>2016-05-12T12:58:01Z</time>
      </trkpt>
      <trkpt lat="43.34368" lon="5.21338">
        <ele>115</ele>
        <time>2016-05-12T12:58:02Z</time>
      </trkpt>
      <trkpt lat="43.34367" lon="5.21336">
        <ele>115</ele>
        <time>2016-05-12T12:58:03Z</time>
      </trkpt>
      <trkpt lat="43.34367" lon="5.21334">
        <ele>115</ele>
        <time>2016-05-12T12:58:04Z</time>
      </trkpt>
      <trkpt lat="43.34367" lon="5.21332">
        <ele>115</ele>
        <time>2016-05-12T12:58:05Z</time>
      </trkpt>
      <trkpt lat="43.34366" lon="5.2133">
        <ele>115</ele>
        <time>2016-05-12T12:58:06Z</time>
      </trkpt>
      <trkpt lat="43.34365" lon="5.21328">
        <ele>115</ele>
        <time>2016-05-12T12:58:07Z</time>
      </trkpt>
      <trkpt lat="43.34365" lon="5.21326">
        <ele>115</ele>
        <time>2016-05-12T12:58:08Z</time>
      </trkpt>
      <trkpt lat="43.34364" lon="5.21324">
        <ele>115</ele>
        <time>2016-05-12T12:58:09Z</time>
      </trkpt>
      <trkpt lat="43.34364" lon="5.21322">
        <ele>115</ele>
        <time>2016-05-12T12:58:10Z</time>
      </trkpt>
      <trkpt lat="43.34363" lon="5.2132">
        <ele>115</ele>
        <time>2016-05-12T12:58:11Z</time>
      </trkpt>
      <trkpt lat="43.34363" lon="5.21318">
        <ele>115</ele>
        <time>2016-05-12T12:58:12Z</time>
      </trkpt>
      <trkpt lat="43.34363" lon="5.21316">
        <ele>115</ele>
        <time>2016-05-12T12:58:13Z</time>
      </trkpt>
      <trkpt lat="43.34362" lon="5.21313">
        <ele>115</ele>
        <time>2016-05-12T12:58:14Z</time>
      </trkpt>
      <trkpt lat="43.34362" lon="5.21311">
        <ele>114</ele>
        <time>2016-05-12T12:58:15Z</time>
      </trkpt>
      <trkpt lat="43.34362" lon="5.21309">
        <ele>114</ele>
        <time>2016-05-12T12:58:16Z</time>
      </trkpt>
      <trkpt lat="43.34362" lon="5.21307">
        <ele>113</ele>
        <time>2016-05-12T12:58:17Z</time>
      </trkpt>
      <trkpt lat="43.34362" lon="5.21305">
        <ele>113</ele>
        <time>2016-05-12T12:58:18Z</time>
      </trkpt>
      <trkpt lat="43.34362" lon="5.21303">
        <ele>113</ele>
        <time>2016-05-12T12:58:19Z</time>
      </trkpt>
      <trkpt lat="43.34362" lon="5.21301">
        <ele>113</ele>
        <time>2016-05-12T12:58:20Z</time>
      </trkpt>
      <trkpt lat="43.34361" lon="5.21299">
        <ele>112</ele>
        <time>2016-05-12T12:58:21Z</time>
      </trkpt>
      <trkpt lat="43.34361" lon="5.21297">
        <ele>112</ele>
        <time>2016-05-12T12:58:22Z</time>
      </trkpt>
      <trkpt lat="43.34361" lon="5.21295">
        <ele>112</ele>
        <time>2016-05-12T12:58:23Z</time>
      </trkpt>
      <trkpt lat="43.34361" lon="5.21293">
        <ele>112</ele>
        <time>2016-05-12T12:58:24Z</time>
      </trkpt>
      <trkpt lat="43.34361" lon="5.21291">
        <ele>111</ele>
        <time>2016-05-12T12:58:25Z</time>
      </trkpt>
      <trkpt lat="43.34361" lon="5.2129">
        <ele>111</ele>
        <time>2016-05-12T12:58:26Z</time>
      </trkpt>
      <trkpt lat="43.34361" lon="5.21287">
        <ele>111</ele>
        <time>2016-05-12T12:58:28Z</time>
      </trkpt>
      <trkpt lat="43.3436" lon="5.21286">
        <ele>111</ele>
        <time>2016-05-12T12:58:29Z</time>
      </trkpt>
      <trkpt lat="43.3436" lon="5.21284">
        <ele>111</ele>
        <time>2016-05-12T12:58:30Z</time>
      </trkpt>
      <trkpt lat="43.34359" lon="5.21283">
        <ele>111</ele>
        <time>2016-05-12T12:58:31Z</time>
      </trkpt>
      <trkpt lat="43.34358" lon="5.21281">
        <ele>111</ele>
        <time>2016-05-12T12:58:32Z</time>
      </trkpt>
      <trkpt lat="43.34357" lon="5.21279">
        <ele>111</ele>
        <time>2016-05-12T12:58:33Z</time>
      </trkpt>
      <trkpt lat="43.34356" lon="5.21278">
        <ele>111</ele>
        <time>2016-05-12T12:58:34Z</time>
      </trkpt>
      <trkpt lat="43.34356" lon="5.21276">
        <ele>110</ele>
        <time>2016-05-12T12:58:35Z</time>
      </trkpt>
      <trkpt lat="43.34355" lon="5.21274">
        <ele>110</ele>
        <time>2016-05-12T12:58:36Z</time>
      </trkpt>
      <trkpt lat="43.34354" lon="5.21271">
        <ele>110</ele>
        <time>2016-05-12T12:58:37Z</time>
      </trkpt>
      <trkpt lat="43.34353" lon="5.21269">
        <ele>110</ele>
        <time>2016-05-12T12:58:38Z</time>
      </trkpt>
      <trkpt lat="43.34353" lon="5.21267">
        <ele>109</ele>
        <time>2016-05-12T12:58:39Z</time>
      </trkpt>
      <trkpt lat="43.34352" lon="5.21265">
        <ele>109</ele>
        <time>2016-05-12T12:58:40Z</time>
      </trkpt>
      <trkpt lat="43.34352" lon="5.21263">
        <ele>109</ele>
        <time>2016-05-12T12:58:41Z</time>
      </trkpt>
      <trkpt lat="43.34351" lon="5.21261">
        <ele>109</ele>
        <time>2016-05-12T12:58:42Z</time>
      </trkpt>
      <trkpt lat="43.34351" lon="5.21259">
        <ele>109</ele>
        <time>2016-05-12T12:58:43Z</time>
      </trkpt>
      <trkpt lat="43.34351" lon="5.21257">
        <ele>109</ele>
        <time>2016-05-12T12:58:44Z</time>
      </trkpt>
      <trkpt lat="43.34351" lon="5.21255">
        <ele>108</ele>
        <time>2016-05-12T12:58:45Z</time>
      </trkpt>
      <trkpt lat="43.34351" lon="5.21253">
        <ele>108</ele>
        <time>2016-05-12T12:58:46Z</time>
      </trkpt>
      <trkpt lat="43.34351" lon="5.2125">
        <ele>108</ele>
        <time>2016-05-12T12:58:47Z</time>
      </trkpt>
      <trkpt lat="43.34351" lon="5.21248">
        <ele>108</ele>
        <time>2016-05-12T12:58:48Z</time>
      </trkpt>
      <trkpt lat="43.34352" lon="5.21246">
        <ele>107</ele>
        <time>2016-05-12T12:58:49Z</time>
      </trkpt>
      <trkpt lat="43.34352" lon="5.21244">
        <ele>107</ele>
        <time>2016-05-12T12:58:50Z</time>
      </trkpt>
      <trkpt lat="43.34351" lon="5.21243">
        <ele>107</ele>
        <time>2016-05-12T12:58:51Z</time>
      </trkpt>
      <trkpt lat="43.34351" lon="5.21241">
        <ele>107</ele>
        <time>2016-05-12T12:58:52Z</time>
      </trkpt>
      <trkpt lat="43.34352" lon="5.21239">
        <ele>107</ele>
        <time>2016-05-12T12:58:53Z</time>
      </trkpt>
      <trkpt lat="43.34352" lon="5.21237">
        <ele>107</ele>
        <time>2016-05-12T12:58:54Z</time>
      </trkpt>
      <trkpt lat="43.34352" lon="5.21235">
        <ele>107</ele>
        <time>2016-05-12T12:58:55Z</time>
      </trkpt>
      <trkpt lat="43.34351" lon="5.21233">
        <ele>107</ele>
        <time>2016-05-12T12:58:56Z</time>
      </trkpt>
      <trkpt lat="43.34351" lon="5.21231">
        <ele>107</ele>
        <time>2016-05-12T12:58:57Z</time>
      </trkpt>
      <trkpt lat="43.34351" lon="5.21228">
        <ele>106</ele>
        <time>2016-05-12T12:58:58Z</time>
      </trkpt>
      <trkpt lat="43.34351" lon="5.21226">
        <ele>106</ele>
        <time>2016-05-12T12:58:59Z</time>
      </trkpt>
      <trkpt lat="43.34351" lon="5.21224">
        <ele>106</ele>
        <time>2016-05-12T12:59:00Z</time>
      </trkpt>
      <trkpt lat="43.34351" lon="5.21222">
        <ele>105</ele>
        <time>2016-05-12T12:59:01Z</time>
      </trkpt>
      <trkpt lat="43.34351" lon="5.2122">
        <ele>105</ele>
        <time>2016-05-12T12:59:02Z</time>
      </trkpt>
      <trkpt lat="43.34351" lon="5.21218">
        <ele>104</ele>
        <time>2016-05-12T12:59:03Z</time>
      </trkpt>
      <trkpt lat="43.34351" lon="5.21216">
        <ele>104</ele>
        <time>2016-05-12T12:59:04Z</time>
      </trkpt>
      <trkpt lat="43.34351" lon="5.21214">
        <ele>104</ele>
        <time>2016-05-12T12:59:05Z</time>
      </trkpt>
      <trkpt lat="43.34351" lon="5.21212">
        <ele>104</ele>
        <time>2016-05-12T12:59:06Z</time>
      </trkpt>
      <trkpt lat="43.34351" lon="5.21209">
        <ele>104</ele>
        <time>2016-05-12T12:59:07Z</time>
      </trkpt>
      <trkpt lat="43.34351" lon="5.21207">
        <ele>104</ele>
        <time>2016-05-12T12:59:08Z</time>
      </trkpt>
      <trkpt lat="43.3435" lon="5.21205">
        <ele>104</ele>
        <time>2016-05-12T12:59:09Z</time>
      </trkpt>
      <trkpt lat="43.3435" lon="5.21203">
        <ele>104</ele>
        <time>2016-05-12T12:59:10Z</time>
      </trkpt>
      <trkpt lat="43.3435" lon="5.21201">
        <ele>104</ele>
        <time>2016-05-12T12:59:11Z</time>
      </trkpt>
      <trkpt lat="43.34349" lon="5.21198">
        <ele>104</ele>
        <time>2016-05-12T12:59:12Z</time>
      </trkpt>
      <trkpt lat="43.34349" lon="5.21196">
        <ele>104</ele>
        <time>2016-05-12T12:59:13Z</time>
      </trkpt>
      <trkpt lat="43.34349" lon="5.21194">
        <ele>104</ele>
        <time>2016-05-12T12:59:14Z</time>
      </trkpt>
      <trkpt lat="43.34349" lon="5.21192">
        <ele>104</ele>
        <time>2016-05-12T12:59:15Z</time>
      </trkpt>
      <trkpt lat="43.34349" lon="5.2119">
        <ele>104</ele>
        <time>2016-05-12T12:59:16Z</time>
      </trkpt>
      <trkpt lat="43.34349" lon="5.21188">
        <ele>104</ele>
        <time>2016-05-12T12:59:17Z</time>
      </trkpt>
      <trkpt lat="43.34349" lon="5.21186">
        <ele>104</ele>
        <time>2016-05-12T12:59:18Z</time>
      </trkpt>
      <trkpt lat="43.34349" lon="5.21183">
        <ele>104</ele>
        <time>2016-05-12T12:59:19Z</time>
      </trkpt>
      <trkpt lat="43.34349" lon="5.21181">
        <ele>104</ele>
        <time>2016-05-12T12:59:20Z</time>
      </trkpt>
      <trkpt lat="43.34348" lon="5.21179">
        <ele>104</ele>
        <time>2016-05-12T12:59:21Z</time>
      </trkpt>
      <trkpt lat="43.34348" lon="5.21177">
        <ele>104</ele>
        <time>2016-05-12T12:59:22Z</time>
      </trkpt>
      <trkpt lat="43.34348" lon="5.21175">
        <ele>104</ele>
        <time>2016-05-12T12:59:23Z</time>
      </trkpt>
      <trkpt lat="43.34348" lon="5.21173">
        <ele>104</ele>
        <time>2016-05-12T12:59:24Z</time>
      </trkpt>
      <trkpt lat="43.34347" lon="5.2117">
        <ele>104</ele>
        <time>2016-05-12T12:59:25Z</time>
      </trkpt>
      <trkpt lat="43.34347" lon="5.21168">
        <ele>104</ele>
        <time>2016-05-12T12:59:26Z</time>
      </trkpt>
      <trkpt lat="43.34347" lon="5.21166">
        <ele>103</ele>
        <time>2016-05-12T12:59:27Z</time>
      </trkpt>
      <trkpt lat="43.34346" lon="5.21164">
        <ele>103</ele>
        <time>2016-05-12T12:59:28Z</time>
      </trkpt>
      <trkpt lat="43.34346" lon="5.21162">
        <ele>102</ele>
        <time>2016-05-12T12:59:29Z</time>
      </trkpt>
      <trkpt lat="43.34345" lon="5.21161">
        <ele>102</ele>
        <time>2016-05-12T12:59:30Z</time>
      </trkpt>
      <trkpt lat="43.34345" lon="5.21159">
        <ele>101</ele>
        <time>2016-05-12T12:59:31Z</time>
      </trkpt>
      <trkpt lat="43.34344" lon="5.21157">
        <ele>100</ele>
        <time>2016-05-12T12:59:32Z</time>
      </trkpt>
      <trkpt lat="43.34344" lon="5.21156">
        <ele>100</ele>
        <time>2016-05-12T12:59:33Z</time>
      </trkpt>
      <trkpt lat="43.34343" lon="5.21154">
        <ele>99</ele>
        <time>2016-05-12T12:59:34Z</time>
      </trkpt>
      <trkpt lat="43.34343" lon="5.21152">
        <ele>99</ele>
        <time>2016-05-12T12:59:35Z</time>
      </trkpt>
      <trkpt lat="43.34341" lon="5.2115">
        <ele>99</ele>
        <time>2016-05-12T12:59:36Z</time>
      </trkpt>
      <trkpt lat="43.3434" lon="5.21148">
        <ele>99</ele>
        <time>2016-05-12T12:59:37Z</time>
      </trkpt>
      <trkpt lat="43.3434" lon="5.21147">
        <ele>99</ele>
        <time>2016-05-12T12:59:38Z</time>
      </trkpt>
      <trkpt lat="43.34339" lon="5.21144">
        <ele>99</ele>
        <time>2016-05-12T12:59:39Z</time>
      </trkpt>
      <trkpt lat="43.34339" lon="5.21142">
        <ele>99</ele>
        <time>2016-05-12T12:59:40Z</time>
      </trkpt>
      <trkpt lat="43.34338" lon="5.2114">
        <ele>99</ele>
        <time>2016-05-12T12:59:41Z</time>
      </trkpt>
      <trkpt lat="43.34338" lon="5.21139">
        <ele>99</ele>
        <time>2016-05-12T12:59:42Z</time>
      </trkpt>
      <trkpt lat="43.34337" lon="5.21137">
        <ele>99</ele>
        <time>2016-05-12T12:59:43Z</time>
      </trkpt>
      <trkpt lat="43.34337" lon="5.21136">
        <ele>99</ele>
        <time>2016-05-12T12:59:44Z</time>
      </trkpt>
      <trkpt lat="43.34335" lon="5.21132">
        <ele>99</ele>
        <time>2016-05-12T12:59:46Z</time>
      </trkpt>
      <trkpt lat="43.34334" lon="5.21131">
        <ele>99</ele>
        <time>2016-05-12T12:59:47Z</time>
      </trkpt>
      <trkpt lat="43.34333" lon="5.2113">
        <ele>99</ele>
        <time>2016-05-12T12:59:48Z</time>
      </trkpt>
      <trkpt lat="43.34332" lon="5.2113">
        <ele>99</ele>
        <time>2016-05-12T12:59:50Z</time>
      </trkpt>
      <trkpt lat="43.3433" lon="5.2113">
        <ele>99</ele>
        <time>2016-05-12T12:59:53Z</time>
      </trkpt>
      <trkpt lat="43.34329" lon="5.21129">
        <ele>99</ele>
        <time>2016-05-12T13:00:06Z</time>
      </trkpt>
      <trkpt lat="43.34328" lon="5.21129">
        <ele>100</ele>
        <time>2016-05-12T13:00:20Z</time>
      </trkpt>
      <trkpt lat="43.34327" lon="5.21129">
        <ele>100</ele>
        <time>2016-05-12T13:00:30Z</time>
      </trkpt>
      <trkpt lat="43.34326" lon="5.21132">
        <ele>100</ele>
        <time>2016-05-12T13:00:32Z</time>
      </trkpt>
      <trkpt lat="43.34324" lon="5.21134">
        <ele>100</ele>
        <time>2016-05-12T13:00:34Z</time>
      </trkpt>
      <trkpt lat="43.34323" lon="5.21135">
        <ele>100</ele>
        <time>2016-05-12T13:00:35Z</time>
      </trkpt>
      <trkpt lat="43.34321" lon="5.21137">
        <ele>100</ele>
        <time>2016-05-12T13:00:37Z</time>
      </trkpt>
      <trkpt lat="43.3432" lon="5.21138">
        <ele>100</ele>
        <time>2016-05-12T13:00:38Z</time>
      </trkpt>
      <trkpt lat="43.34318" lon="5.21138">
        <ele>100</ele>
        <time>2016-05-12T13:00:39Z</time>
      </trkpt>
      <trkpt lat="43.34317" lon="5.21138">
        <ele>100</ele>
        <time>2016-05-12T13:00:40Z</time>
      </trkpt>
      <trkpt lat="43.34316" lon="5.21139">
        <ele>100</ele>
        <time>2016-05-12T13:00:41Z</time>
      </trkpt>
      <trkpt lat="43.34315" lon="5.21138">
        <ele>100</ele>
        <time>2016-05-12T13:00:42Z</time>
      </trkpt>
      <trkpt lat="43.34314" lon="5.21138">
        <ele>100</ele>
        <time>2016-05-12T13:00:43Z</time>
      </trkpt>
      <trkpt lat="43.34312" lon="5.21136">
        <ele>100</ele>
        <time>2016-05-12T13:00:45Z</time>
      </trkpt>
      <trkpt lat="43.3431" lon="5.21134">
        <ele>100</ele>
        <time>2016-05-12T13:00:47Z</time>
      </trkpt>
      <trkpt lat="43.34309" lon="5.21131">
        <ele>100</ele>
        <time>2016-05-12T13:00:49Z</time>
      </trkpt>
      <trkpt lat="43.34309" lon="5.21129">
        <ele>101</ele>
        <time>2016-05-12T13:00:51Z</time>
      </trkpt>
      <trkpt lat="43.34309" lon="5.21126">
        <ele>101</ele>
        <time>2016-05-12T13:00:53Z</time>
      </trkpt>
      <trkpt lat="43.34308" lon="5.21125">
        <ele>101</ele>
        <time>2016-05-12T13:00:54Z</time>
      </trkpt>
      <trkpt lat="43.34307" lon="5.21123">
        <ele>101</ele>
        <time>2016-05-12T13:00:55Z</time>
      </trkpt>
      <trkpt lat="43.34305" lon="5.2112">
        <ele>101</ele>
        <time>2016-05-12T13:00:57Z</time>
      </trkpt>
      <trkpt lat="43.34304" lon="5.21119">
        <ele>101</ele>
        <time>2016-05-12T13:00:58Z</time>
      </trkpt>
      <trkpt lat="43.34302" lon="5.21117">
        <ele>101</ele>
        <time>2016-05-12T13:01:00Z</time>
      </trkpt>
      <trkpt lat="43.34301" lon="5.21116">
        <ele>101</ele>
        <time>2016-05-12T13:01:01Z</time>
      </trkpt>
      <trkpt lat="43.343" lon="5.21115">
        <ele>101</ele>
        <time>2016-05-12T13:01:02Z</time>
      </trkpt>
      <trkpt lat="43.34299" lon="5.21114">
        <ele>101</ele>
        <time>2016-05-12T13:01:03Z</time>
      </trkpt>
      <trkpt lat="43.34296" lon="5.21112">
        <ele>101</ele>
        <time>2016-05-12T13:01:05Z</time>
      </trkpt>
      <trkpt lat="43.34295" lon="5.21109">
        <ele>101</ele>
        <time>2016-05-12T13:01:07Z</time>
      </trkpt>
      <trkpt lat="43.34294" lon="5.21107">
        <ele>101</ele>
        <time>2016-05-12T13:01:08Z</time>
      </trkpt>
      <trkpt lat="43.34292" lon="5.21105">
        <ele>101</ele>
        <time>2016-05-12T13:01:10Z</time>
      </trkpt>
      <trkpt lat="43.34292" lon="5.21103">
        <ele>101</ele>
        <time>2016-05-12T13:01:11Z</time>
      </trkpt>
      <trkpt lat="43.34291" lon="5.21102">
        <ele>101</ele>
        <time>2016-05-12T13:01:12Z</time>
      </trkpt>
      <trkpt lat="43.3429" lon="5.211">
        <ele>101</ele>
        <time>2016-05-12T13:01:13Z</time>
      </trkpt>
      <trkpt lat="43.3429" lon="5.21099">
        <ele>101</ele>
        <time>2016-05-12T13:01:14Z</time>
      </trkpt>
      <trkpt lat="43.34289" lon="5.21097">
        <ele>101</ele>
        <time>2016-05-12T13:01:15Z</time>
      </trkpt>
      <trkpt lat="43.34288" lon="5.21095">
        <ele>101</ele>
        <time>2016-05-12T13:01:16Z</time>
      </trkpt>
      <trkpt lat="43.34288" lon="5.21093">
        <ele>101</ele>
        <time>2016-05-12T13:01:17Z</time>
      </trkpt>
      <trkpt lat="43.34287" lon="5.21091">
        <ele>101</ele>
        <time>2016-05-12T13:01:18Z</time>
      </trkpt>
      <trkpt lat="43.34286" lon="5.2109">
        <ele>101</ele>
        <time>2016-05-12T13:01:19Z</time>
      </trkpt>
      <trkpt lat="43.34286" lon="5.21088">
        <ele>101</ele>
        <time>2016-05-12T13:01:20Z</time>
      </trkpt>
      <trkpt lat="43.34285" lon="5.21087">
        <ele>101</ele>
        <time>2016-05-12T13:01:21Z</time>
      </trkpt>
      <trkpt lat="43.34284" lon="5.21085">
        <ele>101</ele>
        <time>2016-05-12T13:01:22Z</time>
      </trkpt>
      <trkpt lat="43.34283" lon="5.21083">
        <ele>101</ele>
        <time>2016-05-12T13:01:23Z</time>
      </trkpt>
      <trkpt lat="43.34282" lon="5.21082">
        <ele>101</ele>
        <time>2016-05-12T13:01:24Z</time>
      </trkpt>
      <trkpt lat="43.34282" lon="5.2108">
        <ele>101</ele>
        <time>2016-05-12T13:01:25Z</time>
      </trkpt>
      <trkpt lat="43.34281" lon="5.21079">
        <ele>101</ele>
        <time>2016-05-12T13:01:26Z</time>
      </trkpt>
      <trkpt lat="43.3428" lon="5.21077">
        <ele>101</ele>
        <time>2016-05-12T13:01:27Z</time>
      </trkpt>
      <trkpt lat="43.34279" lon="5.21075">
        <ele>101</ele>
        <time>2016-05-12T13:01:28Z</time>
      </trkpt>
      <trkpt lat="43.34278" lon="5.21074">
        <ele>101</ele>
        <time>2016-05-12T13:01:29Z</time>
      </trkpt>
      <trkpt lat="43.34277" lon="5.21072">
        <ele>101</ele>
        <time>2016-05-12T13:01:30Z</time>
      </trkpt>
      <trkpt lat="43.34276" lon="5.21071">
        <ele>101</ele>
        <time>2016-05-12T13:01:31Z</time>
      </trkpt>
      <trkpt lat="43.34276" lon="5.21069">
        <ele>101</ele>
        <time>2016-05-12T13:01:32Z</time>
      </trkpt>
      <trkpt lat="43.34275" lon="5.21068">
        <ele>101</ele>
        <time>2016-05-12T13:01:33Z</time>
      </trkpt>
      <trkpt lat="43.34274" lon="5.21066">
        <ele>101</ele>
        <time>2016-05-12T13:01:34Z</time>
      </trkpt>
      <trkpt lat="43.34274" lon="5.21064">
        <ele>101</ele>
        <time>2016-05-12T13:01:35Z</time>
      </trkpt>
      <trkpt lat="43.34273" lon="5.21063">
        <ele>101</ele>
        <time>2016-05-12T13:01:36Z</time>
      </trkpt>
      <trkpt lat="43.34272" lon="5.21061">
        <ele>101</ele>
        <time>2016-05-12T13:01:37Z</time>
      </trkpt>
      <trkpt lat="43.34271" lon="5.2106">
        <ele>101</ele>
        <time>2016-05-12T13:01:38Z</time>
      </trkpt>
      <trkpt lat="43.3427" lon="5.21058">
        <ele>101</ele>
        <time>2016-05-12T13:01:39Z</time>
      </trkpt>
      <trkpt lat="43.34269" lon="5.21056">
        <ele>101</ele>
        <time>2016-05-12T13:01:40Z</time>
      </trkpt>
      <trkpt lat="43.34269" lon="5.21055">
        <ele>101</ele>
        <time>2016-05-12T13:01:41Z</time>
      </trkpt>
      <trkpt lat="43.34267" lon="5.21052">
        <ele>101</ele>
        <time>2016-05-12T13:01:43Z</time>
      </trkpt>
      <trkpt lat="43.34267" lon="5.2105">
        <ele>101</ele>
        <time>2016-05-12T13:01:44Z</time>
      </trkpt>
      <trkpt lat="43.34266" lon="5.21049">
        <ele>101</ele>
        <time>2016-05-12T13:01:45Z</time>
      </trkpt>
      <trkpt lat="43.34266" lon="5.21047">
        <ele>101</ele>
        <time>2016-05-12T13:01:46Z</time>
      </trkpt>
      <trkpt lat="43.34265" lon="5.21046">
        <ele>101</ele>
        <time>2016-05-12T13:01:47Z</time>
      </trkpt>
      <trkpt lat="43.34264" lon="5.21044">
        <ele>101</ele>
        <time>2016-05-12T13:01:48Z</time>
      </trkpt>
      <trkpt lat="43.34264" lon="5.21043">
        <ele>101</ele>
        <time>2016-05-12T13:01:49Z</time>
      </trkpt>
      <trkpt lat="43.34264" lon="5.21041">
        <ele>101</ele>
        <time>2016-05-12T13:01:50Z</time>
      </trkpt>
      <trkpt lat="43.34264" lon="5.21039">
        <ele>101</ele>
        <time>2016-05-12T13:01:51Z</time>
      </trkpt>
      <trkpt lat="43.34264" lon="5.21037">
        <ele>101</ele>
        <time>2016-05-12T13:01:52Z</time>
      </trkpt>
      <trkpt lat="43.34264" lon="5.21035">
        <ele>101</ele>
        <time>2016-05-12T13:01:53Z</time>
      </trkpt>
      <trkpt lat="43.34263" lon="5.21033">
        <ele>101</ele>
        <time>2016-05-12T13:01:54Z</time>
      </trkpt>
      <trkpt lat="43.34263" lon="5.21032">
        <ele>101</ele>
        <time>2016-05-12T13:01:55Z</time>
      </trkpt>
      <trkpt lat="43.34262" lon="5.2103">
        <ele>101</ele>
        <time>2016-05-12T13:01:56Z</time>
      </trkpt>
      <trkpt lat="43.34261" lon="5.21028">
        <ele>101</ele>
        <time>2016-05-12T13:01:58Z</time>
      </trkpt>
      <trkpt lat="43.3426" lon="5.21026">
        <ele>101</ele>
        <time>2016-05-12T13:02:00Z</time>
      </trkpt>
      <trkpt lat="43.34259" lon="5.21024">
        <ele>101</ele>
        <time>2016-05-12T13:02:01Z</time>
      </trkpt>
      <trkpt lat="43.34258" lon="5.21023">
        <ele>101</ele>
        <time>2016-05-12T13:02:02Z</time>
      </trkpt>
      <trkpt lat="43.34258" lon="5.21021">
        <ele>101</ele>
        <time>2016-05-12T13:02:03Z</time>
      </trkpt>
      <trkpt lat="43.34257" lon="5.21019">
        <ele>101</ele>
        <time>2016-05-12T13:02:04Z</time>
      </trkpt>
      <trkpt lat="43.34257" lon="5.21017">
        <ele>101</ele>
        <time>2016-05-12T13:02:05Z</time>
      </trkpt>
      <trkpt lat="43.34257" lon="5.21015">
        <ele>100</ele>
        <time>2016-05-12T13:02:06Z</time>
      </trkpt>
      <trkpt lat="43.34257" lon="5.21013">
        <ele>100</ele>
        <time>2016-05-12T13:02:07Z</time>
      </trkpt>
      <trkpt lat="43.34256" lon="5.2101">
        <ele>99</ele>
        <time>2016-05-12T13:02:09Z</time>
      </trkpt>
      <trkpt lat="43.34255" lon="5.21008">
        <ele>99</ele>
        <time>2016-05-12T13:02:10Z</time>
      </trkpt>
      <trkpt lat="43.34255" lon="5.21007">
        <ele>99</ele>
        <time>2016-05-12T13:02:11Z</time>
      </trkpt>
      <trkpt lat="43.34254" lon="5.21005">
        <ele>98</ele>
        <time>2016-05-12T13:02:12Z</time>
      </trkpt>
      <trkpt lat="43.34254" lon="5.21003">
        <ele>98</ele>
        <time>2016-05-12T13:02:13Z</time>
      </trkpt>
      <trkpt lat="43.34253" lon="5.21001">
        <ele>98</ele>
        <time>2016-05-12T13:02:14Z</time>
      </trkpt>
      <trkpt lat="43.34253" lon="5.20999">
        <ele>97</ele>
        <time>2016-05-12T13:02:15Z</time>
      </trkpt>
      <trkpt lat="43.34253" lon="5.20997">
        <ele>97</ele>
        <time>2016-05-12T13:02:16Z</time>
      </trkpt>
      <trkpt lat="43.34252" lon="5.20995">
        <ele>97</ele>
        <time>2016-05-12T13:02:17Z</time>
      </trkpt>
      <trkpt lat="43.34252" lon="5.20993">
        <ele>96</ele>
        <time>2016-05-12T13:02:18Z</time>
      </trkpt>
      <trkpt lat="43.34251" lon="5.2099">
        <ele>96</ele>
        <time>2016-05-12T13:02:19Z</time>
      </trkpt>
      <trkpt lat="43.34251" lon="5.20988">
        <ele>96</ele>
        <time>2016-05-12T13:02:20Z</time>
      </trkpt>
      <trkpt lat="43.3425" lon="5.20986">
        <ele>96</ele>
        <time>2016-05-12T13:02:21Z</time>
      </trkpt>
      <trkpt lat="43.34249" lon="5.20984">
        <ele>96</ele>
        <time>2016-05-12T13:02:22Z</time>
      </trkpt>
      <trkpt lat="43.34248" lon="5.20983">
        <ele>96</ele>
        <time>2016-05-12T13:02:23Z</time>
      </trkpt>
      <trkpt lat="43.34248" lon="5.20981">
        <ele>96</ele>
        <time>2016-05-12T13:02:24Z</time>
      </trkpt>
      <trkpt lat="43.34247" lon="5.20979">
        <ele>96</ele>
        <time>2016-05-12T13:02:25Z</time>
      </trkpt>
      <trkpt lat="43.34246" lon="5.20977">
        <ele>96</ele>
        <time>2016-05-12T13:02:26Z</time>
      </trkpt>
      <trkpt lat="43.34246" lon="5.20975">
        <ele>96</ele>
        <time>2016-05-12T13:02:27Z</time>
      </trkpt>
      <trkpt lat="43.34245" lon="5.20973">
        <ele>96</ele>
        <time>2016-05-12T13:02:28Z</time>
      </trkpt>
      <trkpt lat="43.34244" lon="5.20972">
        <ele>96</ele>
        <time>2016-05-12T13:02:30Z</time>
      </trkpt>
      <trkpt lat="43.34243" lon="5.2097">
        <ele>96</ele>
        <time>2016-05-12T13:02:32Z</time>
      </trkpt>
      <trkpt lat="43.34242" lon="5.20968">
        <ele>96</ele>
        <time>2016-05-12T13:02:33Z</time>
      </trkpt>
      <trkpt lat="43.34241" lon="5.20965">
        <ele>96</ele>
        <time>2016-05-12T13:02:34Z</time>
      </trkpt>
      <trkpt lat="43.3424" lon="5.20963">
        <ele>96</ele>
        <time>2016-05-12T13:02:35Z</time>
      </trkpt>
      <trkpt lat="43.3424" lon="5.20961">
        <ele>96</ele>
        <time>2016-05-12T13:02:36Z</time>
      </trkpt>
      <trkpt lat="43.34239" lon="5.20959">
        <ele>96</ele>
        <time>2016-05-12T13:02:37Z</time>
      </trkpt>
      <trkpt lat="43.34238" lon="5.20957">
        <ele>96</ele>
        <time>2016-05-12T13:02:38Z</time>
      </trkpt>
      <trkpt lat="43.34238" lon="5.20955">
        <ele>96</ele>
        <time>2016-05-12T13:02:39Z</time>
      </trkpt>
      <trkpt lat="43.34238" lon="5.20952">
        <ele>96</ele>
        <time>2016-05-12T13:02:40Z</time>
      </trkpt>
      <trkpt lat="43.34239" lon="5.2095">
        <ele>96</ele>
        <time>2016-05-12T13:02:41Z</time>
      </trkpt>
      <trkpt lat="43.3424" lon="5.20949">
        <ele>96</ele>
        <time>2016-05-12T13:02:42Z</time>
      </trkpt>
      <trkpt lat="43.34241" lon="5.20947">
        <ele>96</ele>
        <time>2016-05-12T13:02:43Z</time>
      </trkpt>
      <trkpt lat="43.34242" lon="5.20945">
        <ele>96</ele>
        <time>2016-05-12T13:02:44Z</time>
      </trkpt>
      <trkpt lat="43.34242" lon="5.20943">
        <ele>96</ele>
        <time>2016-05-12T13:02:45Z</time>
      </trkpt>
      <trkpt lat="43.34243" lon="5.20941">
        <ele>96</ele>
        <time>2016-05-12T13:02:46Z</time>
      </trkpt>
      <trkpt lat="43.34244" lon="5.20939">
        <ele>96</ele>
        <time>2016-05-12T13:02:47Z</time>
      </trkpt>
      <trkpt lat="43.34245" lon="5.20937">
        <ele>96</ele>
        <time>2016-05-12T13:02:48Z</time>
      </trkpt>
      <trkpt lat="43.34246" lon="5.20935">
        <ele>96</ele>
        <time>2016-05-12T13:02:49Z</time>
      </trkpt>
      <trkpt lat="43.34246" lon="5.20933">
        <ele>96</ele>
        <time>2016-05-12T13:02:50Z</time>
      </trkpt>
      <trkpt lat="43.34247" lon="5.20931">
        <ele>96</ele>
        <time>2016-05-12T13:02:51Z</time>
      </trkpt>
      <trkpt lat="43.34248" lon="5.2093">
        <ele>96</ele>
        <time>2016-05-12T13:02:52Z</time>
      </trkpt>
      <trkpt lat="43.34249" lon="5.20928">
        <ele>96</ele>
        <time>2016-05-12T13:02:53Z</time>
      </trkpt>
      <trkpt lat="43.3425" lon="5.20927">
        <ele>96</ele>
        <time>2016-05-12T13:02:54Z</time>
      </trkpt>
      <trkpt lat="43.34251" lon="5.20925">
        <ele>96</ele>
        <time>2016-05-12T13:02:56Z</time>
      </trkpt>
      <trkpt lat="43.34253" lon="5.20922">
        <ele>95</ele>
        <time>2016-05-12T13:02:58Z</time>
      </trkpt>
      <trkpt lat="43.34253" lon="5.2092">
        <ele>95</ele>
        <time>2016-05-12T13:02:59Z</time>
      </trkpt>
      <trkpt lat="43.34254" lon="5.20918">
        <ele>95</ele>
        <time>2016-05-12T13:03:00Z</time>
      </trkpt>
      <trkpt lat="43.34255" lon="5.20916">
        <ele>95</ele>
        <time>2016-05-12T13:03:01Z</time>
      </trkpt>
      <trkpt lat="43.34256" lon="5.20914">
        <ele>94</ele>
        <time>2016-05-12T13:03:02Z</time>
      </trkpt>
      <trkpt lat="43.34256" lon="5.20912">
        <ele>94</ele>
        <time>2016-05-12T13:03:03Z</time>
      </trkpt>
      <trkpt lat="43.34257" lon="5.20911">
        <ele>94</ele>
        <time>2016-05-12T13:03:04Z</time>
      </trkpt>
      <trkpt lat="43.34257" lon="5.20909">
        <ele>93</ele>
        <time>2016-05-12T13:03:05Z</time>
      </trkpt>
      <trkpt lat="43.34257" lon="5.20906">
        <ele>93</ele>
        <time>2016-05-12T13:03:06Z</time>
      </trkpt>
      <trkpt lat="43.34258" lon="5.20904">
        <ele>93</ele>
        <time>2016-05-12T13:03:07Z</time>
      </trkpt>
      <trkpt lat="43.34258" lon="5.20902">
        <ele>93</ele>
        <time>2016-05-12T13:03:08Z</time>
      </trkpt>
      <trkpt lat="43.34258" lon="5.209">
        <ele>93</ele>
        <time>2016-05-12T13:03:09Z</time>
      </trkpt>
      <trkpt lat="43.34259" lon="5.20898">
        <ele>93</ele>
        <time>2016-05-12T13:03:10Z</time>
      </trkpt>
      <trkpt lat="43.34259" lon="5.20896">
        <ele>93</ele>
        <time>2016-05-12T13:03:11Z</time>
      </trkpt>
      <trkpt lat="43.34259" lon="5.20894">
        <ele>93</ele>
        <time>2016-05-12T13:03:12Z</time>
      </trkpt>
      <trkpt lat="43.3426" lon="5.20892">
        <ele>93</ele>
        <time>2016-05-12T13:03:13Z</time>
      </trkpt>
      <trkpt lat="43.3426" lon="5.20891">
        <ele>93</ele>
        <time>2016-05-12T13:03:14Z</time>
      </trkpt>
      <trkpt lat="43.3426" lon="5.20889">
        <ele>93</ele>
        <time>2016-05-12T13:03:15Z</time>
      </trkpt>
      <trkpt lat="43.3426" lon="5.20887">
        <ele>93</ele>
        <time>2016-05-12T13:03:16Z</time>
      </trkpt>
      <trkpt lat="43.34261" lon="5.20885">
        <ele>93</ele>
        <time>2016-05-12T13:03:17Z</time>
      </trkpt>
      <trkpt lat="43.34261" lon="5.20883">
        <ele>93</ele>
        <time>2016-05-12T13:03:18Z</time>
      </trkpt>
      <trkpt lat="43.34262" lon="5.2088">
        <ele>93</ele>
        <time>2016-05-12T13:03:19Z</time>
      </trkpt>
      <trkpt lat="43.34262" lon="5.20879">
        <ele>93</ele>
        <time>2016-05-12T13:03:20Z</time>
      </trkpt>
      <trkpt lat="43.34263" lon="5.20877">
        <ele>93</ele>
        <time>2016-05-12T13:03:21Z</time>
      </trkpt>
      <trkpt lat="43.34264" lon="5.20875">
        <ele>93</ele>
        <time>2016-05-12T13:03:22Z</time>
      </trkpt>
      <trkpt lat="43.34265" lon="5.20874">
        <ele>93</ele>
        <time>2016-05-12T13:03:23Z</time>
      </trkpt>
      <trkpt lat="43.34266" lon="5.20872">
        <ele>93</ele>
        <time>2016-05-12T13:03:24Z</time>
      </trkpt>
      <trkpt lat="43.34266" lon="5.2087">
        <ele>93</ele>
        <time>2016-05-12T13:03:25Z</time>
      </trkpt>
      <trkpt lat="43.34267" lon="5.20868">
        <ele>93</ele>
        <time>2016-05-12T13:03:26Z</time>
      </trkpt>
      <trkpt lat="43.34267" lon="5.20866">
        <ele>93</ele>
        <time>2016-05-12T13:03:27Z</time>
      </trkpt>
      <trkpt lat="43.34268" lon="5.20864">
        <ele>93</ele>
        <time>2016-05-12T13:03:28Z</time>
      </trkpt>
      <trkpt lat="43.34269" lon="5.20862">
        <ele>93</ele>
        <time>2016-05-12T13:03:29Z</time>
      </trkpt>
      <trkpt lat="43.34269" lon="5.2086">
        <ele>93</ele>
        <time>2016-05-12T13:03:30Z</time>
      </trkpt>
      <trkpt lat="43.34271" lon="5.20858">
        <ele>93</ele>
        <time>2016-05-12T13:03:31Z</time>
      </trkpt>
      <trkpt lat="43.34272" lon="5.20857">
        <ele>93</ele>
        <time>2016-05-12T13:03:32Z</time>
      </trkpt>
      <trkpt lat="43.34273" lon="5.20855">
        <ele>93</ele>
        <time>2016-05-12T13:03:33Z</time>
      </trkpt>
      <trkpt lat="43.34275" lon="5.20853">
        <ele>92</ele>
        <time>2016-05-12T13:03:35Z</time>
      </trkpt>
      <trkpt lat="43.34276" lon="5.20851">
        <ele>92</ele>
        <time>2016-05-12T13:03:36Z</time>
      </trkpt>
      <trkpt lat="43.34277" lon="5.20849">
        <ele>90</ele>
        <time>2016-05-12T13:03:38Z</time>
      </trkpt>
      <trkpt lat="43.34278" lon="5.20847">
        <ele>90</ele>
        <time>2016-05-12T13:03:39Z</time>
      </trkpt>
      <trkpt lat="43.34279" lon="5.20846">
        <ele>89</ele>
        <time>2016-05-12T13:03:40Z</time>
      </trkpt>
      <trkpt lat="43.3428" lon="5.20844">
        <ele>88</ele>
        <time>2016-05-12T13:03:41Z</time>
      </trkpt>
      <trkpt lat="43.3428" lon="5.20843">
        <ele>88</ele>
        <time>2016-05-12T13:03:42Z</time>
      </trkpt>
      <trkpt lat="43.34281" lon="5.20841">
        <ele>87</ele>
        <time>2016-05-12T13:03:43Z</time>
      </trkpt>
      <trkpt lat="43.34282" lon="5.2084">
        <ele>87</ele>
        <time>2016-05-12T13:03:44Z</time>
      </trkpt>
      <trkpt lat="43.34282" lon="5.20838">
        <ele>87</ele>
        <time>2016-05-12T13:03:45Z</time>
      </trkpt>
      <trkpt lat="43.34282" lon="5.20836">
        <ele>87</ele>
        <time>2016-05-12T13:03:46Z</time>
      </trkpt>
      <trkpt lat="43.34283" lon="5.20834">
        <ele>87</ele>
        <time>2016-05-12T13:03:47Z</time>
      </trkpt>
      <trkpt lat="43.34283" lon="5.20832">
        <ele>87</ele>
        <time>2016-05-12T13:03:48Z</time>
      </trkpt>
      <trkpt lat="43.34283" lon="5.20831">
        <ele>87</ele>
        <time>2016-05-12T13:03:49Z</time>
      </trkpt>
      <trkpt lat="43.34283" lon="5.20829">
        <ele>87</ele>
        <time>2016-05-12T13:03:50Z</time>
      </trkpt>
      <trkpt lat="43.34283" lon="5.20827">
        <ele>87</ele>
        <time>2016-05-12T13:03:51Z</time>
      </trkpt>
      <trkpt lat="43.34281" lon="5.20826">
        <ele>87</ele>
        <time>2016-05-12T13:03:53Z</time>
      </trkpt>
      <trkpt lat="43.3428" lon="5.20824">
        <ele>87</ele>
        <time>2016-05-12T13:03:55Z</time>
      </trkpt>
      <trkpt lat="43.3428" lon="5.20822">
        <ele>87</ele>
        <time>2016-05-12T13:03:56Z</time>
      </trkpt>
      <trkpt lat="43.34279" lon="5.2082">
        <ele>87</ele>
        <time>2016-05-12T13:03:57Z</time>
      </trkpt>
      <trkpt lat="43.34278" lon="5.20818">
        <ele>87</ele>
        <time>2016-05-12T13:03:58Z</time>
      </trkpt>
      <trkpt lat="43.34276" lon="5.20817">
        <ele>87</ele>
        <time>2016-05-12T13:03:59Z</time>
      </trkpt>
      <trkpt lat="43.34275" lon="5.20815">
        <ele>87</ele>
        <time>2016-05-12T13:04:00Z</time>
      </trkpt>
      <trkpt lat="43.34274" lon="5.20814">
        <ele>87</ele>
        <time>2016-05-12T13:04:01Z</time>
      </trkpt>
      <trkpt lat="43.34272" lon="5.20814">
        <ele>87</ele>
        <time>2016-05-12T13:04:02Z</time>
      </trkpt>
      <trkpt lat="43.34271" lon="5.20814">
        <ele>87</ele>
        <time>2016-05-12T13:04:03Z</time>
      </trkpt>
      <trkpt lat="43.3427" lon="5.20814">
        <ele>87</ele>
        <time>2016-05-12T13:04:04Z</time>
      </trkpt>
      <trkpt lat="43.34268" lon="5.20814">
        <ele>87</ele>
        <time>2016-05-12T13:04:05Z</time>
      </trkpt>
      <trkpt lat="43.34267" lon="5.20813">
        <ele>87</ele>
        <time>2016-05-12T13:04:06Z</time>
      </trkpt>
      <trkpt lat="43.34265" lon="5.20813">
        <ele>87</ele>
        <time>2016-05-12T13:04:07Z</time>
      </trkpt>
      <trkpt lat="43.34263" lon="5.20812">
        <ele>87</ele>
        <time>2016-05-12T13:04:08Z</time>
      </trkpt>
      <trkpt lat="43.34262" lon="5.20811">
        <ele>87</ele>
        <time>2016-05-12T13:04:09Z</time>
      </trkpt>
      <trkpt lat="43.3426" lon="5.20809">
        <ele>87</ele>
        <time>2016-05-12T13:04:11Z</time>
      </trkpt>
      <trkpt lat="43.34259" lon="5.20808">
        <ele>87</ele>
        <time>2016-05-12T13:04:12Z</time>
      </trkpt>
      <trkpt lat="43.34258" lon="5.20805">
        <ele>87</ele>
        <time>2016-05-12T13:04:14Z</time>
      </trkpt>
      <trkpt lat="43.34257" lon="5.20803">
        <ele>87</ele>
        <time>2016-05-12T13:04:15Z</time>
      </trkpt>
      <trkpt lat="43.34256" lon="5.20802">
        <ele>87</ele>
        <time>2016-05-12T13:04:16Z</time>
      </trkpt>
      <trkpt lat="43.34255" lon="5.208">
        <ele>87</ele>
        <time>2016-05-12T13:04:17Z</time>
      </trkpt>
      <trkpt lat="43.34254" lon="5.20799">
        <ele>87</ele>
        <time>2016-05-12T13:04:18Z</time>
      </trkpt>
      <trkpt lat="43.34254" lon="5.20796">
        <ele>87</ele>
        <time>2016-05-12T13:04:20Z</time>
      </trkpt>
      <trkpt lat="43.34252" lon="5.20794">
        <ele>87</ele>
        <time>2016-05-12T13:04:22Z</time>
      </trkpt>
      <trkpt lat="43.34252" lon="5.20792">
        <ele>87</ele>
        <time>2016-05-12T13:04:23Z</time>
      </trkpt>
      <trkpt lat="43.34251" lon="5.2079">
        <ele>87</ele>
        <time>2016-05-12T13:04:24Z</time>
      </trkpt>
      <trkpt lat="43.34251" lon="5.20788">
        <ele>87</ele>
        <time>2016-05-12T13:04:25Z</time>
      </trkpt>
      <trkpt lat="43.3425" lon="5.20786">
        <ele>88</ele>
        <time>2016-05-12T13:04:27Z</time>
      </trkpt>
      <trkpt lat="43.34249" lon="5.20784">
        <ele>88</ele>
        <time>2016-05-12T13:04:28Z</time>
      </trkpt>
      <trkpt lat="43.34249" lon="5.20783">
        <ele>88</ele>
        <time>2016-05-12T13:04:29Z</time>
      </trkpt>
      <trkpt lat="43.34248" lon="5.20781">
        <ele>88</ele>
        <time>2016-05-12T13:04:30Z</time>
      </trkpt>
      <trkpt lat="43.34248" lon="5.20779">
        <ele>89</ele>
        <time>2016-05-12T13:04:31Z</time>
      </trkpt>
      <trkpt lat="43.34247" lon="5.20777">
        <ele>89</ele>
        <time>2016-05-12T13:04:32Z</time>
      </trkpt>
      <trkpt lat="43.34246" lon="5.20776">
        <ele>89</ele>
        <time>2016-05-12T13:04:33Z</time>
      </trkpt>
      <trkpt lat="43.34245" lon="5.20773">
        <ele>89</ele>
        <time>2016-05-12T13:04:35Z</time>
      </trkpt>
      <trkpt lat="43.34244" lon="5.20771">
        <ele>89</ele>
        <time>2016-05-12T13:04:37Z</time>
      </trkpt>
      <trkpt lat="43.34243" lon="5.20769">
        <ele>89</ele>
        <time>2016-05-12T13:04:39Z</time>
      </trkpt>
      <trkpt lat="43.34241" lon="5.20767">
        <ele>89</ele>
        <time>2016-05-12T13:04:40Z</time>
      </trkpt>
      <trkpt lat="43.3424" lon="5.20765">
        <ele>89</ele>
        <time>2016-05-12T13:04:42Z</time>
      </trkpt>
      <trkpt lat="43.34239" lon="5.20762">
        <ele>89</ele>
        <time>2016-05-12T13:04:44Z</time>
      </trkpt>
      <trkpt lat="43.34239" lon="5.2076">
        <ele>89</ele>
        <time>2016-05-12T13:04:46Z</time>
      </trkpt>
      <trkpt lat="43.34239" lon="5.20758">
        <ele>89</ele>
        <time>2016-05-12T13:04:48Z</time>
      </trkpt>
      <trkpt lat="43.34239" lon="5.20756">
        <ele>89</ele>
        <time>2016-05-12T13:04:50Z</time>
      </trkpt>
      <trkpt lat="43.34238" lon="5.20753">
        <ele>89</ele>
        <time>2016-05-12T13:04:52Z</time>
      </trkpt>
      <trkpt lat="43.34238" lon="5.20752">
        <ele>89</ele>
        <time>2016-05-12T13:04:54Z</time>
      </trkpt>
      <trkpt lat="43.34237" lon="5.2075">
        <ele>89</ele>
        <time>2016-05-12T13:04:56Z</time>
      </trkpt>
      <trkpt lat="43.34235" lon="5.20749">
        <ele>90</ele>
        <time>2016-05-12T13:04:58Z</time>
      </trkpt>
      <trkpt lat="43.34233" lon="5.20747">
        <ele>91</ele>
        <time>2016-05-12T13:05:00Z</time>
      </trkpt>
      <trkpt lat="43.34232" lon="5.20746">
        <ele>91</ele>
        <time>2016-05-12T13:05:01Z</time>
      </trkpt>
      <trkpt lat="43.34231" lon="5.20746">
        <ele>91</ele>
        <time>2016-05-12T13:05:02Z</time>
      </trkpt>
      <trkpt lat="43.34229" lon="5.20745">
        <ele>92</ele>
        <time>2016-05-12T13:05:04Z</time>
      </trkpt>
      <trkpt lat="43.34227" lon="5.20743">
        <ele>92</ele>
        <time>2016-05-12T13:05:06Z</time>
      </trkpt>
      <trkpt lat="43.34225" lon="5.2074">
        <ele>93</ele>
        <time>2016-05-12T13:05:08Z</time>
      </trkpt>
      <trkpt lat="43.34225" lon="5.20739">
        <ele>93</ele>
        <time>2016-05-12T13:05:09Z</time>
      </trkpt>
      <trkpt lat="43.34223" lon="5.20737">
        <ele>93</ele>
        <time>2016-05-12T13:05:11Z</time>
      </trkpt>
      <trkpt lat="43.34221" lon="5.20736">
        <ele>94</ele>
        <time>2016-05-12T13:05:13Z</time>
      </trkpt>
      <trkpt lat="43.3422" lon="5.20735">
        <ele>94</ele>
        <time>2016-05-12T13:05:14Z</time>
      </trkpt>
      <trkpt lat="43.34218" lon="5.20735">
        <ele>95</ele>
        <time>2016-05-12T13:05:15Z</time>
      </trkpt>
      <trkpt lat="43.34217" lon="5.20735">
        <ele>95</ele>
        <time>2016-05-12T13:05:16Z</time>
      </trkpt>
      <trkpt lat="43.34216" lon="5.20735">
        <ele>95</ele>
        <time>2016-05-12T13:05:17Z</time>
      </trkpt>
      <trkpt lat="43.34214" lon="5.20736">
        <ele>95</ele>
        <time>2016-05-12T13:05:18Z</time>
      </trkpt>
      <trkpt lat="43.34213" lon="5.20736">
        <ele>96</ele>
        <time>2016-05-12T13:05:19Z</time>
      </trkpt>
      <trkpt lat="43.34212" lon="5.20736">
        <ele>96</ele>
        <time>2016-05-12T13:05:20Z</time>
      </trkpt>
      <trkpt lat="43.34211" lon="5.20736">
        <ele>96</ele>
        <time>2016-05-12T13:05:21Z</time>
      </trkpt>
      <trkpt lat="43.34209" lon="5.20736">
        <ele>96</ele>
        <time>2016-05-12T13:05:22Z</time>
      </trkpt>
      <trkpt lat="43.34208" lon="5.20736">
        <ele>97</ele>
        <time>2016-05-12T13:05:23Z</time>
      </trkpt>
      <trkpt lat="43.34207" lon="5.20736">
        <ele>97</ele>
        <time>2016-05-12T13:05:24Z</time>
      </trkpt>
      <trkpt lat="43.34206" lon="5.20736">
        <ele>97</ele>
        <time>2016-05-12T13:05:25Z</time>
      </trkpt>
      <trkpt lat="43.34204" lon="5.20736">
        <ele>97</ele>
        <time>2016-05-12T13:05:26Z</time>
      </trkpt>
      <trkpt lat="43.34203" lon="5.20736">
        <ele>98</ele>
        <time>2016-05-12T13:05:27Z</time>
      </trkpt>
      <trkpt lat="43.34201" lon="5.20736">
        <ele>98</ele>
        <time>2016-05-12T13:05:28Z</time>
      </trkpt>
      <trkpt lat="43.342" lon="5.20735">
        <ele>98</ele>
        <time>2016-05-12T13:05:29Z</time>
      </trkpt>
      <trkpt lat="43.34198" lon="5.20735">
        <ele>98</ele>
        <time>2016-05-12T13:05:30Z</time>
      </trkpt>
      <trkpt lat="43.34197" lon="5.20734">
        <ele>98</ele>
        <time>2016-05-12T13:05:31Z</time>
      </trkpt>
      <trkpt lat="43.34196" lon="5.20733">
        <ele>98</ele>
        <time>2016-05-12T13:05:32Z</time>
      </trkpt>
      <trkpt lat="43.34194" lon="5.20732">
        <ele>98</ele>
        <time>2016-05-12T13:05:33Z</time>
      </trkpt>
      <trkpt lat="43.34193" lon="5.20732">
        <ele>98</ele>
        <time>2016-05-12T13:05:34Z</time>
      </trkpt>
      <trkpt lat="43.34192" lon="5.2073">
        <ele>98</ele>
        <time>2016-05-12T13:05:35Z</time>
      </trkpt>
      <trkpt lat="43.34191" lon="5.20729">
        <ele>98</ele>
        <time>2016-05-12T13:05:36Z</time>
      </trkpt>
      <trkpt lat="43.34189" lon="5.20727">
        <ele>98</ele>
        <time>2016-05-12T13:05:38Z</time>
      </trkpt>
      <trkpt lat="43.34187" lon="5.20725">
        <ele>98</ele>
        <time>2016-05-12T13:05:40Z</time>
      </trkpt>
      <trkpt lat="43.34185" lon="5.20723">
        <ele>98</ele>
        <time>2016-05-12T13:05:42Z</time>
      </trkpt>
      <trkpt lat="43.34183" lon="5.20721">
        <ele>98</ele>
        <time>2016-05-12T13:05:44Z</time>
      </trkpt>
      <trkpt lat="43.34181" lon="5.20719">
        <ele>98</ele>
        <time>2016-05-12T13:05:46Z</time>
      </trkpt>
      <trkpt lat="43.34181" lon="5.20717">
        <ele>98</ele>
        <time>2016-05-12T13:05:47Z</time>
      </trkpt>
      <trkpt lat="43.3418" lon="5.20716">
        <ele>98</ele>
        <time>2016-05-12T13:05:48Z</time>
      </trkpt>
      <trkpt lat="43.34179" lon="5.20714">
        <ele>98</ele>
        <time>2016-05-12T13:05:49Z</time>
      </trkpt>
      <trkpt lat="43.34178" lon="5.20712">
        <ele>98</ele>
        <time>2016-05-12T13:05:50Z</time>
      </trkpt>
      <trkpt lat="43.34178" lon="5.2071">
        <ele>98</ele>
        <time>2016-05-12T13:05:51Z</time>
      </trkpt>
      <trkpt lat="43.34177" lon="5.20708">
        <ele>98</ele>
        <time>2016-05-12T13:05:52Z</time>
      </trkpt>
      <trkpt lat="43.34174" lon="5.20705">
        <ele>98</ele>
        <time>2016-05-12T13:05:54Z</time>
      </trkpt>
      <trkpt lat="43.34173" lon="5.20703">
        <ele>98</ele>
        <time>2016-05-12T13:05:56Z</time>
      </trkpt>
      <trkpt lat="43.34172" lon="5.20702">
        <ele>98</ele>
        <time>2016-05-12T13:05:57Z</time>
      </trkpt>
      <trkpt lat="43.34172" lon="5.207">
        <ele>98</ele>
        <time>2016-05-12T13:05:58Z</time>
      </trkpt>
      <trkpt lat="43.3417" lon="5.20699">
        <ele>98</ele>
        <time>2016-05-12T13:06:00Z</time>
      </trkpt>
      <trkpt lat="43.34169" lon="5.20698">
        <ele>98</ele>
        <time>2016-05-12T13:06:02Z</time>
      </trkpt>
      <trkpt lat="43.34167" lon="5.20696">
        <ele>98</ele>
        <time>2016-05-12T13:06:04Z</time>
      </trkpt>
      <trkpt lat="43.34167" lon="5.20694">
        <ele>98</ele>
        <time>2016-05-12T13:06:05Z</time>
      </trkpt>
      <trkpt lat="43.34166" lon="5.20692">
        <ele>98</ele>
        <time>2016-05-12T13:06:06Z</time>
      </trkpt>
      <trkpt lat="43.34165" lon="5.20691">
        <ele>98</ele>
        <time>2016-05-12T13:06:07Z</time>
      </trkpt>
      <trkpt lat="43.34165" lon="5.20689">
        <ele>98</ele>
        <time>2016-05-12T13:06:08Z</time>
      </trkpt>
      <trkpt lat="43.34164" lon="5.20687">
        <ele>98</ele>
        <time>2016-05-12T13:06:09Z</time>
      </trkpt>
      <trkpt lat="43.34163" lon="5.20684">
        <ele>98</ele>
        <time>2016-05-12T13:06:11Z</time>
      </trkpt>
      <trkpt lat="43.34163" lon="5.20682">
        <ele>98</ele>
        <time>2016-05-12T13:06:12Z</time>
      </trkpt>
      <trkpt lat="43.34161" lon="5.2068">
        <ele>98</ele>
        <time>2016-05-12T13:06:14Z</time>
      </trkpt>
      <trkpt lat="43.34161" lon="5.20678">
        <ele>98</ele>
        <time>2016-05-12T13:06:15Z</time>
      </trkpt>
      <trkpt lat="43.3416" lon="5.20677">
        <ele>98</ele>
        <time>2016-05-12T13:06:16Z</time>
      </trkpt>
      <trkpt lat="43.34159" lon="5.20675">
        <ele>98</ele>
        <time>2016-05-12T13:06:17Z</time>
      </trkpt>
      <trkpt lat="43.34158" lon="5.20673">
        <ele>98</ele>
        <time>2016-05-12T13:06:18Z</time>
      </trkpt>
      <trkpt lat="43.34158" lon="5.20671">
        <ele>98</ele>
        <time>2016-05-12T13:06:19Z</time>
      </trkpt>
      <trkpt lat="43.34157" lon="5.20669">
        <ele>98</ele>
        <time>2016-05-12T13:06:20Z</time>
      </trkpt>
      <trkpt lat="43.34157" lon="5.20667">
        <ele>98</ele>
        <time>2016-05-12T13:06:21Z</time>
      </trkpt>
      <trkpt lat="43.34156" lon="5.20666">
        <ele>98</ele>
        <time>2016-05-12T13:06:22Z</time>
      </trkpt>
      <trkpt lat="43.34155" lon="5.20665">
        <ele>98</ele>
        <time>2016-05-12T13:06:23Z</time>
      </trkpt>
      <trkpt lat="43.34155" lon="5.20662">
        <ele>98</ele>
        <time>2016-05-12T13:06:24Z</time>
      </trkpt>
      <trkpt lat="43.34155" lon="5.20661">
        <ele>98</ele>
        <time>2016-05-12T13:06:25Z</time>
      </trkpt>
      <trkpt lat="43.34154" lon="5.20658">
        <ele>98</ele>
        <time>2016-05-12T13:06:27Z</time>
      </trkpt>
      <trkpt lat="43.34153" lon="5.20656">
        <ele>98</ele>
        <time>2016-05-12T13:06:28Z</time>
      </trkpt>
      <trkpt lat="43.34152" lon="5.20655">
        <ele>98</ele>
        <time>2016-05-12T13:06:29Z</time>
      </trkpt>
      <trkpt lat="43.34152" lon="5.20653">
        <ele>98</ele>
        <time>2016-05-12T13:06:30Z</time>
      </trkpt>
      <trkpt lat="43.34152" lon="5.20651">
        <ele>98</ele>
        <time>2016-05-12T13:06:31Z</time>
      </trkpt>
      <trkpt lat="43.34152" lon="5.20649">
        <ele>98</ele>
        <time>2016-05-12T13:06:32Z</time>
      </trkpt>
      <trkpt lat="43.34152" lon="5.20646">
        <ele>98</ele>
        <time>2016-05-12T13:06:33Z</time>
      </trkpt>
      <trkpt lat="43.34153" lon="5.20644">
        <ele>98</ele>
        <time>2016-05-12T13:06:34Z</time>
      </trkpt>
      <trkpt lat="43.34154" lon="5.20642">
        <ele>98</ele>
        <time>2016-05-12T13:06:35Z</time>
      </trkpt>
      <trkpt lat="43.34155" lon="5.2064">
        <ele>98</ele>
        <time>2016-05-12T13:06:36Z</time>
      </trkpt>
      <trkpt lat="43.34156" lon="5.20638">
        <ele>98</ele>
        <time>2016-05-12T13:06:37Z</time>
      </trkpt>
      <trkpt lat="43.34157" lon="5.20636">
        <ele>97</ele>
        <time>2016-05-12T13:06:38Z</time>
      </trkpt>
      <trkpt lat="43.34158" lon="5.20634">
        <ele>97</ele>
        <time>2016-05-12T13:06:39Z</time>
      </trkpt>
      <trkpt lat="43.34159" lon="5.20633">
        <ele>96</ele>
        <time>2016-05-12T13:06:40Z</time>
      </trkpt>
      <trkpt lat="43.3416" lon="5.20632">
        <ele>96</ele>
        <time>2016-05-12T13:06:41Z</time>
      </trkpt>
      <trkpt lat="43.34162" lon="5.20631">
        <ele>95</ele>
        <time>2016-05-12T13:06:42Z</time>
      </trkpt>
      <trkpt lat="43.34163" lon="5.2063">
        <ele>95</ele>
        <time>2016-05-12T13:06:43Z</time>
      </trkpt>
      <trkpt lat="43.34164" lon="5.20629">
        <ele>95</ele>
        <time>2016-05-12T13:06:44Z</time>
      </trkpt>
      <trkpt lat="43.34166" lon="5.20628">
        <ele>95</ele>
        <time>2016-05-12T13:06:45Z</time>
      </trkpt>
      <trkpt lat="43.34167" lon="5.20627">
        <ele>95</ele>
        <time>2016-05-12T13:06:46Z</time>
      </trkpt>
      <trkpt lat="43.34169" lon="5.20626">
        <ele>95</ele>
        <time>2016-05-12T13:06:47Z</time>
      </trkpt>
      <trkpt lat="43.3417" lon="5.20625">
        <ele>95</ele>
        <time>2016-05-12T13:06:48Z</time>
      </trkpt>
      <trkpt lat="43.34172" lon="5.20625">
        <ele>95</ele>
        <time>2016-05-12T13:06:49Z</time>
      </trkpt>
      <trkpt lat="43.34173" lon="5.20624">
        <ele>95</ele>
        <time>2016-05-12T13:06:50Z</time>
      </trkpt>
      <trkpt lat="43.34175" lon="5.20624">
        <ele>95</ele>
        <time>2016-05-12T13:06:51Z</time>
      </trkpt>
      <trkpt lat="43.34176" lon="5.20623">
        <ele>95</ele>
        <time>2016-05-12T13:06:52Z</time>
      </trkpt>
      <trkpt lat="43.34178" lon="5.20622">
        <ele>95</ele>
        <time>2016-05-12T13:06:53Z</time>
      </trkpt>
      <trkpt lat="43.34179" lon="5.20622">
        <ele>95</ele>
        <time>2016-05-12T13:06:54Z</time>
      </trkpt>
      <trkpt lat="43.34181" lon="5.20622">
        <ele>95</ele>
        <time>2016-05-12T13:06:55Z</time>
      </trkpt>
      <trkpt lat="43.34182" lon="5.20622">
        <ele>95</ele>
        <time>2016-05-12T13:06:56Z</time>
      </trkpt>
      <trkpt lat="43.34184" lon="5.20621">
        <ele>95</ele>
        <time>2016-05-12T13:06:57Z</time>
      </trkpt>
      <trkpt lat="43.34185" lon="5.2062">
        <ele>94</ele>
        <time>2016-05-12T13:06:58Z</time>
      </trkpt>
      <trkpt lat="43.34187" lon="5.2062">
        <ele>94</ele>
        <time>2016-05-12T13:06:59Z</time>
      </trkpt>
      <trkpt lat="43.34188" lon="5.20619">
        <ele>94</ele>
        <time>2016-05-12T13:07:00Z</time>
      </trkpt>
      <trkpt lat="43.34189" lon="5.20619">
        <ele>94</ele>
        <time>2016-05-12T13:07:01Z</time>
      </trkpt>
      <trkpt lat="43.34191" lon="5.20619">
        <ele>94</ele>
        <time>2016-05-12T13:07:02Z</time>
      </trkpt>
      <trkpt lat="43.34192" lon="5.20618">
        <ele>93</ele>
        <time>2016-05-12T13:07:03Z</time>
      </trkpt>
      <trkpt lat="43.34194" lon="5.20617">
        <ele>93</ele>
        <time>2016-05-12T13:07:04Z</time>
      </trkpt>
      <trkpt lat="43.34195" lon="5.20617">
        <ele>93</ele>
        <time>2016-05-12T13:07:05Z</time>
      </trkpt>
      <trkpt lat="43.34196" lon="5.20617">
        <ele>93</ele>
        <time>2016-05-12T13:07:06Z</time>
      </trkpt>
      <trkpt lat="43.34198" lon="5.20616">
        <ele>93</ele>
        <time>2016-05-12T13:07:07Z</time>
      </trkpt>
      <trkpt lat="43.34199" lon="5.20616">
        <ele>93</ele>
        <time>2016-05-12T13:07:08Z</time>
      </trkpt>
      <trkpt lat="43.34201" lon="5.20616">
        <ele>93</ele>
        <time>2016-05-12T13:07:09Z</time>
      </trkpt>
      <trkpt lat="43.34202" lon="5.20615">
        <ele>93</ele>
        <time>2016-05-12T13:07:10Z</time>
      </trkpt>
      <trkpt lat="43.34203" lon="5.20615">
        <ele>93</ele>
        <time>2016-05-12T13:07:11Z</time>
      </trkpt>
      <trkpt lat="43.34204" lon="5.20614">
        <ele>93</ele>
        <time>2016-05-12T13:07:12Z</time>
      </trkpt>
      <trkpt lat="43.34206" lon="5.20613">
        <ele>93</ele>
        <time>2016-05-12T13:07:14Z</time>
      </trkpt>
      <trkpt lat="43.34207" lon="5.20612">
        <ele>93</ele>
        <time>2016-05-12T13:07:15Z</time>
      </trkpt>
      <trkpt lat="43.34209" lon="5.20611">
        <ele>93</ele>
        <time>2016-05-12T13:07:16Z</time>
      </trkpt>
      <trkpt lat="43.3421" lon="5.20609">
        <ele>93</ele>
        <time>2016-05-12T13:07:18Z</time>
      </trkpt>
      <trkpt lat="43.34211" lon="5.20608">
        <ele>93</ele>
        <time>2016-05-12T13:07:19Z</time>
      </trkpt>
      <trkpt lat="43.34212" lon="5.20607">
        <ele>93</ele>
        <time>2016-05-12T13:07:20Z</time>
      </trkpt>
      <trkpt lat="43.34213" lon="5.20606">
        <ele>93</ele>
        <time>2016-05-12T13:07:21Z</time>
      </trkpt>
      <trkpt lat="43.34214" lon="5.20606">
        <ele>93</ele>
        <time>2016-05-12T13:07:22Z</time>
      </trkpt>
      <trkpt lat="43.34217" lon="5.20604">
        <ele>93</ele>
        <time>2016-05-12T13:07:24Z</time>
      </trkpt>
      <trkpt lat="43.34219" lon="5.20601">
        <ele>92</ele>
        <time>2016-05-12T13:07:26Z</time>
      </trkpt>
      <trkpt lat="43.3422" lon="5.20599">
        <ele>91</ele>
        <time>2016-05-12T13:07:27Z</time>
      </trkpt>
      <trkpt lat="43.34222" lon="5.20597">
        <ele>90</ele>
        <time>2016-05-12T13:07:29Z</time>
      </trkpt>
      <trkpt lat="43.34223" lon="5.20594">
        <ele>90</ele>
        <time>2016-05-12T13:07:30Z</time>
      </trkpt>
      <trkpt lat="43.34224" lon="5.20593">
        <ele>90</ele>
        <time>2016-05-12T13:07:31Z</time>
      </trkpt>
      <trkpt lat="43.34224" lon="5.20591">
        <ele>90</ele>
        <time>2016-05-12T13:07:32Z</time>
      </trkpt>
      <trkpt lat="43.34225" lon="5.20589">
        <ele>89</ele>
        <time>2016-05-12T13:07:33Z</time>
      </trkpt>
      <trkpt lat="43.34228" lon="5.20587">
        <ele>89</ele>
        <time>2016-05-12T13:07:35Z</time>
      </trkpt>
      <trkpt lat="43.34229" lon="5.20586">
        <ele>88</ele>
        <time>2016-05-12T13:07:36Z</time>
      </trkpt>
      <trkpt lat="43.3423" lon="5.20584">
        <ele>88</ele>
        <time>2016-05-12T13:07:37Z</time>
      </trkpt>
      <trkpt lat="43.34231" lon="5.20583">
        <ele>88</ele>
        <time>2016-05-12T13:07:38Z</time>
      </trkpt>
      <trkpt lat="43.34232" lon="5.20581">
        <ele>88</ele>
        <time>2016-05-12T13:07:39Z</time>
      </trkpt>
      <trkpt lat="43.34235" lon="5.20579">
        <ele>87</ele>
        <time>2016-05-12T13:07:41Z</time>
      </trkpt>
      <trkpt lat="43.34237" lon="5.20576">
        <ele>87</ele>
        <time>2016-05-12T13:07:43Z</time>
      </trkpt>
      <trkpt lat="43.34237" lon="5.20574">
        <ele>87</ele>
        <time>2016-05-12T13:07:44Z</time>
      </trkpt>
      <trkpt lat="43.34239" lon="5.20572">
        <ele>87</ele>
        <time>2016-05-12T13:07:46Z</time>
      </trkpt>
      <trkpt lat="43.3424" lon="5.2057">
        <ele>86</ele>
        <time>2016-05-12T13:07:47Z</time>
      </trkpt>
      <trkpt lat="43.34241" lon="5.20568">
        <ele>86</ele>
        <time>2016-05-12T13:07:48Z</time>
      </trkpt>
      <trkpt lat="43.34241" lon="5.20566">
        <ele>85</ele>
        <time>2016-05-12T13:07:49Z</time>
      </trkpt>
      <trkpt lat="43.34242" lon="5.20565">
        <ele>85</ele>
        <time>2016-05-12T13:07:50Z</time>
      </trkpt>
      <trkpt lat="43.34243" lon="5.20563">
        <ele>85</ele>
        <time>2016-05-12T13:07:51Z</time>
      </trkpt>
      <trkpt lat="43.34244" lon="5.20561">
        <ele>85</ele>
        <time>2016-05-12T13:07:52Z</time>
      </trkpt>
      <trkpt lat="43.34244" lon="5.20559">
        <ele>84</ele>
        <time>2016-05-12T13:07:53Z</time>
      </trkpt>
      <trkpt lat="43.34245" lon="5.20558">
        <ele>84</ele>
        <time>2016-05-12T13:07:54Z</time>
      </trkpt>
      <trkpt lat="43.34245" lon="5.20556">
        <ele>84</ele>
        <time>2016-05-12T13:07:55Z</time>
      </trkpt>
      <trkpt lat="43.34246" lon="5.20554">
        <ele>83</ele>
        <time>2016-05-12T13:07:56Z</time>
      </trkpt>
      <trkpt lat="43.34246" lon="5.20553">
        <ele>83</ele>
        <time>2016-05-12T13:07:57Z</time>
      </trkpt>
      <trkpt lat="43.34247" lon="5.20551">
        <ele>83</ele>
        <time>2016-05-12T13:07:58Z</time>
      </trkpt>
      <trkpt lat="43.34247" lon="5.20549">
        <ele>83</ele>
        <time>2016-05-12T13:07:59Z</time>
      </trkpt>
      <trkpt lat="43.34248" lon="5.20548">
        <ele>83</ele>
        <time>2016-05-12T13:08:00Z</time>
      </trkpt>
      <trkpt lat="43.34248" lon="5.20546">
        <ele>83</ele>
        <time>2016-05-12T13:08:01Z</time>
      </trkpt>
      <trkpt lat="43.34249" lon="5.20544">
        <ele>83</ele>
        <time>2016-05-12T13:08:02Z</time>
      </trkpt>
      <trkpt lat="43.34249" lon="5.20542">
        <ele>83</ele>
        <time>2016-05-12T13:08:03Z</time>
      </trkpt>
      <trkpt lat="43.3425" lon="5.2054">
        <ele>83</ele>
        <time>2016-05-12T13:08:04Z</time>
      </trkpt>
      <trkpt lat="43.3425" lon="5.20538">
        <ele>82</ele>
        <time>2016-05-12T13:08:05Z</time>
      </trkpt>
      <trkpt lat="43.34251" lon="5.20536">
        <ele>82</ele>
        <time>2016-05-12T13:08:06Z</time>
      </trkpt>
      <trkpt lat="43.34252" lon="5.20534">
        <ele>82</ele>
        <time>2016-05-12T13:08:07Z</time>
      </trkpt>
      <trkpt lat="43.34252" lon="5.20532">
        <ele>81</ele>
        <time>2016-05-12T13:08:08Z</time>
      </trkpt>
      <trkpt lat="43.34253" lon="5.2053">
        <ele>81</ele>
        <time>2016-05-12T13:08:09Z</time>
      </trkpt>
      <trkpt lat="43.34254" lon="5.20528">
        <ele>81</ele>
        <time>2016-05-12T13:08:10Z</time>
      </trkpt>
      <trkpt lat="43.34255" lon="5.20527">
        <ele>80</ele>
        <time>2016-05-12T13:08:11Z</time>
      </trkpt>
      <trkpt lat="43.34255" lon="5.20525">
        <ele>80</ele>
        <time>2016-05-12T13:08:12Z</time>
      </trkpt>
      <trkpt lat="43.34256" lon="5.20523">
        <ele>80</ele>
        <time>2016-05-12T13:08:13Z</time>
      </trkpt>
      <trkpt lat="43.34257" lon="5.20521">
        <ele>79</ele>
        <time>2016-05-12T13:08:14Z</time>
      </trkpt>
      <trkpt lat="43.34258" lon="5.20519">
        <ele>79</ele>
        <time>2016-05-12T13:08:15Z</time>
      </trkpt>
      <trkpt lat="43.34259" lon="5.20517">
        <ele>79</ele>
        <time>2016-05-12T13:08:16Z</time>
      </trkpt>
      <trkpt lat="43.3426" lon="5.20516">
        <ele>78</ele>
        <time>2016-05-12T13:08:17Z</time>
      </trkpt>
      <trkpt lat="43.34261" lon="5.20514">
        <ele>78</ele>
        <time>2016-05-12T13:08:18Z</time>
      </trkpt>
      <trkpt lat="43.34262" lon="5.20512">
        <ele>78</ele>
        <time>2016-05-12T13:08:19Z</time>
      </trkpt>
      <trkpt lat="43.34262" lon="5.20511">
        <ele>77</ele>
        <time>2016-05-12T13:08:20Z</time>
      </trkpt>
      <trkpt lat="43.34264" lon="5.20509">
        <ele>77</ele>
        <time>2016-05-12T13:08:21Z</time>
      </trkpt>
      <trkpt lat="43.34264" lon="5.20507">
        <ele>76</ele>
        <time>2016-05-12T13:08:22Z</time>
      </trkpt>
      <trkpt lat="43.34266" lon="5.20506">
        <ele>76</ele>
        <time>2016-05-12T13:08:23Z</time>
      </trkpt>
      <trkpt lat="43.34267" lon="5.20504">
        <ele>76</ele>
        <time>2016-05-12T13:08:24Z</time>
      </trkpt>
      <trkpt lat="43.34267" lon="5.20503">
        <ele>75</ele>
        <time>2016-05-12T13:08:25Z</time>
      </trkpt>
      <trkpt lat="43.34268" lon="5.20501">
        <ele>75</ele>
        <time>2016-05-12T13:08:26Z</time>
      </trkpt>
      <trkpt lat="43.34269" lon="5.20499">
        <ele>74</ele>
        <time>2016-05-12T13:08:27Z</time>
      </trkpt>
      <trkpt lat="43.3427" lon="5.20497">
        <ele>74</ele>
        <time>2016-05-12T13:08:28Z</time>
      </trkpt>
      <trkpt lat="43.3427" lon="5.20496">
        <ele>74</ele>
        <time>2016-05-12T13:08:29Z</time>
      </trkpt>
      <trkpt lat="43.34271" lon="5.20494">
        <ele>73</ele>
        <time>2016-05-12T13:08:30Z</time>
      </trkpt>
      <trkpt lat="43.34272" lon="5.20492">
        <ele>73</ele>
        <time>2016-05-12T13:08:31Z</time>
      </trkpt>
      <trkpt lat="43.34272" lon="5.2049">
        <ele>72</ele>
        <time>2016-05-12T13:08:32Z</time>
      </trkpt>
      <trkpt lat="43.34271" lon="5.20488">
        <ele>72</ele>
        <time>2016-05-12T13:08:33Z</time>
      </trkpt>
      <trkpt lat="43.3427" lon="5.20486">
        <ele>72</ele>
        <time>2016-05-12T13:08:34Z</time>
      </trkpt>
      <trkpt lat="43.3427" lon="5.20484">
        <ele>72</ele>
        <time>2016-05-12T13:08:35Z</time>
      </trkpt>
      <trkpt lat="43.34269" lon="5.20482">
        <ele>72</ele>
        <time>2016-05-12T13:08:36Z</time>
      </trkpt>
      <trkpt lat="43.34268" lon="5.20481">
        <ele>72</ele>
        <time>2016-05-12T13:08:37Z</time>
      </trkpt>
      <trkpt lat="43.34266" lon="5.20479">
        <ele>72</ele>
        <time>2016-05-12T13:08:38Z</time>
      </trkpt>
      <trkpt lat="43.34265" lon="5.20478">
        <ele>72</ele>
        <time>2016-05-12T13:08:39Z</time>
      </trkpt>
      <trkpt lat="43.34264" lon="5.20477">
        <ele>72</ele>
        <time>2016-05-12T13:08:40Z</time>
      </trkpt>
      <trkpt lat="43.34263" lon="5.20476">
        <ele>72</ele>
        <time>2016-05-12T13:08:41Z</time>
      </trkpt>
      <trkpt lat="43.34261" lon="5.20475">
        <ele>72</ele>
        <time>2016-05-12T13:08:42Z</time>
      </trkpt>
      <trkpt lat="43.34259" lon="5.20473">
        <ele>72</ele>
        <time>2016-05-12T13:08:43Z</time>
      </trkpt>
      <trkpt lat="43.34257" lon="5.20472">
        <ele>72</ele>
        <time>2016-05-12T13:08:44Z</time>
      </trkpt>
      <trkpt lat="43.34256" lon="5.20471">
        <ele>72</ele>
        <time>2016-05-12T13:08:45Z</time>
      </trkpt>
      <trkpt lat="43.34254" lon="5.2047">
        <ele>72</ele>
        <time>2016-05-12T13:08:46Z</time>
      </trkpt>
      <trkpt lat="43.34253" lon="5.20468">
        <ele>72</ele>
        <time>2016-05-12T13:08:47Z</time>
      </trkpt>
      <trkpt lat="43.34251" lon="5.20467">
        <ele>72</ele>
        <time>2016-05-12T13:08:48Z</time>
      </trkpt>
      <trkpt lat="43.3425" lon="5.20466">
        <ele>72</ele>
        <time>2016-05-12T13:08:49Z</time>
      </trkpt>
      <trkpt lat="43.34248" lon="5.20464">
        <ele>72</ele>
        <time>2016-05-12T13:08:50Z</time>
      </trkpt>
      <trkpt lat="43.34247" lon="5.20463">
        <ele>72</ele>
        <time>2016-05-12T13:08:51Z</time>
      </trkpt>
      <trkpt lat="43.34246" lon="5.20461">
        <ele>72</ele>
        <time>2016-05-12T13:08:52Z</time>
      </trkpt>
      <trkpt lat="43.34245" lon="5.20459">
        <ele>72</ele>
        <time>2016-05-12T13:08:53Z</time>
      </trkpt>
      <trkpt lat="43.34243" lon="5.20458">
        <ele>72</ele>
        <time>2016-05-12T13:08:54Z</time>
      </trkpt>
      <trkpt lat="43.34243" lon="5.20456">
        <ele>72</ele>
        <time>2016-05-12T13:08:55Z</time>
      </trkpt>
      <trkpt lat="43.34241" lon="5.20455">
        <ele>72</ele>
        <time>2016-05-12T13:08:56Z</time>
      </trkpt>
      <trkpt lat="43.3424" lon="5.20453">
        <ele>72</ele>
        <time>2016-05-12T13:08:57Z</time>
      </trkpt>
      <trkpt lat="43.34239" lon="5.20452">
        <ele>72</ele>
        <time>2016-05-12T13:08:58Z</time>
      </trkpt>
      <trkpt lat="43.34238" lon="5.2045">
        <ele>72</ele>
        <time>2016-05-12T13:08:59Z</time>
      </trkpt>
      <trkpt lat="43.34236" lon="5.20449">
        <ele>72</ele>
        <time>2016-05-12T13:09:00Z</time>
      </trkpt>
      <trkpt lat="43.34235" lon="5.20448">
        <ele>72</ele>
        <time>2016-05-12T13:09:01Z</time>
      </trkpt>
      <trkpt lat="43.34233" lon="5.20446">
        <ele>72</ele>
        <time>2016-05-12T13:09:02Z</time>
      </trkpt>
      <trkpt lat="43.34232" lon="5.20445">
        <ele>72</ele>
        <time>2016-05-12T13:09:03Z</time>
      </trkpt>
      <trkpt lat="43.34231" lon="5.20444">
        <ele>72</ele>
        <time>2016-05-12T13:09:04Z</time>
      </trkpt>
      <trkpt lat="43.3423" lon="5.20442">
        <ele>72</ele>
        <time>2016-05-12T13:09:05Z</time>
      </trkpt>
      <trkpt lat="43.34228" lon="5.20441">
        <ele>72</ele>
        <time>2016-05-12T13:09:06Z</time>
      </trkpt>
      <trkpt lat="43.34227" lon="5.2044">
        <ele>72</ele>
        <time>2016-05-12T13:09:07Z</time>
      </trkpt>
      <trkpt lat="43.34225" lon="5.20439">
        <ele>72</ele>
        <time>2016-05-12T13:09:08Z</time>
      </trkpt>
      <trkpt lat="43.34224" lon="5.20437">
        <ele>72</ele>
        <time>2016-05-12T13:09:09Z</time>
      </trkpt>
      <trkpt lat="43.34222" lon="5.20436">
        <ele>72</ele>
        <time>2016-05-12T13:09:10Z</time>
      </trkpt>
      <trkpt lat="43.34221" lon="5.20435">
        <ele>72</ele>
        <time>2016-05-12T13:09:11Z</time>
      </trkpt>
      <trkpt lat="43.3422" lon="5.20434">
        <ele>72</ele>
        <time>2016-05-12T13:09:12Z</time>
      </trkpt>
      <trkpt lat="43.34219" lon="5.20433">
        <ele>72</ele>
        <time>2016-05-12T13:09:13Z</time>
      </trkpt>
      <trkpt lat="43.34217" lon="5.20432">
        <ele>72</ele>
        <time>2016-05-12T13:09:14Z</time>
      </trkpt>
      <trkpt lat="43.34216" lon="5.20431">
        <ele>72</ele>
        <time>2016-05-12T13:09:15Z</time>
      </trkpt>
      <trkpt lat="43.34214" lon="5.2043">
        <ele>72</ele>
        <time>2016-05-12T13:09:16Z</time>
      </trkpt>
      <trkpt lat="43.34213" lon="5.20429">
        <ele>72</ele>
        <time>2016-05-12T13:09:17Z</time>
      </trkpt>
      <trkpt lat="43.34211" lon="5.20428">
        <ele>72</ele>
        <time>2016-05-12T13:09:18Z</time>
      </trkpt>
      <trkpt lat="43.3421" lon="5.20427">
        <ele>72</ele>
        <time>2016-05-12T13:09:19Z</time>
      </trkpt>
      <trkpt lat="43.34209" lon="5.20426">
        <ele>72</ele>
        <time>2016-05-12T13:09:20Z</time>
      </trkpt>
      <trkpt lat="43.34208" lon="5.20425">
        <ele>72</ele>
        <time>2016-05-12T13:09:21Z</time>
      </trkpt>
      <trkpt lat="43.34206" lon="5.20424">
        <ele>72</ele>
        <time>2016-05-12T13:09:22Z</time>
      </trkpt>
      <trkpt lat="43.34205" lon="5.20422">
        <ele>72</ele>
        <time>2016-05-12T13:09:23Z</time>
      </trkpt>
      <trkpt lat="43.34204" lon="5.20421">
        <ele>72</ele>
        <time>2016-05-12T13:09:24Z</time>
      </trkpt>
      <trkpt lat="43.34203" lon="5.2042">
        <ele>72</ele>
        <time>2016-05-12T13:09:25Z</time>
      </trkpt>
      <trkpt lat="43.34201" lon="5.20418">
        <ele>72</ele>
        <time>2016-05-12T13:09:26Z</time>
      </trkpt>
      <trkpt lat="43.342" lon="5.20417">
        <ele>72</ele>
        <time>2016-05-12T13:09:27Z</time>
      </trkpt>
      <trkpt lat="43.34199" lon="5.20416">
        <ele>72</ele>
        <time>2016-05-12T13:09:28Z</time>
      </trkpt>
      <trkpt lat="43.34198" lon="5.20415">
        <ele>72</ele>
        <time>2016-05-12T13:09:29Z</time>
      </trkpt>
      <trkpt lat="43.34196" lon="5.20414">
        <ele>72</ele>
        <time>2016-05-12T13:09:30Z</time>
      </trkpt>
      <trkpt lat="43.34195" lon="5.20413">
        <ele>72</ele>
        <time>2016-05-12T13:09:31Z</time>
      </trkpt>
      <trkpt lat="43.34194" lon="5.20412">
        <ele>72</ele>
        <time>2016-05-12T13:09:32Z</time>
      </trkpt>
      <trkpt lat="43.34193" lon="5.2041">
        <ele>72</ele>
        <time>2016-05-12T13:09:33Z</time>
      </trkpt>
      <trkpt lat="43.34191" lon="5.20409">
        <ele>72</ele>
        <time>2016-05-12T13:09:34Z</time>
      </trkpt>
      <trkpt lat="43.3419" lon="5.20408">
        <ele>72</ele>
        <time>2016-05-12T13:09:35Z</time>
      </trkpt>
      <trkpt lat="43.34188" lon="5.20407">
        <ele>73</ele>
        <time>2016-05-12T13:09:36Z</time>
      </trkpt>
      <trkpt lat="43.34187" lon="5.20407">
        <ele>73</ele>
        <time>2016-05-12T13:09:37Z</time>
      </trkpt>
      <trkpt lat="43.34186" lon="5.20406">
        <ele>73</ele>
        <time>2016-05-12T13:09:38Z</time>
      </trkpt>
      <trkpt lat="43.34185" lon="5.20405">
        <ele>73</ele>
        <time>2016-05-12T13:09:39Z</time>
      </trkpt>
      <trkpt lat="43.34183" lon="5.20404">
        <ele>73</ele>
        <time>2016-05-12T13:09:40Z</time>
      </trkpt>
      <trkpt lat="43.34182" lon="5.20403">
        <ele>73</ele>
        <time>2016-05-12T13:09:41Z</time>
      </trkpt>
      <trkpt lat="43.34181" lon="5.20401">
        <ele>73</ele>
        <time>2016-05-12T13:09:42Z</time>
      </trkpt>
      <trkpt lat="43.3418" lon="5.20401">
        <ele>73</ele>
        <time>2016-05-12T13:09:43Z</time>
      </trkpt>
      <trkpt lat="43.34178" lon="5.204">
        <ele>73</ele>
        <time>2016-05-12T13:09:44Z</time>
      </trkpt>
      <trkpt lat="43.34177" lon="5.20399">
        <ele>73</ele>
        <time>2016-05-12T13:09:45Z</time>
      </trkpt>
      <trkpt lat="43.34176" lon="5.20398">
        <ele>73</ele>
        <time>2016-05-12T13:09:46Z</time>
      </trkpt>
      <trkpt lat="43.34174" lon="5.20397">
        <ele>73</ele>
        <time>2016-05-12T13:09:47Z</time>
      </trkpt>
      <trkpt lat="43.34173" lon="5.20397">
        <ele>73</ele>
        <time>2016-05-12T13:09:48Z</time>
      </trkpt>
      <trkpt lat="43.34172" lon="5.20396">
        <ele>73</ele>
        <time>2016-05-12T13:09:49Z</time>
      </trkpt>
      <trkpt lat="43.3417" lon="5.20395">
        <ele>73</ele>
        <time>2016-05-12T13:09:50Z</time>
      </trkpt>
      <trkpt lat="43.34169" lon="5.20394">
        <ele>73</ele>
        <time>2016-05-12T13:09:51Z</time>
      </trkpt>
      <trkpt lat="43.34167" lon="5.20394">
        <ele>73</ele>
        <time>2016-05-12T13:09:52Z</time>
      </trkpt>
      <trkpt lat="43.34166" lon="5.20393">
        <ele>73</ele>
        <time>2016-05-12T13:09:53Z</time>
      </trkpt>
      <trkpt lat="43.34165" lon="5.20392">
        <ele>73</ele>
        <time>2016-05-12T13:09:54Z</time>
      </trkpt>
      <trkpt lat="43.34164" lon="5.20391">
        <ele>73</ele>
        <time>2016-05-12T13:09:55Z</time>
      </trkpt>
      <trkpt lat="43.34162" lon="5.20389">
        <ele>73</ele>
        <time>2016-05-12T13:09:56Z</time>
      </trkpt>
      <trkpt lat="43.34161" lon="5.20388">
        <ele>73</ele>
        <time>2016-05-12T13:09:57Z</time>
      </trkpt>
      <trkpt lat="43.3416" lon="5.20387">
        <ele>73</ele>
        <time>2016-05-12T13:09:58Z</time>
      </trkpt>
      <trkpt lat="43.34158" lon="5.20386">
        <ele>73</ele>
        <time>2016-05-12T13:09:59Z</time>
      </trkpt>
      <trkpt lat="43.34158" lon="5.20385">
        <ele>73</ele>
        <time>2016-05-12T13:10:00Z</time>
      </trkpt>
      <trkpt lat="43.34156" lon="5.20384">
        <ele>73</ele>
        <time>2016-05-12T13:10:01Z</time>
      </trkpt>
      <trkpt lat="43.34155" lon="5.20383">
        <ele>73</ele>
        <time>2016-05-12T13:10:02Z</time>
      </trkpt>
      <trkpt lat="43.34153" lon="5.20382">
        <ele>73</ele>
        <time>2016-05-12T13:10:03Z</time>
      </trkpt>
      <trkpt lat="43.34152" lon="5.20381">
        <ele>73</ele>
        <time>2016-05-12T13:10:04Z</time>
      </trkpt>
      <trkpt lat="43.34151" lon="5.2038">
        <ele>73</ele>
        <time>2016-05-12T13:10:05Z</time>
      </trkpt>
      <trkpt lat="43.3415" lon="5.20379">
        <ele>73</ele>
        <time>2016-05-12T13:10:06Z</time>
      </trkpt>
      <trkpt lat="43.34148" lon="5.20378">
        <ele>73</ele>
        <time>2016-05-12T13:10:07Z</time>
      </trkpt>
      <trkpt lat="43.34146" lon="5.20375">
        <ele>73</ele>
        <time>2016-05-12T13:10:09Z</time>
      </trkpt>
      <trkpt lat="43.34145" lon="5.20374">
        <ele>73</ele>
        <time>2016-05-12T13:10:10Z</time>
      </trkpt>
      <trkpt lat="43.34144" lon="5.20373">
        <ele>73</ele>
        <time>2016-05-12T13:10:11Z</time>
      </trkpt>
      <trkpt lat="43.34143" lon="5.20372">
        <ele>73</ele>
        <time>2016-05-12T13:10:12Z</time>
      </trkpt>
      <trkpt lat="43.34141" lon="5.20371">
        <ele>73</ele>
        <time>2016-05-12T13:10:13Z</time>
      </trkpt>
      <trkpt lat="43.3414" lon="5.2037">
        <ele>73</ele>
        <time>2016-05-12T13:10:14Z</time>
      </trkpt>
      <trkpt lat="43.34138" lon="5.20368">
        <ele>73</ele>
        <time>2016-05-12T13:10:15Z</time>
      </trkpt>
      <trkpt lat="43.34137" lon="5.20367">
        <ele>73</ele>
        <time>2016-05-12T13:10:16Z</time>
      </trkpt>
      <trkpt lat="43.34136" lon="5.20366">
        <ele>73</ele>
        <time>2016-05-12T13:10:17Z</time>
      </trkpt>
      <trkpt lat="43.34135" lon="5.20365">
        <ele>73</ele>
        <time>2016-05-12T13:10:18Z</time>
      </trkpt>
      <trkpt lat="43.34133" lon="5.20364">
        <ele>73</ele>
        <time>2016-05-12T13:10:19Z</time>
      </trkpt>
      <trkpt lat="43.34132" lon="5.20363">
        <ele>73</ele>
        <time>2016-05-12T13:10:20Z</time>
      </trkpt>
      <trkpt lat="43.34131" lon="5.20362">
        <ele>73</ele>
        <time>2016-05-12T13:10:21Z</time>
      </trkpt>
      <trkpt lat="43.34129" lon="5.20361">
        <ele>73</ele>
        <time>2016-05-12T13:10:22Z</time>
      </trkpt>
      <trkpt lat="43.34128" lon="5.2036">
        <ele>73</ele>
        <time>2016-05-12T13:10:23Z</time>
      </trkpt>
      <trkpt lat="43.34127" lon="5.20359">
        <ele>73</ele>
        <time>2016-05-12T13:10:24Z</time>
      </trkpt>
      <trkpt lat="43.34126" lon="5.20358">
        <ele>73</ele>
        <time>2016-05-12T13:10:25Z</time>
      </trkpt>
      <trkpt lat="43.34124" lon="5.20357">
        <ele>73</ele>
        <time>2016-05-12T13:10:26Z</time>
      </trkpt>
      <trkpt lat="43.34123" lon="5.20356">
        <ele>73</ele>
        <time>2016-05-12T13:10:27Z</time>
      </trkpt>
      <trkpt lat="43.34122" lon="5.20355">
        <ele>73</ele>
        <time>2016-05-12T13:10:28Z</time>
      </trkpt>
      <trkpt lat="43.34121" lon="5.20353">
        <ele>73</ele>
        <time>2016-05-12T13:10:29Z</time>
      </trkpt>
      <trkpt lat="43.34119" lon="5.20352">
        <ele>73</ele>
        <time>2016-05-12T13:10:30Z</time>
      </trkpt>
      <trkpt lat="43.34118" lon="5.20351">
        <ele>73</ele>
        <time>2016-05-12T13:10:31Z</time>
      </trkpt>
      <trkpt lat="43.34117" lon="5.2035">
        <ele>73</ele>
        <time>2016-05-12T13:10:32Z</time>
      </trkpt>
      <trkpt lat="43.34115" lon="5.20349">
        <ele>73</ele>
        <time>2016-05-12T13:10:33Z</time>
      </trkpt>
      <trkpt lat="43.34114" lon="5.20348">
        <ele>73</ele>
        <time>2016-05-12T13:10:34Z</time>
      </trkpt>
      <trkpt lat="43.34112" lon="5.20348">
        <ele>73</ele>
        <time>2016-05-12T13:10:35Z</time>
      </trkpt>
      <trkpt lat="43.34111" lon="5.20347">
        <ele>73</ele>
        <time>2016-05-12T13:10:36Z</time>
      </trkpt>
      <trkpt lat="43.34109" lon="5.20347">
        <ele>73</ele>
        <time>2016-05-12T13:10:37Z</time>
      </trkpt>
      <trkpt lat="43.34108" lon="5.20346">
        <ele>73</ele>
        <time>2016-05-12T13:10:38Z</time>
      </trkpt>
      <trkpt lat="43.34106" lon="5.20345">
        <ele>73</ele>
        <time>2016-05-12T13:10:39Z</time>
      </trkpt>
      <trkpt lat="43.34105" lon="5.20345">
        <ele>73</ele>
        <time>2016-05-12T13:10:40Z</time>
      </trkpt>
      <trkpt lat="43.34103" lon="5.20344">
        <ele>73</ele>
        <time>2016-05-12T13:10:41Z</time>
      </trkpt>
      <trkpt lat="43.34102" lon="5.20343">
        <ele>73</ele>
        <time>2016-05-12T13:10:42Z</time>
      </trkpt>
      <trkpt lat="43.341" lon="5.20342">
        <ele>73</ele>
        <time>2016-05-12T13:10:43Z</time>
      </trkpt>
      <trkpt lat="43.34099" lon="5.20341">
        <ele>73</ele>
        <time>2016-05-12T13:10:44Z</time>
      </trkpt>
      <trkpt lat="43.34098" lon="5.2034">
        <ele>73</ele>
        <time>2016-05-12T13:10:45Z</time>
      </trkpt>
      <trkpt lat="43.34096" lon="5.2034">
        <ele>73</ele>
        <time>2016-05-12T13:10:46Z</time>
      </trkpt>
      <trkpt lat="43.34095" lon="5.20339">
        <ele>73</ele>
        <time>2016-05-12T13:10:47Z</time>
      </trkpt>
      <trkpt lat="43.34093" lon="5.20338">
        <ele>73</ele>
        <time>2016-05-12T13:10:48Z</time>
      </trkpt>
      <trkpt lat="43.34091" lon="5.20337">
        <ele>73</ele>
        <time>2016-05-12T13:10:49Z</time>
      </trkpt>
      <trkpt lat="43.3409" lon="5.20337">
        <ele>73</ele>
        <time>2016-05-12T13:10:50Z</time>
      </trkpt>
      <trkpt lat="43.34089" lon="5.20336">
        <ele>73</ele>
        <time>2016-05-12T13:10:51Z</time>
      </trkpt>
      <trkpt lat="43.34087" lon="5.20335">
        <ele>73</ele>
        <time>2016-05-12T13:10:52Z</time>
      </trkpt>
      <trkpt lat="43.34085" lon="5.20334">
        <ele>73</ele>
        <time>2016-05-12T13:10:53Z</time>
      </trkpt>
      <trkpt lat="43.34084" lon="5.20333">
        <ele>73</ele>
        <time>2016-05-12T13:10:54Z</time>
      </trkpt>
      <trkpt lat="43.34083" lon="5.20332">
        <ele>73</ele>
        <time>2016-05-12T13:10:55Z</time>
      </trkpt>
      <trkpt lat="43.34081" lon="5.20332">
        <ele>73</ele>
        <time>2016-05-12T13:10:56Z</time>
      </trkpt>
      <trkpt lat="43.3408" lon="5.20331">
        <ele>73</ele>
        <time>2016-05-12T13:10:57Z</time>
      </trkpt>
      <trkpt lat="43.34079" lon="5.2033">
        <ele>73</ele>
        <time>2016-05-12T13:10:58Z</time>
      </trkpt>
      <trkpt lat="43.34077" lon="5.20329">
        <ele>73</ele>
        <time>2016-05-12T13:10:59Z</time>
      </trkpt>
      <trkpt lat="43.34076" lon="5.20329">
        <ele>72</ele>
        <time>2016-05-12T13:11:00Z</time>
      </trkpt>
      <trkpt lat="43.34074" lon="5.20328">
        <ele>72</ele>
        <time>2016-05-12T13:11:01Z</time>
      </trkpt>
      <trkpt lat="43.34073" lon="5.20327">
        <ele>72</ele>
        <time>2016-05-12T13:11:02Z</time>
      </trkpt>
      <trkpt lat="43.34071" lon="5.20326">
        <ele>72</ele>
        <time>2016-05-12T13:11:03Z</time>
      </trkpt>
      <trkpt lat="43.3407" lon="5.20325">
        <ele>72</ele>
        <time>2016-05-12T13:11:04Z</time>
      </trkpt>
      <trkpt lat="43.34069" lon="5.20324">
        <ele>71</ele>
        <time>2016-05-12T13:11:05Z</time>
      </trkpt>
      <trkpt lat="43.34067" lon="5.20323">
        <ele>71</ele>
        <time>2016-05-12T13:11:06Z</time>
      </trkpt>
      <trkpt lat="43.34066" lon="5.20322">
        <ele>71</ele>
        <time>2016-05-12T13:11:07Z</time>
      </trkpt>
      <trkpt lat="43.34064" lon="5.20322">
        <ele>71</ele>
        <time>2016-05-12T13:11:08Z</time>
      </trkpt>
      <trkpt lat="43.34063" lon="5.20321">
        <ele>71</ele>
        <time>2016-05-12T13:11:09Z</time>
      </trkpt>
      <trkpt lat="43.34061" lon="5.2032">
        <ele>71</ele>
        <time>2016-05-12T13:11:10Z</time>
      </trkpt>
      <trkpt lat="43.3406" lon="5.20319">
        <ele>71</ele>
        <time>2016-05-12T13:11:11Z</time>
      </trkpt>
      <trkpt lat="43.34058" lon="5.20318">
        <ele>71</ele>
        <time>2016-05-12T13:11:12Z</time>
      </trkpt>
      <trkpt lat="43.34057" lon="5.20317">
        <ele>71</ele>
        <time>2016-05-12T13:11:13Z</time>
      </trkpt>
      <trkpt lat="43.34055" lon="5.20317">
        <ele>71</ele>
        <time>2016-05-12T13:11:14Z</time>
      </trkpt>
      <trkpt lat="43.34054" lon="5.20316">
        <ele>71</ele>
        <time>2016-05-12T13:11:15Z</time>
      </trkpt>
      <trkpt lat="43.34053" lon="5.20315">
        <ele>71</ele>
        <time>2016-05-12T13:11:16Z</time>
      </trkpt>
      <trkpt lat="43.34051" lon="5.20314">
        <ele>71</ele>
        <time>2016-05-12T13:11:17Z</time>
      </trkpt>
      <trkpt lat="43.3405" lon="5.20314">
        <ele>71</ele>
        <time>2016-05-12T13:11:18Z</time>
      </trkpt>
      <trkpt lat="43.34048" lon="5.20313">
        <ele>71</ele>
        <time>2016-05-12T13:11:19Z</time>
      </trkpt>
      <trkpt lat="43.34047" lon="5.20312">
        <ele>71</ele>
        <time>2016-05-12T13:11:20Z</time>
      </trkpt>
      <trkpt lat="43.34045" lon="5.20311">
        <ele>71</ele>
        <time>2016-05-12T13:11:21Z</time>
      </trkpt>
      <trkpt lat="43.34044" lon="5.2031">
        <ele>71</ele>
        <time>2016-05-12T13:11:22Z</time>
      </trkpt>
      <trkpt lat="43.34043" lon="5.20309">
        <ele>71</ele>
        <time>2016-05-12T13:11:23Z</time>
      </trkpt>
      <trkpt lat="43.34041" lon="5.20309">
        <ele>71</ele>
        <time>2016-05-12T13:11:24Z</time>
      </trkpt>
      <trkpt lat="43.3404" lon="5.20308">
        <ele>71</ele>
        <time>2016-05-12T13:11:25Z</time>
      </trkpt>
      <trkpt lat="43.34038" lon="5.20307">
        <ele>71</ele>
        <time>2016-05-12T13:11:26Z</time>
      </trkpt>
      <trkpt lat="43.34037" lon="5.20306">
        <ele>71</ele>
        <time>2016-05-12T13:11:27Z</time>
      </trkpt>
      <trkpt lat="43.34036" lon="5.20305">
        <ele>70</ele>
        <time>2016-05-12T13:11:28Z</time>
      </trkpt>
      <trkpt lat="43.34034" lon="5.20304">
        <ele>70</ele>
        <time>2016-05-12T13:11:29Z</time>
      </trkpt>
      <trkpt lat="43.34033" lon="5.20303">
        <ele>70</ele>
        <time>2016-05-12T13:11:30Z</time>
      </trkpt>
      <trkpt lat="43.34031" lon="5.20302">
        <ele>70</ele>
        <time>2016-05-12T13:11:31Z</time>
      </trkpt>
      <trkpt lat="43.3403" lon="5.20301">
        <ele>70</ele>
        <time>2016-05-12T13:11:32Z</time>
      </trkpt>
      <trkpt lat="43.34029" lon="5.203">
        <ele>70</ele>
        <time>2016-05-12T13:11:33Z</time>
      </trkpt>
      <trkpt lat="43.34027" lon="5.20299">
        <ele>70</ele>
        <time>2016-05-12T13:11:34Z</time>
      </trkpt>
      <trkpt lat="43.34026" lon="5.20298">
        <ele>70</ele>
        <time>2016-05-12T13:11:35Z</time>
      </trkpt>
      <trkpt lat="43.34024" lon="5.20298">
        <ele>70</ele>
        <time>2016-05-12T13:11:36Z</time>
      </trkpt>
      <trkpt lat="43.34023" lon="5.20297">
        <ele>69</ele>
        <time>2016-05-12T13:11:37Z</time>
      </trkpt>
      <trkpt lat="43.34021" lon="5.20296">
        <ele>69</ele>
        <time>2016-05-12T13:11:38Z</time>
      </trkpt>
      <trkpt lat="43.3402" lon="5.20295">
        <ele>69</ele>
        <time>2016-05-12T13:11:39Z</time>
      </trkpt>
      <trkpt lat="43.34018" lon="5.20295">
        <ele>69</ele>
        <time>2016-05-12T13:11:40Z</time>
      </trkpt>
      <trkpt lat="43.34017" lon="5.20294">
        <ele>69</ele>
        <time>2016-05-12T13:11:41Z</time>
      </trkpt>
      <trkpt lat="43.34015" lon="5.20293">
        <ele>69</ele>
        <time>2016-05-12T13:11:42Z</time>
      </trkpt>
      <trkpt lat="43.34014" lon="5.20292">
        <ele>69</ele>
        <time>2016-05-12T13:11:43Z</time>
      </trkpt>
      <trkpt lat="43.34012" lon="5.20292">
        <ele>69</ele>
        <time>2016-05-12T13:11:44Z</time>
      </trkpt>
      <trkpt lat="43.34011" lon="5.20291">
        <ele>69</ele>
        <time>2016-05-12T13:11:45Z</time>
      </trkpt>
      <trkpt lat="43.34009" lon="5.2029">
        <ele>69</ele>
        <time>2016-05-12T13:11:46Z</time>
      </trkpt>
      <trkpt lat="43.34008" lon="5.20289">
        <ele>69</ele>
        <time>2016-05-12T13:11:47Z</time>
      </trkpt>
      <trkpt lat="43.34006" lon="5.20289">
        <ele>69</ele>
        <time>2016-05-12T13:11:48Z</time>
      </trkpt>
      <trkpt lat="43.34005" lon="5.20288">
        <ele>69</ele>
        <time>2016-05-12T13:11:49Z</time>
      </trkpt>
      <trkpt lat="43.34003" lon="5.20287">
        <ele>69</ele>
        <time>2016-05-12T13:11:50Z</time>
      </trkpt>
      <trkpt lat="43.34002" lon="5.20287">
        <ele>69</ele>
        <time>2016-05-12T13:11:51Z</time>
      </trkpt>
      <trkpt lat="43.34" lon="5.20286">
        <ele>69</ele>
        <time>2016-05-12T13:11:52Z</time>
      </trkpt>
      <trkpt lat="43.33999" lon="5.20285">
        <ele>69</ele>
        <time>2016-05-12T13:11:53Z</time>
      </trkpt>
      <trkpt lat="43.33997" lon="5.20283">
        <ele>69</ele>
        <time>2016-05-12T13:11:54Z</time>
      </trkpt>
      <trkpt lat="43.33997" lon="5.20282">
        <ele>69</ele>
        <time>2016-05-12T13:11:55Z</time>
      </trkpt>
      <trkpt lat="43.33996" lon="5.2028">
        <ele>69</ele>
        <time>2016-05-12T13:11:56Z</time>
      </trkpt>
      <trkpt lat="43.33995" lon="5.20278">
        <ele>69</ele>
        <time>2016-05-12T13:11:57Z</time>
      </trkpt>
      <trkpt lat="43.33995" lon="5.20276">
        <ele>69</ele>
        <time>2016-05-12T13:11:58Z</time>
      </trkpt>
      <trkpt lat="43.33995" lon="5.20274">
        <ele>69</ele>
        <time>2016-05-12T13:11:59Z</time>
      </trkpt>
      <trkpt lat="43.33995" lon="5.20272">
        <ele>69</ele>
        <time>2016-05-12T13:12:00Z</time>
      </trkpt>
      <trkpt lat="43.33995" lon="5.2027">
        <ele>69</ele>
        <time>2016-05-12T13:12:01Z</time>
      </trkpt>
      <trkpt lat="43.33995" lon="5.20268">
        <ele>69</ele>
        <time>2016-05-12T13:12:02Z</time>
      </trkpt>
      <trkpt lat="43.33996" lon="5.20265">
        <ele>69</ele>
        <time>2016-05-12T13:12:03Z</time>
      </trkpt>
      <trkpt lat="43.33997" lon="5.20264">
        <ele>69</ele>
        <time>2016-05-12T13:12:04Z</time>
      </trkpt>
      <trkpt lat="43.33997" lon="5.20262">
        <ele>69</ele>
        <time>2016-05-12T13:12:05Z</time>
      </trkpt>
      <trkpt lat="43.33997" lon="5.2026">
        <ele>69</ele>
        <time>2016-05-12T13:12:06Z</time>
      </trkpt>
      <trkpt lat="43.33997" lon="5.20258">
        <ele>69</ele>
        <time>2016-05-12T13:12:08Z</time>
      </trkpt>
      <trkpt lat="43.33995" lon="5.20257">
        <ele>69</ele>
        <time>2016-05-12T13:12:10Z</time>
      </trkpt>
      <trkpt lat="43.33994" lon="5.20256">
        <ele>69</ele>
        <time>2016-05-12T13:12:11Z</time>
      </trkpt>
      <trkpt lat="43.33993" lon="5.20255">
        <ele>69</ele>
        <time>2016-05-12T13:12:12Z</time>
      </trkpt>
      <trkpt lat="43.33992" lon="5.20253">
        <ele>69</ele>
        <time>2016-05-12T13:12:14Z</time>
      </trkpt>
      <trkpt lat="43.33992" lon="5.20251">
        <ele>69</ele>
        <time>2016-05-12T13:12:15Z</time>
      </trkpt>
      <trkpt lat="43.33992" lon="5.20249">
        <ele>69</ele>
        <time>2016-05-12T13:12:16Z</time>
      </trkpt>
      <trkpt lat="43.33992" lon="5.20248">
        <ele>69</ele>
        <time>2016-05-12T13:12:17Z</time>
      </trkpt>
      <trkpt lat="43.33992" lon="5.20245">
        <ele>69</ele>
        <time>2016-05-12T13:12:19Z</time>
      </trkpt>
      <trkpt lat="43.33992" lon="5.20242">
        <ele>69</ele>
        <time>2016-05-12T13:12:21Z</time>
      </trkpt>
      <trkpt lat="43.33992" lon="5.20241">
        <ele>69</ele>
        <time>2016-05-12T13:12:22Z</time>
      </trkpt>
      <trkpt lat="43.33992" lon="5.20238">
        <ele>69</ele>
        <time>2016-05-12T13:12:24Z</time>
      </trkpt>
      <trkpt lat="43.33992" lon="5.20236">
        <ele>69</ele>
        <time>2016-05-12T13:12:26Z</time>
      </trkpt>
      <trkpt lat="43.33992" lon="5.20234">
        <ele>69</ele>
        <time>2016-05-12T13:12:28Z</time>
      </trkpt>
      <trkpt lat="43.33992" lon="5.20231">
        <ele>69</ele>
        <time>2016-05-12T13:12:30Z</time>
      </trkpt>
      <trkpt lat="43.33991" lon="5.20229">
        <ele>70</ele>
        <time>2016-05-12T13:12:32Z</time>
      </trkpt>
      <trkpt lat="43.3399" lon="5.20228">
        <ele>71</ele>
        <time>2016-05-12T13:12:34Z</time>
      </trkpt>
      <trkpt lat="43.33989" lon="5.20226">
        <ele>71</ele>
        <time>2016-05-12T13:12:36Z</time>
      </trkpt>
      <trkpt lat="43.33987" lon="5.20225">
        <ele>72</ele>
        <time>2016-05-12T13:12:38Z</time>
      </trkpt>
      <trkpt lat="43.33986" lon="5.20223">
        <ele>73</ele>
        <time>2016-05-12T13:12:40Z</time>
      </trkpt>
      <trkpt lat="43.33984" lon="5.20221">
        <ele>74</ele>
        <time>2016-05-12T13:12:42Z</time>
      </trkpt>
      <trkpt lat="43.33983" lon="5.20218">
        <ele>74</ele>
        <time>2016-05-12T13:12:44Z</time>
      </trkpt>
      <trkpt lat="43.33983" lon="5.20216">
        <ele>74</ele>
        <time>2016-05-12T13:12:45Z</time>
      </trkpt>
      <trkpt lat="43.33983" lon="5.20215">
        <ele>74</ele>
        <time>2016-05-12T13:12:46Z</time>
      </trkpt>
      <trkpt lat="43.33983" lon="5.20212">
        <ele>74</ele>
        <time>2016-05-12T13:12:48Z</time>
      </trkpt>
      <trkpt lat="43.33983" lon="5.2021">
        <ele>74</ele>
        <time>2016-05-12T13:12:49Z</time>
      </trkpt>
      <trkpt lat="43.33983" lon="5.20209">
        <ele>74</ele>
        <time>2016-05-12T13:12:50Z</time>
      </trkpt>
      <trkpt lat="43.33984" lon="5.20206">
        <ele>74</ele>
        <time>2016-05-12T13:12:52Z</time>
      </trkpt>
      <trkpt lat="43.33984" lon="5.20204">
        <ele>74</ele>
        <time>2016-05-12T13:12:53Z</time>
      </trkpt>
      <trkpt lat="43.33984" lon="5.20201">
        <ele>75</ele>
        <time>2016-05-12T13:12:55Z</time>
      </trkpt>
      <trkpt lat="43.33984" lon="5.20199">
        <ele>75</ele>
        <time>2016-05-12T13:12:57Z</time>
      </trkpt>
      <trkpt lat="43.33984" lon="5.20196">
        <ele>76</ele>
        <time>2016-05-12T13:12:59Z</time>
      </trkpt>
      <trkpt lat="43.33984" lon="5.20194">
        <ele>76</ele>
        <time>2016-05-12T13:13:01Z</time>
      </trkpt>
      <trkpt lat="43.33984" lon="5.20192">
        <ele>76</ele>
        <time>2016-05-12T13:13:02Z</time>
      </trkpt>
      <trkpt lat="43.33984" lon="5.20191">
        <ele>77</ele>
        <time>2016-05-12T13:13:03Z</time>
      </trkpt>
      <trkpt lat="43.33983" lon="5.20189">
        <ele>77</ele>
        <time>2016-05-12T13:13:04Z</time>
      </trkpt>
      <trkpt lat="43.33983" lon="5.20188">
        <ele>77</ele>
        <time>2016-05-12T13:13:05Z</time>
      </trkpt>
      <trkpt lat="43.33983" lon="5.20185">
        <ele>77</ele>
        <time>2016-05-12T13:13:07Z</time>
      </trkpt>
      <trkpt lat="43.33983" lon="5.20183">
        <ele>77</ele>
        <time>2016-05-12T13:13:09Z</time>
      </trkpt>
      <trkpt lat="43.33984" lon="5.20181">
        <ele>77</ele>
        <time>2016-05-12T13:13:11Z</time>
      </trkpt>
      <trkpt lat="43.33984" lon="5.20178">
        <ele>77</ele>
        <time>2016-05-12T13:13:13Z</time>
      </trkpt>
      <trkpt lat="43.33984" lon="5.20177">
        <ele>77</ele>
        <time>2016-05-12T13:13:14Z</time>
      </trkpt>
      <trkpt lat="43.33984" lon="5.20174">
        <ele>78</ele>
        <time>2016-05-12T13:13:16Z</time>
      </trkpt>
      <trkpt lat="43.33985" lon="5.20171">
        <ele>78</ele>
        <time>2016-05-12T13:13:18Z</time>
      </trkpt>
      <trkpt lat="43.33986" lon="5.20169">
        <ele>78</ele>
        <time>2016-05-12T13:13:20Z</time>
      </trkpt>
      <trkpt lat="43.33987" lon="5.20167">
        <ele>78</ele>
        <time>2016-05-12T13:13:22Z</time>
      </trkpt>
      <trkpt lat="43.33988" lon="5.20164">
        <ele>79</ele>
        <time>2016-05-12T13:13:24Z</time>
      </trkpt>
      <trkpt lat="43.33988" lon="5.20162">
        <ele>79</ele>
        <time>2016-05-12T13:13:26Z</time>
      </trkpt>
      <trkpt lat="43.33988" lon="5.2016">
        <ele>80</ele>
        <time>2016-05-12T13:13:28Z</time>
      </trkpt>
      <trkpt lat="43.33988" lon="5.20158">
        <ele>80</ele>
        <time>2016-05-12T13:13:30Z</time>
      </trkpt>
      <trkpt lat="43.33987" lon="5.20155">
        <ele>82</ele>
        <time>2016-05-12T13:13:32Z</time>
      </trkpt>
      <trkpt lat="43.33987" lon="5.20153">
        <ele>82</ele>
        <time>2016-05-12T13:13:34Z</time>
      </trkpt>
      <trkpt lat="43.33986" lon="5.2015">
        <ele>83</ele>
        <time>2016-05-12T13:13:36Z</time>
      </trkpt>
      <trkpt lat="43.33986" lon="5.20148">
        <ele>83</ele>
        <time>2016-05-12T13:13:38Z</time>
      </trkpt>
      <trkpt lat="43.33986" lon="5.20146">
        <ele>83</ele>
        <time>2016-05-12T13:13:39Z</time>
      </trkpt>
      <trkpt lat="43.33985" lon="5.20145">
        <ele>83</ele>
        <time>2016-05-12T13:13:40Z</time>
      </trkpt>
      <trkpt lat="43.33985" lon="5.20143">
        <ele>84</ele>
        <time>2016-05-12T13:13:41Z</time>
      </trkpt>
      <trkpt lat="43.33985" lon="5.20142">
        <ele>84</ele>
        <time>2016-05-12T13:13:42Z</time>
      </trkpt>
      <trkpt lat="43.33984" lon="5.20139">
        <ele>84</ele>
        <time>2016-05-12T13:13:44Z</time>
      </trkpt>
      <trkpt lat="43.33984" lon="5.20137">
        <ele>84</ele>
        <time>2016-05-12T13:13:46Z</time>
      </trkpt>
      <trkpt lat="43.33984" lon="5.20134">
        <ele>84</ele>
        <time>2016-05-12T13:13:48Z</time>
      </trkpt>
      <trkpt lat="43.33983" lon="5.20132">
        <ele>84</ele>
        <time>2016-05-12T13:13:50Z</time>
      </trkpt>
      <trkpt lat="43.33983" lon="5.20129">
        <ele>84</ele>
        <time>2016-05-12T13:13:52Z</time>
      </trkpt>
      <trkpt lat="43.33984" lon="5.20127">
        <ele>84</ele>
        <time>2016-05-12T13:13:54Z</time>
      </trkpt>
      <trkpt lat="43.33984" lon="5.20124">
        <ele>85</ele>
        <time>2016-05-12T13:13:56Z</time>
      </trkpt>
      <trkpt lat="43.33984" lon="5.20123">
        <ele>85</ele>
        <time>2016-05-12T13:13:57Z</time>
      </trkpt>
      <trkpt lat="43.33983" lon="5.20121">
        <ele>85</ele>
        <time>2016-05-12T13:13:58Z</time>
      </trkpt>
      <trkpt lat="43.33983" lon="5.2012">
        <ele>85</ele>
        <time>2016-05-12T13:13:59Z</time>
      </trkpt>
      <trkpt lat="43.33983" lon="5.20118">
        <ele>85</ele>
        <time>2016-05-12T13:14:00Z</time>
      </trkpt>
      <trkpt lat="43.33982" lon="5.20117">
        <ele>85</ele>
        <time>2016-05-12T13:14:01Z</time>
      </trkpt>
      <trkpt lat="43.33982" lon="5.20115">
        <ele>85</ele>
        <time>2016-05-12T13:14:02Z</time>
      </trkpt>
      <trkpt lat="43.33982" lon="5.20114">
        <ele>85</ele>
        <time>2016-05-12T13:14:03Z</time>
      </trkpt>
      <trkpt lat="43.33982" lon="5.20111">
        <ele>85</ele>
        <time>2016-05-12T13:14:05Z</time>
      </trkpt>
      <trkpt lat="43.33982" lon="5.20109">
        <ele>85</ele>
        <time>2016-05-12T13:14:07Z</time>
      </trkpt>
      <trkpt lat="43.33983" lon="5.20107">
        <ele>85</ele>
        <time>2016-05-12T13:14:09Z</time>
      </trkpt>
      <trkpt lat="43.33984" lon="5.20105">
        <ele>86</ele>
        <time>2016-05-12T13:14:11Z</time>
      </trkpt>
      <trkpt lat="43.33985" lon="5.20104">
        <ele>86</ele>
        <time>2016-05-12T13:14:13Z</time>
      </trkpt>
      <trkpt lat="43.33986" lon="5.20101">
        <ele>87</ele>
        <time>2016-05-12T13:14:15Z</time>
      </trkpt>
      <trkpt lat="43.33987" lon="5.201">
        <ele>87</ele>
        <time>2016-05-12T13:14:17Z</time>
      </trkpt>
      <trkpt lat="43.33989" lon="5.20098">
        <ele>87</ele>
        <time>2016-05-12T13:14:19Z</time>
      </trkpt>
      <trkpt lat="43.3399" lon="5.20096">
        <ele>88</ele>
        <time>2016-05-12T13:14:21Z</time>
      </trkpt>
      <trkpt lat="43.33991" lon="5.20094">
        <ele>88</ele>
        <time>2016-05-12T13:14:23Z</time>
      </trkpt>
      <trkpt lat="43.33992" lon="5.20092">
        <ele>88</ele>
        <time>2016-05-12T13:14:25Z</time>
      </trkpt>
      <trkpt lat="43.33994" lon="5.2009">
        <ele>88</ele>
        <time>2016-05-12T13:14:27Z</time>
      </trkpt>
      <trkpt lat="43.33995" lon="5.20087">
        <ele>88</ele>
        <time>2016-05-12T13:14:29Z</time>
      </trkpt>
      <trkpt lat="43.33995" lon="5.20085">
        <ele>88</ele>
        <time>2016-05-12T13:14:31Z</time>
      </trkpt>
      <trkpt lat="43.33995" lon="5.20084">
        <ele>88</ele>
        <time>2016-05-12T13:14:32Z</time>
      </trkpt>
      <trkpt lat="43.33996" lon="5.20082">
        <ele>88</ele>
        <time>2016-05-12T13:14:33Z</time>
      </trkpt>
      <trkpt lat="43.33996" lon="5.20081">
        <ele>88</ele>
        <time>2016-05-12T13:14:34Z</time>
      </trkpt>
      <trkpt lat="43.33996" lon="5.20079">
        <ele>88</ele>
        <time>2016-05-12T13:14:35Z</time>
      </trkpt>
      <trkpt lat="43.33996" lon="5.20078">
        <ele>88</ele>
        <time>2016-05-12T13:14:36Z</time>
      </trkpt>
      <trkpt lat="43.33997" lon="5.20075">
        <ele>88</ele>
        <time>2016-05-12T13:14:38Z</time>
      </trkpt>
      <trkpt lat="43.33997" lon="5.20074">
        <ele>88</ele>
        <time>2016-05-12T13:14:39Z</time>
      </trkpt>
      <trkpt lat="43.33997" lon="5.20072">
        <ele>88</ele>
        <time>2016-05-12T13:14:40Z</time>
      </trkpt>
      <trkpt lat="43.33997" lon="5.20071">
        <ele>89</ele>
        <time>2016-05-12T13:14:41Z</time>
      </trkpt>
      <trkpt lat="43.33998" lon="5.20069">
        <ele>89</ele>
        <time>2016-05-12T13:14:42Z</time>
      </trkpt>
      <trkpt lat="43.33998" lon="5.20068">
        <ele>89</ele>
        <time>2016-05-12T13:14:43Z</time>
      </trkpt>
      <trkpt lat="43.33998" lon="5.20066">
        <ele>89</ele>
        <time>2016-05-12T13:14:44Z</time>
      </trkpt>
      <trkpt lat="43.33998" lon="5.20064">
        <ele>89</ele>
        <time>2016-05-12T13:14:45Z</time>
      </trkpt>
      <trkpt lat="43.33998" lon="5.20063">
        <ele>89</ele>
        <time>2016-05-12T13:14:46Z</time>
      </trkpt>
      <trkpt lat="43.33998" lon="5.20061">
        <ele>89</ele>
        <time>2016-05-12T13:14:47Z</time>
      </trkpt>
      <trkpt lat="43.33998" lon="5.20059">
        <ele>90</ele>
        <time>2016-05-12T13:14:48Z</time>
      </trkpt>
      <trkpt lat="43.33998" lon="5.20058">
        <ele>90</ele>
        <time>2016-05-12T13:14:49Z</time>
      </trkpt>
      <trkpt lat="43.33997" lon="5.20056">
        <ele>90</ele>
        <time>2016-05-12T13:14:50Z</time>
      </trkpt>
      <trkpt lat="43.33997" lon="5.20054">
        <ele>90</ele>
        <time>2016-05-12T13:14:51Z</time>
      </trkpt>
      <trkpt lat="43.33997" lon="5.20053">
        <ele>91</ele>
        <time>2016-05-12T13:14:52Z</time>
      </trkpt>
      <trkpt lat="43.33997" lon="5.20051">
        <ele>91</ele>
        <time>2016-05-12T13:14:53Z</time>
      </trkpt>
      <trkpt lat="43.33997" lon="5.20049">
        <ele>91</ele>
        <time>2016-05-12T13:14:54Z</time>
      </trkpt>
      <trkpt lat="43.33996" lon="5.20048">
        <ele>91</ele>
        <time>2016-05-12T13:14:55Z</time>
      </trkpt>
      <trkpt lat="43.33996" lon="5.20046">
        <ele>92</ele>
        <time>2016-05-12T13:14:56Z</time>
      </trkpt>
      <trkpt lat="43.33995" lon="5.20044">
        <ele>92</ele>
        <time>2016-05-12T13:14:57Z</time>
      </trkpt>
      <trkpt lat="43.33994" lon="5.20042">
        <ele>92</ele>
        <time>2016-05-12T13:14:58Z</time>
      </trkpt>
      <trkpt lat="43.33994" lon="5.20041">
        <ele>93</ele>
        <time>2016-05-12T13:14:59Z</time>
      </trkpt>
      <trkpt lat="43.33993" lon="5.20039">
        <ele>93</ele>
        <time>2016-05-12T13:15:00Z</time>
      </trkpt>
      <trkpt lat="43.33993" lon="5.20037">
        <ele>93</ele>
        <time>2016-05-12T13:15:01Z</time>
      </trkpt>
      <trkpt lat="43.33993" lon="5.20035">
        <ele>93</ele>
        <time>2016-05-12T13:15:02Z</time>
      </trkpt>
      <trkpt lat="43.33993" lon="5.20033">
        <ele>93</ele>
        <time>2016-05-12T13:15:03Z</time>
      </trkpt>
      <trkpt lat="43.33992" lon="5.20032">
        <ele>93</ele>
        <time>2016-05-12T13:15:04Z</time>
      </trkpt>
      <trkpt lat="43.33992" lon="5.2003">
        <ele>93</ele>
        <time>2016-05-12T13:15:05Z</time>
      </trkpt>
      <trkpt lat="43.33991" lon="5.20028">
        <ele>93</ele>
        <time>2016-05-12T13:15:06Z</time>
      </trkpt>
      <trkpt lat="43.3399" lon="5.20027">
        <ele>93</ele>
        <time>2016-05-12T13:15:07Z</time>
      </trkpt>
      <trkpt lat="43.33991" lon="5.20025">
        <ele>93</ele>
        <time>2016-05-12T13:15:08Z</time>
      </trkpt>
      <trkpt lat="43.33991" lon="5.20023">
        <ele>93</ele>
        <time>2016-05-12T13:15:09Z</time>
      </trkpt>
      <trkpt lat="43.3399" lon="5.20022">
        <ele>93</ele>
        <time>2016-05-12T13:15:10Z</time>
      </trkpt>
      <trkpt lat="43.3399" lon="5.2002">
        <ele>93</ele>
        <time>2016-05-12T13:15:11Z</time>
      </trkpt>
      <trkpt lat="43.3399" lon="5.20018">
        <ele>94</ele>
        <time>2016-05-12T13:15:12Z</time>
      </trkpt>
      <trkpt lat="43.3399" lon="5.20016">
        <ele>94</ele>
        <time>2016-05-12T13:15:13Z</time>
      </trkpt>
      <trkpt lat="43.33991" lon="5.20015">
        <ele>94</ele>
        <time>2016-05-12T13:15:14Z</time>
      </trkpt>
      <trkpt lat="43.33991" lon="5.20013">
        <ele>94</ele>
        <time>2016-05-12T13:15:15Z</time>
      </trkpt>
      <trkpt lat="43.33991" lon="5.20012">
        <ele>94</ele>
        <time>2016-05-12T13:15:16Z</time>
      </trkpt>
      <trkpt lat="43.33991" lon="5.2001">
        <ele>94</ele>
        <time>2016-05-12T13:15:17Z</time>
      </trkpt>
      <trkpt lat="43.33991" lon="5.20008">
        <ele>95</ele>
        <time>2016-05-12T13:15:18Z</time>
      </trkpt>
      <trkpt lat="43.33991" lon="5.20007">
        <ele>95</ele>
        <time>2016-05-12T13:15:19Z</time>
      </trkpt>
      <trkpt lat="43.33991" lon="5.20005">
        <ele>95</ele>
        <time>2016-05-12T13:15:20Z</time>
      </trkpt>
      <trkpt lat="43.33991" lon="5.20004">
        <ele>95</ele>
        <time>2016-05-12T13:15:21Z</time>
      </trkpt>
      <trkpt lat="43.33991" lon="5.20002">
        <ele>95</ele>
        <time>2016-05-12T13:15:22Z</time>
      </trkpt>
      <trkpt lat="43.33991" lon="5.2">
        <ele>95</ele>
        <time>2016-05-12T13:15:23Z</time>
      </trkpt>
      <trkpt lat="43.33991" lon="5.19999">
        <ele>95</ele>
        <time>2016-05-12T13:15:24Z</time>
      </trkpt>
      <trkpt lat="43.33992" lon="5.19997">
        <ele>95</ele>
        <time>2016-05-12T13:15:25Z</time>
      </trkpt>
      <trkpt lat="43.33992" lon="5.19995">
        <ele>95</ele>
        <time>2016-05-12T13:15:26Z</time>
      </trkpt>
      <trkpt lat="43.33992" lon="5.19994">
        <ele>96</ele>
        <time>2016-05-12T13:15:27Z</time>
      </trkpt>
      <trkpt lat="43.33993" lon="5.19992">
        <ele>96</ele>
        <time>2016-05-12T13:15:28Z</time>
      </trkpt>
      <trkpt lat="43.33993" lon="5.19991">
        <ele>96</ele>
        <time>2016-05-12T13:15:29Z</time>
      </trkpt>
      <trkpt lat="43.33993" lon="5.19989">
        <ele>96</ele>
        <time>2016-05-12T13:15:30Z</time>
      </trkpt>
      <trkpt lat="43.33994" lon="5.19987">
        <ele>96</ele>
        <time>2016-05-12T13:15:31Z</time>
      </trkpt>
      <trkpt lat="43.33994" lon="5.19986">
        <ele>96</ele>
        <time>2016-05-12T13:15:32Z</time>
      </trkpt>
      <trkpt lat="43.33994" lon="5.19984">
        <ele>96</ele>
        <time>2016-05-12T13:15:33Z</time>
      </trkpt>
      <trkpt lat="43.33994" lon="5.19982">
        <ele>96</ele>
        <time>2016-05-12T13:15:34Z</time>
      </trkpt>
      <trkpt lat="43.33994" lon="5.1998">
        <ele>96</ele>
        <time>2016-05-12T13:15:35Z</time>
      </trkpt>
      <trkpt lat="43.33994" lon="5.19979">
        <ele>96</ele>
        <time>2016-05-12T13:15:36Z</time>
      </trkpt>
      <trkpt lat="43.33994" lon="5.19977">
        <ele>96</ele>
        <time>2016-05-12T13:15:37Z</time>
      </trkpt>
      <trkpt lat="43.33994" lon="5.19975">
        <ele>96</ele>
        <time>2016-05-12T13:15:38Z</time>
      </trkpt>
      <trkpt lat="43.33994" lon="5.19974">
        <ele>96</ele>
        <time>2016-05-12T13:15:39Z</time>
      </trkpt>
      <trkpt lat="43.33994" lon="5.19972">
        <ele>96</ele>
        <time>2016-05-12T13:15:40Z</time>
      </trkpt>
      <trkpt lat="43.33993" lon="5.1997">
        <ele>96</ele>
        <time>2016-05-12T13:15:41Z</time>
      </trkpt>
      <trkpt lat="43.33993" lon="5.19969">
        <ele>96</ele>
        <time>2016-05-12T13:15:42Z</time>
      </trkpt>
      <trkpt lat="43.33993" lon="5.19967">
        <ele>96</ele>
        <time>2016-05-12T13:15:43Z</time>
      </trkpt>
      <trkpt lat="43.33994" lon="5.19965">
        <ele>96</ele>
        <time>2016-05-12T13:15:44Z</time>
      </trkpt>
      <trkpt lat="43.33994" lon="5.19964">
        <ele>96</ele>
        <time>2016-05-12T13:15:45Z</time>
      </trkpt>
      <trkpt lat="43.33994" lon="5.19962">
        <ele>96</ele>
        <time>2016-05-12T13:15:46Z</time>
      </trkpt>
      <trkpt lat="43.33995" lon="5.19961">
        <ele>96</ele>
        <time>2016-05-12T13:15:47Z</time>
      </trkpt>
      <trkpt lat="43.33995" lon="5.19959">
        <ele>96</ele>
        <time>2016-05-12T13:15:48Z</time>
      </trkpt>
      <trkpt lat="43.33995" lon="5.19957">
        <ele>96</ele>
        <time>2016-05-12T13:15:49Z</time>
      </trkpt>
      <trkpt lat="43.33995" lon="5.19956">
        <ele>96</ele>
        <time>2016-05-12T13:15:50Z</time>
      </trkpt>
      <trkpt lat="43.33995" lon="5.19954">
        <ele>96</ele>
        <time>2016-05-12T13:15:51Z</time>
      </trkpt>
      <trkpt lat="43.33995" lon="5.19952">
        <ele>96</ele>
        <time>2016-05-12T13:15:52Z</time>
      </trkpt>
      <trkpt lat="43.33995" lon="5.19951">
        <ele>96</ele>
        <time>2016-05-12T13:15:53Z</time>
      </trkpt>
      <trkpt lat="43.33995" lon="5.19949">
        <ele>97</ele>
        <time>2016-05-12T13:15:54Z</time>
      </trkpt>
      <trkpt lat="43.33995" lon="5.19947">
        <ele>97</ele>
        <time>2016-05-12T13:15:55Z</time>
      </trkpt>
      <trkpt lat="43.33995" lon="5.19946">
        <ele>97</ele>
        <time>2016-05-12T13:15:56Z</time>
      </trkpt>
      <trkpt lat="43.33994" lon="5.19944">
        <ele>98</ele>
        <time>2016-05-12T13:15:57Z</time>
      </trkpt>
      <trkpt lat="43.33994" lon="5.19943">
        <ele>98</ele>
        <time>2016-05-12T13:15:58Z</time>
      </trkpt>
      <trkpt lat="43.33994" lon="5.19941">
        <ele>98</ele>
        <time>2016-05-12T13:15:59Z</time>
      </trkpt>
      <trkpt lat="43.33994" lon="5.1994">
        <ele>98</ele>
        <time>2016-05-12T13:16:00Z</time>
      </trkpt>
      <trkpt lat="43.33994" lon="5.19937">
        <ele>98</ele>
        <time>2016-05-12T13:16:02Z</time>
      </trkpt>
      <trkpt lat="43.33994" lon="5.19936">
        <ele>98</ele>
        <time>2016-05-12T13:16:03Z</time>
      </trkpt>
      <trkpt lat="43.33994" lon="5.19933">
        <ele>98</ele>
        <time>2016-05-12T13:16:05Z</time>
      </trkpt>
      <trkpt lat="43.33993" lon="5.19932">
        <ele>98</ele>
        <time>2016-05-12T13:16:06Z</time>
      </trkpt>
      <trkpt lat="43.33993" lon="5.1993">
        <ele>98</ele>
        <time>2016-05-12T13:16:07Z</time>
      </trkpt>
      <trkpt lat="43.33993" lon="5.19928">
        <ele>98</ele>
        <time>2016-05-12T13:16:08Z</time>
      </trkpt>
      <trkpt lat="43.33993" lon="5.19926">
        <ele>98</ele>
        <time>2016-05-12T13:16:10Z</time>
      </trkpt>
      <trkpt lat="43.33993" lon="5.19924">
        <ele>99</ele>
        <time>2016-05-12T13:16:12Z</time>
      </trkpt>
      <trkpt lat="43.33992" lon="5.19922">
        <ele>99</ele>
        <time>2016-05-12T13:16:16Z</time>
      </trkpt>
      <trkpt lat="43.3399" lon="5.1992">
        <ele>100</ele>
        <time>2016-05-12T13:16:18Z</time>
      </trkpt>
      <trkpt lat="43.33988" lon="5.19918">
        <ele>100</ele>
        <time>2016-05-12T13:16:20Z</time>
      </trkpt>
      <trkpt lat="43.33987" lon="5.19915">
        <ele>100</ele>
        <time>2016-05-12T13:16:22Z</time>
      </trkpt>
      <trkpt lat="43.33986" lon="5.19913">
        <ele>100</ele>
        <time>2016-05-12T13:16:23Z</time>
      </trkpt>
      <trkpt lat="43.33985" lon="5.19911">
        <ele>100</ele>
        <time>2016-05-12T13:16:25Z</time>
      </trkpt>
      <trkpt lat="43.33985" lon="5.19909">
        <ele>100</ele>
        <time>2016-05-12T13:16:26Z</time>
      </trkpt>
      <trkpt lat="43.33984" lon="5.19906">
        <ele>101</ele>
        <time>2016-05-12T13:16:28Z</time>
      </trkpt>
      <trkpt lat="43.33983" lon="5.19904">
        <ele>101</ele>
        <time>2016-05-12T13:16:30Z</time>
      </trkpt>
      <trkpt lat="43.33982" lon="5.19902">
        <ele>101</ele>
        <time>2016-05-12T13:16:31Z</time>
      </trkpt>
      <trkpt lat="43.3398" lon="5.19899">
        <ele>101</ele>
        <time>2016-05-12T13:16:33Z</time>
      </trkpt>
      <trkpt lat="43.33979" lon="5.19898">
        <ele>101</ele>
        <time>2016-05-12T13:16:34Z</time>
      </trkpt>
      <trkpt lat="43.33977" lon="5.19896">
        <ele>101</ele>
        <time>2016-05-12T13:16:36Z</time>
      </trkpt>
      <trkpt lat="43.33976" lon="5.19895">
        <ele>101</ele>
        <time>2016-05-12T13:16:37Z</time>
      </trkpt>
      <trkpt lat="43.33973" lon="5.19894">
        <ele>101</ele>
        <time>2016-05-12T13:16:39Z</time>
      </trkpt>
      <trkpt lat="43.33972" lon="5.19894">
        <ele>101</ele>
        <time>2016-05-12T13:16:40Z</time>
      </trkpt>
      <trkpt lat="43.33971" lon="5.19893">
        <ele>101</ele>
        <time>2016-05-12T13:16:41Z</time>
      </trkpt>
      <trkpt lat="43.33969" lon="5.19893">
        <ele>101</ele>
        <time>2016-05-12T13:16:42Z</time>
      </trkpt>
      <trkpt lat="43.33968" lon="5.19893">
        <ele>101</ele>
        <time>2016-05-12T13:16:43Z</time>
      </trkpt>
      <trkpt lat="43.33966" lon="5.19892">
        <ele>101</ele>
        <time>2016-05-12T13:16:45Z</time>
      </trkpt>
      <trkpt lat="43.33965" lon="5.19891">
        <ele>101</ele>
        <time>2016-05-12T13:16:46Z</time>
      </trkpt>
      <trkpt lat="43.33964" lon="5.19891">
        <ele>101</ele>
        <time>2016-05-12T13:16:47Z</time>
      </trkpt>
      <trkpt lat="43.33961" lon="5.1989">
        <ele>101</ele>
        <time>2016-05-12T13:16:49Z</time>
      </trkpt>
      <trkpt lat="43.3396" lon="5.1989">
        <ele>101</ele>
        <time>2016-05-12T13:16:50Z</time>
      </trkpt>
      <trkpt lat="43.33959" lon="5.1989">
        <ele>101</ele>
        <time>2016-05-12T13:16:51Z</time>
      </trkpt>
      <trkpt lat="43.33958" lon="5.1989">
        <ele>101</ele>
        <time>2016-05-12T13:16:52Z</time>
      </trkpt>
      <trkpt lat="43.33956" lon="5.19889">
        <ele>101</ele>
        <time>2016-05-12T13:16:53Z</time>
      </trkpt>
      <trkpt lat="43.33955" lon="5.19889">
        <ele>101</ele>
        <time>2016-05-12T13:16:54Z</time>
      </trkpt>
      <trkpt lat="43.33954" lon="5.19888">
        <ele>101</ele>
        <time>2016-05-12T13:16:55Z</time>
      </trkpt>
      <trkpt lat="43.33952" lon="5.19889">
        <ele>101</ele>
        <time>2016-05-12T13:16:56Z</time>
      </trkpt>
      <trkpt lat="43.3395" lon="5.19887">
        <ele>101</ele>
        <time>2016-05-12T13:16:58Z</time>
      </trkpt>
      <trkpt lat="43.33949" lon="5.19886">
        <ele>101</ele>
        <time>2016-05-12T13:17:00Z</time>
      </trkpt>
      <trkpt lat="43.33947" lon="5.19886">
        <ele>101</ele>
        <time>2016-05-12T13:17:01Z</time>
      </trkpt>
      <trkpt lat="43.33945" lon="5.19886">
        <ele>101</ele>
        <time>2016-05-12T13:17:04Z</time>
      </trkpt>
      <trkpt lat="43.33944" lon="5.19886">
        <ele>101</ele>
        <time>2016-05-12T13:17:06Z</time>
      </trkpt>
      <trkpt lat="43.33942" lon="5.19886">
        <ele>101</ele>
        <time>2016-05-12T13:17:07Z</time>
      </trkpt>
      <trkpt lat="43.33941" lon="5.19885">
        <ele>101</ele>
        <time>2016-05-12T13:17:08Z</time>
      </trkpt>
      <trkpt lat="43.3394" lon="5.19885">
        <ele>101</ele>
        <time>2016-05-12T13:17:09Z</time>
      </trkpt>
      <trkpt lat="43.33939" lon="5.19884">
        <ele>102</ele>
        <time>2016-05-12T13:17:10Z</time>
      </trkpt>
      <trkpt lat="43.33937" lon="5.19884">
        <ele>103</ele>
        <time>2016-05-12T13:17:12Z</time>
      </trkpt>
      <trkpt lat="43.33936" lon="5.19886">
        <ele>105</ele>
        <time>2016-05-12T13:17:39Z</time>
      </trkpt>
      <trkpt lat="43.33936" lon="5.19884">
        <ele>111</ele>
        <time>2016-05-12T13:19:03Z</time>
      </trkpt>
      <trkpt lat="43.33937" lon="5.19883">
        <ele>111</ele>
        <time>2016-05-12T13:19:17Z</time>
      </trkpt>
      <trkpt lat="43.33935" lon="5.19884">
        <ele>111</ele>
        <time>2016-05-12T13:19:45Z</time>
      </trkpt>
      <trkpt lat="43.33934" lon="5.19883">
        <ele>111</ele>
        <time>2016-05-12T13:19:47Z</time>
      </trkpt>
      <trkpt lat="43.33934" lon="5.19881">
        <ele>111</ele>
        <time>2016-05-12T13:19:49Z</time>
      </trkpt>
      <trkpt lat="43.33933" lon="5.1988">
        <ele>111</ele>
        <time>2016-05-12T13:19:51Z</time>
      </trkpt>
      <trkpt lat="43.33932" lon="5.19878">
        <ele>111</ele>
        <time>2016-05-12T13:19:53Z</time>
      </trkpt>
      <trkpt lat="43.33931" lon="5.19876">
        <ele>111</ele>
        <time>2016-05-12T13:19:55Z</time>
      </trkpt>
      <trkpt lat="43.33931" lon="5.19874">
        <ele>111</ele>
        <time>2016-05-12T13:19:57Z</time>
      </trkpt>
      <trkpt lat="43.33929" lon="5.19873">
        <ele>111</ele>
        <time>2016-05-12T13:20:00Z</time>
      </trkpt>
      <trkpt lat="43.33927" lon="5.19871">
        <ele>111</ele>
        <time>2016-05-12T13:20:03Z</time>
      </trkpt>
      <trkpt lat="43.33926" lon="5.19871">
        <ele>111</ele>
        <time>2016-05-12T13:20:05Z</time>
      </trkpt>
      <trkpt lat="43.33924" lon="5.1987">
        <ele>111</ele>
        <time>2016-05-12T13:20:07Z</time>
      </trkpt>
      <trkpt lat="43.33923" lon="5.19869">
        <ele>111</ele>
        <time>2016-05-12T13:20:09Z</time>
      </trkpt>
      <trkpt lat="43.33921" lon="5.19867">
        <ele>111</ele>
        <time>2016-05-12T13:20:11Z</time>
      </trkpt>
      <trkpt lat="43.3392" lon="5.19866">
        <ele>111</ele>
        <time>2016-05-12T13:20:13Z</time>
      </trkpt>
      <trkpt lat="43.33918" lon="5.19864">
        <ele>111</ele>
        <time>2016-05-12T13:20:15Z</time>
      </trkpt>
      <trkpt lat="43.33916" lon="5.19863">
        <ele>111</ele>
        <time>2016-05-12T13:20:17Z</time>
      </trkpt>
      <trkpt lat="43.33915" lon="5.19863">
        <ele>111</ele>
        <time>2016-05-12T13:20:18Z</time>
      </trkpt>
      <trkpt lat="43.33913" lon="5.19861">
        <ele>111</ele>
        <time>2016-05-12T13:20:20Z</time>
      </trkpt>
      <trkpt lat="43.3391" lon="5.19859">
        <ele>111</ele>
        <time>2016-05-12T13:20:22Z</time>
      </trkpt>
      <trkpt lat="43.33909" lon="5.19859">
        <ele>111</ele>
        <time>2016-05-12T13:20:23Z</time>
      </trkpt>
      <trkpt lat="43.33908" lon="5.19858">
        <ele>111</ele>
        <time>2016-05-12T13:20:24Z</time>
      </trkpt>
      <trkpt lat="43.33906" lon="5.19857">
        <ele>111</ele>
        <time>2016-05-12T13:20:25Z</time>
      </trkpt>
      <trkpt lat="43.33905" lon="5.19857">
        <ele>111</ele>
        <time>2016-05-12T13:20:26Z</time>
      </trkpt>
      <trkpt lat="43.33904" lon="5.19857">
        <ele>111</ele>
        <time>2016-05-12T13:20:27Z</time>
      </trkpt>
      <trkpt lat="43.33902" lon="5.19856">
        <ele>111</ele>
        <time>2016-05-12T13:20:28Z</time>
      </trkpt>
      <trkpt lat="43.339" lon="5.19854">
        <ele>110</ele>
        <time>2016-05-12T13:20:30Z</time>
      </trkpt>
      <trkpt lat="43.33899" lon="5.19854">
        <ele>109</ele>
        <time>2016-05-12T13:20:31Z</time>
      </trkpt>
      <trkpt lat="43.33898" lon="5.19853">
        <ele>108</ele>
        <time>2016-05-12T13:20:32Z</time>
      </trkpt>
      <trkpt lat="43.33896" lon="5.19853">
        <ele>108</ele>
        <time>2016-05-12T13:20:33Z</time>
      </trkpt>
      <trkpt lat="43.33895" lon="5.19853">
        <ele>108</ele>
        <time>2016-05-12T13:20:34Z</time>
      </trkpt>
      <trkpt lat="43.33894" lon="5.19852">
        <ele>108</ele>
        <time>2016-05-12T13:20:35Z</time>
      </trkpt>
      <trkpt lat="43.33892" lon="5.19852">
        <ele>108</ele>
        <time>2016-05-12T13:20:36Z</time>
      </trkpt>
      <trkpt lat="43.33891" lon="5.19852">
        <ele>107</ele>
        <time>2016-05-12T13:20:37Z</time>
      </trkpt>
      <trkpt lat="43.3389" lon="5.19852">
        <ele>107</ele>
        <time>2016-05-12T13:20:38Z</time>
      </trkpt>
      <trkpt lat="43.33888" lon="5.19851">
        <ele>107</ele>
        <time>2016-05-12T13:20:39Z</time>
      </trkpt>
      <trkpt lat="43.33887" lon="5.1985">
        <ele>107</ele>
        <time>2016-05-12T13:20:40Z</time>
      </trkpt>
      <trkpt lat="43.33886" lon="5.1985">
        <ele>106</ele>
        <time>2016-05-12T13:20:41Z</time>
      </trkpt>
      <trkpt lat="43.33884" lon="5.19849">
        <ele>106</ele>
        <time>2016-05-12T13:20:42Z</time>
      </trkpt>
      <trkpt lat="43.33883" lon="5.19849">
        <ele>106</ele>
        <time>2016-05-12T13:20:43Z</time>
      </trkpt>
      <trkpt lat="43.33882" lon="5.19849">
        <ele>106</ele>
        <time>2016-05-12T13:20:44Z</time>
      </trkpt>
      <trkpt lat="43.3388" lon="5.19849">
        <ele>105</ele>
        <time>2016-05-12T13:20:45Z</time>
      </trkpt>
      <trkpt lat="43.33879" lon="5.19848">
        <ele>105</ele>
        <time>2016-05-12T13:20:46Z</time>
      </trkpt>
      <trkpt lat="43.33877" lon="5.19848">
        <ele>104</ele>
        <time>2016-05-12T13:20:48Z</time>
      </trkpt>
      <trkpt lat="43.33874" lon="5.19848">
        <ele>103</ele>
        <time>2016-05-12T13:20:50Z</time>
      </trkpt>
      <trkpt lat="43.33872" lon="5.19847">
        <ele>102</ele>
        <time>2016-05-12T13:20:51Z</time>
      </trkpt>
      <trkpt lat="43.3387" lon="5.19847">
        <ele>101</ele>
        <time>2016-05-12T13:20:52Z</time>
      </trkpt>
      <trkpt lat="43.33869" lon="5.19847">
        <ele>100</ele>
        <time>2016-05-12T13:20:53Z</time>
      </trkpt>
      <trkpt lat="43.33869" lon="5.19847">
        <ele>100</ele>
        <time>2016-05-12T13:20:54Z</time>
      </trkpt>
    </trkseg>
  </trk>
</gpx>